<?xml version="1.0" encoding="UTF-8" standalone="no" ?>
<gpx xmlns="http://www.topografix.com/GPX/1/1" xmlns:xsi="http://www.w3.org/2001/XMLSchema-instance" xsi:schemaLocation="http://www.topografix.com/GPX/1/1 http://www.topografix.com/GPX/1/1/gpx.xsd" version="1.1" creator="VisuGPX - https://www.visugpx.com">
  <metadata>
    <name>Sortie Pech David 14/09/2013</name>
    <desc><![CDATA[sortie ovs]]></desc>
  </metadata>
  <trk>
    <name><![CDATA[SportyPalTrack]]></name>
    <desc><![CDATA[The track description]]></desc>
    <trkseg>
      <trkpt lat="43.59477" lon="1.45596">
        <ele>220.30000305176</ele>
        <time>2013-09-14T08:15:24Z</time>
      </trkpt>
      <trkpt lat="43.59477" lon="1.45596">
        <ele>219.97500228882</ele>
        <time>2013-09-14T08:15:29Z</time>
      </trkpt>
      <trkpt lat="43.59477" lon="1.45596">
        <ele>219.72499847412</ele>
        <time>2013-09-14T08:15:32Z</time>
      </trkpt>
      <trkpt lat="43.59476" lon="1.45596">
        <ele>219.93333435059</ele>
        <time>2013-09-14T08:15:35Z</time>
      </trkpt>
      <trkpt lat="43.59476" lon="1.45596">
        <ele>220.375</ele>
        <time>2013-09-14T08:15:40Z</time>
      </trkpt>
      <trkpt lat="43.59476" lon="1.45596">
        <ele>220.67500305176</ele>
        <time>2013-09-14T08:15:43Z</time>
      </trkpt>
      <trkpt lat="43.59473" lon="1.45603">
        <ele>234.29999923706</ele>
        <time>2013-09-14T08:15:47Z</time>
      </trkpt>
      <trkpt lat="43.5947" lon="1.45605">
        <ele>237.27500152588</ele>
        <time>2013-09-14T08:15:51Z</time>
      </trkpt>
      <trkpt lat="43.59472" lon="1.45605">
        <ele>235.72500228882</ele>
        <time>2013-09-14T08:15:55Z</time>
      </trkpt>
      <trkpt lat="43.59474" lon="1.45603">
        <ele>232.66666666667</ele>
        <time>2013-09-14T08:15:58Z</time>
      </trkpt>
      <trkpt lat="43.59474" lon="1.45603">
        <ele>232.625</ele>
        <time>2013-09-14T08:16:02Z</time>
      </trkpt>
      <trkpt lat="43.59474" lon="1.45602">
        <ele>232.5</ele>
        <time>2013-09-14T08:16:05Z</time>
      </trkpt>
      <trkpt lat="43.59474" lon="1.45602">
        <ele>232.39999389648</ele>
        <time>2013-09-14T08:16:08Z</time>
      </trkpt>
      <trkpt lat="43.59474" lon="1.45602">
        <ele>232.32500076294</ele>
        <time>2013-09-14T08:16:12Z</time>
      </trkpt>
      <trkpt lat="43.59474" lon="1.45602">
        <ele>232.23333740234</ele>
        <time>2013-09-14T08:16:15Z</time>
      </trkpt>
      <trkpt lat="43.59481" lon="1.45592">
        <ele>228.3750038147</ele>
        <time>2013-09-14T08:16:19Z</time>
      </trkpt>
      <trkpt lat="43.59483" lon="1.45584">
        <ele>223.72500228882</ele>
        <time>2013-09-14T08:16:23Z</time>
      </trkpt>
      <trkpt lat="43.59485" lon="1.45582">
        <ele>223.44999694824</ele>
        <time>2013-09-14T08:16:27Z</time>
      </trkpt>
      <trkpt lat="43.59486" lon="1.45582">
        <ele>222.89999389648</ele>
        <time>2013-09-14T08:16:30Z</time>
      </trkpt>
      <trkpt lat="43.59486" lon="1.45582">
        <ele>222.72499847412</ele>
        <time>2013-09-14T08:16:34Z</time>
      </trkpt>
      <trkpt lat="43.59486" lon="1.45582">
        <ele>222.27499771118</ele>
        <time>2013-09-14T08:16:38Z</time>
      </trkpt>
      <trkpt lat="43.59486" lon="1.45582">
        <ele>222.33333333333</ele>
        <time>2013-09-14T08:16:41Z</time>
      </trkpt>
      <trkpt lat="43.59482" lon="1.45585">
        <ele>223.17499923706</ele>
        <time>2013-09-14T08:16:45Z</time>
      </trkpt>
      <trkpt lat="43.59476" lon="1.45589">
        <ele>226.53333536784</ele>
        <time>2013-09-14T08:16:48Z</time>
      </trkpt>
      <trkpt lat="43.59467" lon="1.45594">
        <ele>230.57499694824</ele>
        <time>2013-09-14T08:16:52Z</time>
      </trkpt>
      <trkpt lat="43.59458" lon="1.45595">
        <ele>221.23333231608</ele>
        <time>2013-09-14T08:16:55Z</time>
      </trkpt>
      <trkpt lat="43.59449" lon="1.45593">
        <ele>213.8749961853</ele>
        <time>2013-09-14T08:16:59Z</time>
      </trkpt>
      <trkpt lat="43.59441" lon="1.45591">
        <ele>211.47500228882</ele>
        <time>2013-09-14T08:17:03Z</time>
      </trkpt>
      <trkpt lat="43.59437" lon="1.45592">
        <ele>211.86666361491</ele>
        <time>2013-09-14T08:17:06Z</time>
      </trkpt>
      <trkpt lat="43.59431" lon="1.45599">
        <ele>211.97499847412</ele>
        <time>2013-09-14T08:17:10Z</time>
      </trkpt>
      <trkpt lat="43.59424" lon="1.45607">
        <ele>213.89999771118</ele>
        <time>2013-09-14T08:17:14Z</time>
      </trkpt>
      <trkpt lat="43.59417" lon="1.45618">
        <ele>216.15000152588</ele>
        <time>2013-09-14T08:17:18Z</time>
      </trkpt>
      <trkpt lat="43.59412" lon="1.45634">
        <ele>218.95000076294</ele>
        <time>2013-09-14T08:17:22Z</time>
      </trkpt>
      <trkpt lat="43.59397" lon="1.45652">
        <ele>217.70000076294</ele>
        <time>2013-09-14T08:17:26Z</time>
      </trkpt>
      <trkpt lat="43.59386" lon="1.45662">
        <ele>217.83333333333</ele>
        <time>2013-09-14T08:17:29Z</time>
      </trkpt>
      <trkpt lat="43.5938" lon="1.45669">
        <ele>217.93333435059</ele>
        <time>2013-09-14T08:17:32Z</time>
      </trkpt>
      <trkpt lat="43.59376" lon="1.45675">
        <ele>216.90000152588</ele>
        <time>2013-09-14T08:17:36Z</time>
      </trkpt>
      <trkpt lat="43.59374" lon="1.45684">
        <ele>217</ele>
        <time>2013-09-14T08:17:40Z</time>
      </trkpt>
      <trkpt lat="43.59376" lon="1.45696">
        <ele>216.86666870117</ele>
        <time>2013-09-14T08:17:43Z</time>
      </trkpt>
      <trkpt lat="43.59377" lon="1.4571">
        <ele>218.30000305176</ele>
        <time>2013-09-14T08:17:47Z</time>
      </trkpt>
      <trkpt lat="43.5936" lon="1.45725">
        <ele>218.93332926432</ele>
        <time>2013-09-14T08:17:50Z</time>
      </trkpt>
      <trkpt lat="43.59339" lon="1.4573">
        <ele>216.83332824707</ele>
        <time>2013-09-14T08:17:53Z</time>
      </trkpt>
      <trkpt lat="43.59324" lon="1.45735">
        <ele>216.23333231608</ele>
        <time>2013-09-14T08:17:56Z</time>
      </trkpt>
      <trkpt lat="43.59307" lon="1.45746">
        <ele>214.90000152588</ele>
        <time>2013-09-14T08:18:00Z</time>
      </trkpt>
      <trkpt lat="43.59287" lon="1.45764">
        <ele>214.57500076294</ele>
        <time>2013-09-14T08:18:04Z</time>
      </trkpt>
      <trkpt lat="43.59266" lon="1.45787">
        <ele>212.1249961853</ele>
        <time>2013-09-14T08:18:08Z</time>
      </trkpt>
      <trkpt lat="43.59243" lon="1.45809">
        <ele>212.92499542236</ele>
        <time>2013-09-14T08:18:12Z</time>
      </trkpt>
      <trkpt lat="43.5921" lon="1.45841">
        <ele>213.125</ele>
        <time>2013-09-14T08:18:16Z</time>
      </trkpt>
      <trkpt lat="43.59184" lon="1.45871">
        <ele>211.15000152588</ele>
        <time>2013-09-14T08:18:20Z</time>
      </trkpt>
      <trkpt lat="43.59164" lon="1.45893">
        <ele>210.32500457764</ele>
        <time>2013-09-14T08:18:24Z</time>
      </trkpt>
      <trkpt lat="43.59146" lon="1.45909">
        <ele>209.46666463216</ele>
        <time>2013-09-14T08:18:27Z</time>
      </trkpt>
      <trkpt lat="43.59127" lon="1.4592">
        <ele>210.40000152588</ele>
        <time>2013-09-14T08:18:31Z</time>
      </trkpt>
      <trkpt lat="43.59116" lon="1.45942">
        <ele>207.43332926432</ele>
        <time>2013-09-14T08:18:34Z</time>
      </trkpt>
      <trkpt lat="43.59101" lon="1.45957">
        <ele>205.90000152588</ele>
        <time>2013-09-14T08:18:38Z</time>
      </trkpt>
      <trkpt lat="43.5908" lon="1.45962">
        <ele>204.05000305176</ele>
        <time>2013-09-14T08:18:42Z</time>
      </trkpt>
      <trkpt lat="43.59063" lon="1.45966">
        <ele>204.92499923706</ele>
        <time>2013-09-14T08:18:46Z</time>
      </trkpt>
      <trkpt lat="43.5905" lon="1.45971">
        <ele>207.30000305176</ele>
        <time>2013-09-14T08:18:49Z</time>
      </trkpt>
      <trkpt lat="43.59036" lon="1.45975">
        <ele>206.70000076294</ele>
        <time>2013-09-14T08:18:54Z</time>
      </trkpt>
      <trkpt lat="43.5901" lon="1.45982">
        <ele>206.75</ele>
        <time>2013-09-14T08:18:58Z</time>
      </trkpt>
      <trkpt lat="43.58987" lon="1.45987">
        <ele>207.27499771118</ele>
        <time>2013-09-14T08:19:01Z</time>
      </trkpt>
      <trkpt lat="43.58967" lon="1.4599">
        <ele>207.34999847412</ele>
        <time>2013-09-14T08:19:05Z</time>
      </trkpt>
      <trkpt lat="43.58958" lon="1.45991">
        <ele>208.66666666667</ele>
        <time>2013-09-14T08:19:08Z</time>
      </trkpt>
      <trkpt lat="43.58954" lon="1.45991">
        <ele>210.97499847412</ele>
        <time>2013-09-14T08:19:12Z</time>
      </trkpt>
      <trkpt lat="43.58947" lon="1.45991">
        <ele>212.70000076294</ele>
        <time>2013-09-14T08:19:16Z</time>
      </trkpt>
      <trkpt lat="43.58937" lon="1.45993">
        <ele>214.55000305176</ele>
        <time>2013-09-14T08:19:19Z</time>
      </trkpt>
      <trkpt lat="43.58907" lon="1.46004">
        <ele>214.6666615804</ele>
        <time>2013-09-14T08:19:23Z</time>
      </trkpt>
      <trkpt lat="43.5886" lon="1.46005">
        <ele>214.19999694824</ele>
        <time>2013-09-14T08:19:26Z</time>
      </trkpt>
      <trkpt lat="43.58826" lon="1.46012">
        <ele>210.92499923706</ele>
        <time>2013-09-14T08:19:29Z</time>
      </trkpt>
      <trkpt lat="43.58805" lon="1.46021">
        <ele>208.83333333333</ele>
        <time>2013-09-14T08:19:34Z</time>
      </trkpt>
      <trkpt lat="43.58779" lon="1.46027">
        <ele>207.5200012207</ele>
        <time>2013-09-14T08:19:38Z</time>
      </trkpt>
      <trkpt lat="43.58755" lon="1.46029">
        <ele>207.43332926432</ele>
        <time>2013-09-14T08:19:41Z</time>
      </trkpt>
      <trkpt lat="43.58736" lon="1.46034">
        <ele>206.36666870117</ele>
        <time>2013-09-14T08:19:45Z</time>
      </trkpt>
      <trkpt lat="43.58715" lon="1.46042">
        <ele>205.125</ele>
        <time>2013-09-14T08:19:48Z</time>
      </trkpt>
      <trkpt lat="43.58697" lon="1.46046">
        <ele>204.82499694824</ele>
        <time>2013-09-14T08:19:52Z</time>
      </trkpt>
      <trkpt lat="43.58675" lon="1.46052">
        <ele>204.27500152588</ele>
        <time>2013-09-14T08:19:55Z</time>
      </trkpt>
      <trkpt lat="43.58658" lon="1.46061">
        <ele>202.59999847412</ele>
        <time>2013-09-14T08:19:59Z</time>
      </trkpt>
      <trkpt lat="43.58644" lon="1.46065">
        <ele>201.72499847412</ele>
        <time>2013-09-14T08:20:02Z</time>
      </trkpt>
      <trkpt lat="43.58624" lon="1.46072">
        <ele>201.53333536784</ele>
        <time>2013-09-14T08:20:05Z</time>
      </trkpt>
      <trkpt lat="43.58605" lon="1.46082">
        <ele>203.7499961853</ele>
        <time>2013-09-14T08:20:09Z</time>
      </trkpt>
      <trkpt lat="43.58585" lon="1.46091">
        <ele>203.93333435059</ele>
        <time>2013-09-14T08:20:12Z</time>
      </trkpt>
      <trkpt lat="43.58575" lon="1.46094">
        <ele>203.5</ele>
        <time>2013-09-14T08:20:15Z</time>
      </trkpt>
      <trkpt lat="43.5856" lon="1.461">
        <ele>203.54999923706</ele>
        <time>2013-09-14T08:20:19Z</time>
      </trkpt>
      <trkpt lat="43.58538" lon="1.46108">
        <ele>203.84999847412</ele>
        <time>2013-09-14T08:20:22Z</time>
      </trkpt>
      <trkpt lat="43.58518" lon="1.46115">
        <ele>204.03333028158</ele>
        <time>2013-09-14T08:20:26Z</time>
      </trkpt>
      <trkpt lat="43.58494" lon="1.46122">
        <ele>204.81999816895</ele>
        <time>2013-09-14T08:20:29Z</time>
      </trkpt>
      <trkpt lat="43.58469" lon="1.46135">
        <ele>204.53333536784</ele>
        <time>2013-09-14T08:20:34Z</time>
      </trkpt>
      <trkpt lat="43.58448" lon="1.46145">
        <ele>205.77499771118</ele>
        <time>2013-09-14T08:20:38Z</time>
      </trkpt>
      <trkpt lat="43.58424" lon="1.46151">
        <ele>204.875</ele>
        <time>2013-09-14T08:20:43Z</time>
      </trkpt>
      <trkpt lat="43.58401" lon="1.46158">
        <ele>203.64000244141</ele>
        <time>2013-09-14T08:20:47Z</time>
      </trkpt>
      <trkpt lat="43.58375" lon="1.46174">
        <ele>198.10000228882</ele>
        <time>2013-09-14T08:20:50Z</time>
      </trkpt>
      <trkpt lat="43.58358" lon="1.46183">
        <ele>197.69999694824</ele>
        <time>2013-09-14T08:20:53Z</time>
      </trkpt>
      <trkpt lat="43.5834" lon="1.46187">
        <ele>197.75</ele>
        <time>2013-09-14T08:20:57Z</time>
      </trkpt>
      <trkpt lat="43.58323" lon="1.4619">
        <ele>198.16666666667</ele>
        <time>2013-09-14T08:21:00Z</time>
      </trkpt>
      <trkpt lat="43.58306" lon="1.46197">
        <ele>198.52500152588</ele>
        <time>2013-09-14T08:21:04Z</time>
      </trkpt>
      <trkpt lat="43.58289" lon="1.46208">
        <ele>197.46666463216</ele>
        <time>2013-09-14T08:21:07Z</time>
      </trkpt>
      <trkpt lat="43.58274" lon="1.46223">
        <ele>196.36666870117</ele>
        <time>2013-09-14T08:21:10Z</time>
      </trkpt>
      <trkpt lat="43.58252" lon="1.46238">
        <ele>195.85000228882</ele>
        <time>2013-09-14T08:21:15Z</time>
      </trkpt>
      <trkpt lat="43.58231" lon="1.46252">
        <ele>194.95999755859</ele>
        <time>2013-09-14T08:21:19Z</time>
      </trkpt>
      <trkpt lat="43.58208" lon="1.46266">
        <ele>194.76666768392</ele>
        <time>2013-09-14T08:21:23Z</time>
      </trkpt>
      <trkpt lat="43.58188" lon="1.46277">
        <ele>195.52499771118</ele>
        <time>2013-09-14T08:21:26Z</time>
      </trkpt>
      <trkpt lat="43.58175" lon="1.46283">
        <ele>197.20000076294</ele>
        <time>2013-09-14T08:21:30Z</time>
      </trkpt>
      <trkpt lat="43.58162" lon="1.46294">
        <ele>199.90000406901</ele>
        <time>2013-09-14T08:21:33Z</time>
      </trkpt>
      <trkpt lat="43.58145" lon="1.463">
        <ele>199.69999694824</ele>
        <time>2013-09-14T08:21:36Z</time>
      </trkpt>
      <trkpt lat="43.58134" lon="1.46306">
        <ele>197.80000305176</ele>
        <time>2013-09-14T08:21:39Z</time>
      </trkpt>
      <trkpt lat="43.58121" lon="1.46313">
        <ele>197.6250038147</ele>
        <time>2013-09-14T08:21:42Z</time>
      </trkpt>
      <trkpt lat="43.58105" lon="1.46324">
        <ele>197.125</ele>
        <time>2013-09-14T08:21:46Z</time>
      </trkpt>
      <trkpt lat="43.58092" lon="1.46336">
        <ele>196.63333638509</ele>
        <time>2013-09-14T08:21:49Z</time>
      </trkpt>
      <trkpt lat="43.58077" lon="1.46351">
        <ele>195.90000152588</ele>
        <time>2013-09-14T08:21:53Z</time>
      </trkpt>
      <trkpt lat="43.58062" lon="1.46364">
        <ele>196.30000305176</ele>
        <time>2013-09-14T08:21:57Z</time>
      </trkpt>
      <trkpt lat="43.58044" lon="1.46383">
        <ele>195.92499923706</ele>
        <time>2013-09-14T08:22:00Z</time>
      </trkpt>
      <trkpt lat="43.58021" lon="1.46411">
        <ele>194.42499923706</ele>
        <time>2013-09-14T08:22:04Z</time>
      </trkpt>
      <trkpt lat="43.58004" lon="1.46429">
        <ele>193.93332926432</ele>
        <time>2013-09-14T08:22:07Z</time>
      </trkpt>
      <trkpt lat="43.57991" lon="1.46443">
        <ele>193.39999898275</ele>
        <time>2013-09-14T08:22:10Z</time>
      </trkpt>
      <trkpt lat="43.57977" lon="1.46454">
        <ele>193.83333333333</ele>
        <time>2013-09-14T08:22:13Z</time>
      </trkpt>
      <trkpt lat="43.57966" lon="1.46475">
        <ele>191.69999694824</ele>
        <time>2013-09-14T08:22:16Z</time>
      </trkpt>
      <trkpt lat="43.57953" lon="1.46488">
        <ele>192.03333536784</ele>
        <time>2013-09-14T08:22:19Z</time>
      </trkpt>
      <trkpt lat="43.57938" lon="1.465">
        <ele>191.92500305176</ele>
        <time>2013-09-14T08:22:23Z</time>
      </trkpt>
      <trkpt lat="43.57918" lon="1.46509">
        <ele>191.22500228882</ele>
        <time>2013-09-14T08:22:27Z</time>
      </trkpt>
      <trkpt lat="43.57895" lon="1.46524">
        <ele>191.47499847412</ele>
        <time>2013-09-14T08:22:31Z</time>
      </trkpt>
      <trkpt lat="43.57871" lon="1.46536">
        <ele>193.16666666667</ele>
        <time>2013-09-14T08:22:34Z</time>
      </trkpt>
      <trkpt lat="43.57856" lon="1.46546">
        <ele>194.06667073568</ele>
        <time>2013-09-14T08:22:37Z</time>
      </trkpt>
      <trkpt lat="43.57834" lon="1.46556">
        <ele>194.125</ele>
        <time>2013-09-14T08:22:41Z</time>
      </trkpt>
      <trkpt lat="43.57814" lon="1.46563">
        <ele>194.94999694824</ele>
        <time>2013-09-14T08:22:45Z</time>
      </trkpt>
      <trkpt lat="43.57793" lon="1.46567">
        <ele>194.36666361491</ele>
        <time>2013-09-14T08:22:48Z</time>
      </trkpt>
      <trkpt lat="43.57778" lon="1.4657">
        <ele>195.15000152588</ele>
        <time>2013-09-14T08:22:51Z</time>
      </trkpt>
      <trkpt lat="43.57754" lon="1.46573">
        <ele>192.46000061035</ele>
        <time>2013-09-14T08:22:55Z</time>
      </trkpt>
      <trkpt lat="43.57729" lon="1.46574">
        <ele>187.83333333333</ele>
        <time>2013-09-14T08:22:58Z</time>
      </trkpt>
      <trkpt lat="43.5771" lon="1.46575">
        <ele>186.20000203451</ele>
        <time>2013-09-14T08:23:02Z</time>
      </trkpt>
      <trkpt lat="43.57689" lon="1.4658">
        <ele>187.125</ele>
        <time>2013-09-14T08:23:05Z</time>
      </trkpt>
      <trkpt lat="43.57667" lon="1.46585">
        <ele>189.20000203451</ele>
        <time>2013-09-14T08:23:08Z</time>
      </trkpt>
      <trkpt lat="43.57646" lon="1.4659">
        <ele>190.90000534058</ele>
        <time>2013-09-14T08:23:12Z</time>
      </trkpt>
      <trkpt lat="43.57624" lon="1.466">
        <ele>189.36666870117</ele>
        <time>2013-09-14T08:23:15Z</time>
      </trkpt>
      <trkpt lat="43.5761" lon="1.46608">
        <ele>189.90000406901</ele>
        <time>2013-09-14T08:23:18Z</time>
      </trkpt>
      <trkpt lat="43.5759" lon="1.46617">
        <ele>189.95000076294</ele>
        <time>2013-09-14T08:23:22Z</time>
      </trkpt>
      <trkpt lat="43.57575" lon="1.46634">
        <ele>192.42499923706</ele>
        <time>2013-09-14T08:23:26Z</time>
      </trkpt>
      <trkpt lat="43.57561" lon="1.46651">
        <ele>194.36666870117</ele>
        <time>2013-09-14T08:23:29Z</time>
      </trkpt>
      <trkpt lat="43.57552" lon="1.46667">
        <ele>196.46666463216</ele>
        <time>2013-09-14T08:23:32Z</time>
      </trkpt>
      <trkpt lat="43.57542" lon="1.46683">
        <ele>197.82500076294</ele>
        <time>2013-09-14T08:23:36Z</time>
      </trkpt>
      <trkpt lat="43.57527" lon="1.46703">
        <ele>194.47499847412</ele>
        <time>2013-09-14T08:23:40Z</time>
      </trkpt>
      <trkpt lat="43.57507" lon="1.46719">
        <ele>193.35000228882</ele>
        <time>2013-09-14T08:23:44Z</time>
      </trkpt>
      <trkpt lat="43.57499" lon="1.46728">
        <ele>196.16666666667</ele>
        <time>2013-09-14T08:23:47Z</time>
      </trkpt>
      <trkpt lat="43.57492" lon="1.46729">
        <ele>199.10000228882</ele>
        <time>2013-09-14T08:23:51Z</time>
      </trkpt>
      <trkpt lat="43.57484" lon="1.46725">
        <ele>200.75</ele>
        <time>2013-09-14T08:23:55Z</time>
      </trkpt>
      <trkpt lat="43.57475" lon="1.46718">
        <ele>200.76666768392</ele>
        <time>2013-09-14T08:23:58Z</time>
      </trkpt>
      <trkpt lat="43.57466" lon="1.46709">
        <ele>201.8749961853</ele>
        <time>2013-09-14T08:24:02Z</time>
      </trkpt>
      <trkpt lat="43.57459" lon="1.467">
        <ele>201.16667175293</ele>
        <time>2013-09-14T08:24:05Z</time>
      </trkpt>
      <trkpt lat="43.57454" lon="1.4669">
        <ele>201.96666463216</ele>
        <time>2013-09-14T08:24:08Z</time>
      </trkpt>
      <trkpt lat="43.5745" lon="1.46679">
        <ele>202.93333435059</ele>
        <time>2013-09-14T08:24:11Z</time>
      </trkpt>
      <trkpt lat="43.57444" lon="1.46665">
        <ele>202.09999847412</ele>
        <time>2013-09-14T08:24:15Z</time>
      </trkpt>
      <trkpt lat="43.57437" lon="1.4665">
        <ele>200.70000203451</ele>
        <time>2013-09-14T08:24:18Z</time>
      </trkpt>
      <trkpt lat="43.57427" lon="1.46629">
        <ele>202</ele>
        <time>2013-09-14T08:24:23Z</time>
      </trkpt>
      <trkpt lat="43.57416" lon="1.466">
        <ele>203.375</ele>
        <time>2013-09-14T08:24:26Z</time>
      </trkpt>
      <trkpt lat="43.57403" lon="1.46564">
        <ele>200.13333638509</ele>
        <time>2013-09-14T08:24:29Z</time>
      </trkpt>
      <trkpt lat="43.57396" lon="1.4654">
        <ele>198.59999593099</ele>
        <time>2013-09-14T08:24:33Z</time>
      </trkpt>
      <trkpt lat="43.57391" lon="1.46514">
        <ele>199.42499923706</ele>
        <time>2013-09-14T08:24:37Z</time>
      </trkpt>
      <trkpt lat="43.57376" lon="1.46493">
        <ele>200.10000305176</ele>
        <time>2013-09-14T08:24:42Z</time>
      </trkpt>
      <trkpt lat="43.57364" lon="1.46471">
        <ele>201.14999771118</ele>
        <time>2013-09-14T08:24:46Z</time>
      </trkpt>
      <trkpt lat="43.57349" lon="1.46448">
        <ele>200.66000366211</ele>
        <time>2013-09-14T08:24:52Z</time>
      </trkpt>
      <trkpt lat="43.57348" lon="1.46411">
        <ele>201.27999572754</ele>
        <time>2013-09-14T08:24:55Z</time>
      </trkpt>
      <trkpt lat="43.57347" lon="1.46381">
        <ele>201</ele>
        <time>2013-09-14T08:24:59Z</time>
      </trkpt>
      <trkpt lat="43.57344" lon="1.46359">
        <ele>199.36666870117</ele>
        <time>2013-09-14T08:25:02Z</time>
      </trkpt>
      <trkpt lat="43.57335" lon="1.46349">
        <ele>198.23333231608</ele>
        <time>2013-09-14T08:25:05Z</time>
      </trkpt>
      <trkpt lat="43.57318" lon="1.46349">
        <ele>197.57500076294</ele>
        <time>2013-09-14T08:25:09Z</time>
      </trkpt>
      <trkpt lat="43.57307" lon="1.46332">
        <ele>197.69999694824</ele>
        <time>2013-09-14T08:25:13Z</time>
      </trkpt>
      <trkpt lat="43.57298" lon="1.46314">
        <ele>197.15000152588</ele>
        <time>2013-09-14T08:25:17Z</time>
      </trkpt>
      <trkpt lat="43.57278" lon="1.46298">
        <ele>196.03333028158</ele>
        <time>2013-09-14T08:25:20Z</time>
      </trkpt>
      <trkpt lat="43.57261" lon="1.46283">
        <ele>195</ele>
        <time>2013-09-14T08:25:23Z</time>
      </trkpt>
      <trkpt lat="43.57252" lon="1.46258">
        <ele>194.26666259766</ele>
        <time>2013-09-14T08:25:27Z</time>
      </trkpt>
      <trkpt lat="43.57249" lon="1.46227">
        <ele>195.19999694824</ele>
        <time>2013-09-14T08:25:31Z</time>
      </trkpt>
      <trkpt lat="43.57242" lon="1.46197">
        <ele>195.69999694824</ele>
        <time>2013-09-14T08:25:34Z</time>
      </trkpt>
      <trkpt lat="43.57241" lon="1.46181">
        <ele>196.03333536784</ele>
        <time>2013-09-14T08:25:37Z</time>
      </trkpt>
      <trkpt lat="43.5724" lon="1.46155">
        <ele>195.82500457764</ele>
        <time>2013-09-14T08:25:41Z</time>
      </trkpt>
      <trkpt lat="43.57239" lon="1.46128">
        <ele>196.13999938965</ele>
        <time>2013-09-14T08:25:45Z</time>
      </trkpt>
      <trkpt lat="43.57237" lon="1.46115">
        <ele>196.33333333333</ele>
        <time>2013-09-14T08:25:48Z</time>
      </trkpt>
      <trkpt lat="43.57232" lon="1.46107">
        <ele>196.30000305176</ele>
        <time>2013-09-14T08:25:51Z</time>
      </trkpt>
      <trkpt lat="43.57237" lon="1.46099">
        <ele>196.73333740234</ele>
        <time>2013-09-14T08:25:54Z</time>
      </trkpt>
      <trkpt lat="43.57243" lon="1.46088">
        <ele>197.10000610352</ele>
        <time>2013-09-14T08:25:57Z</time>
      </trkpt>
      <trkpt lat="43.57249" lon="1.4607">
        <ele>198.95000457764</ele>
        <time>2013-09-14T08:26:01Z</time>
      </trkpt>
      <trkpt lat="43.57257" lon="1.46054">
        <ele>203.36666870117</ele>
        <time>2013-09-14T08:26:04Z</time>
      </trkpt>
      <trkpt lat="43.57262" lon="1.46044">
        <ele>204.375</ele>
        <time>2013-09-14T08:26:08Z</time>
      </trkpt>
      <trkpt lat="43.57272" lon="1.4603">
        <ele>205.3333384196</ele>
        <time>2013-09-14T08:26:11Z</time>
      </trkpt>
      <trkpt lat="43.57286" lon="1.46013">
        <ele>205.75</ele>
        <time>2013-09-14T08:26:15Z</time>
      </trkpt>
      <trkpt lat="43.57304" lon="1.45994">
        <ele>205.625</ele>
        <time>2013-09-14T08:26:19Z</time>
      </trkpt>
      <trkpt lat="43.57318" lon="1.45972">
        <ele>206.23333231608</ele>
        <time>2013-09-14T08:26:22Z</time>
      </trkpt>
      <trkpt lat="43.57322" lon="1.45954">
        <ele>203.54999923706</ele>
        <time>2013-09-14T08:26:26Z</time>
      </trkpt>
      <trkpt lat="43.57315" lon="1.45939">
        <ele>203.67500305176</ele>
        <time>2013-09-14T08:26:30Z</time>
      </trkpt>
      <trkpt lat="43.57304" lon="1.45925">
        <ele>204.76666768392</ele>
        <time>2013-09-14T08:26:33Z</time>
      </trkpt>
      <trkpt lat="43.5729" lon="1.45906">
        <ele>202.57499694824</ele>
        <time>2013-09-14T08:26:37Z</time>
      </trkpt>
      <trkpt lat="43.57269" lon="1.45883">
        <ele>201.75</ele>
        <time>2013-09-14T08:26:41Z</time>
      </trkpt>
      <trkpt lat="43.57253" lon="1.45868">
        <ele>200.45000076294</ele>
        <time>2013-09-14T08:26:45Z</time>
      </trkpt>
      <trkpt lat="43.57248" lon="1.45848">
        <ele>200.96666463216</ele>
        <time>2013-09-14T08:26:48Z</time>
      </trkpt>
      <trkpt lat="43.57248" lon="1.45825">
        <ele>201.79999923706</ele>
        <time>2013-09-14T08:26:52Z</time>
      </trkpt>
      <trkpt lat="43.57252" lon="1.45791">
        <ele>201.92500305176</ele>
        <time>2013-09-14T08:26:56Z</time>
      </trkpt>
      <trkpt lat="43.57255" lon="1.4576">
        <ele>203.30000305176</ele>
        <time>2013-09-14T08:27:00Z</time>
      </trkpt>
      <trkpt lat="43.57256" lon="1.45731">
        <ele>204.13333129883</ele>
        <time>2013-09-14T08:27:03Z</time>
      </trkpt>
      <trkpt lat="43.57255" lon="1.45705">
        <ele>202.16666666667</ele>
        <time>2013-09-14T08:27:06Z</time>
      </trkpt>
      <trkpt lat="43.57256" lon="1.45677">
        <ele>199.59999847412</ele>
        <time>2013-09-14T08:27:10Z</time>
      </trkpt>
      <trkpt lat="43.57263" lon="1.45646">
        <ele>193.42500305176</ele>
        <time>2013-09-14T08:27:15Z</time>
      </trkpt>
      <trkpt lat="43.57259" lon="1.45615">
        <ele>193.76000061035</ele>
        <time>2013-09-14T08:27:19Z</time>
      </trkpt>
      <trkpt lat="43.57261" lon="1.45592">
        <ele>193.375</ele>
        <time>2013-09-14T08:27:24Z</time>
      </trkpt>
      <trkpt lat="43.57265" lon="1.45572">
        <ele>194.70000076294</ele>
        <time>2013-09-14T08:27:28Z</time>
      </trkpt>
      <trkpt lat="43.57266" lon="1.45556">
        <ele>194.13333129883</ele>
        <time>2013-09-14T08:27:31Z</time>
      </trkpt>
      <trkpt lat="43.57268" lon="1.45533">
        <ele>194.92500305176</ele>
        <time>2013-09-14T08:27:35Z</time>
      </trkpt>
      <trkpt lat="43.57271" lon="1.45507">
        <ele>197.02499771118</ele>
        <time>2013-09-14T08:27:39Z</time>
      </trkpt>
      <trkpt lat="43.57274" lon="1.45479">
        <ele>199.18000488281</ele>
        <time>2013-09-14T08:27:43Z</time>
      </trkpt>
      <trkpt lat="43.57279" lon="1.45454">
        <ele>204.80000305176</ele>
        <time>2013-09-14T08:27:47Z</time>
      </trkpt>
      <trkpt lat="43.57284" lon="1.45418">
        <ele>204.67499923706</ele>
        <time>2013-09-14T08:27:51Z</time>
      </trkpt>
      <trkpt lat="43.57289" lon="1.45388">
        <ele>204.20000203451</ele>
        <time>2013-09-14T08:27:54Z</time>
      </trkpt>
      <trkpt lat="43.57298" lon="1.4537">
        <ele>203.63333638509</ele>
        <time>2013-09-14T08:27:57Z</time>
      </trkpt>
      <trkpt lat="43.57308" lon="1.45355">
        <ele>203.83333333333</ele>
        <time>2013-09-14T08:28:00Z</time>
      </trkpt>
      <trkpt lat="43.5732" lon="1.45342">
        <ele>202.93333435059</ele>
        <time>2013-09-14T08:28:03Z</time>
      </trkpt>
      <trkpt lat="43.57332" lon="1.45319">
        <ele>200.5</ele>
        <time>2013-09-14T08:28:07Z</time>
      </trkpt>
      <trkpt lat="43.57343" lon="1.45294">
        <ele>200.875</ele>
        <time>2013-09-14T08:28:11Z</time>
      </trkpt>
      <trkpt lat="43.57348" lon="1.45272">
        <ele>200.26666768392</ele>
        <time>2013-09-14T08:28:14Z</time>
      </trkpt>
      <trkpt lat="43.57351" lon="1.45264">
        <ele>202.25</ele>
        <time>2013-09-14T08:28:18Z</time>
      </trkpt>
      <trkpt lat="43.57362" lon="1.4525">
        <ele>205.5</ele>
        <time>2013-09-14T08:28:21Z</time>
      </trkpt>
      <trkpt lat="43.57358" lon="1.45241">
        <ele>203</ele>
        <time>2013-09-14T08:28:25Z</time>
      </trkpt>
      <trkpt lat="43.57346" lon="1.45243">
        <ele>198.44999694824</ele>
        <time>2013-09-14T08:28:29Z</time>
      </trkpt>
      <trkpt lat="43.57336" lon="1.45246">
        <ele>198</ele>
        <time>2013-09-14T08:28:33Z</time>
      </trkpt>
      <trkpt lat="43.57327" lon="1.45244">
        <ele>198.57500457764</ele>
        <time>2013-09-14T08:28:37Z</time>
      </trkpt>
      <trkpt lat="43.57318" lon="1.45232">
        <ele>199.5</ele>
        <time>2013-09-14T08:28:40Z</time>
      </trkpt>
      <trkpt lat="43.5731" lon="1.45222">
        <ele>200.17499923706</ele>
        <time>2013-09-14T08:28:44Z</time>
      </trkpt>
      <trkpt lat="43.57297" lon="1.45216">
        <ele>201.5</ele>
        <time>2013-09-14T08:28:48Z</time>
      </trkpt>
      <trkpt lat="43.57286" lon="1.45206">
        <ele>202.63333129883</ele>
        <time>2013-09-14T08:28:51Z</time>
      </trkpt>
      <trkpt lat="43.57276" lon="1.4519">
        <ele>202.47500228882</ele>
        <time>2013-09-14T08:28:54Z</time>
      </trkpt>
      <trkpt lat="43.57266" lon="1.45176">
        <ele>202.26666768392</ele>
        <time>2013-09-14T08:28:58Z</time>
      </trkpt>
      <trkpt lat="43.57259" lon="1.45172">
        <ele>202.10000101725</ele>
        <time>2013-09-14T08:29:01Z</time>
      </trkpt>
      <trkpt lat="43.57257" lon="1.45173">
        <ele>202.43333435059</ele>
        <time>2013-09-14T08:29:04Z</time>
      </trkpt>
      <trkpt lat="43.57262" lon="1.45163">
        <ele>203.03333028158</ele>
        <time>2013-09-14T08:29:07Z</time>
      </trkpt>
      <trkpt lat="43.57267" lon="1.4515">
        <ele>203.86666361491</ele>
        <time>2013-09-14T08:29:10Z</time>
      </trkpt>
      <trkpt lat="43.57263" lon="1.45137">
        <ele>204.13333638509</ele>
        <time>2013-09-14T08:29:14Z</time>
      </trkpt>
      <trkpt lat="43.57253" lon="1.45119">
        <ele>205.8200012207</ele>
        <time>2013-09-14T08:29:19Z</time>
      </trkpt>
      <trkpt lat="43.57237" lon="1.45097">
        <ele>204.82000427246</ele>
        <time>2013-09-14T08:29:24Z</time>
      </trkpt>
      <trkpt lat="43.5722" lon="1.45073">
        <ele>200.97999572754</ele>
        <time>2013-09-14T08:29:28Z</time>
      </trkpt>
      <trkpt lat="43.57212" lon="1.4505">
        <ele>201.32500076294</ele>
        <time>2013-09-14T08:29:32Z</time>
      </trkpt>
      <trkpt lat="43.57202" lon="1.45029">
        <ele>200.96666463216</ele>
        <time>2013-09-14T08:29:35Z</time>
      </trkpt>
      <trkpt lat="43.57191" lon="1.45008">
        <ele>200.02499771118</ele>
        <time>2013-09-14T08:29:39Z</time>
      </trkpt>
      <trkpt lat="43.57188" lon="1.4499">
        <ele>200.19999694824</ele>
        <time>2013-09-14T08:29:42Z</time>
      </trkpt>
      <trkpt lat="43.57197" lon="1.44989">
        <ele>199.56666564941</ele>
        <time>2013-09-14T08:29:46Z</time>
      </trkpt>
      <trkpt lat="43.57216" lon="1.44985">
        <ele>201.79999694824</ele>
        <time>2013-09-14T08:29:50Z</time>
      </trkpt>
      <trkpt lat="43.5724" lon="1.44978">
        <ele>202.5</ele>
        <time>2013-09-14T08:29:53Z</time>
      </trkpt>
      <trkpt lat="43.57261" lon="1.44977">
        <ele>201.125</ele>
        <time>2013-09-14T08:29:57Z</time>
      </trkpt>
      <trkpt lat="43.5728" lon="1.44977">
        <ele>201.10000610352</ele>
        <time>2013-09-14T08:30:00Z</time>
      </trkpt>
      <trkpt lat="43.57298" lon="1.44976">
        <ele>198.61999816895</ele>
        <time>2013-09-14T08:30:04Z</time>
      </trkpt>
      <trkpt lat="43.57314" lon="1.44956">
        <ele>197.96666463216</ele>
        <time>2013-09-14T08:30:07Z</time>
      </trkpt>
      <trkpt lat="43.57326" lon="1.44935">
        <ele>197.34999847412</ele>
        <time>2013-09-14T08:30:11Z</time>
      </trkpt>
      <trkpt lat="43.57339" lon="1.44916">
        <ele>197.36666870117</ele>
        <time>2013-09-14T08:30:14Z</time>
      </trkpt>
      <trkpt lat="43.57353" lon="1.44899">
        <ele>198.36666361491</ele>
        <time>2013-09-14T08:30:18Z</time>
      </trkpt>
      <trkpt lat="43.5737" lon="1.44878">
        <ele>199.22499847412</ele>
        <time>2013-09-14T08:30:22Z</time>
      </trkpt>
      <trkpt lat="43.57384" lon="1.44859">
        <ele>199.76666768392</ele>
        <time>2013-09-14T08:30:25Z</time>
      </trkpt>
      <trkpt lat="43.57394" lon="1.4484">
        <ele>200.20000203451</ele>
        <time>2013-09-14T08:30:28Z</time>
      </trkpt>
      <trkpt lat="43.57404" lon="1.44817">
        <ele>200.25</ele>
        <time>2013-09-14T08:30:32Z</time>
      </trkpt>
      <trkpt lat="43.57413" lon="1.44793">
        <ele>200.23333231608</ele>
        <time>2013-09-14T08:30:35Z</time>
      </trkpt>
      <trkpt lat="43.57419" lon="1.44772">
        <ele>204.95000076294</ele>
        <time>2013-09-14T08:30:39Z</time>
      </trkpt>
      <trkpt lat="43.57429" lon="1.44742">
        <ele>202.09999847412</ele>
        <time>2013-09-14T08:30:43Z</time>
      </trkpt>
      <trkpt lat="43.57439" lon="1.44717">
        <ele>200.10000101725</ele>
        <time>2013-09-14T08:30:46Z</time>
      </trkpt>
      <trkpt lat="43.57449" lon="1.44691">
        <ele>198.57500076294</ele>
        <time>2013-09-14T08:30:50Z</time>
      </trkpt>
      <trkpt lat="43.57461" lon="1.44664">
        <ele>198.34999847412</ele>
        <time>2013-09-14T08:30:54Z</time>
      </trkpt>
      <trkpt lat="43.57468" lon="1.4464">
        <ele>198.60000101725</ele>
        <time>2013-09-14T08:30:57Z</time>
      </trkpt>
      <trkpt lat="43.57474" lon="1.44624">
        <ele>200.56666564941</ele>
        <time>2013-09-14T08:31:00Z</time>
      </trkpt>
      <trkpt lat="43.57485" lon="1.44597">
        <ele>198.65000152588</ele>
        <time>2013-09-14T08:31:05Z</time>
      </trkpt>
      <trkpt lat="43.57499" lon="1.44563">
        <ele>193.1200012207</ele>
        <time>2013-09-14T08:31:09Z</time>
      </trkpt>
      <trkpt lat="43.5751" lon="1.44541">
        <ele>195</ele>
        <time>2013-09-14T08:31:12Z</time>
      </trkpt>
      <trkpt lat="43.57519" lon="1.44514">
        <ele>194.45000076294</ele>
        <time>2013-09-14T08:31:16Z</time>
      </trkpt>
      <trkpt lat="43.57528" lon="1.44485">
        <ele>193.33333333333</ele>
        <time>2013-09-14T08:31:19Z</time>
      </trkpt>
      <trkpt lat="43.57535" lon="1.44457">
        <ele>192.92499923706</ele>
        <time>2013-09-14T08:31:23Z</time>
      </trkpt>
      <trkpt lat="43.57542" lon="1.44432">
        <ele>190.89999898275</ele>
        <time>2013-09-14T08:31:26Z</time>
      </trkpt>
      <trkpt lat="43.57547" lon="1.44412">
        <ele>190.26666768392</ele>
        <time>2013-09-14T08:31:29Z</time>
      </trkpt>
      <trkpt lat="43.57553" lon="1.44388">
        <ele>190.77500152588</ele>
        <time>2013-09-14T08:31:33Z</time>
      </trkpt>
      <trkpt lat="43.57561" lon="1.44362">
        <ele>189.97500228882</ele>
        <time>2013-09-14T08:31:37Z</time>
      </trkpt>
      <trkpt lat="43.57559" lon="1.44345">
        <ele>192.36666870117</ele>
        <time>2013-09-14T08:31:40Z</time>
      </trkpt>
      <trkpt lat="43.57551" lon="1.44332">
        <ele>197.02499771118</ele>
        <time>2013-09-14T08:31:45Z</time>
      </trkpt>
      <trkpt lat="43.57542" lon="1.44319">
        <ele>197.07499694824</ele>
        <time>2013-09-14T08:31:48Z</time>
      </trkpt>
      <trkpt lat="43.57534" lon="1.44313">
        <ele>197.23332722982</ele>
        <time>2013-09-14T08:31:51Z</time>
      </trkpt>
      <trkpt lat="43.57533" lon="1.44312">
        <ele>196.57500076294</ele>
        <time>2013-09-14T08:31:55Z</time>
      </trkpt>
      <trkpt lat="43.57534" lon="1.44313">
        <ele>196.73333231608</ele>
        <time>2013-09-14T08:31:58Z</time>
      </trkpt>
      <trkpt lat="43.57535" lon="1.44312">
        <ele>197.46666463216</ele>
        <time>2013-09-14T08:32:02Z</time>
      </trkpt>
      <trkpt lat="43.57535" lon="1.4431">
        <ele>201.20000203451</ele>
        <time>2013-09-14T08:32:05Z</time>
      </trkpt>
      <trkpt lat="43.57533" lon="1.44305">
        <ele>203.41999816895</ele>
        <time>2013-09-14T08:32:09Z</time>
      </trkpt>
      <trkpt lat="43.57532" lon="1.44303">
        <ele>203.06666564941</ele>
        <time>2013-09-14T08:32:12Z</time>
      </trkpt>
      <trkpt lat="43.57532" lon="1.44304">
        <ele>203.29999796549</ele>
        <time>2013-09-14T08:32:15Z</time>
      </trkpt>
      <trkpt lat="43.57532" lon="1.44304">
        <ele>203.29999923706</ele>
        <time>2013-09-14T08:32:19Z</time>
      </trkpt>
      <trkpt lat="43.57533" lon="1.44304">
        <ele>203.49999491374</ele>
        <time>2013-09-14T08:32:22Z</time>
      </trkpt>
      <trkpt lat="43.57534" lon="1.44303">
        <ele>202.96666971842</ele>
        <time>2013-09-14T08:32:26Z</time>
      </trkpt>
      <trkpt lat="43.57534" lon="1.44301">
        <ele>204.7</ele>
        <time>2013-09-14T08:32:30Z</time>
      </trkpt>
      <trkpt lat="43.57534" lon="1.44299">
        <ele>204.60000101725</ele>
        <time>2013-09-14T08:32:33Z</time>
      </trkpt>
      <trkpt lat="43.57534" lon="1.44299">
        <ele>204.17499923706</ele>
        <time>2013-09-14T08:32:37Z</time>
      </trkpt>
      <trkpt lat="43.57534" lon="1.44299">
        <ele>204.16667175293</ele>
        <time>2013-09-14T08:32:40Z</time>
      </trkpt>
      <trkpt lat="43.57534" lon="1.44299">
        <ele>204.25</ele>
        <time>2013-09-14T08:32:43Z</time>
      </trkpt>
      <trkpt lat="43.57534" lon="1.44299">
        <ele>204.02500152588</ele>
        <time>2013-09-14T08:32:46Z</time>
      </trkpt>
      <trkpt lat="43.57534" lon="1.44299">
        <ele>204</ele>
        <time>2013-09-14T08:32:50Z</time>
      </trkpt>
      <trkpt lat="43.57534" lon="1.44299">
        <ele>204.02500152588</ele>
        <time>2013-09-14T08:32:54Z</time>
      </trkpt>
      <trkpt lat="43.57535" lon="1.44301">
        <ele>203.29999542236</ele>
        <time>2013-09-14T08:32:57Z</time>
      </trkpt>
      <trkpt lat="43.57535" lon="1.44302">
        <ele>203.07499694824</ele>
        <time>2013-09-14T08:33:00Z</time>
      </trkpt>
      <trkpt lat="43.57535" lon="1.44303">
        <ele>202.69999694824</ele>
        <time>2013-09-14T08:33:04Z</time>
      </trkpt>
      <trkpt lat="43.57535" lon="1.44303">
        <ele>202.39999389648</ele>
        <time>2013-09-14T08:33:07Z</time>
      </trkpt>
      <trkpt lat="43.57535" lon="1.44303">
        <ele>202.39999389648</ele>
        <time>2013-09-14T08:33:10Z</time>
      </trkpt>
      <trkpt lat="43.57535" lon="1.44303">
        <ele>202.39999389648</ele>
        <time>2013-09-14T08:33:15Z</time>
      </trkpt>
      <trkpt lat="43.57535" lon="1.44303">
        <ele>202.39999389648</ele>
        <time>2013-09-14T08:33:19Z</time>
      </trkpt>
      <trkpt lat="43.57535" lon="1.44303">
        <ele>202.33999938965</ele>
        <time>2013-09-14T08:33:23Z</time>
      </trkpt>
      <trkpt lat="43.57535" lon="1.44303">
        <ele>202.3749961853</ele>
        <time>2013-09-14T08:33:28Z</time>
      </trkpt>
      <trkpt lat="43.57534" lon="1.44303">
        <ele>202.39999389648</ele>
        <time>2013-09-14T08:33:32Z</time>
      </trkpt>
      <trkpt lat="43.57534" lon="1.44303">
        <ele>202.39999389648</ele>
        <time>2013-09-14T08:33:35Z</time>
      </trkpt>
      <trkpt lat="43.57534" lon="1.44303">
        <ele>202.39999389648</ele>
        <time>2013-09-14T08:33:39Z</time>
      </trkpt>
      <trkpt lat="43.57534" lon="1.44303">
        <ele>202.39999389648</ele>
        <time>2013-09-14T08:33:43Z</time>
      </trkpt>
      <trkpt lat="43.57534" lon="1.44303">
        <ele>202.39999389648</ele>
        <time>2013-09-14T08:33:46Z</time>
      </trkpt>
      <trkpt lat="43.57534" lon="1.44303">
        <ele>202.39999389648</ele>
        <time>2013-09-14T08:33:49Z</time>
      </trkpt>
      <trkpt lat="43.57534" lon="1.44303">
        <ele>202.39999389648</ele>
        <time>2013-09-14T08:33:53Z</time>
      </trkpt>
      <trkpt lat="43.57534" lon="1.44303">
        <ele>202.39999389648</ele>
        <time>2013-09-14T08:33:57Z</time>
      </trkpt>
      <trkpt lat="43.57534" lon="1.44303">
        <ele>202.39999389648</ele>
        <time>2013-09-14T08:34:00Z</time>
      </trkpt>
      <trkpt lat="43.57534" lon="1.44303">
        <ele>202.39999389648</ele>
        <time>2013-09-14T08:34:04Z</time>
      </trkpt>
      <trkpt lat="43.57534" lon="1.44303">
        <ele>202.39999389648</ele>
        <time>2013-09-14T08:34:07Z</time>
      </trkpt>
      <trkpt lat="43.57534" lon="1.44303">
        <ele>202.39999389648</ele>
        <time>2013-09-14T08:34:11Z</time>
      </trkpt>
      <trkpt lat="43.57534" lon="1.44303">
        <ele>202.39999389648</ele>
        <time>2013-09-14T08:34:14Z</time>
      </trkpt>
      <trkpt lat="43.57534" lon="1.44303">
        <ele>202.39999389648</ele>
        <time>2013-09-14T08:34:17Z</time>
      </trkpt>
      <trkpt lat="43.57534" lon="1.44303">
        <ele>202.39999389648</ele>
        <time>2013-09-14T08:34:21Z</time>
      </trkpt>
      <trkpt lat="43.57534" lon="1.44303">
        <ele>202.44999694824</ele>
        <time>2013-09-14T08:34:25Z</time>
      </trkpt>
      <trkpt lat="43.57534" lon="1.44303">
        <ele>202.5</ele>
        <time>2013-09-14T08:34:29Z</time>
      </trkpt>
      <trkpt lat="43.57534" lon="1.44303">
        <ele>202.5</ele>
        <time>2013-09-14T08:34:33Z</time>
      </trkpt>
      <trkpt lat="43.57534" lon="1.44303">
        <ele>202.46666463216</ele>
        <time>2013-09-14T08:34:37Z</time>
      </trkpt>
      <trkpt lat="43.57534" lon="1.44303">
        <ele>202.39999389648</ele>
        <time>2013-09-14T08:34:41Z</time>
      </trkpt>
      <trkpt lat="43.57534" lon="1.44303">
        <ele>202.39999389648</ele>
        <time>2013-09-14T08:34:44Z</time>
      </trkpt>
      <trkpt lat="43.57534" lon="1.44303">
        <ele>202.39999389648</ele>
        <time>2013-09-14T08:34:48Z</time>
      </trkpt>
      <trkpt lat="43.57534" lon="1.44303">
        <ele>202.39999389648</ele>
        <time>2013-09-14T08:34:51Z</time>
      </trkpt>
      <trkpt lat="43.57534" lon="1.44303">
        <ele>202.39999389648</ele>
        <time>2013-09-14T08:34:54Z</time>
      </trkpt>
      <trkpt lat="43.57534" lon="1.44303">
        <ele>202.47999572754</ele>
        <time>2013-09-14T08:34:58Z</time>
      </trkpt>
      <trkpt lat="43.5753" lon="1.44294">
        <ele>201.32500457764</ele>
        <time>2013-09-14T08:35:02Z</time>
      </trkpt>
      <trkpt lat="43.57523" lon="1.44283">
        <ele>200.23333740234</ele>
        <time>2013-09-14T08:35:05Z</time>
      </trkpt>
      <trkpt lat="43.57516" lon="1.44273">
        <ele>200.93333435059</ele>
        <time>2013-09-14T08:35:08Z</time>
      </trkpt>
      <trkpt lat="43.57507" lon="1.4426">
        <ele>201.0000038147</ele>
        <time>2013-09-14T08:35:12Z</time>
      </trkpt>
      <trkpt lat="43.57499" lon="1.44247">
        <ele>201</ele>
        <time>2013-09-14T08:35:15Z</time>
      </trkpt>
      <trkpt lat="43.57492" lon="1.44236">
        <ele>200.80000305176</ele>
        <time>2013-09-14T08:35:19Z</time>
      </trkpt>
      <trkpt lat="43.57485" lon="1.44225">
        <ele>204.5</ele>
        <time>2013-09-14T08:35:22Z</time>
      </trkpt>
      <trkpt lat="43.57476" lon="1.44212">
        <ele>205.9200012207</ele>
        <time>2013-09-14T08:35:26Z</time>
      </trkpt>
      <trkpt lat="43.57466" lon="1.44198">
        <ele>207.9999961853</ele>
        <time>2013-09-14T08:35:31Z</time>
      </trkpt>
      <trkpt lat="43.57457" lon="1.44186">
        <ele>208.77500152588</ele>
        <time>2013-09-14T08:35:34Z</time>
      </trkpt>
      <trkpt lat="43.57448" lon="1.44175">
        <ele>209.22499847412</ele>
        <time>2013-09-14T08:35:38Z</time>
      </trkpt>
      <trkpt lat="43.57437" lon="1.44165">
        <ele>212.125</ele>
        <time>2013-09-14T08:35:42Z</time>
      </trkpt>
      <trkpt lat="43.57426" lon="1.44154">
        <ele>213.875</ele>
        <time>2013-09-14T08:35:47Z</time>
      </trkpt>
      <trkpt lat="43.57418" lon="1.44143">
        <ele>215.72500228882</ele>
        <time>2013-09-14T08:35:50Z</time>
      </trkpt>
      <trkpt lat="43.57412" lon="1.44133">
        <ele>215.83333333333</ele>
        <time>2013-09-14T08:35:54Z</time>
      </trkpt>
      <trkpt lat="43.57408" lon="1.44126">
        <ele>218.96000366211</ele>
        <time>2013-09-14T08:35:58Z</time>
      </trkpt>
      <trkpt lat="43.57402" lon="1.4412">
        <ele>219.55000305176</ele>
        <time>2013-09-14T08:36:01Z</time>
      </trkpt>
      <trkpt lat="43.57396" lon="1.44116">
        <ele>220.79999923706</ele>
        <time>2013-09-14T08:36:04Z</time>
      </trkpt>
      <trkpt lat="43.57388" lon="1.4411">
        <ele>220.96666971842</ele>
        <time>2013-09-14T08:36:08Z</time>
      </trkpt>
      <trkpt lat="43.57385" lon="1.44106">
        <ele>221.625</ele>
        <time>2013-09-14T08:36:12Z</time>
      </trkpt>
      <trkpt lat="43.57378" lon="1.44103">
        <ele>222.71999816895</ele>
        <time>2013-09-14T08:36:16Z</time>
      </trkpt>
      <trkpt lat="43.57372" lon="1.44104">
        <ele>223.23333231608</ele>
        <time>2013-09-14T08:36:19Z</time>
      </trkpt>
      <trkpt lat="43.57369" lon="1.44106">
        <ele>223.39999898275</ele>
        <time>2013-09-14T08:36:22Z</time>
      </trkpt>
      <trkpt lat="43.57364" lon="1.44108">
        <ele>224.125</ele>
        <time>2013-09-14T08:36:27Z</time>
      </trkpt>
      <trkpt lat="43.57355" lon="1.44108">
        <ele>227.44000244141</ele>
        <time>2013-09-14T08:36:31Z</time>
      </trkpt>
      <trkpt lat="43.57346" lon="1.4411">
        <ele>228.32500076294</ele>
        <time>2013-09-14T08:36:35Z</time>
      </trkpt>
      <trkpt lat="43.57341" lon="1.44115">
        <ele>229.49999491374</ele>
        <time>2013-09-14T08:36:38Z</time>
      </trkpt>
      <trkpt lat="43.57336" lon="1.4412">
        <ele>230.03333536784</ele>
        <time>2013-09-14T08:36:41Z</time>
      </trkpt>
      <trkpt lat="43.57329" lon="1.44125">
        <ele>233.04999923706</ele>
        <time>2013-09-14T08:36:45Z</time>
      </trkpt>
      <trkpt lat="43.57324" lon="1.44129">
        <ele>236.26666768392</ele>
        <time>2013-09-14T08:36:48Z</time>
      </trkpt>
      <trkpt lat="43.57318" lon="1.44132">
        <ele>236.97499847412</ele>
        <time>2013-09-14T08:36:52Z</time>
      </trkpt>
      <trkpt lat="43.57311" lon="1.44134">
        <ele>238.10000101725</ele>
        <time>2013-09-14T08:36:55Z</time>
      </trkpt>
      <trkpt lat="43.57305" lon="1.44137">
        <ele>240.27499771118</ele>
        <time>2013-09-14T08:36:59Z</time>
      </trkpt>
      <trkpt lat="43.57299" lon="1.44138">
        <ele>240.54999542236</ele>
        <time>2013-09-14T08:37:03Z</time>
      </trkpt>
      <trkpt lat="43.57293" lon="1.4414">
        <ele>240.66000061035</ele>
        <time>2013-09-14T08:37:06Z</time>
      </trkpt>
      <trkpt lat="43.57284" lon="1.44142">
        <ele>241.25</ele>
        <time>2013-09-14T08:37:10Z</time>
      </trkpt>
      <trkpt lat="43.57278" lon="1.44143">
        <ele>241.10000101725</ele>
        <time>2013-09-14T08:37:13Z</time>
      </trkpt>
      <trkpt lat="43.57272" lon="1.44144">
        <ele>239.57499694824</ele>
        <time>2013-09-14T08:37:17Z</time>
      </trkpt>
      <trkpt lat="43.57262" lon="1.44146">
        <ele>238.875</ele>
        <time>2013-09-14T08:37:21Z</time>
      </trkpt>
      <trkpt lat="43.57252" lon="1.44145">
        <ele>236.3749961853</ele>
        <time>2013-09-14T08:37:25Z</time>
      </trkpt>
      <trkpt lat="43.57241" lon="1.44145">
        <ele>234.97500228882</ele>
        <time>2013-09-14T08:37:29Z</time>
      </trkpt>
      <trkpt lat="43.57232" lon="1.44144">
        <ele>235.43332926432</ele>
        <time>2013-09-14T08:37:32Z</time>
      </trkpt>
      <trkpt lat="43.57225" lon="1.44143">
        <ele>235.40000406901</ele>
        <time>2013-09-14T08:37:35Z</time>
      </trkpt>
      <trkpt lat="43.57217" lon="1.44142">
        <ele>234.375</ele>
        <time>2013-09-14T08:37:39Z</time>
      </trkpt>
      <trkpt lat="43.57208" lon="1.44142">
        <ele>233.66666666667</ele>
        <time>2013-09-14T08:37:42Z</time>
      </trkpt>
      <trkpt lat="43.57202" lon="1.44144">
        <ele>235.04999542236</ele>
        <time>2013-09-14T08:37:45Z</time>
      </trkpt>
      <trkpt lat="43.57194" lon="1.44146">
        <ele>238.45000076294</ele>
        <time>2013-09-14T08:37:49Z</time>
      </trkpt>
      <trkpt lat="43.57185" lon="1.44148">
        <ele>240.40000152588</ele>
        <time>2013-09-14T08:37:52Z</time>
      </trkpt>
      <trkpt lat="43.57175" lon="1.4415">
        <ele>242.79999796549</ele>
        <time>2013-09-14T08:37:55Z</time>
      </trkpt>
      <trkpt lat="43.57167" lon="1.44149">
        <ele>244.33333333333</ele>
        <time>2013-09-14T08:37:58Z</time>
      </trkpt>
      <trkpt lat="43.5716" lon="1.44148">
        <ele>247.10000101725</ele>
        <time>2013-09-14T08:38:01Z</time>
      </trkpt>
      <trkpt lat="43.57151" lon="1.44147">
        <ele>246.34999847412</ele>
        <time>2013-09-14T08:38:05Z</time>
      </trkpt>
      <trkpt lat="43.57141" lon="1.44148">
        <ele>247.90000152588</ele>
        <time>2013-09-14T08:38:09Z</time>
      </trkpt>
      <trkpt lat="43.57133" lon="1.44153">
        <ele>247.92499923706</ele>
        <time>2013-09-14T08:38:13Z</time>
      </trkpt>
      <trkpt lat="43.57126" lon="1.44156">
        <ele>248.73333231608</ele>
        <time>2013-09-14T08:38:17Z</time>
      </trkpt>
      <trkpt lat="43.57122" lon="1.44157">
        <ele>247.39999898275</ele>
        <time>2013-09-14T08:38:20Z</time>
      </trkpt>
      <trkpt lat="43.57116" lon="1.44157">
        <ele>250.3200012207</ele>
        <time>2013-09-14T08:38:23Z</time>
      </trkpt>
      <trkpt lat="43.57112" lon="1.44158">
        <ele>252.59999847412</ele>
        <time>2013-09-14T08:38:27Z</time>
      </trkpt>
      <trkpt lat="43.57108" lon="1.44159">
        <ele>252.27500152588</ele>
        <time>2013-09-14T08:38:30Z</time>
      </trkpt>
      <trkpt lat="43.57103" lon="1.44161">
        <ele>253.23333740234</ele>
        <time>2013-09-14T08:38:33Z</time>
      </trkpt>
      <trkpt lat="43.57099" lon="1.44162">
        <ele>254.16666666667</ele>
        <time>2013-09-14T08:38:37Z</time>
      </trkpt>
      <trkpt lat="43.57095" lon="1.44163">
        <ele>253.46666463216</ele>
        <time>2013-09-14T08:38:40Z</time>
      </trkpt>
      <trkpt lat="43.57091" lon="1.44164">
        <ele>253.70000076294</ele>
        <time>2013-09-14T08:38:43Z</time>
      </trkpt>
      <trkpt lat="43.57086" lon="1.44166">
        <ele>254.02499771118</ele>
        <time>2013-09-14T08:38:47Z</time>
      </trkpt>
      <trkpt lat="43.57082" lon="1.44167">
        <ele>254.76666259766</ele>
        <time>2013-09-14T08:38:50Z</time>
      </trkpt>
      <trkpt lat="43.57079" lon="1.44169">
        <ele>255.80000305176</ele>
        <time>2013-09-14T08:38:53Z</time>
      </trkpt>
      <trkpt lat="43.57075" lon="1.44171">
        <ele>256.32500457764</ele>
        <time>2013-09-14T08:38:57Z</time>
      </trkpt>
      <trkpt lat="43.57069" lon="1.44174">
        <ele>255.56666564941</ele>
        <time>2013-09-14T08:39:01Z</time>
      </trkpt>
      <trkpt lat="43.57064" lon="1.44176">
        <ele>256.55999755859</ele>
        <time>2013-09-14T08:39:05Z</time>
      </trkpt>
      <trkpt lat="43.57059" lon="1.44176">
        <ele>258.99998982747</ele>
        <time>2013-09-14T08:39:08Z</time>
      </trkpt>
      <trkpt lat="43.57056" lon="1.44179">
        <ele>260.94999694824</ele>
        <time>2013-09-14T08:39:12Z</time>
      </trkpt>
      <trkpt lat="43.57053" lon="1.44181">
        <ele>261.60000610352</ele>
        <time>2013-09-14T08:39:15Z</time>
      </trkpt>
      <trkpt lat="43.57049" lon="1.44183">
        <ele>261.69999186198</ele>
        <time>2013-09-14T08:39:18Z</time>
      </trkpt>
      <trkpt lat="43.57044" lon="1.44186">
        <ele>262.19999694824</ele>
        <time>2013-09-14T08:39:22Z</time>
      </trkpt>
      <trkpt lat="43.57039" lon="1.4419">
        <ele>262.13333129883</ele>
        <time>2013-09-14T08:39:26Z</time>
      </trkpt>
      <trkpt lat="43.57034" lon="1.44193">
        <ele>262.86666870117</ele>
        <time>2013-09-14T08:39:29Z</time>
      </trkpt>
      <trkpt lat="43.57029" lon="1.44195">
        <ele>263.55000305176</ele>
        <time>2013-09-14T08:39:34Z</time>
      </trkpt>
      <trkpt lat="43.57024" lon="1.44196">
        <ele>261.71666463216</ele>
        <time>2013-09-14T08:39:38Z</time>
      </trkpt>
      <trkpt lat="43.57022" lon="1.44197">
        <ele>259.27499389648</ele>
        <time>2013-09-14T08:39:42Z</time>
      </trkpt>
      <trkpt lat="43.57022" lon="1.44198">
        <ele>258.76666259766</ele>
        <time>2013-09-14T08:39:45Z</time>
      </trkpt>
      <trkpt lat="43.57022" lon="1.44198">
        <ele>258.13333129883</ele>
        <time>2013-09-14T08:39:48Z</time>
      </trkpt>
      <trkpt lat="43.57021" lon="1.44198">
        <ele>257.79998779297</ele>
        <time>2013-09-14T08:39:52Z</time>
      </trkpt>
      <trkpt lat="43.57021" lon="1.44198">
        <ele>257.75999755859</ele>
        <time>2013-09-14T08:39:56Z</time>
      </trkpt>
      <trkpt lat="43.57021" lon="1.44198">
        <ele>257.79998779297</ele>
        <time>2013-09-14T08:39:59Z</time>
      </trkpt>
      <trkpt lat="43.57021" lon="1.44198">
        <ele>257.79998779297</ele>
        <time>2013-09-14T08:40:02Z</time>
      </trkpt>
      <trkpt lat="43.57021" lon="1.44198">
        <ele>257.79998779297</ele>
        <time>2013-09-14T08:40:06Z</time>
      </trkpt>
      <trkpt lat="43.57021" lon="1.44198">
        <ele>257.79998779297</ele>
        <time>2013-09-14T08:40:10Z</time>
      </trkpt>
      <trkpt lat="43.57021" lon="1.44198">
        <ele>257.79998779297</ele>
        <time>2013-09-14T08:40:14Z</time>
      </trkpt>
      <trkpt lat="43.57021" lon="1.44198">
        <ele>257.79998779297</ele>
        <time>2013-09-14T08:40:17Z</time>
      </trkpt>
      <trkpt lat="43.57017" lon="1.44199">
        <ele>259.29999796549</ele>
        <time>2013-09-14T08:40:21Z</time>
      </trkpt>
      <trkpt lat="43.57008" lon="1.44199">
        <ele>260.77500152588</ele>
        <time>2013-09-14T08:40:25Z</time>
      </trkpt>
      <trkpt lat="43.56997" lon="1.44199">
        <ele>264.06666056315</ele>
        <time>2013-09-14T08:40:28Z</time>
      </trkpt>
      <trkpt lat="43.56988" lon="1.44198">
        <ele>267.1200012207</ele>
        <time>2013-09-14T08:40:32Z</time>
      </trkpt>
      <trkpt lat="43.56979" lon="1.44199">
        <ele>267.79999796549</ele>
        <time>2013-09-14T08:40:35Z</time>
      </trkpt>
      <trkpt lat="43.5697" lon="1.44202">
        <ele>267.25</ele>
        <time>2013-09-14T08:40:39Z</time>
      </trkpt>
      <trkpt lat="43.56962" lon="1.44203">
        <ele>265.36666870117</ele>
        <time>2013-09-14T08:40:43Z</time>
      </trkpt>
      <trkpt lat="43.56953" lon="1.44202">
        <ele>267.54999542236</ele>
        <time>2013-09-14T08:40:46Z</time>
      </trkpt>
      <trkpt lat="43.56944" lon="1.44202">
        <ele>269.55000305176</ele>
        <time>2013-09-14T08:40:50Z</time>
      </trkpt>
      <trkpt lat="43.56935" lon="1.44203">
        <ele>271.56666056315</ele>
        <time>2013-09-14T08:40:53Z</time>
      </trkpt>
      <trkpt lat="43.56926" lon="1.44205">
        <ele>272.07500457764</ele>
        <time>2013-09-14T08:40:57Z</time>
      </trkpt>
      <trkpt lat="43.56918" lon="1.44208">
        <ele>271.86665852865</ele>
        <time>2013-09-14T08:41:00Z</time>
      </trkpt>
      <trkpt lat="43.56912" lon="1.4421">
        <ele>271.93333943685</ele>
        <time>2013-09-14T08:41:03Z</time>
      </trkpt>
      <trkpt lat="43.56907" lon="1.44212">
        <ele>272.56667073568</ele>
        <time>2013-09-14T08:41:07Z</time>
      </trkpt>
      <trkpt lat="43.56901" lon="1.44213">
        <ele>274.19999186198</ele>
        <time>2013-09-14T08:41:10Z</time>
      </trkpt>
      <trkpt lat="43.56893" lon="1.44214">
        <ele>274.6799987793</ele>
        <time>2013-09-14T08:41:14Z</time>
      </trkpt>
      <trkpt lat="43.56884" lon="1.44216">
        <ele>275.27500152588</ele>
        <time>2013-09-14T08:41:19Z</time>
      </trkpt>
      <trkpt lat="43.56873" lon="1.44218">
        <ele>277.54000244141</ele>
        <time>2013-09-14T08:41:24Z</time>
      </trkpt>
      <trkpt lat="43.56862" lon="1.44218">
        <ele>279.10000610352</ele>
        <time>2013-09-14T08:41:27Z</time>
      </trkpt>
      <trkpt lat="43.56853" lon="1.44219">
        <ele>280.36000366211</ele>
        <time>2013-09-14T08:41:31Z</time>
      </trkpt>
      <trkpt lat="43.56842" lon="1.44223">
        <ele>280.27500915527</ele>
        <time>2013-09-14T08:41:35Z</time>
      </trkpt>
      <trkpt lat="43.56832" lon="1.44227">
        <ele>282.25000762939</ele>
        <time>2013-09-14T08:41:39Z</time>
      </trkpt>
      <trkpt lat="43.5682" lon="1.44232">
        <ele>280.29999796549</ele>
        <time>2013-09-14T08:41:43Z</time>
      </trkpt>
      <trkpt lat="43.56808" lon="1.44233">
        <ele>281.07499694824</ele>
        <time>2013-09-14T08:41:46Z</time>
      </trkpt>
      <trkpt lat="43.56796" lon="1.4423">
        <ele>280.72500610352</ele>
        <time>2013-09-14T08:41:50Z</time>
      </trkpt>
      <trkpt lat="43.5678" lon="1.44225">
        <ele>280.42500305176</ele>
        <time>2013-09-14T08:41:54Z</time>
      </trkpt>
      <trkpt lat="43.56761" lon="1.4422">
        <ele>280.57500457764</ele>
        <time>2013-09-14T08:41:58Z</time>
      </trkpt>
      <trkpt lat="43.56739" lon="1.44217">
        <ele>278.44999694824</ele>
        <time>2013-09-14T08:42:02Z</time>
      </trkpt>
      <trkpt lat="43.56719" lon="1.44215">
        <ele>279.16666666667</ele>
        <time>2013-09-14T08:42:05Z</time>
      </trkpt>
      <trkpt lat="43.56707" lon="1.44215">
        <ele>280.07500457764</ele>
        <time>2013-09-14T08:42:09Z</time>
      </trkpt>
      <trkpt lat="43.56697" lon="1.44215">
        <ele>278.85000610352</ele>
        <time>2013-09-14T08:42:13Z</time>
      </trkpt>
      <trkpt lat="43.56688" lon="1.44215">
        <ele>278.76667277018</ele>
        <time>2013-09-14T08:42:16Z</time>
      </trkpt>
      <trkpt lat="43.56679" lon="1.44214">
        <ele>278.65000152588</ele>
        <time>2013-09-14T08:42:20Z</time>
      </trkpt>
      <trkpt lat="43.56671" lon="1.44216">
        <ele>279.64999389648</ele>
        <time>2013-09-14T08:42:24Z</time>
      </trkpt>
      <trkpt lat="43.56664" lon="1.44227">
        <ele>280.96666463216</ele>
        <time>2013-09-14T08:42:27Z</time>
      </trkpt>
      <trkpt lat="43.56656" lon="1.44241">
        <ele>283.09999847412</ele>
        <time>2013-09-14T08:42:31Z</time>
      </trkpt>
      <trkpt lat="43.56647" lon="1.44255">
        <ele>284.39999389648</ele>
        <time>2013-09-14T08:42:34Z</time>
      </trkpt>
      <trkpt lat="43.56638" lon="1.4427">
        <ele>285.07498931885</ele>
        <time>2013-09-14T08:42:38Z</time>
      </trkpt>
      <trkpt lat="43.56629" lon="1.44286">
        <ele>286.00000762939</ele>
        <time>2013-09-14T08:42:42Z</time>
      </trkpt>
      <trkpt lat="43.56622" lon="1.44299">
        <ele>288.09999593099</ele>
        <time>2013-09-14T08:42:46Z</time>
      </trkpt>
      <trkpt lat="43.56617" lon="1.44313">
        <ele>289.84999847412</ele>
        <time>2013-09-14T08:42:49Z</time>
      </trkpt>
      <trkpt lat="43.56614" lon="1.44328">
        <ele>291.35000610352</ele>
        <time>2013-09-14T08:42:53Z</time>
      </trkpt>
      <trkpt lat="43.56612" lon="1.4434">
        <ele>293.67499542236</ele>
        <time>2013-09-14T08:42:57Z</time>
      </trkpt>
      <trkpt lat="43.56609" lon="1.44351">
        <ele>296.42499542236</ele>
        <time>2013-09-14T08:43:01Z</time>
      </trkpt>
      <trkpt lat="43.56606" lon="1.44362">
        <ele>299.19999694824</ele>
        <time>2013-09-14T08:43:05Z</time>
      </trkpt>
      <trkpt lat="43.56604" lon="1.44372">
        <ele>302.52499389648</ele>
        <time>2013-09-14T08:43:09Z</time>
      </trkpt>
      <trkpt lat="43.56602" lon="1.4438">
        <ele>305.46666463216</ele>
        <time>2013-09-14T08:43:12Z</time>
      </trkpt>
      <trkpt lat="43.56597" lon="1.4439">
        <ele>302.84999847412</ele>
        <time>2013-09-14T08:43:16Z</time>
      </trkpt>
      <trkpt lat="43.56588" lon="1.44403">
        <ele>295.59999847412</ele>
        <time>2013-09-14T08:43:20Z</time>
      </trkpt>
      <trkpt lat="43.56577" lon="1.44416">
        <ele>294.125</ele>
        <time>2013-09-14T08:43:24Z</time>
      </trkpt>
      <trkpt lat="43.5657" lon="1.44424">
        <ele>293.93333943685</ele>
        <time>2013-09-14T08:43:27Z</time>
      </trkpt>
      <trkpt lat="43.56566" lon="1.44426">
        <ele>293.99999237061</ele>
        <time>2013-09-14T08:43:31Z</time>
      </trkpt>
      <trkpt lat="43.56568" lon="1.44426">
        <ele>294.73332722982</ele>
        <time>2013-09-14T08:43:35Z</time>
      </trkpt>
      <trkpt lat="43.56569" lon="1.44426">
        <ele>294.7200012207</ele>
        <time>2013-09-14T08:43:39Z</time>
      </trkpt>
      <trkpt lat="43.5657" lon="1.44426">
        <ele>295.02500152588</ele>
        <time>2013-09-14T08:43:43Z</time>
      </trkpt>
      <trkpt lat="43.56571" lon="1.44426">
        <ele>295</ele>
        <time>2013-09-14T08:43:47Z</time>
      </trkpt>
      <trkpt lat="43.56571" lon="1.44426">
        <ele>295</ele>
        <time>2013-09-14T08:43:50Z</time>
      </trkpt>
      <trkpt lat="43.56571" lon="1.44426">
        <ele>295</ele>
        <time>2013-09-14T08:43:53Z</time>
      </trkpt>
      <trkpt lat="43.56571" lon="1.44426">
        <ele>294.92499542236</ele>
        <time>2013-09-14T08:43:57Z</time>
      </trkpt>
      <trkpt lat="43.56571" lon="1.44426">
        <ele>294.79998779297</ele>
        <time>2013-09-14T08:44:00Z</time>
      </trkpt>
      <trkpt lat="43.56571" lon="1.44426">
        <ele>294.79998779297</ele>
        <time>2013-09-14T08:44:03Z</time>
      </trkpt>
      <trkpt lat="43.56571" lon="1.44426">
        <ele>294.79998779297</ele>
        <time>2013-09-14T08:44:07Z</time>
      </trkpt>
      <trkpt lat="43.56571" lon="1.44426">
        <ele>294.79998779297</ele>
        <time>2013-09-14T08:44:10Z</time>
      </trkpt>
      <trkpt lat="43.56571" lon="1.44426">
        <ele>294.89999389648</ele>
        <time>2013-09-14T08:44:14Z</time>
      </trkpt>
      <trkpt lat="43.56571" lon="1.44426">
        <ele>294.89999389648</ele>
        <time>2013-09-14T08:44:18Z</time>
      </trkpt>
      <trkpt lat="43.56571" lon="1.44426">
        <ele>294.89999389648</ele>
        <time>2013-09-14T08:44:22Z</time>
      </trkpt>
      <trkpt lat="43.56571" lon="1.44426">
        <ele>294.89999389648</ele>
        <time>2013-09-14T08:44:25Z</time>
      </trkpt>
      <trkpt lat="43.56571" lon="1.44426">
        <ele>294.89999389648</ele>
        <time>2013-09-14T08:44:29Z</time>
      </trkpt>
      <trkpt lat="43.56571" lon="1.44426">
        <ele>294.89999389648</ele>
        <time>2013-09-14T08:44:32Z</time>
      </trkpt>
      <trkpt lat="43.56571" lon="1.44426">
        <ele>294.89999389648</ele>
        <time>2013-09-14T08:44:35Z</time>
      </trkpt>
      <trkpt lat="43.56571" lon="1.44426">
        <ele>294.89999389648</ele>
        <time>2013-09-14T08:44:38Z</time>
      </trkpt>
      <trkpt lat="43.56571" lon="1.44426">
        <ele>294.89999389648</ele>
        <time>2013-09-14T08:44:43Z</time>
      </trkpt>
      <trkpt lat="43.56571" lon="1.44426">
        <ele>294.89999389648</ele>
        <time>2013-09-14T08:44:47Z</time>
      </trkpt>
      <trkpt lat="43.56571" lon="1.44426">
        <ele>294.84999084473</ele>
        <time>2013-09-14T08:44:50Z</time>
      </trkpt>
      <trkpt lat="43.56571" lon="1.44426">
        <ele>294.79998779297</ele>
        <time>2013-09-14T08:44:53Z</time>
      </trkpt>
      <trkpt lat="43.56571" lon="1.44426">
        <ele>294.79998779297</ele>
        <time>2013-09-14T08:44:57Z</time>
      </trkpt>
      <trkpt lat="43.56571" lon="1.44426">
        <ele>294.79998779297</ele>
        <time>2013-09-14T08:45:00Z</time>
      </trkpt>
      <trkpt lat="43.56571" lon="1.44426">
        <ele>294.79998779297</ele>
        <time>2013-09-14T08:45:04Z</time>
      </trkpt>
      <trkpt lat="43.56571" lon="1.44426">
        <ele>294.79998779297</ele>
        <time>2013-09-14T08:45:08Z</time>
      </trkpt>
      <trkpt lat="43.56571" lon="1.44426">
        <ele>294.79998779297</ele>
        <time>2013-09-14T08:45:12Z</time>
      </trkpt>
      <trkpt lat="43.56571" lon="1.44426">
        <ele>294.82498931885</ele>
        <time>2013-09-14T08:45:16Z</time>
      </trkpt>
      <trkpt lat="43.56571" lon="1.44426">
        <ele>294.89999389648</ele>
        <time>2013-09-14T08:45:19Z</time>
      </trkpt>
      <trkpt lat="43.56571" lon="1.44426">
        <ele>295.60000610352</ele>
        <time>2013-09-14T08:45:22Z</time>
      </trkpt>
      <trkpt lat="43.5657" lon="1.44424">
        <ele>296.19999186198</ele>
        <time>2013-09-14T08:45:26Z</time>
      </trkpt>
      <trkpt lat="43.56569" lon="1.44424">
        <ele>295.8200012207</ele>
        <time>2013-09-14T08:45:30Z</time>
      </trkpt>
      <trkpt lat="43.56568" lon="1.44423">
        <ele>295.30000305176</ele>
        <time>2013-09-14T08:45:35Z</time>
      </trkpt>
      <trkpt lat="43.56565" lon="1.44426">
        <ele>295.38000488281</ele>
        <time>2013-09-14T08:45:39Z</time>
      </trkpt>
      <trkpt lat="43.56557" lon="1.44431">
        <ele>294.63333129883</ele>
        <time>2013-09-14T08:45:42Z</time>
      </trkpt>
      <trkpt lat="43.56549" lon="1.44436">
        <ele>294.5</ele>
        <time>2013-09-14T08:45:46Z</time>
      </trkpt>
      <trkpt lat="43.56539" lon="1.44442">
        <ele>293.57500457764</ele>
        <time>2013-09-14T08:45:50Z</time>
      </trkpt>
      <trkpt lat="43.56528" lon="1.44449">
        <ele>293.94999694824</ele>
        <time>2013-09-14T08:45:54Z</time>
      </trkpt>
      <trkpt lat="43.56518" lon="1.44458">
        <ele>294.80001068115</ele>
        <time>2013-09-14T08:45:58Z</time>
      </trkpt>
      <trkpt lat="43.56503" lon="1.4447">
        <ele>295.02499389648</ele>
        <time>2013-09-14T08:46:02Z</time>
      </trkpt>
      <trkpt lat="43.56488" lon="1.44483">
        <ele>294.07498931885</ele>
        <time>2013-09-14T08:46:06Z</time>
      </trkpt>
      <trkpt lat="43.56473" lon="1.44496">
        <ele>293.17500305176</ele>
        <time>2013-09-14T08:46:10Z</time>
      </trkpt>
      <trkpt lat="43.56457" lon="1.44508">
        <ele>292.02500152588</ele>
        <time>2013-09-14T08:46:14Z</time>
      </trkpt>
      <trkpt lat="43.56445" lon="1.44518">
        <ele>290.96666463216</ele>
        <time>2013-09-14T08:46:17Z</time>
      </trkpt>
      <trkpt lat="43.56432" lon="1.44528">
        <ele>291.16666666667</ele>
        <time>2013-09-14T08:46:20Z</time>
      </trkpt>
      <trkpt lat="43.56415" lon="1.4454">
        <ele>291.57499694824</ele>
        <time>2013-09-14T08:46:24Z</time>
      </trkpt>
      <trkpt lat="43.56391" lon="1.44556">
        <ele>291.17499542236</ele>
        <time>2013-09-14T08:46:28Z</time>
      </trkpt>
      <trkpt lat="43.56368" lon="1.44577">
        <ele>289.63333129883</ele>
        <time>2013-09-14T08:46:31Z</time>
      </trkpt>
      <trkpt lat="43.56345" lon="1.44599">
        <ele>289.47499847412</ele>
        <time>2013-09-14T08:46:35Z</time>
      </trkpt>
      <trkpt lat="43.56321" lon="1.44622">
        <ele>291.30000813802</ele>
        <time>2013-09-14T08:46:38Z</time>
      </trkpt>
      <trkpt lat="43.56304" lon="1.44637">
        <ele>292.44998931885</ele>
        <time>2013-09-14T08:46:42Z</time>
      </trkpt>
      <trkpt lat="43.56294" lon="1.44647">
        <ele>292.83334350586</ele>
        <time>2013-09-14T08:46:45Z</time>
      </trkpt>
      <trkpt lat="43.56282" lon="1.44654">
        <ele>293.07500457764</ele>
        <time>2013-09-14T08:46:49Z</time>
      </trkpt>
      <trkpt lat="43.56269" lon="1.4466">
        <ele>292.94999694824</ele>
        <time>2013-09-14T08:46:53Z</time>
      </trkpt>
      <trkpt lat="43.56259" lon="1.44666">
        <ele>292.53333536784</ele>
        <time>2013-09-14T08:46:56Z</time>
      </trkpt>
      <trkpt lat="43.5625" lon="1.44671">
        <ele>292.47499847412</ele>
        <time>2013-09-14T08:47:01Z</time>
      </trkpt>
      <trkpt lat="43.56237" lon="1.44677">
        <ele>296.95999755859</ele>
        <time>2013-09-14T08:47:05Z</time>
      </trkpt>
      <trkpt lat="43.56223" lon="1.44682">
        <ele>296.73333740234</ele>
        <time>2013-09-14T08:47:08Z</time>
      </trkpt>
      <trkpt lat="43.56209" lon="1.44685">
        <ele>295.60000610352</ele>
        <time>2013-09-14T08:47:12Z</time>
      </trkpt>
      <trkpt lat="43.56187" lon="1.44695">
        <ele>295.09999084473</ele>
        <time>2013-09-14T08:47:16Z</time>
      </trkpt>
      <trkpt lat="43.56167" lon="1.44702">
        <ele>294.66666666667</ele>
        <time>2013-09-14T08:47:19Z</time>
      </trkpt>
      <trkpt lat="43.56147" lon="1.44708">
        <ele>296.02499389648</ele>
        <time>2013-09-14T08:47:23Z</time>
      </trkpt>
      <trkpt lat="43.56132" lon="1.44706">
        <ele>294.43332926432</ele>
        <time>2013-09-14T08:47:26Z</time>
      </trkpt>
      <trkpt lat="43.56121" lon="1.447">
        <ele>293.99998982747</ele>
        <time>2013-09-14T08:47:29Z</time>
      </trkpt>
      <trkpt lat="43.56111" lon="1.44697">
        <ele>294.54999542236</ele>
        <time>2013-09-14T08:47:33Z</time>
      </trkpt>
      <trkpt lat="43.56101" lon="1.44696">
        <ele>294.90000406901</ele>
        <time>2013-09-14T08:47:36Z</time>
      </trkpt>
      <trkpt lat="43.56091" lon="1.44698">
        <ele>296.875</ele>
        <time>2013-09-14T08:47:40Z</time>
      </trkpt>
      <trkpt lat="43.5608" lon="1.447">
        <ele>297.05000305176</ele>
        <time>2013-09-14T08:47:44Z</time>
      </trkpt>
      <trkpt lat="43.56071" lon="1.44699">
        <ele>297.13333129883</ele>
        <time>2013-09-14T08:47:47Z</time>
      </trkpt>
      <trkpt lat="43.56064" lon="1.44701">
        <ele>297.19999694824</ele>
        <time>2013-09-14T08:47:51Z</time>
      </trkpt>
      <trkpt lat="43.56055" lon="1.44704">
        <ele>297.73333740234</ele>
        <time>2013-09-14T08:47:54Z</time>
      </trkpt>
      <trkpt lat="43.56047" lon="1.44702">
        <ele>298.05000305176</ele>
        <time>2013-09-14T08:47:57Z</time>
      </trkpt>
      <trkpt lat="43.56037" lon="1.44698">
        <ele>298.22500610352</ele>
        <time>2013-09-14T08:48:01Z</time>
      </trkpt>
      <trkpt lat="43.56025" lon="1.44692">
        <ele>300.32499694824</ele>
        <time>2013-09-14T08:48:04Z</time>
      </trkpt>
      <trkpt lat="43.56016" lon="1.44685">
        <ele>301.15000915527</ele>
        <time>2013-09-14T08:48:09Z</time>
      </trkpt>
      <trkpt lat="43.56005" lon="1.44682">
        <ele>300.52500152588</ele>
        <time>2013-09-14T08:48:13Z</time>
      </trkpt>
      <trkpt lat="43.55993" lon="1.44679">
        <ele>299.40000152588</ele>
        <time>2013-09-14T08:48:16Z</time>
      </trkpt>
      <trkpt lat="43.55982" lon="1.44677">
        <ele>300.20001220703</ele>
        <time>2013-09-14T08:48:20Z</time>
      </trkpt>
      <trkpt lat="43.55972" lon="1.44675">
        <ele>301.16666666667</ele>
        <time>2013-09-14T08:48:23Z</time>
      </trkpt>
      <trkpt lat="43.55964" lon="1.44673">
        <ele>303.16666666667</ele>
        <time>2013-09-14T08:48:27Z</time>
      </trkpt>
      <trkpt lat="43.55954" lon="1.4467">
        <ele>305.3</ele>
        <time>2013-09-14T08:48:30Z</time>
      </trkpt>
      <trkpt lat="43.55945" lon="1.44669">
        <ele>309.44999694824</ele>
        <time>2013-09-14T08:48:33Z</time>
      </trkpt>
      <trkpt lat="43.55938" lon="1.44668">
        <ele>311.16665649414</ele>
        <time>2013-09-14T08:48:37Z</time>
      </trkpt>
      <trkpt lat="43.55928" lon="1.44667">
        <ele>312.99999389648</ele>
        <time>2013-09-14T08:48:41Z</time>
      </trkpt>
      <trkpt lat="43.55918" lon="1.44664">
        <ele>315.30000813802</ele>
        <time>2013-09-14T08:48:44Z</time>
      </trkpt>
      <trkpt lat="43.55913" lon="1.44656">
        <ele>316.44999694824</ele>
        <time>2013-09-14T08:48:48Z</time>
      </trkpt>
      <trkpt lat="43.55914" lon="1.44649">
        <ele>317</ele>
        <time>2013-09-14T08:48:51Z</time>
      </trkpt>
      <trkpt lat="43.55916" lon="1.44642">
        <ele>316.25</ele>
        <time>2013-09-14T08:48:55Z</time>
      </trkpt>
      <trkpt lat="43.55914" lon="1.44628">
        <ele>315.70000457764</ele>
        <time>2013-09-14T08:48:58Z</time>
      </trkpt>
      <trkpt lat="43.55916" lon="1.44614">
        <ele>313.5</ele>
        <time>2013-09-14T08:49:02Z</time>
      </trkpt>
      <trkpt lat="43.5592" lon="1.44603">
        <ele>313.63334147135</ele>
        <time>2013-09-14T08:49:06Z</time>
      </trkpt>
      <trkpt lat="43.55921" lon="1.446">
        <ele>314.35000610352</ele>
        <time>2013-09-14T08:49:09Z</time>
      </trkpt>
      <trkpt lat="43.55924" lon="1.44594">
        <ele>314.20000457764</ele>
        <time>2013-09-14T08:49:13Z</time>
      </trkpt>
      <trkpt lat="43.55927" lon="1.44585">
        <ele>314.52500152588</ele>
        <time>2013-09-14T08:49:17Z</time>
      </trkpt>
      <trkpt lat="43.55928" lon="1.44562">
        <ele>314.37500762939</ele>
        <time>2013-09-14T08:49:21Z</time>
      </trkpt>
      <trkpt lat="43.55925" lon="1.44547">
        <ele>315.22500610352</ele>
        <time>2013-09-14T08:49:25Z</time>
      </trkpt>
      <trkpt lat="43.55921" lon="1.4454">
        <ele>316.05000305176</ele>
        <time>2013-09-14T08:49:28Z</time>
      </trkpt>
      <trkpt lat="43.55917" lon="1.44538">
        <ele>316.46666463216</ele>
        <time>2013-09-14T08:49:31Z</time>
      </trkpt>
      <trkpt lat="43.55916" lon="1.44539">
        <ele>315.19999694824</ele>
        <time>2013-09-14T08:49:34Z</time>
      </trkpt>
      <trkpt lat="43.55916" lon="1.44541">
        <ele>315.94999694824</ele>
        <time>2013-09-14T08:49:38Z</time>
      </trkpt>
      <trkpt lat="43.55917" lon="1.44542">
        <ele>315.57499694824</ele>
        <time>2013-09-14T08:49:42Z</time>
      </trkpt>
      <trkpt lat="43.55916" lon="1.44542">
        <ele>315.23333740234</ele>
        <time>2013-09-14T08:49:45Z</time>
      </trkpt>
      <trkpt lat="43.55916" lon="1.44542">
        <ele>315.04999542236</ele>
        <time>2013-09-14T08:49:49Z</time>
      </trkpt>
      <trkpt lat="43.55916" lon="1.44542">
        <ele>315.05000305176</ele>
        <time>2013-09-14T08:49:53Z</time>
      </trkpt>
      <trkpt lat="43.55916" lon="1.44543">
        <ele>315.10000610352</ele>
        <time>2013-09-14T08:49:57Z</time>
      </trkpt>
      <trkpt lat="43.55916" lon="1.44543">
        <ele>315.10000610352</ele>
        <time>2013-09-14T08:50:00Z</time>
      </trkpt>
      <trkpt lat="43.55916" lon="1.44543">
        <ele>315.17501068115</ele>
        <time>2013-09-14T08:50:04Z</time>
      </trkpt>
      <trkpt lat="43.55916" lon="1.44543">
        <ele>315.66667683919</ele>
        <time>2013-09-14T08:50:07Z</time>
      </trkpt>
      <trkpt lat="43.55916" lon="1.44543">
        <ele>315.99999237061</ele>
        <time>2013-09-14T08:50:11Z</time>
      </trkpt>
      <trkpt lat="43.55916" lon="1.44543">
        <ele>316.66666666667</ele>
        <time>2013-09-14T08:50:14Z</time>
      </trkpt>
      <trkpt lat="43.55916" lon="1.44543">
        <ele>317.33333333333</ele>
        <time>2013-09-14T08:50:17Z</time>
      </trkpt>
      <trkpt lat="43.55916" lon="1.44543">
        <ele>317.39999389648</ele>
        <time>2013-09-14T08:50:20Z</time>
      </trkpt>
      <trkpt lat="43.55916" lon="1.44543">
        <ele>317.39999389648</ele>
        <time>2013-09-14T08:50:24Z</time>
      </trkpt>
      <trkpt lat="43.55916" lon="1.44543">
        <ele>317.39999389648</ele>
        <time>2013-09-14T08:50:27Z</time>
      </trkpt>
      <trkpt lat="43.55916" lon="1.44543">
        <ele>317.39999389648</ele>
        <time>2013-09-14T08:50:31Z</time>
      </trkpt>
      <trkpt lat="43.55916" lon="1.44543">
        <ele>317.39999389648</ele>
        <time>2013-09-14T08:50:35Z</time>
      </trkpt>
      <trkpt lat="43.55916" lon="1.44543">
        <ele>317.39999389648</ele>
        <time>2013-09-14T08:50:39Z</time>
      </trkpt>
      <trkpt lat="43.55916" lon="1.44543">
        <ele>317.39999389648</ele>
        <time>2013-09-14T08:50:43Z</time>
      </trkpt>
      <trkpt lat="43.55916" lon="1.44543">
        <ele>317.39999389648</ele>
        <time>2013-09-14T08:50:46Z</time>
      </trkpt>
      <trkpt lat="43.55916" lon="1.44543">
        <ele>317.39999389648</ele>
        <time>2013-09-14T08:50:49Z</time>
      </trkpt>
      <trkpt lat="43.55916" lon="1.44543">
        <ele>317.39999389648</ele>
        <time>2013-09-14T08:50:53Z</time>
      </trkpt>
      <trkpt lat="43.55916" lon="1.44543">
        <ele>317.39999389648</ele>
        <time>2013-09-14T08:50:57Z</time>
      </trkpt>
      <trkpt lat="43.55916" lon="1.44543">
        <ele>317.39999389648</ele>
        <time>2013-09-14T08:51:01Z</time>
      </trkpt>
      <trkpt lat="43.55916" lon="1.44543">
        <ele>317.39999389648</ele>
        <time>2013-09-14T08:51:05Z</time>
      </trkpt>
      <trkpt lat="43.55916" lon="1.44543">
        <ele>317.39999389648</ele>
        <time>2013-09-14T08:51:08Z</time>
      </trkpt>
      <trkpt lat="43.55916" lon="1.44543">
        <ele>317.39999389648</ele>
        <time>2013-09-14T08:51:12Z</time>
      </trkpt>
      <trkpt lat="43.55916" lon="1.44543">
        <ele>317.39999389648</ele>
        <time>2013-09-14T08:51:15Z</time>
      </trkpt>
      <trkpt lat="43.55916" lon="1.44543">
        <ele>317.39999389648</ele>
        <time>2013-09-14T08:51:19Z</time>
      </trkpt>
      <trkpt lat="43.55916" lon="1.44543">
        <ele>317.39999389648</ele>
        <time>2013-09-14T08:51:23Z</time>
      </trkpt>
      <trkpt lat="43.55916" lon="1.44543">
        <ele>317.39999389648</ele>
        <time>2013-09-14T08:51:27Z</time>
      </trkpt>
      <trkpt lat="43.55916" lon="1.44543">
        <ele>317.39999389648</ele>
        <time>2013-09-14T08:51:31Z</time>
      </trkpt>
      <trkpt lat="43.55916" lon="1.44543">
        <ele>317.39999389648</ele>
        <time>2013-09-14T08:51:34Z</time>
      </trkpt>
      <trkpt lat="43.5592" lon="1.44544">
        <ele>314.54999542236</ele>
        <time>2013-09-14T08:51:38Z</time>
      </trkpt>
      <trkpt lat="43.55927" lon="1.44544">
        <ele>313.16666666667</ele>
        <time>2013-09-14T08:51:41Z</time>
      </trkpt>
      <trkpt lat="43.55929" lon="1.44544">
        <ele>312.55000305176</ele>
        <time>2013-09-14T08:51:45Z</time>
      </trkpt>
      <trkpt lat="43.55928" lon="1.44544">
        <ele>312.70001220703</ele>
        <time>2013-09-14T08:51:49Z</time>
      </trkpt>
      <trkpt lat="43.55929" lon="1.44544">
        <ele>313</ele>
        <time>2013-09-14T08:51:52Z</time>
      </trkpt>
      <trkpt lat="43.55929" lon="1.44544">
        <ele>313</ele>
        <time>2013-09-14T08:51:55Z</time>
      </trkpt>
      <trkpt lat="43.55929" lon="1.44544">
        <ele>312.82498931885</ele>
        <time>2013-09-14T08:51:59Z</time>
      </trkpt>
      <trkpt lat="43.55929" lon="1.44544">
        <ele>312.79998779297</ele>
        <time>2013-09-14T08:52:02Z</time>
      </trkpt>
      <trkpt lat="43.55929" lon="1.44544">
        <ele>312.79998779297</ele>
        <time>2013-09-14T08:52:05Z</time>
      </trkpt>
      <trkpt lat="43.55929" lon="1.44544">
        <ele>312.79998779297</ele>
        <time>2013-09-14T08:52:09Z</time>
      </trkpt>
      <trkpt lat="43.55929" lon="1.44544">
        <ele>312.79998779297</ele>
        <time>2013-09-14T08:52:13Z</time>
      </trkpt>
      <trkpt lat="43.55929" lon="1.44544">
        <ele>312.79998779297</ele>
        <time>2013-09-14T08:52:16Z</time>
      </trkpt>
      <trkpt lat="43.55929" lon="1.44544">
        <ele>312.79998779297</ele>
        <time>2013-09-14T08:52:20Z</time>
      </trkpt>
      <trkpt lat="43.55929" lon="1.44544">
        <ele>312.79998779297</ele>
        <time>2013-09-14T08:52:23Z</time>
      </trkpt>
      <trkpt lat="43.55929" lon="1.44544">
        <ele>312.79998779297</ele>
        <time>2013-09-14T08:52:27Z</time>
      </trkpt>
      <trkpt lat="43.55929" lon="1.44544">
        <ele>312.70001220703</ele>
        <time>2013-09-14T08:52:31Z</time>
      </trkpt>
      <trkpt lat="43.55929" lon="1.44544">
        <ele>312.73333740234</ele>
        <time>2013-09-14T08:52:34Z</time>
      </trkpt>
      <trkpt lat="43.55929" lon="1.44544">
        <ele>312.79998779297</ele>
        <time>2013-09-14T08:52:38Z</time>
      </trkpt>
      <trkpt lat="43.55928" lon="1.44544">
        <ele>312.44999694824</ele>
        <time>2013-09-14T08:52:42Z</time>
      </trkpt>
      <trkpt lat="43.55927" lon="1.44543">
        <ele>311.70000203451</ele>
        <time>2013-09-14T08:52:45Z</time>
      </trkpt>
      <trkpt lat="43.55928" lon="1.44544">
        <ele>311.72499847412</ele>
        <time>2013-09-14T08:52:49Z</time>
      </trkpt>
      <trkpt lat="43.55928" lon="1.44544">
        <ele>311.5</ele>
        <time>2013-09-14T08:52:52Z</time>
      </trkpt>
      <trkpt lat="43.55928" lon="1.44544">
        <ele>311.47499847412</ele>
        <time>2013-09-14T08:52:56Z</time>
      </trkpt>
      <trkpt lat="43.55929" lon="1.44544">
        <ele>311.39999389648</ele>
        <time>2013-09-14T08:52:59Z</time>
      </trkpt>
      <trkpt lat="43.55929" lon="1.44544">
        <ele>311.39999389648</ele>
        <time>2013-09-14T08:53:02Z</time>
      </trkpt>
      <trkpt lat="43.55929" lon="1.44544">
        <ele>311.39999389648</ele>
        <time>2013-09-14T08:53:06Z</time>
      </trkpt>
      <trkpt lat="43.55929" lon="1.44544">
        <ele>311.39999389648</ele>
        <time>2013-09-14T08:53:09Z</time>
      </trkpt>
      <trkpt lat="43.55929" lon="1.44544">
        <ele>311.39999389648</ele>
        <time>2013-09-14T08:53:13Z</time>
      </trkpt>
      <trkpt lat="43.55929" lon="1.44544">
        <ele>311.39999389648</ele>
        <time>2013-09-14T08:53:17Z</time>
      </trkpt>
      <trkpt lat="43.55929" lon="1.44544">
        <ele>311.39999389648</ele>
        <time>2013-09-14T08:53:21Z</time>
      </trkpt>
      <trkpt lat="43.55929" lon="1.44544">
        <ele>311.39999389648</ele>
        <time>2013-09-14T08:53:25Z</time>
      </trkpt>
      <trkpt lat="43.55929" lon="1.44544">
        <ele>311.39999389648</ele>
        <time>2013-09-14T08:53:28Z</time>
      </trkpt>
      <trkpt lat="43.55929" lon="1.44544">
        <ele>311.39999389648</ele>
        <time>2013-09-14T08:53:32Z</time>
      </trkpt>
      <trkpt lat="43.55929" lon="1.44544">
        <ele>311.39999389648</ele>
        <time>2013-09-14T08:53:36Z</time>
      </trkpt>
      <trkpt lat="43.55929" lon="1.44544">
        <ele>311.37499237061</ele>
        <time>2013-09-14T08:53:39Z</time>
      </trkpt>
      <trkpt lat="43.55929" lon="1.44544">
        <ele>311.5200012207</ele>
        <time>2013-09-14T08:53:43Z</time>
      </trkpt>
      <trkpt lat="43.55929" lon="1.44545">
        <ele>311.56667073568</ele>
        <time>2013-09-14T08:53:46Z</time>
      </trkpt>
      <trkpt lat="43.55928" lon="1.44545">
        <ele>311.57500457764</ele>
        <time>2013-09-14T08:53:50Z</time>
      </trkpt>
      <trkpt lat="43.55928" lon="1.44545">
        <ele>311.60000610352</ele>
        <time>2013-09-14T08:53:53Z</time>
      </trkpt>
      <trkpt lat="43.55928" lon="1.44544">
        <ele>311.60000610352</ele>
        <time>2013-09-14T08:53:56Z</time>
      </trkpt>
      <trkpt lat="43.55928" lon="1.44544">
        <ele>311.60000610352</ele>
        <time>2013-09-14T08:54:00Z</time>
      </trkpt>
      <trkpt lat="43.55928" lon="1.44544">
        <ele>311.60000610352</ele>
        <time>2013-09-14T08:54:03Z</time>
      </trkpt>
      <trkpt lat="43.55928" lon="1.44544">
        <ele>311.60000610352</ele>
        <time>2013-09-14T08:54:06Z</time>
      </trkpt>
      <trkpt lat="43.55928" lon="1.44544">
        <ele>311.60000610352</ele>
        <time>2013-09-14T08:54:10Z</time>
      </trkpt>
      <trkpt lat="43.55928" lon="1.44544">
        <ele>311.60000610352</ele>
        <time>2013-09-14T08:54:13Z</time>
      </trkpt>
      <trkpt lat="43.55928" lon="1.44544">
        <ele>311.60000610352</ele>
        <time>2013-09-14T08:54:17Z</time>
      </trkpt>
      <trkpt lat="43.55928" lon="1.44544">
        <ele>311.60000610352</ele>
        <time>2013-09-14T08:54:22Z</time>
      </trkpt>
      <trkpt lat="43.55928" lon="1.44544">
        <ele>311.60000610352</ele>
        <time>2013-09-14T08:54:25Z</time>
      </trkpt>
      <trkpt lat="43.55928" lon="1.44544">
        <ele>311.60000610352</ele>
        <time>2013-09-14T08:54:29Z</time>
      </trkpt>
      <trkpt lat="43.55928" lon="1.44544">
        <ele>311.60000610352</ele>
        <time>2013-09-14T08:54:32Z</time>
      </trkpt>
      <trkpt lat="43.55928" lon="1.44544">
        <ele>311.60000610352</ele>
        <time>2013-09-14T08:54:36Z</time>
      </trkpt>
      <trkpt lat="43.55928" lon="1.44544">
        <ele>311.60000610352</ele>
        <time>2013-09-14T08:54:39Z</time>
      </trkpt>
      <trkpt lat="43.55928" lon="1.44544">
        <ele>311.60000610352</ele>
        <time>2013-09-14T08:54:43Z</time>
      </trkpt>
      <trkpt lat="43.55928" lon="1.44544">
        <ele>311.63334147135</ele>
        <time>2013-09-14T08:54:46Z</time>
      </trkpt>
      <trkpt lat="43.55929" lon="1.44544">
        <ele>311.70001220703</ele>
        <time>2013-09-14T08:54:50Z</time>
      </trkpt>
      <trkpt lat="43.55929" lon="1.44544">
        <ele>311.70001220703</ele>
        <time>2013-09-14T08:54:54Z</time>
      </trkpt>
      <trkpt lat="43.55929" lon="1.44544">
        <ele>311.66667683919</ele>
        <time>2013-09-14T08:54:57Z</time>
      </trkpt>
      <trkpt lat="43.55929" lon="1.44544">
        <ele>311.60000610352</ele>
        <time>2013-09-14T08:55:01Z</time>
      </trkpt>
      <trkpt lat="43.55929" lon="1.44544">
        <ele>311.60000610352</ele>
        <time>2013-09-14T08:55:05Z</time>
      </trkpt>
      <trkpt lat="43.55929" lon="1.44544">
        <ele>311.60000610352</ele>
        <time>2013-09-14T08:55:09Z</time>
      </trkpt>
      <trkpt lat="43.55929" lon="1.44544">
        <ele>311.60000610352</ele>
        <time>2013-09-14T08:55:12Z</time>
      </trkpt>
      <trkpt lat="43.55929" lon="1.44544">
        <ele>311.60000610352</ele>
        <time>2013-09-14T08:55:15Z</time>
      </trkpt>
      <trkpt lat="43.55929" lon="1.44544">
        <ele>311.60000610352</ele>
        <time>2013-09-14T08:55:19Z</time>
      </trkpt>
      <trkpt lat="43.55929" lon="1.44544">
        <ele>311.60000610352</ele>
        <time>2013-09-14T08:55:23Z</time>
      </trkpt>
      <trkpt lat="43.55929" lon="1.44544">
        <ele>311.60000610352</ele>
        <time>2013-09-14T08:55:27Z</time>
      </trkpt>
      <trkpt lat="43.55929" lon="1.44544">
        <ele>311.60000610352</ele>
        <time>2013-09-14T08:55:31Z</time>
      </trkpt>
      <trkpt lat="43.55929" lon="1.44544">
        <ele>311.60000610352</ele>
        <time>2013-09-14T08:55:34Z</time>
      </trkpt>
      <trkpt lat="43.55929" lon="1.44544">
        <ele>311.60000610352</ele>
        <time>2013-09-14T08:55:38Z</time>
      </trkpt>
      <trkpt lat="43.55929" lon="1.44544">
        <ele>311.60000610352</ele>
        <time>2013-09-14T08:55:41Z</time>
      </trkpt>
      <trkpt lat="43.55929" lon="1.44544">
        <ele>311.60000610352</ele>
        <time>2013-09-14T08:55:45Z</time>
      </trkpt>
      <trkpt lat="43.55929" lon="1.44544">
        <ele>311.60000610352</ele>
        <time>2013-09-14T08:55:49Z</time>
      </trkpt>
      <trkpt lat="43.55929" lon="1.44544">
        <ele>311.60000610352</ele>
        <time>2013-09-14T08:55:52Z</time>
      </trkpt>
      <trkpt lat="43.55929" lon="1.44544">
        <ele>311.60000610352</ele>
        <time>2013-09-14T08:55:56Z</time>
      </trkpt>
      <trkpt lat="43.55929" lon="1.44544">
        <ele>311.60000610352</ele>
        <time>2013-09-14T08:55:59Z</time>
      </trkpt>
      <trkpt lat="43.55928" lon="1.44545">
        <ele>311.63334147135</ele>
        <time>2013-09-14T08:56:02Z</time>
      </trkpt>
      <trkpt lat="43.55927" lon="1.44546">
        <ele>312.15000152588</ele>
        <time>2013-09-14T08:56:06Z</time>
      </trkpt>
      <trkpt lat="43.55924" lon="1.44545">
        <ele>311.17500305176</ele>
        <time>2013-09-14T08:56:10Z</time>
      </trkpt>
      <trkpt lat="43.55921" lon="1.44546">
        <ele>310.77500152588</ele>
        <time>2013-09-14T08:56:14Z</time>
      </trkpt>
      <trkpt lat="43.55917" lon="1.44547">
        <ele>310.90000152588</ele>
        <time>2013-09-14T08:56:20Z</time>
      </trkpt>
      <trkpt lat="43.55918" lon="1.44545">
        <ele>310.36000366211</ele>
        <time>2013-09-14T08:56:23Z</time>
      </trkpt>
      <trkpt lat="43.55918" lon="1.44544">
        <ele>311.53332519531</ele>
        <time>2013-09-14T08:56:27Z</time>
      </trkpt>
      <trkpt lat="43.55919" lon="1.44545">
        <ele>311.75</ele>
        <time>2013-09-14T08:56:30Z</time>
      </trkpt>
      <trkpt lat="43.55919" lon="1.44544">
        <ele>311.42499542236</ele>
        <time>2013-09-14T08:56:35Z</time>
      </trkpt>
      <trkpt lat="43.55919" lon="1.44544">
        <ele>311.39999389648</ele>
        <time>2013-09-14T08:56:39Z</time>
      </trkpt>
      <trkpt lat="43.55919" lon="1.44544">
        <ele>311.39999389648</ele>
        <time>2013-09-14T08:56:43Z</time>
      </trkpt>
      <trkpt lat="43.55918" lon="1.44544">
        <ele>311.32499694824</ele>
        <time>2013-09-14T08:56:46Z</time>
      </trkpt>
      <trkpt lat="43.55916" lon="1.44544">
        <ele>311.23333740234</ele>
        <time>2013-09-14T08:56:50Z</time>
      </trkpt>
      <trkpt lat="43.55913" lon="1.44546">
        <ele>311.625</ele>
        <time>2013-09-14T08:56:54Z</time>
      </trkpt>
      <trkpt lat="43.55909" lon="1.44547">
        <ele>311.05000305176</ele>
        <time>2013-09-14T08:56:58Z</time>
      </trkpt>
      <trkpt lat="43.55908" lon="1.44549">
        <ele>310.72499847412</ele>
        <time>2013-09-14T08:57:03Z</time>
      </trkpt>
      <trkpt lat="43.55909" lon="1.44549">
        <ele>310.88000488281</ele>
        <time>2013-09-14T08:57:07Z</time>
      </trkpt>
      <trkpt lat="43.5591" lon="1.44549">
        <ele>311.15000915527</ele>
        <time>2013-09-14T08:57:11Z</time>
      </trkpt>
      <trkpt lat="43.5591" lon="1.4455">
        <ele>311.26666259766</ele>
        <time>2013-09-14T08:57:14Z</time>
      </trkpt>
      <trkpt lat="43.55909" lon="1.4455">
        <ele>311.42500305176</ele>
        <time>2013-09-14T08:57:17Z</time>
      </trkpt>
      <trkpt lat="43.55906" lon="1.44553">
        <ele>310.73332722982</ele>
        <time>2013-09-14T08:57:20Z</time>
      </trkpt>
      <trkpt lat="43.55902" lon="1.44556">
        <ele>310.23332722982</ele>
        <time>2013-09-14T08:57:24Z</time>
      </trkpt>
      <trkpt lat="43.55897" lon="1.44561">
        <ele>309.5</ele>
        <time>2013-09-14T08:57:29Z</time>
      </trkpt>
      <trkpt lat="43.55892" lon="1.44565">
        <ele>310.125</ele>
        <time>2013-09-14T08:57:33Z</time>
      </trkpt>
      <trkpt lat="43.55882" lon="1.44571">
        <ele>311.70000712077</ele>
        <time>2013-09-14T08:57:37Z</time>
      </trkpt>
      <trkpt lat="43.55872" lon="1.44576">
        <ele>312.44999694824</ele>
        <time>2013-09-14T08:57:40Z</time>
      </trkpt>
      <trkpt lat="43.55863" lon="1.4458">
        <ele>311.97999267578</ele>
        <time>2013-09-14T08:57:45Z</time>
      </trkpt>
      <trkpt lat="43.55843" lon="1.44586">
        <ele>311.19999694824</ele>
        <time>2013-09-14T08:57:49Z</time>
      </trkpt>
      <trkpt lat="43.5582" lon="1.44586">
        <ele>310.79999796549</ele>
        <time>2013-09-14T08:57:52Z</time>
      </trkpt>
      <trkpt lat="43.55786" lon="1.44575">
        <ele>310.74000244141</ele>
        <time>2013-09-14T08:57:57Z</time>
      </trkpt>
      <trkpt lat="43.55751" lon="1.44552">
        <ele>309.55000305176</ele>
        <time>2013-09-14T08:58:00Z</time>
      </trkpt>
      <trkpt lat="43.55722" lon="1.44531">
        <ele>304.57499694824</ele>
        <time>2013-09-14T08:58:04Z</time>
      </trkpt>
      <trkpt lat="43.55702" lon="1.44512">
        <ele>303.03333536784</ele>
        <time>2013-09-14T08:58:07Z</time>
      </trkpt>
      <trkpt lat="43.5569" lon="1.44502">
        <ele>300.83334350586</ele>
        <time>2013-09-14T08:58:10Z</time>
      </trkpt>
      <trkpt lat="43.5568" lon="1.44491">
        <ele>299.05000305176</ele>
        <time>2013-09-14T08:58:14Z</time>
      </trkpt>
      <trkpt lat="43.55668" lon="1.44483">
        <ele>296.93332926432</ele>
        <time>2013-09-14T08:58:18Z</time>
      </trkpt>
      <trkpt lat="43.5564" lon="1.44467">
        <ele>293.49999389648</ele>
        <time>2013-09-14T08:58:21Z</time>
      </trkpt>
      <trkpt lat="43.55608" lon="1.44443">
        <ele>292.79998779297</ele>
        <time>2013-09-14T08:58:25Z</time>
      </trkpt>
      <trkpt lat="43.55575" lon="1.44417">
        <ele>289.92500305176</ele>
        <time>2013-09-14T08:58:29Z</time>
      </trkpt>
      <trkpt lat="43.5554" lon="1.44395">
        <ele>283.53333536784</ele>
        <time>2013-09-14T08:58:33Z</time>
      </trkpt>
      <trkpt lat="43.55499" lon="1.44369">
        <ele>277.49999237061</ele>
        <time>2013-09-14T08:58:36Z</time>
      </trkpt>
      <trkpt lat="43.55458" lon="1.44339">
        <ele>274.70000203451</ele>
        <time>2013-09-14T08:58:39Z</time>
      </trkpt>
      <trkpt lat="43.55429" lon="1.44316">
        <ele>273.6333211263</ele>
        <time>2013-09-14T08:58:42Z</time>
      </trkpt>
      <trkpt lat="43.55413" lon="1.44303">
        <ele>272.13333129883</ele>
        <time>2013-09-14T08:58:46Z</time>
      </trkpt>
      <trkpt lat="43.55402" lon="1.44298">
        <ele>272.00001017253</ele>
        <time>2013-09-14T08:58:49Z</time>
      </trkpt>
      <trkpt lat="43.55394" lon="1.44301">
        <ele>271.83333333333</ele>
        <time>2013-09-14T08:58:52Z</time>
      </trkpt>
      <trkpt lat="43.55386" lon="1.44302">
        <ele>271.17499542236</ele>
        <time>2013-09-14T08:58:56Z</time>
      </trkpt>
      <trkpt lat="43.5538" lon="1.44302">
        <ele>272.23333740234</ele>
        <time>2013-09-14T08:58:59Z</time>
      </trkpt>
      <trkpt lat="43.55374" lon="1.44301">
        <ele>272.5</ele>
        <time>2013-09-14T08:59:02Z</time>
      </trkpt>
      <trkpt lat="43.55367" lon="1.443">
        <ele>273.02500152588</ele>
        <time>2013-09-14T08:59:06Z</time>
      </trkpt>
      <trkpt lat="43.55358" lon="1.44298">
        <ele>271.9799987793</ele>
        <time>2013-09-14T08:59:11Z</time>
      </trkpt>
      <trkpt lat="43.55351" lon="1.44295">
        <ele>272.39999389648</ele>
        <time>2013-09-14T08:59:15Z</time>
      </trkpt>
      <trkpt lat="43.55344" lon="1.44288">
        <ele>273.55000305176</ele>
        <time>2013-09-14T08:59:18Z</time>
      </trkpt>
      <trkpt lat="43.55343" lon="1.44287">
        <ele>272.22500610352</ele>
        <time>2013-09-14T08:59:22Z</time>
      </trkpt>
      <trkpt lat="43.55346" lon="1.4429">
        <ele>272.26667277018</ele>
        <time>2013-09-14T08:59:25Z</time>
      </trkpt>
      <trkpt lat="43.55346" lon="1.44289">
        <ele>272.07499694824</ele>
        <time>2013-09-14T08:59:29Z</time>
      </trkpt>
      <trkpt lat="43.55345" lon="1.44289">
        <ele>272.25</ele>
        <time>2013-09-14T08:59:33Z</time>
      </trkpt>
      <trkpt lat="43.55345" lon="1.44289">
        <ele>272.20001220703</ele>
        <time>2013-09-14T08:59:36Z</time>
      </trkpt>
      <trkpt lat="43.55345" lon="1.44289">
        <ele>272.20001220703</ele>
        <time>2013-09-14T08:59:40Z</time>
      </trkpt>
      <trkpt lat="43.55345" lon="1.44289">
        <ele>272.20001220703</ele>
        <time>2013-09-14T08:59:44Z</time>
      </trkpt>
      <trkpt lat="43.55345" lon="1.44289">
        <ele>272.20001220703</ele>
        <time>2013-09-14T08:59:48Z</time>
      </trkpt>
      <trkpt lat="43.55345" lon="1.44288">
        <ele>272.20001220703</ele>
        <time>2013-09-14T08:59:52Z</time>
      </trkpt>
      <trkpt lat="43.55345" lon="1.44288">
        <ele>272.20001220703</ele>
        <time>2013-09-14T08:59:55Z</time>
      </trkpt>
      <trkpt lat="43.55345" lon="1.44288">
        <ele>272.20001220703</ele>
        <time>2013-09-14T08:59:58Z</time>
      </trkpt>
      <trkpt lat="43.55345" lon="1.44288">
        <ele>272.20001220703</ele>
        <time>2013-09-14T09:00:01Z</time>
      </trkpt>
      <trkpt lat="43.55345" lon="1.44288">
        <ele>272.20001220703</ele>
        <time>2013-09-14T09:00:05Z</time>
      </trkpt>
      <trkpt lat="43.55345" lon="1.44289">
        <ele>272.20001220703</ele>
        <time>2013-09-14T09:00:09Z</time>
      </trkpt>
      <trkpt lat="43.55345" lon="1.44289">
        <ele>272.20001220703</ele>
        <time>2013-09-14T09:00:12Z</time>
      </trkpt>
      <trkpt lat="43.55345" lon="1.44289">
        <ele>272.20001220703</ele>
        <time>2013-09-14T09:00:16Z</time>
      </trkpt>
      <trkpt lat="43.55345" lon="1.44289">
        <ele>272.20001220703</ele>
        <time>2013-09-14T09:00:20Z</time>
      </trkpt>
      <trkpt lat="43.55345" lon="1.44289">
        <ele>272.20001220703</ele>
        <time>2013-09-14T09:00:23Z</time>
      </trkpt>
      <trkpt lat="43.55345" lon="1.44289">
        <ele>272.20001220703</ele>
        <time>2013-09-14T09:00:27Z</time>
      </trkpt>
      <trkpt lat="43.55345" lon="1.44289">
        <ele>272.20001220703</ele>
        <time>2013-09-14T09:00:31Z</time>
      </trkpt>
      <trkpt lat="43.55345" lon="1.44289">
        <ele>272.20001220703</ele>
        <time>2013-09-14T09:00:34Z</time>
      </trkpt>
      <trkpt lat="43.55345" lon="1.44289">
        <ele>272.20001220703</ele>
        <time>2013-09-14T09:00:38Z</time>
      </trkpt>
      <trkpt lat="43.55345" lon="1.44289">
        <ele>272.20001220703</ele>
        <time>2013-09-14T09:00:42Z</time>
      </trkpt>
      <trkpt lat="43.55345" lon="1.44289">
        <ele>272.20001220703</ele>
        <time>2013-09-14T09:00:45Z</time>
      </trkpt>
      <trkpt lat="43.55345" lon="1.44289">
        <ele>272.20001220703</ele>
        <time>2013-09-14T09:00:49Z</time>
      </trkpt>
      <trkpt lat="43.55345" lon="1.44289">
        <ele>272.20001220703</ele>
        <time>2013-09-14T09:00:53Z</time>
      </trkpt>
      <trkpt lat="43.55345" lon="1.44289">
        <ele>272.20001220703</ele>
        <time>2013-09-14T09:00:56Z</time>
      </trkpt>
      <trkpt lat="43.55345" lon="1.44288">
        <ele>272.20001220703</ele>
        <time>2013-09-14T09:00:59Z</time>
      </trkpt>
      <trkpt lat="43.55345" lon="1.44288">
        <ele>272.20001220703</ele>
        <time>2013-09-14T09:01:03Z</time>
      </trkpt>
      <trkpt lat="43.55345" lon="1.44289">
        <ele>272.20001220703</ele>
        <time>2013-09-14T09:01:07Z</time>
      </trkpt>
      <trkpt lat="43.55345" lon="1.44289">
        <ele>272.20001220703</ele>
        <time>2013-09-14T09:01:11Z</time>
      </trkpt>
      <trkpt lat="43.55345" lon="1.44289">
        <ele>272.20001220703</ele>
        <time>2013-09-14T09:01:15Z</time>
      </trkpt>
      <trkpt lat="43.55345" lon="1.44289">
        <ele>272.20001220703</ele>
        <time>2013-09-14T09:01:18Z</time>
      </trkpt>
      <trkpt lat="43.55345" lon="1.44289">
        <ele>272.20001220703</ele>
        <time>2013-09-14T09:01:21Z</time>
      </trkpt>
      <trkpt lat="43.55345" lon="1.44289">
        <ele>272.20001220703</ele>
        <time>2013-09-14T09:01:24Z</time>
      </trkpt>
      <trkpt lat="43.55345" lon="1.44289">
        <ele>272.20001220703</ele>
        <time>2013-09-14T09:01:28Z</time>
      </trkpt>
      <trkpt lat="43.55345" lon="1.44289">
        <ele>272.20001220703</ele>
        <time>2013-09-14T09:01:31Z</time>
      </trkpt>
      <trkpt lat="43.55339" lon="1.44287">
        <ele>273.75</ele>
        <time>2013-09-14T09:01:36Z</time>
      </trkpt>
      <trkpt lat="43.55327" lon="1.44279">
        <ele>274.94999694824</ele>
        <time>2013-09-14T09:01:39Z</time>
      </trkpt>
      <trkpt lat="43.55308" lon="1.44274">
        <ele>275.125</ele>
        <time>2013-09-14T09:01:43Z</time>
      </trkpt>
      <trkpt lat="43.55284" lon="1.4428">
        <ele>273.34999847412</ele>
        <time>2013-09-14T09:01:47Z</time>
      </trkpt>
      <trkpt lat="43.5526" lon="1.44278">
        <ele>271.93332926432</ele>
        <time>2013-09-14T09:01:50Z</time>
      </trkpt>
      <trkpt lat="43.55234" lon="1.44289">
        <ele>269.10000610352</ele>
        <time>2013-09-14T09:01:53Z</time>
      </trkpt>
      <trkpt lat="43.55206" lon="1.44299">
        <ele>267.86666870117</ele>
        <time>2013-09-14T09:01:56Z</time>
      </trkpt>
      <trkpt lat="43.55178" lon="1.443">
        <ele>267.85000610352</ele>
        <time>2013-09-14T09:02:00Z</time>
      </trkpt>
      <trkpt lat="43.55163" lon="1.44268">
        <ele>269.62500762939</ele>
        <time>2013-09-14T09:02:04Z</time>
      </trkpt>
      <trkpt lat="43.55154" lon="1.44258">
        <ele>271.10000610352</ele>
        <time>2013-09-14T09:02:07Z</time>
      </trkpt>
      <trkpt lat="43.55147" lon="1.44249">
        <ele>270.89999389648</ele>
        <time>2013-09-14T09:02:10Z</time>
      </trkpt>
      <trkpt lat="43.55138" lon="1.44242">
        <ele>270.52500152588</ele>
        <time>2013-09-14T09:02:14Z</time>
      </trkpt>
      <trkpt lat="43.55132" lon="1.44239">
        <ele>268.44999694824</ele>
        <time>2013-09-14T09:02:18Z</time>
      </trkpt>
      <trkpt lat="43.55133" lon="1.44229">
        <ele>268.40000152588</ele>
        <time>2013-09-14T09:02:22Z</time>
      </trkpt>
      <trkpt lat="43.55133" lon="1.44214">
        <ele>268.92500305176</ele>
        <time>2013-09-14T09:02:25Z</time>
      </trkpt>
      <trkpt lat="43.55128" lon="1.44206">
        <ele>268.99998982747</ele>
        <time>2013-09-14T09:02:28Z</time>
      </trkpt>
      <trkpt lat="43.55119" lon="1.44205">
        <ele>269.26666259766</ele>
        <time>2013-09-14T09:02:32Z</time>
      </trkpt>
      <trkpt lat="43.55111" lon="1.44208">
        <ele>270.63333129883</ele>
        <time>2013-09-14T09:02:35Z</time>
      </trkpt>
      <trkpt lat="43.55106" lon="1.44213">
        <ele>271.75000762939</ele>
        <time>2013-09-14T09:02:39Z</time>
      </trkpt>
      <trkpt lat="43.55104" lon="1.44217">
        <ele>273.46666463216</ele>
        <time>2013-09-14T09:02:42Z</time>
      </trkpt>
      <trkpt lat="43.55103" lon="1.44222">
        <ele>273.57499694824</ele>
        <time>2013-09-14T09:02:46Z</time>
      </trkpt>
      <trkpt lat="43.55101" lon="1.44229">
        <ele>273</ele>
        <time>2013-09-14T09:02:49Z</time>
      </trkpt>
      <trkpt lat="43.55097" lon="1.44239">
        <ele>273.93332926432</ele>
        <time>2013-09-14T09:02:52Z</time>
      </trkpt>
      <trkpt lat="43.55096" lon="1.44253">
        <ele>274.89999389648</ele>
        <time>2013-09-14T09:02:55Z</time>
      </trkpt>
      <trkpt lat="43.55098" lon="1.4427">
        <ele>274.13333129883</ele>
        <time>2013-09-14T09:02:58Z</time>
      </trkpt>
      <trkpt lat="43.551" lon="1.44295">
        <ele>274.36666870117</ele>
        <time>2013-09-14T09:03:01Z</time>
      </trkpt>
      <trkpt lat="43.55106" lon="1.44323">
        <ele>275.42499542236</ele>
        <time>2013-09-14T09:03:05Z</time>
      </trkpt>
      <trkpt lat="43.55115" lon="1.44339">
        <ele>276.33332316081</ele>
        <time>2013-09-14T09:03:08Z</time>
      </trkpt>
      <trkpt lat="43.55122" lon="1.44352">
        <ele>276.46666463216</ele>
        <time>2013-09-14T09:03:11Z</time>
      </trkpt>
      <trkpt lat="43.55127" lon="1.44367">
        <ele>276.27500152588</ele>
        <time>2013-09-14T09:03:15Z</time>
      </trkpt>
      <trkpt lat="43.55128" lon="1.44383">
        <ele>276.50001017253</ele>
        <time>2013-09-14T09:03:18Z</time>
      </trkpt>
      <trkpt lat="43.55123" lon="1.44402">
        <ele>277.875</ele>
        <time>2013-09-14T09:03:22Z</time>
      </trkpt>
      <trkpt lat="43.55117" lon="1.4442">
        <ele>278.29998779297</ele>
        <time>2013-09-14T09:03:25Z</time>
      </trkpt>
      <trkpt lat="43.55113" lon="1.44434">
        <ele>278.53332519531</ele>
        <time>2013-09-14T09:03:28Z</time>
      </trkpt>
      <trkpt lat="43.55109" lon="1.44447">
        <ele>277.44999694824</ele>
        <time>2013-09-14T09:03:32Z</time>
      </trkpt>
      <trkpt lat="43.55105" lon="1.44461">
        <ele>278.67499542236</ele>
        <time>2013-09-14T09:03:36Z</time>
      </trkpt>
      <trkpt lat="43.55102" lon="1.44477">
        <ele>278.96667480469</ele>
        <time>2013-09-14T09:03:40Z</time>
      </trkpt>
      <trkpt lat="43.55098" lon="1.44496">
        <ele>276.84999847412</ele>
        <time>2013-09-14T09:03:43Z</time>
      </trkpt>
      <trkpt lat="43.55095" lon="1.44513">
        <ele>277.65000152588</ele>
        <time>2013-09-14T09:03:47Z</time>
      </trkpt>
      <trkpt lat="43.55093" lon="1.44527">
        <ele>279.66666666667</ele>
        <time>2013-09-14T09:03:50Z</time>
      </trkpt>
      <trkpt lat="43.55091" lon="1.44538">
        <ele>279</ele>
        <time>2013-09-14T09:03:53Z</time>
      </trkpt>
      <trkpt lat="43.55086" lon="1.44552">
        <ele>279.2</ele>
        <time>2013-09-14T09:03:57Z</time>
      </trkpt>
      <trkpt lat="43.55081" lon="1.4457">
        <ele>278.5</ele>
        <time>2013-09-14T09:04:00Z</time>
      </trkpt>
      <trkpt lat="43.55077" lon="1.44587">
        <ele>277.30000305176</ele>
        <time>2013-09-14T09:04:04Z</time>
      </trkpt>
      <trkpt lat="43.55072" lon="1.44603">
        <ele>277.79999796549</ele>
        <time>2013-09-14T09:04:07Z</time>
      </trkpt>
      <trkpt lat="43.55069" lon="1.44618">
        <ele>278.02500152588</ele>
        <time>2013-09-14T09:04:11Z</time>
      </trkpt>
      <trkpt lat="43.55065" lon="1.44636">
        <ele>277.30000305176</ele>
        <time>2013-09-14T09:04:15Z</time>
      </trkpt>
      <trkpt lat="43.55061" lon="1.44653">
        <ele>278.32499694824</ele>
        <time>2013-09-14T09:04:19Z</time>
      </trkpt>
      <trkpt lat="43.55058" lon="1.44668">
        <ele>277.26666259766</ele>
        <time>2013-09-14T09:04:22Z</time>
      </trkpt>
      <trkpt lat="43.55056" lon="1.44682">
        <ele>276.53333536784</ele>
        <time>2013-09-14T09:04:26Z</time>
      </trkpt>
      <trkpt lat="43.55052" lon="1.44697">
        <ele>277.27500152588</ele>
        <time>2013-09-14T09:04:29Z</time>
      </trkpt>
      <trkpt lat="43.55046" lon="1.44712">
        <ele>278.77500152588</ele>
        <time>2013-09-14T09:04:33Z</time>
      </trkpt>
      <trkpt lat="43.55042" lon="1.44726">
        <ele>279.125</ele>
        <time>2013-09-14T09:04:37Z</time>
      </trkpt>
      <trkpt lat="43.55039" lon="1.44736">
        <ele>279.09999593099</ele>
        <time>2013-09-14T09:04:40Z</time>
      </trkpt>
      <trkpt lat="43.55038" lon="1.44745">
        <ele>279.33333333333</ele>
        <time>2013-09-14T09:04:43Z</time>
      </trkpt>
      <trkpt lat="43.55035" lon="1.44755">
        <ele>279.33333333333</ele>
        <time>2013-09-14T09:04:46Z</time>
      </trkpt>
      <trkpt lat="43.5503" lon="1.44767">
        <ele>280.375</ele>
        <time>2013-09-14T09:04:50Z</time>
      </trkpt>
      <trkpt lat="43.55024" lon="1.44781">
        <ele>282.70000203451</ele>
        <time>2013-09-14T09:04:53Z</time>
      </trkpt>
      <trkpt lat="43.55019" lon="1.44798">
        <ele>284.09999593099</ele>
        <time>2013-09-14T09:04:56Z</time>
      </trkpt>
      <trkpt lat="43.55013" lon="1.44817">
        <ele>285.80000305176</ele>
        <time>2013-09-14T09:05:00Z</time>
      </trkpt>
      <trkpt lat="43.55007" lon="1.44838">
        <ele>286.5</ele>
        <time>2013-09-14T09:05:04Z</time>
      </trkpt>
      <trkpt lat="43.55" lon="1.44856">
        <ele>288.34999847412</ele>
        <time>2013-09-14T09:05:08Z</time>
      </trkpt>
      <trkpt lat="43.54994" lon="1.44871">
        <ele>289.40000406901</ele>
        <time>2013-09-14T09:05:11Z</time>
      </trkpt>
      <trkpt lat="43.54988" lon="1.44888">
        <ele>288.52500152588</ele>
        <time>2013-09-14T09:05:15Z</time>
      </trkpt>
      <trkpt lat="43.54984" lon="1.44905">
        <ele>287.53333536784</ele>
        <time>2013-09-14T09:05:18Z</time>
      </trkpt>
      <trkpt lat="43.5498" lon="1.4492">
        <ele>286.89999389648</ele>
        <time>2013-09-14T09:05:21Z</time>
      </trkpt>
      <trkpt lat="43.54974" lon="1.44939">
        <ele>286.92500305176</ele>
        <time>2013-09-14T09:05:25Z</time>
      </trkpt>
      <trkpt lat="43.54968" lon="1.44959">
        <ele>287.5</ele>
        <time>2013-09-14T09:05:28Z</time>
      </trkpt>
      <trkpt lat="43.54963" lon="1.44978">
        <ele>287.30000305176</ele>
        <time>2013-09-14T09:05:32Z</time>
      </trkpt>
      <trkpt lat="43.54959" lon="1.44996">
        <ele>286.89999389648</ele>
        <time>2013-09-14T09:05:35Z</time>
      </trkpt>
      <trkpt lat="43.54956" lon="1.45023">
        <ele>287.73332722982</ele>
        <time>2013-09-14T09:05:39Z</time>
      </trkpt>
      <trkpt lat="43.54952" lon="1.45049">
        <ele>287.65000152588</ele>
        <time>2013-09-14T09:05:43Z</time>
      </trkpt>
      <trkpt lat="43.54943" lon="1.45081">
        <ele>286.57499694824</ele>
        <time>2013-09-14T09:05:47Z</time>
      </trkpt>
      <trkpt lat="43.54936" lon="1.45113">
        <ele>286.84999084473</ele>
        <time>2013-09-14T09:05:51Z</time>
      </trkpt>
      <trkpt lat="43.54926" lon="1.45141">
        <ele>286.03333536784</ele>
        <time>2013-09-14T09:05:54Z</time>
      </trkpt>
      <trkpt lat="43.54914" lon="1.45164">
        <ele>285.80000305176</ele>
        <time>2013-09-14T09:05:58Z</time>
      </trkpt>
      <trkpt lat="43.54899" lon="1.45186">
        <ele>285.63333129883</ele>
        <time>2013-09-14T09:06:01Z</time>
      </trkpt>
      <trkpt lat="43.54885" lon="1.45205">
        <ele>284.17500305176</ele>
        <time>2013-09-14T09:06:05Z</time>
      </trkpt>
      <trkpt lat="43.54868" lon="1.45225">
        <ele>285.20000457764</ele>
        <time>2013-09-14T09:06:09Z</time>
      </trkpt>
      <trkpt lat="43.54854" lon="1.45243">
        <ele>287.23333740234</ele>
        <time>2013-09-14T09:06:12Z</time>
      </trkpt>
      <trkpt lat="43.54847" lon="1.45261">
        <ele>289.06667073568</ele>
        <time>2013-09-14T09:06:15Z</time>
      </trkpt>
      <trkpt lat="43.54852" lon="1.45283">
        <ele>293.82499694824</ele>
        <time>2013-09-14T09:06:19Z</time>
      </trkpt>
      <trkpt lat="43.54851" lon="1.45306">
        <ele>293.96666463216</ele>
        <time>2013-09-14T09:06:22Z</time>
      </trkpt>
      <trkpt lat="43.54846" lon="1.45327">
        <ele>294.05001068115</ele>
        <time>2013-09-14T09:06:26Z</time>
      </trkpt>
      <trkpt lat="43.54844" lon="1.45351">
        <ele>294.55000305176</ele>
        <time>2013-09-14T09:06:30Z</time>
      </trkpt>
      <trkpt lat="43.54834" lon="1.45365">
        <ele>294.02499389648</ele>
        <time>2013-09-14T09:06:34Z</time>
      </trkpt>
      <trkpt lat="43.54825" lon="1.4537">
        <ele>293.25000762939</ele>
        <time>2013-09-14T09:06:38Z</time>
      </trkpt>
      <trkpt lat="43.54815" lon="1.45369">
        <ele>292.36666870117</ele>
        <time>2013-09-14T09:06:41Z</time>
      </trkpt>
      <trkpt lat="43.54801" lon="1.45363">
        <ele>292.30000305176</ele>
        <time>2013-09-14T09:06:45Z</time>
      </trkpt>
      <trkpt lat="43.54785" lon="1.45352">
        <ele>291.16666666667</ele>
        <time>2013-09-14T09:06:49Z</time>
      </trkpt>
      <trkpt lat="43.54753" lon="1.45333">
        <ele>288.59999389648</ele>
        <time>2013-09-14T09:06:53Z</time>
      </trkpt>
      <trkpt lat="43.54703" lon="1.45308">
        <ele>283.94999694824</ele>
        <time>2013-09-14T09:06:57Z</time>
      </trkpt>
      <trkpt lat="43.54669" lon="1.45299">
        <ele>280.84999084473</ele>
        <time>2013-09-14T09:07:00Z</time>
      </trkpt>
      <trkpt lat="43.54635" lon="1.45275">
        <ele>279.83999633789</ele>
        <time>2013-09-14T09:07:03Z</time>
      </trkpt>
      <trkpt lat="43.54606" lon="1.4525">
        <ele>279.33332316081</ele>
        <time>2013-09-14T09:07:07Z</time>
      </trkpt>
      <trkpt lat="43.54596" lon="1.4524">
        <ele>278.39999389648</ele>
        <time>2013-09-14T09:07:10Z</time>
      </trkpt>
      <trkpt lat="43.54591" lon="1.4524">
        <ele>278.02500915527</ele>
        <time>2013-09-14T09:07:14Z</time>
      </trkpt>
      <trkpt lat="43.54584" lon="1.45251">
        <ele>279.84999847412</ele>
        <time>2013-09-14T09:07:18Z</time>
      </trkpt>
      <trkpt lat="43.54576" lon="1.45262">
        <ele>280.40000406901</ele>
        <time>2013-09-14T09:07:21Z</time>
      </trkpt>
      <trkpt lat="43.54573" lon="1.4527">
        <ele>279.96666463216</ele>
        <time>2013-09-14T09:07:24Z</time>
      </trkpt>
      <trkpt lat="43.5457" lon="1.45281">
        <ele>280.72499847412</ele>
        <time>2013-09-14T09:07:28Z</time>
      </trkpt>
      <trkpt lat="43.54565" lon="1.45294">
        <ele>280.96667480469</ele>
        <time>2013-09-14T09:07:31Z</time>
      </trkpt>
      <trkpt lat="43.54559" lon="1.45306">
        <ele>279.69999694824</ele>
        <time>2013-09-14T09:07:35Z</time>
      </trkpt>
      <trkpt lat="43.54553" lon="1.45317">
        <ele>279.23333740234</ele>
        <time>2013-09-14T09:07:38Z</time>
      </trkpt>
      <trkpt lat="43.54548" lon="1.45327">
        <ele>280.53333536784</ele>
        <time>2013-09-14T09:07:42Z</time>
      </trkpt>
      <trkpt lat="43.54541" lon="1.4534">
        <ele>280.3200012207</ele>
        <time>2013-09-14T09:07:46Z</time>
      </trkpt>
      <trkpt lat="43.54532" lon="1.45356">
        <ele>280.22499847412</ele>
        <time>2013-09-14T09:07:50Z</time>
      </trkpt>
      <trkpt lat="43.54524" lon="1.45369">
        <ele>281.60000610352</ele>
        <time>2013-09-14T09:07:53Z</time>
      </trkpt>
      <trkpt lat="43.54519" lon="1.45383">
        <ele>280.64999389648</ele>
        <time>2013-09-14T09:07:57Z</time>
      </trkpt>
      <trkpt lat="43.54516" lon="1.45396">
        <ele>281.5</ele>
        <time>2013-09-14T09:08:00Z</time>
      </trkpt>
      <trkpt lat="43.54515" lon="1.45411">
        <ele>281.59999847412</ele>
        <time>2013-09-14T09:08:04Z</time>
      </trkpt>
      <trkpt lat="43.54504" lon="1.45433">
        <ele>281.92499542236</ele>
        <time>2013-09-14T09:08:08Z</time>
      </trkpt>
      <trkpt lat="43.54485" lon="1.4546">
        <ele>283.12499237061</ele>
        <time>2013-09-14T09:08:12Z</time>
      </trkpt>
      <trkpt lat="43.54473" lon="1.45479">
        <ele>283.13333129883</ele>
        <time>2013-09-14T09:08:15Z</time>
      </trkpt>
      <trkpt lat="43.54463" lon="1.45494">
        <ele>283.04998779297</ele>
        <time>2013-09-14T09:08:18Z</time>
      </trkpt>
      <trkpt lat="43.54449" lon="1.45513">
        <ele>283.3</ele>
        <time>2013-09-14T09:08:22Z</time>
      </trkpt>
      <trkpt lat="43.54429" lon="1.45542">
        <ele>282.84999847412</ele>
        <time>2013-09-14T09:08:26Z</time>
      </trkpt>
      <trkpt lat="43.54414" lon="1.45572">
        <ele>281.90000152588</ele>
        <time>2013-09-14T09:08:30Z</time>
      </trkpt>
      <trkpt lat="43.54401" lon="1.45604">
        <ele>280.27500152588</ele>
        <time>2013-09-14T09:08:35Z</time>
      </trkpt>
      <trkpt lat="43.54382" lon="1.45634">
        <ele>278.54999542236</ele>
        <time>2013-09-14T09:08:38Z</time>
      </trkpt>
      <trkpt lat="43.54367" lon="1.45661">
        <ele>277.80000305176</ele>
        <time>2013-09-14T09:08:42Z</time>
      </trkpt>
      <trkpt lat="43.54355" lon="1.4568">
        <ele>277.96667480469</ele>
        <time>2013-09-14T09:08:45Z</time>
      </trkpt>
      <trkpt lat="43.54344" lon="1.45687">
        <ele>278.20000203451</ele>
        <time>2013-09-14T09:08:48Z</time>
      </trkpt>
      <trkpt lat="43.54334" lon="1.45688">
        <ele>278.375</ele>
        <time>2013-09-14T09:08:52Z</time>
      </trkpt>
      <trkpt lat="43.54325" lon="1.45681">
        <ele>278.42499542236</ele>
        <time>2013-09-14T09:08:57Z</time>
      </trkpt>
      <trkpt lat="43.54316" lon="1.45671">
        <ele>278.57500457764</ele>
        <time>2013-09-14T09:09:00Z</time>
      </trkpt>
      <trkpt lat="43.54306" lon="1.45659">
        <ele>278.62500762939</ele>
        <time>2013-09-14T09:09:04Z</time>
      </trkpt>
      <trkpt lat="43.54294" lon="1.45648">
        <ele>278.80000305176</ele>
        <time>2013-09-14T09:09:08Z</time>
      </trkpt>
      <trkpt lat="43.54283" lon="1.4564">
        <ele>282.06666056315</ele>
        <time>2013-09-14T09:09:11Z</time>
      </trkpt>
      <trkpt lat="43.54276" lon="1.45633">
        <ele>284.73333740234</ele>
        <time>2013-09-14T09:09:14Z</time>
      </trkpt>
      <trkpt lat="43.54267" lon="1.45626">
        <ele>285.25</ele>
        <time>2013-09-14T09:09:20Z</time>
      </trkpt>
      <trkpt lat="43.54256" lon="1.45614">
        <ele>284.43999633789</ele>
        <time>2013-09-14T09:09:23Z</time>
      </trkpt>
      <trkpt lat="43.54245" lon="1.45603">
        <ele>284.23333740234</ele>
        <time>2013-09-14T09:09:26Z</time>
      </trkpt>
      <trkpt lat="43.54237" lon="1.45594">
        <ele>285.23333740234</ele>
        <time>2013-09-14T09:09:29Z</time>
      </trkpt>
      <trkpt lat="43.54229" lon="1.45586">
        <ele>284.86666870117</ele>
        <time>2013-09-14T09:09:32Z</time>
      </trkpt>
      <trkpt lat="43.5422" lon="1.45578">
        <ele>285.30000305176</ele>
        <time>2013-09-14T09:09:36Z</time>
      </trkpt>
      <trkpt lat="43.5421" lon="1.45569">
        <ele>285.96666463216</ele>
        <time>2013-09-14T09:09:40Z</time>
      </trkpt>
      <trkpt lat="43.54191" lon="1.45544">
        <ele>298.5</ele>
        <time>2013-09-14T09:10:11Z</time>
      </trkpt>
      <trkpt lat="43.5417" lon="1.45521">
        <ele>308.15000152588</ele>
        <time>2013-09-14T09:10:15Z</time>
      </trkpt>
      <trkpt lat="43.5416" lon="1.45517">
        <ele>300.16666666667</ele>
        <time>2013-09-14T09:10:18Z</time>
      </trkpt>
      <trkpt lat="43.54153" lon="1.45514">
        <ele>300.27500152588</ele>
        <time>2013-09-14T09:10:22Z</time>
      </trkpt>
      <trkpt lat="43.54149" lon="1.45511">
        <ele>302.67500305176</ele>
        <time>2013-09-14T09:10:26Z</time>
      </trkpt>
      <trkpt lat="43.54146" lon="1.45507">
        <ele>304.53332519531</ele>
        <time>2013-09-14T09:10:29Z</time>
      </trkpt>
      <trkpt lat="43.54142" lon="1.45503">
        <ele>303.57500457764</ele>
        <time>2013-09-14T09:10:33Z</time>
      </trkpt>
      <trkpt lat="43.54138" lon="1.455">
        <ele>304.72499847412</ele>
        <time>2013-09-14T09:10:37Z</time>
      </trkpt>
      <trkpt lat="43.54133" lon="1.45497">
        <ele>303.93333943685</ele>
        <time>2013-09-14T09:10:40Z</time>
      </trkpt>
      <trkpt lat="43.54128" lon="1.45494">
        <ele>303.85000610352</ele>
        <time>2013-09-14T09:10:43Z</time>
      </trkpt>
      <trkpt lat="43.5412" lon="1.45488">
        <ele>304.5</ele>
        <time>2013-09-14T09:10:47Z</time>
      </trkpt>
      <trkpt lat="43.54109" lon="1.45479">
        <ele>303.53333536784</ele>
        <time>2013-09-14T09:10:50Z</time>
      </trkpt>
      <trkpt lat="43.54098" lon="1.45471">
        <ele>303.5</ele>
        <time>2013-09-14T09:10:55Z</time>
      </trkpt>
      <trkpt lat="43.54086" lon="1.45464">
        <ele>303.44999694824</ele>
        <time>2013-09-14T09:10:59Z</time>
      </trkpt>
      <trkpt lat="43.54071" lon="1.45463">
        <ele>303.5</ele>
        <time>2013-09-14T09:11:03Z</time>
      </trkpt>
      <trkpt lat="43.54059" lon="1.45468">
        <ele>303.66665649414</ele>
        <time>2013-09-14T09:11:06Z</time>
      </trkpt>
      <trkpt lat="43.54052" lon="1.45473">
        <ele>305.55001068115</ele>
        <time>2013-09-14T09:11:10Z</time>
      </trkpt>
      <trkpt lat="43.54045" lon="1.45477">
        <ele>305.54999542236</ele>
        <time>2013-09-14T09:11:14Z</time>
      </trkpt>
      <trkpt lat="43.54039" lon="1.45479">
        <ele>305.86666870117</ele>
        <time>2013-09-14T09:11:17Z</time>
      </trkpt>
      <trkpt lat="43.54034" lon="1.45481">
        <ele>305</ele>
        <time>2013-09-14T09:11:21Z</time>
      </trkpt>
      <trkpt lat="43.5403" lon="1.45481">
        <ele>303.83333333333</ele>
        <time>2013-09-14T09:11:24Z</time>
      </trkpt>
      <trkpt lat="43.54026" lon="1.45481">
        <ele>303.73332722982</ele>
        <time>2013-09-14T09:11:27Z</time>
      </trkpt>
      <trkpt lat="43.5402" lon="1.45482">
        <ele>304.92499542236</ele>
        <time>2013-09-14T09:11:31Z</time>
      </trkpt>
      <trkpt lat="43.54016" lon="1.45482">
        <ele>305.23332722982</ele>
        <time>2013-09-14T09:11:34Z</time>
      </trkpt>
      <trkpt lat="43.54012" lon="1.4548">
        <ele>304.15000152588</ele>
        <time>2013-09-14T09:11:38Z</time>
      </trkpt>
      <trkpt lat="43.54004" lon="1.45478">
        <ele>303.00000762939</ele>
        <time>2013-09-14T09:11:42Z</time>
      </trkpt>
      <trkpt lat="43.53993" lon="1.45477">
        <ele>300.83332316081</ele>
        <time>2013-09-14T09:11:45Z</time>
      </trkpt>
      <trkpt lat="43.53982" lon="1.4548">
        <ele>299.34999084473</ele>
        <time>2013-09-14T09:11:49Z</time>
      </trkpt>
      <trkpt lat="43.53969" lon="1.45487">
        <ele>298.74999237061</ele>
        <time>2013-09-14T09:11:53Z</time>
      </trkpt>
      <trkpt lat="43.53959" lon="1.45493">
        <ele>297.97500610352</ele>
        <time>2013-09-14T09:11:57Z</time>
      </trkpt>
      <trkpt lat="43.53955" lon="1.45495">
        <ele>297.19999186198</ele>
        <time>2013-09-14T09:12:00Z</time>
      </trkpt>
      <trkpt lat="43.53955" lon="1.45496">
        <ele>296.82500457764</ele>
        <time>2013-09-14T09:12:04Z</time>
      </trkpt>
      <trkpt lat="43.53957" lon="1.45497">
        <ele>296.85000610352</ele>
        <time>2013-09-14T09:12:08Z</time>
      </trkpt>
      <trkpt lat="43.53958" lon="1.45498">
        <ele>297.69999694824</ele>
        <time>2013-09-14T09:12:12Z</time>
      </trkpt>
      <trkpt lat="43.53958" lon="1.45498">
        <ele>298.06667073568</ele>
        <time>2013-09-14T09:12:15Z</time>
      </trkpt>
      <trkpt lat="43.53959" lon="1.45498">
        <ele>298.15000152588</ele>
        <time>2013-09-14T09:12:19Z</time>
      </trkpt>
      <trkpt lat="43.53959" lon="1.45498">
        <ele>298.39999389648</ele>
        <time>2013-09-14T09:12:23Z</time>
      </trkpt>
      <trkpt lat="43.53959" lon="1.45498">
        <ele>298.39999389648</ele>
        <time>2013-09-14T09:12:27Z</time>
      </trkpt>
      <trkpt lat="43.53959" lon="1.45498">
        <ele>298.39999389648</ele>
        <time>2013-09-14T09:12:30Z</time>
      </trkpt>
      <trkpt lat="43.53958" lon="1.45496">
        <ele>298.04999542236</ele>
        <time>2013-09-14T09:12:34Z</time>
      </trkpt>
      <trkpt lat="43.53952" lon="1.45489">
        <ele>295.29999796549</ele>
        <time>2013-09-14T09:12:37Z</time>
      </trkpt>
      <trkpt lat="43.53945" lon="1.45483">
        <ele>292.79999542236</ele>
        <time>2013-09-14T09:12:41Z</time>
      </trkpt>
      <trkpt lat="43.53937" lon="1.45474">
        <ele>286.60000610352</ele>
        <time>2013-09-14T09:12:44Z</time>
      </trkpt>
      <trkpt lat="43.53926" lon="1.45468">
        <ele>284.47499847412</ele>
        <time>2013-09-14T09:12:48Z</time>
      </trkpt>
      <trkpt lat="43.53918" lon="1.45463">
        <ele>284.40000152588</ele>
        <time>2013-09-14T09:12:52Z</time>
      </trkpt>
      <trkpt lat="43.53913" lon="1.45458">
        <ele>283.82499694824</ele>
        <time>2013-09-14T09:12:56Z</time>
      </trkpt>
      <trkpt lat="43.53908" lon="1.45448">
        <ele>282.70000457764</ele>
        <time>2013-09-14T09:13:00Z</time>
      </trkpt>
      <trkpt lat="43.53903" lon="1.45442">
        <ele>281.27499389648</ele>
        <time>2013-09-14T09:13:04Z</time>
      </trkpt>
      <trkpt lat="43.53902" lon="1.45439">
        <ele>280.66666666667</ele>
        <time>2013-09-14T09:13:07Z</time>
      </trkpt>
      <trkpt lat="43.53902" lon="1.45438">
        <ele>280.24999237061</ele>
        <time>2013-09-14T09:13:11Z</time>
      </trkpt>
      <trkpt lat="43.53902" lon="1.45437">
        <ele>279.67500305176</ele>
        <time>2013-09-14T09:13:15Z</time>
      </trkpt>
      <trkpt lat="43.53902" lon="1.45436">
        <ele>279.60000610352</ele>
        <time>2013-09-14T09:13:19Z</time>
      </trkpt>
      <trkpt lat="43.53902" lon="1.45436">
        <ele>279.60000610352</ele>
        <time>2013-09-14T09:13:23Z</time>
      </trkpt>
      <trkpt lat="43.53902" lon="1.45436">
        <ele>279.56667073568</ele>
        <time>2013-09-14T09:13:26Z</time>
      </trkpt>
      <trkpt lat="43.53902" lon="1.45436">
        <ele>279.5</ele>
        <time>2013-09-14T09:13:30Z</time>
      </trkpt>
      <trkpt lat="43.53902" lon="1.45437">
        <ele>279.42500305176</ele>
        <time>2013-09-14T09:13:34Z</time>
      </trkpt>
      <trkpt lat="43.53901" lon="1.45437">
        <ele>279.66667683919</ele>
        <time>2013-09-14T09:13:37Z</time>
      </trkpt>
      <trkpt lat="43.53902" lon="1.45439">
        <ele>279.60000610352</ele>
        <time>2013-09-14T09:13:41Z</time>
      </trkpt>
      <trkpt lat="43.53902" lon="1.4544">
        <ele>279.30000305176</ele>
        <time>2013-09-14T09:13:45Z</time>
      </trkpt>
      <trkpt lat="43.53902" lon="1.4544">
        <ele>279.07500457764</ele>
        <time>2013-09-14T09:13:49Z</time>
      </trkpt>
      <trkpt lat="43.53894" lon="1.45433">
        <ele>277.82499694824</ele>
        <time>2013-09-14T09:13:53Z</time>
      </trkpt>
      <trkpt lat="43.53885" lon="1.45424">
        <ele>276.36666870117</ele>
        <time>2013-09-14T09:13:56Z</time>
      </trkpt>
      <trkpt lat="43.53881" lon="1.45413">
        <ele>274.16667683919</ele>
        <time>2013-09-14T09:13:59Z</time>
      </trkpt>
      <trkpt lat="43.53879" lon="1.45402">
        <ele>272.70000203451</ele>
        <time>2013-09-14T09:14:02Z</time>
      </trkpt>
      <trkpt lat="43.53876" lon="1.45393">
        <ele>272.74999237061</ele>
        <time>2013-09-14T09:14:06Z</time>
      </trkpt>
      <trkpt lat="43.53869" lon="1.45384">
        <ele>271.02500152588</ele>
        <time>2013-09-14T09:14:10Z</time>
      </trkpt>
      <trkpt lat="43.53857" lon="1.4538">
        <ele>269.54999542236</ele>
        <time>2013-09-14T09:14:14Z</time>
      </trkpt>
      <trkpt lat="43.53843" lon="1.45383">
        <ele>270.09999593099</ele>
        <time>2013-09-14T09:14:17Z</time>
      </trkpt>
      <trkpt lat="43.53832" lon="1.4539">
        <ele>269.06666056315</ele>
        <time>2013-09-14T09:14:21Z</time>
      </trkpt>
      <trkpt lat="43.53823" lon="1.45398">
        <ele>269.1200012207</ele>
        <time>2013-09-14T09:14:25Z</time>
      </trkpt>
      <trkpt lat="43.53816" lon="1.45405">
        <ele>269.52499389648</ele>
        <time>2013-09-14T09:14:29Z</time>
      </trkpt>
      <trkpt lat="43.53812" lon="1.45411">
        <ele>269.09999593099</ele>
        <time>2013-09-14T09:14:32Z</time>
      </trkpt>
      <trkpt lat="43.53808" lon="1.45416">
        <ele>271.42500305176</ele>
        <time>2013-09-14T09:14:36Z</time>
      </trkpt>
      <trkpt lat="43.53804" lon="1.4542">
        <ele>270.90000152588</ele>
        <time>2013-09-14T09:14:40Z</time>
      </trkpt>
      <trkpt lat="43.53799" lon="1.45424">
        <ele>269.29999796549</ele>
        <time>2013-09-14T09:14:43Z</time>
      </trkpt>
      <trkpt lat="43.53793" lon="1.45428">
        <ele>268.43332926432</ele>
        <time>2013-09-14T09:14:46Z</time>
      </trkpt>
      <trkpt lat="43.53786" lon="1.45433">
        <ele>267.55000305176</ele>
        <time>2013-09-14T09:14:50Z</time>
      </trkpt>
      <trkpt lat="43.53771" lon="1.45441">
        <ele>266.92499542236</ele>
        <time>2013-09-14T09:14:54Z</time>
      </trkpt>
      <trkpt lat="43.53745" lon="1.45466">
        <ele>264</ele>
        <time>2013-09-14T09:14:57Z</time>
      </trkpt>
      <trkpt lat="43.5372" lon="1.4548">
        <ele>262.26666259766</ele>
        <time>2013-09-14T09:15:00Z</time>
      </trkpt>
      <trkpt lat="43.5369" lon="1.45506">
        <ele>260.05000305176</ele>
        <time>2013-09-14T09:15:04Z</time>
      </trkpt>
      <trkpt lat="43.53668" lon="1.45523">
        <ele>258.76666259766</ele>
        <time>2013-09-14T09:15:07Z</time>
      </trkpt>
      <trkpt lat="43.53661" lon="1.45521">
        <ele>258.06666056315</ele>
        <time>2013-09-14T09:15:10Z</time>
      </trkpt>
      <trkpt lat="43.53649" lon="1.45521">
        <ele>257.50000762939</ele>
        <time>2013-09-14T09:15:14Z</time>
      </trkpt>
      <trkpt lat="43.53634" lon="1.45518">
        <ele>256.02500152588</ele>
        <time>2013-09-14T09:15:18Z</time>
      </trkpt>
      <trkpt lat="43.53616" lon="1.45515">
        <ele>255.97499847412</ele>
        <time>2013-09-14T09:15:22Z</time>
      </trkpt>
      <trkpt lat="43.53596" lon="1.45522">
        <ele>253.95000076294</ele>
        <time>2013-09-14T09:15:26Z</time>
      </trkpt>
      <trkpt lat="43.53592" lon="1.45536">
        <ele>253.53333028158</ele>
        <time>2013-09-14T09:15:29Z</time>
      </trkpt>
      <trkpt lat="43.53588" lon="1.45549">
        <ele>251.46666463216</ele>
        <time>2013-09-14T09:15:32Z</time>
      </trkpt>
      <trkpt lat="43.53582" lon="1.45556">
        <ele>249.67500305176</ele>
        <time>2013-09-14T09:15:36Z</time>
      </trkpt>
      <trkpt lat="43.53566" lon="1.45557">
        <ele>247.03333028158</ele>
        <time>2013-09-14T09:15:39Z</time>
      </trkpt>
      <trkpt lat="43.53537" lon="1.45555">
        <ele>243</ele>
        <time>2013-09-14T09:15:43Z</time>
      </trkpt>
      <trkpt lat="43.53513" lon="1.45583">
        <ele>242.5</ele>
        <time>2013-09-14T09:15:47Z</time>
      </trkpt>
      <trkpt lat="43.53485" lon="1.45624">
        <ele>241.85000228882</ele>
        <time>2013-09-14T09:15:51Z</time>
      </trkpt>
      <trkpt lat="43.53465" lon="1.45651">
        <ele>242.33333333333</ele>
        <time>2013-09-14T09:15:54Z</time>
      </trkpt>
      <trkpt lat="43.53452" lon="1.45668">
        <ele>242.29999923706</ele>
        <time>2013-09-14T09:15:58Z</time>
      </trkpt>
      <trkpt lat="43.53443" lon="1.45678">
        <ele>242.30000305176</ele>
        <time>2013-09-14T09:16:02Z</time>
      </trkpt>
      <trkpt lat="43.53438" lon="1.4568">
        <ele>242.10000101725</ele>
        <time>2013-09-14T09:16:05Z</time>
      </trkpt>
      <trkpt lat="43.53437" lon="1.45679">
        <ele>241.97500228882</ele>
        <time>2013-09-14T09:16:09Z</time>
      </trkpt>
      <trkpt lat="43.5344" lon="1.45683">
        <ele>238.70000203451</ele>
        <time>2013-09-14T09:16:12Z</time>
      </trkpt>
      <trkpt lat="43.5344" lon="1.45686">
        <ele>237.73333740234</ele>
        <time>2013-09-14T09:16:15Z</time>
      </trkpt>
      <trkpt lat="43.5344" lon="1.45686">
        <ele>237.375</ele>
        <time>2013-09-14T09:16:19Z</time>
      </trkpt>
      <trkpt lat="43.5344" lon="1.45687">
        <ele>237.19999694824</ele>
        <time>2013-09-14T09:16:23Z</time>
      </trkpt>
      <trkpt lat="43.5344" lon="1.45687">
        <ele>237.22499847412</ele>
        <time>2013-09-14T09:16:27Z</time>
      </trkpt>
      <trkpt lat="43.53441" lon="1.45688">
        <ele>237.625</ele>
        <time>2013-09-14T09:16:31Z</time>
      </trkpt>
      <trkpt lat="43.53442" lon="1.45689">
        <ele>238.25</ele>
        <time>2013-09-14T09:16:35Z</time>
      </trkpt>
      <trkpt lat="43.53443" lon="1.45689">
        <ele>238.39999389648</ele>
        <time>2013-09-14T09:16:38Z</time>
      </trkpt>
      <trkpt lat="43.53443" lon="1.45689">
        <ele>238.39999389648</ele>
        <time>2013-09-14T09:16:41Z</time>
      </trkpt>
      <trkpt lat="43.53443" lon="1.45689">
        <ele>238.3749961853</ele>
        <time>2013-09-14T09:16:45Z</time>
      </trkpt>
      <trkpt lat="43.53443" lon="1.45689">
        <ele>238.30000305176</ele>
        <time>2013-09-14T09:16:49Z</time>
      </trkpt>
      <trkpt lat="43.53443" lon="1.45689">
        <ele>238.2500038147</ele>
        <time>2013-09-14T09:16:53Z</time>
      </trkpt>
      <trkpt lat="43.53443" lon="1.45691">
        <ele>237.46666463216</ele>
        <time>2013-09-14T09:16:56Z</time>
      </trkpt>
      <trkpt lat="43.53447" lon="1.45692">
        <ele>238.73333231608</ele>
        <time>2013-09-14T09:16:59Z</time>
      </trkpt>
      <trkpt lat="43.53448" lon="1.45693">
        <ele>238.70000203451</ele>
        <time>2013-09-14T09:17:02Z</time>
      </trkpt>
      <trkpt lat="43.5345" lon="1.45693">
        <ele>238.5</ele>
        <time>2013-09-14T09:17:06Z</time>
      </trkpt>
      <trkpt lat="43.5345" lon="1.45693">
        <ele>237.80000305176</ele>
        <time>2013-09-14T09:17:09Z</time>
      </trkpt>
      <trkpt lat="43.5345" lon="1.45693">
        <ele>237.80000305176</ele>
        <time>2013-09-14T09:17:13Z</time>
      </trkpt>
      <trkpt lat="43.53451" lon="1.45693">
        <ele>237.80000305176</ele>
        <time>2013-09-14T09:17:16Z</time>
      </trkpt>
      <trkpt lat="43.53451" lon="1.45693">
        <ele>237.80000305176</ele>
        <time>2013-09-14T09:17:20Z</time>
      </trkpt>
      <trkpt lat="43.53451" lon="1.45693">
        <ele>237.80000305176</ele>
        <time>2013-09-14T09:17:23Z</time>
      </trkpt>
      <trkpt lat="43.53451" lon="1.45693">
        <ele>237.82500076294</ele>
        <time>2013-09-14T09:17:27Z</time>
      </trkpt>
      <trkpt lat="43.5345" lon="1.45693">
        <ele>238.1249961853</ele>
        <time>2013-09-14T09:17:31Z</time>
      </trkpt>
      <trkpt lat="43.53448" lon="1.4569">
        <ele>239.52499771118</ele>
        <time>2013-09-14T09:17:35Z</time>
      </trkpt>
      <trkpt lat="43.53444" lon="1.45686">
        <ele>240.36666361491</ele>
        <time>2013-09-14T09:17:38Z</time>
      </trkpt>
      <trkpt lat="43.5344" lon="1.45682">
        <ele>241.04999923706</ele>
        <time>2013-09-14T09:17:42Z</time>
      </trkpt>
      <trkpt lat="43.53436" lon="1.4568">
        <ele>241.46666463216</ele>
        <time>2013-09-14T09:17:45Z</time>
      </trkpt>
      <trkpt lat="43.53433" lon="1.45677">
        <ele>241.73333231608</ele>
        <time>2013-09-14T09:17:48Z</time>
      </trkpt>
      <trkpt lat="43.53428" lon="1.45674">
        <ele>240.33333333333</ele>
        <time>2013-09-14T09:17:51Z</time>
      </trkpt>
      <trkpt lat="43.5342" lon="1.45673">
        <ele>241.47499847412</ele>
        <time>2013-09-14T09:17:55Z</time>
      </trkpt>
      <trkpt lat="43.53413" lon="1.4567">
        <ele>240.46666463216</ele>
        <time>2013-09-14T09:17:58Z</time>
      </trkpt>
      <trkpt lat="43.53407" lon="1.45667">
        <ele>241.16666666667</ele>
        <time>2013-09-14T09:18:01Z</time>
      </trkpt>
      <trkpt lat="43.53401" lon="1.45662">
        <ele>243</ele>
        <time>2013-09-14T09:18:05Z</time>
      </trkpt>
      <trkpt lat="43.53396" lon="1.45656">
        <ele>244.375</ele>
        <time>2013-09-14T09:18:09Z</time>
      </trkpt>
      <trkpt lat="43.53391" lon="1.4565">
        <ele>245.19999694824</ele>
        <time>2013-09-14T09:18:12Z</time>
      </trkpt>
      <trkpt lat="43.53386" lon="1.45643">
        <ele>246.35000228882</ele>
        <time>2013-09-14T09:18:16Z</time>
      </trkpt>
      <trkpt lat="43.53382" lon="1.45635">
        <ele>247.43333435059</ele>
        <time>2013-09-14T09:18:19Z</time>
      </trkpt>
      <trkpt lat="43.53377" lon="1.4563">
        <ele>247.77500152588</ele>
        <time>2013-09-14T09:18:23Z</time>
      </trkpt>
      <trkpt lat="43.53373" lon="1.45628">
        <ele>247.75</ele>
        <time>2013-09-14T09:18:27Z</time>
      </trkpt>
      <trkpt lat="43.5337" lon="1.45627">
        <ele>247.76666768392</ele>
        <time>2013-09-14T09:18:30Z</time>
      </trkpt>
      <trkpt lat="43.53369" lon="1.45626">
        <ele>247.45000076294</ele>
        <time>2013-09-14T09:18:34Z</time>
      </trkpt>
      <trkpt lat="43.53368" lon="1.45625">
        <ele>247.07500457764</ele>
        <time>2013-09-14T09:18:38Z</time>
      </trkpt>
      <trkpt lat="43.53363" lon="1.45625">
        <ele>248.82499694824</ele>
        <time>2013-09-14T09:18:42Z</time>
      </trkpt>
      <trkpt lat="43.53348" lon="1.45619">
        <ele>247.77499771118</ele>
        <time>2013-09-14T09:18:45Z</time>
      </trkpt>
      <trkpt lat="43.53338" lon="1.45612">
        <ele>246.53333536784</ele>
        <time>2013-09-14T09:18:49Z</time>
      </trkpt>
      <trkpt lat="43.53332" lon="1.45606">
        <ele>248.7499961853</ele>
        <time>2013-09-14T09:18:53Z</time>
      </trkpt>
      <trkpt lat="43.53329" lon="1.456">
        <ele>249.43333435059</ele>
        <time>2013-09-14T09:18:56Z</time>
      </trkpt>
      <trkpt lat="43.53327" lon="1.45595">
        <ele>248.79999923706</ele>
        <time>2013-09-14T09:19:00Z</time>
      </trkpt>
      <trkpt lat="43.53321" lon="1.45588">
        <ele>249.32500076294</ele>
        <time>2013-09-14T09:19:04Z</time>
      </trkpt>
      <trkpt lat="43.53314" lon="1.45581">
        <ele>249.47499847412</ele>
        <time>2013-09-14T09:19:08Z</time>
      </trkpt>
      <trkpt lat="43.53313" lon="1.45578">
        <ele>249.82499694824</ele>
        <time>2013-09-14T09:19:12Z</time>
      </trkpt>
      <trkpt lat="43.53311" lon="1.45576">
        <ele>249.95000076294</ele>
        <time>2013-09-14T09:19:16Z</time>
      </trkpt>
      <trkpt lat="43.53308" lon="1.45574">
        <ele>249.89999898275</ele>
        <time>2013-09-14T09:19:19Z</time>
      </trkpt>
      <trkpt lat="43.53304" lon="1.45571">
        <ele>250.63333129883</ele>
        <time>2013-09-14T09:19:22Z</time>
      </trkpt>
      <trkpt lat="43.53299" lon="1.45566">
        <ele>251.52500152588</ele>
        <time>2013-09-14T09:19:26Z</time>
      </trkpt>
      <trkpt lat="43.53294" lon="1.45559">
        <ele>252.16666666667</ele>
        <time>2013-09-14T09:19:29Z</time>
      </trkpt>
      <trkpt lat="43.53284" lon="1.45553">
        <ele>251.94999694824</ele>
        <time>2013-09-14T09:19:33Z</time>
      </trkpt>
      <trkpt lat="43.53274" lon="1.45548">
        <ele>252.16666666667</ele>
        <time>2013-09-14T09:19:36Z</time>
      </trkpt>
      <trkpt lat="43.53267" lon="1.45546">
        <ele>252.39999898275</ele>
        <time>2013-09-14T09:19:39Z</time>
      </trkpt>
      <trkpt lat="43.5326" lon="1.45544">
        <ele>252.92499923706</ele>
        <time>2013-09-14T09:19:43Z</time>
      </trkpt>
      <trkpt lat="43.53252" lon="1.45543">
        <ele>253.84999847412</ele>
        <time>2013-09-14T09:19:47Z</time>
      </trkpt>
      <trkpt lat="43.53245" lon="1.45542">
        <ele>254.52500152588</ele>
        <time>2013-09-14T09:19:51Z</time>
      </trkpt>
      <trkpt lat="43.5324" lon="1.4554">
        <ele>254.39999898275</ele>
        <time>2013-09-14T09:19:54Z</time>
      </trkpt>
      <trkpt lat="43.53234" lon="1.45539">
        <ele>255.67499923706</ele>
        <time>2013-09-14T09:19:58Z</time>
      </trkpt>
      <trkpt lat="43.53228" lon="1.45539">
        <ele>255.53333028158</ele>
        <time>2013-09-14T09:20:01Z</time>
      </trkpt>
      <trkpt lat="43.53221" lon="1.45541">
        <ele>255.6250038147</ele>
        <time>2013-09-14T09:20:05Z</time>
      </trkpt>
      <trkpt lat="43.53214" lon="1.45543">
        <ele>256.40000915527</ele>
        <time>2013-09-14T09:20:09Z</time>
      </trkpt>
      <trkpt lat="43.53207" lon="1.45545">
        <ele>256.59999593099</ele>
        <time>2013-09-14T09:20:12Z</time>
      </trkpt>
      <trkpt lat="43.53199" lon="1.45548">
        <ele>257.22499847412</ele>
        <time>2013-09-14T09:20:16Z</time>
      </trkpt>
      <trkpt lat="43.53192" lon="1.45552">
        <ele>258.19999186198</ele>
        <time>2013-09-14T09:20:19Z</time>
      </trkpt>
      <trkpt lat="43.53186" lon="1.45557">
        <ele>259.19999694824</ele>
        <time>2013-09-14T09:20:23Z</time>
      </trkpt>
      <trkpt lat="43.53181" lon="1.4556">
        <ele>260.56667073568</ele>
        <time>2013-09-14T09:20:26Z</time>
      </trkpt>
      <trkpt lat="43.53176" lon="1.45562">
        <ele>262.37499237061</ele>
        <time>2013-09-14T09:20:30Z</time>
      </trkpt>
      <trkpt lat="43.5317" lon="1.45564">
        <ele>265.13334147135</ele>
        <time>2013-09-14T09:20:33Z</time>
      </trkpt>
      <trkpt lat="43.53165" lon="1.45566">
        <ele>264.75000762939</ele>
        <time>2013-09-14T09:20:37Z</time>
      </trkpt>
      <trkpt lat="43.53158" lon="1.45569">
        <ele>265</ele>
        <time>2013-09-14T09:20:41Z</time>
      </trkpt>
      <trkpt lat="43.53152" lon="1.45572">
        <ele>266.13334147135</ele>
        <time>2013-09-14T09:20:44Z</time>
      </trkpt>
      <trkpt lat="43.53147" lon="1.45573">
        <ele>267.46666463216</ele>
        <time>2013-09-14T09:20:47Z</time>
      </trkpt>
      <trkpt lat="43.53142" lon="1.45574">
        <ele>268.39999389648</ele>
        <time>2013-09-14T09:20:51Z</time>
      </trkpt>
      <trkpt lat="43.53137" lon="1.45575">
        <ele>268.30000813802</ele>
        <time>2013-09-14T09:20:54Z</time>
      </trkpt>
      <trkpt lat="43.53131" lon="1.45576">
        <ele>269.02500152588</ele>
        <time>2013-09-14T09:20:58Z</time>
      </trkpt>
      <trkpt lat="43.53126" lon="1.45577">
        <ele>268.53332519531</ele>
        <time>2013-09-14T09:21:01Z</time>
      </trkpt>
      <trkpt lat="43.5312" lon="1.45578">
        <ele>268.84999847412</ele>
        <time>2013-09-14T09:21:05Z</time>
      </trkpt>
      <trkpt lat="43.53114" lon="1.45579">
        <ele>268.69999694824</ele>
        <time>2013-09-14T09:21:09Z</time>
      </trkpt>
      <trkpt lat="43.53108" lon="1.45579">
        <ele>268.82499694824</ele>
        <time>2013-09-14T09:21:13Z</time>
      </trkpt>
      <trkpt lat="43.53101" lon="1.45581">
        <ele>269.89999389648</ele>
        <time>2013-09-14T09:21:17Z</time>
      </trkpt>
      <trkpt lat="43.53094" lon="1.45582">
        <ele>271.07499694824</ele>
        <time>2013-09-14T09:21:21Z</time>
      </trkpt>
      <trkpt lat="43.53089" lon="1.45583">
        <ele>271.96666463216</ele>
        <time>2013-09-14T09:21:24Z</time>
      </trkpt>
      <trkpt lat="43.53084" lon="1.45584">
        <ele>273.90000406901</ele>
        <time>2013-09-14T09:21:27Z</time>
      </trkpt>
      <trkpt lat="43.53079" lon="1.45585">
        <ele>275.47499084473</ele>
        <time>2013-09-14T09:21:31Z</time>
      </trkpt>
      <trkpt lat="43.53071" lon="1.45587">
        <ele>278.13333129883</ele>
        <time>2013-09-14T09:21:34Z</time>
      </trkpt>
      <trkpt lat="43.53067" lon="1.4559">
        <ele>278.79999542236</ele>
        <time>2013-09-14T09:21:38Z</time>
      </trkpt>
      <trkpt lat="43.53062" lon="1.45592">
        <ele>280.47500610352</ele>
        <time>2013-09-14T09:21:42Z</time>
      </trkpt>
      <trkpt lat="43.53058" lon="1.45593">
        <ele>281.53333536784</ele>
        <time>2013-09-14T09:21:45Z</time>
      </trkpt>
      <trkpt lat="43.53054" lon="1.45593">
        <ele>283.22499847412</ele>
        <time>2013-09-14T09:21:49Z</time>
      </trkpt>
      <trkpt lat="43.5305" lon="1.45592">
        <ele>284.46667480469</ele>
        <time>2013-09-14T09:21:52Z</time>
      </trkpt>
      <trkpt lat="43.53043" lon="1.45593">
        <ele>285.22499847412</ele>
        <time>2013-09-14T09:21:56Z</time>
      </trkpt>
      <trkpt lat="43.53036" lon="1.45596">
        <ele>285.54999542236</ele>
        <time>2013-09-14T09:22:00Z</time>
      </trkpt>
      <trkpt lat="43.5303" lon="1.45599">
        <ele>285.62499237061</ele>
        <time>2013-09-14T09:22:04Z</time>
      </trkpt>
      <trkpt lat="43.53025" lon="1.45603">
        <ele>284.66666666667</ele>
        <time>2013-09-14T09:22:07Z</time>
      </trkpt>
      <trkpt lat="43.53021" lon="1.45605">
        <ele>285.32500457764</ele>
        <time>2013-09-14T09:22:11Z</time>
      </trkpt>
      <trkpt lat="43.53015" lon="1.45607">
        <ele>287.20001220703</ele>
        <time>2013-09-14T09:22:15Z</time>
      </trkpt>
      <trkpt lat="43.53009" lon="1.4561">
        <ele>288.94999694824</ele>
        <time>2013-09-14T09:22:19Z</time>
      </trkpt>
      <trkpt lat="43.53004" lon="1.45613">
        <ele>290.89999389648</ele>
        <time>2013-09-14T09:22:23Z</time>
      </trkpt>
      <trkpt lat="43.52998" lon="1.45617">
        <ele>291.84999084473</ele>
        <time>2013-09-14T09:22:27Z</time>
      </trkpt>
      <trkpt lat="43.52994" lon="1.45621">
        <ele>292.54999542236</ele>
        <time>2013-09-14T09:22:31Z</time>
      </trkpt>
      <trkpt lat="43.5299" lon="1.45624">
        <ele>292.59999593099</ele>
        <time>2013-09-14T09:22:34Z</time>
      </trkpt>
      <trkpt lat="43.52984" lon="1.45627">
        <ele>293.85000610352</ele>
        <time>2013-09-14T09:22:38Z</time>
      </trkpt>
      <trkpt lat="43.52979" lon="1.45633">
        <ele>293.89999389648</ele>
        <time>2013-09-14T09:22:41Z</time>
      </trkpt>
      <trkpt lat="43.52975" lon="1.45637">
        <ele>294.32499694824</ele>
        <time>2013-09-14T09:22:45Z</time>
      </trkpt>
      <trkpt lat="43.52969" lon="1.45642">
        <ele>293.93332926432</ele>
        <time>2013-09-14T09:22:48Z</time>
      </trkpt>
      <trkpt lat="43.52964" lon="1.45642">
        <ele>294.67500305176</ele>
        <time>2013-09-14T09:22:52Z</time>
      </trkpt>
      <trkpt lat="43.52958" lon="1.4564">
        <ele>295.45000457764</ele>
        <time>2013-09-14T09:22:56Z</time>
      </trkpt>
      <trkpt lat="43.52959" lon="1.45639">
        <ele>295.75</ele>
        <time>2013-09-14T09:23:00Z</time>
      </trkpt>
      <trkpt lat="43.52959" lon="1.45639">
        <ele>295.13333129883</ele>
        <time>2013-09-14T09:23:03Z</time>
      </trkpt>
      <trkpt lat="43.52959" lon="1.45639">
        <ele>295.55000305176</ele>
        <time>2013-09-14T09:23:07Z</time>
      </trkpt>
      <trkpt lat="43.52959" lon="1.4564">
        <ele>295.43332926432</ele>
        <time>2013-09-14T09:23:10Z</time>
      </trkpt>
      <trkpt lat="43.5296" lon="1.4564">
        <ele>296.53333536784</ele>
        <time>2013-09-14T09:23:13Z</time>
      </trkpt>
      <trkpt lat="43.52959" lon="1.45639">
        <ele>297</ele>
        <time>2013-09-14T09:23:17Z</time>
      </trkpt>
      <trkpt lat="43.52958" lon="1.45638">
        <ele>297</ele>
        <time>2013-09-14T09:23:21Z</time>
      </trkpt>
      <trkpt lat="43.52958" lon="1.45638">
        <ele>297</ele>
        <time>2013-09-14T09:23:24Z</time>
      </trkpt>
      <trkpt lat="43.52958" lon="1.45638">
        <ele>297</ele>
        <time>2013-09-14T09:23:28Z</time>
      </trkpt>
      <trkpt lat="43.52958" lon="1.45638">
        <ele>297</ele>
        <time>2013-09-14T09:23:31Z</time>
      </trkpt>
      <trkpt lat="43.52958" lon="1.45638">
        <ele>297</ele>
        <time>2013-09-14T09:23:35Z</time>
      </trkpt>
      <trkpt lat="43.52958" lon="1.45638">
        <ele>296.76666259766</ele>
        <time>2013-09-14T09:23:38Z</time>
      </trkpt>
      <trkpt lat="43.52958" lon="1.45637">
        <ele>297.20000203451</ele>
        <time>2013-09-14T09:23:41Z</time>
      </trkpt>
      <trkpt lat="43.52959" lon="1.45637">
        <ele>297.06667073568</ele>
        <time>2013-09-14T09:23:44Z</time>
      </trkpt>
      <trkpt lat="43.52959" lon="1.45638">
        <ele>296.94999694824</ele>
        <time>2013-09-14T09:23:48Z</time>
      </trkpt>
      <trkpt lat="43.52959" lon="1.45638">
        <ele>296.87499237061</ele>
        <time>2013-09-14T09:23:52Z</time>
      </trkpt>
      <trkpt lat="43.52959" lon="1.45638">
        <ele>297.06667073568</ele>
        <time>2013-09-14T09:23:55Z</time>
      </trkpt>
      <trkpt lat="43.52959" lon="1.45638">
        <ele>297.10000610352</ele>
        <time>2013-09-14T09:23:58Z</time>
      </trkpt>
      <trkpt lat="43.52958" lon="1.45638">
        <ele>297.44999694824</ele>
        <time>2013-09-14T09:24:03Z</time>
      </trkpt>
      <trkpt lat="43.52958" lon="1.45637">
        <ele>297.20000457764</ele>
        <time>2013-09-14T09:24:06Z</time>
      </trkpt>
      <trkpt lat="43.52958" lon="1.45637">
        <ele>297.07500457764</ele>
        <time>2013-09-14T09:24:10Z</time>
      </trkpt>
      <trkpt lat="43.52958" lon="1.45637">
        <ele>297</ele>
        <time>2013-09-14T09:24:14Z</time>
      </trkpt>
      <trkpt lat="43.52958" lon="1.45637">
        <ele>297.20001220703</ele>
        <time>2013-09-14T09:24:17Z</time>
      </trkpt>
      <trkpt lat="43.52958" lon="1.45637">
        <ele>297.20001220703</ele>
        <time>2013-09-14T09:24:21Z</time>
      </trkpt>
      <trkpt lat="43.52958" lon="1.45637">
        <ele>297.20001220703</ele>
        <time>2013-09-14T09:24:24Z</time>
      </trkpt>
      <trkpt lat="43.52958" lon="1.45637">
        <ele>297.20001220703</ele>
        <time>2013-09-14T09:24:27Z</time>
      </trkpt>
      <trkpt lat="43.52958" lon="1.45637">
        <ele>297.20001220703</ele>
        <time>2013-09-14T09:24:30Z</time>
      </trkpt>
      <trkpt lat="43.52958" lon="1.45637">
        <ele>297.20001220703</ele>
        <time>2013-09-14T09:24:34Z</time>
      </trkpt>
      <trkpt lat="43.52958" lon="1.45637">
        <ele>297.10000610352</ele>
        <time>2013-09-14T09:24:37Z</time>
      </trkpt>
      <trkpt lat="43.52958" lon="1.45637">
        <ele>297.10000610352</ele>
        <time>2013-09-14T09:24:41Z</time>
      </trkpt>
      <trkpt lat="43.52958" lon="1.45637">
        <ele>297.10000610352</ele>
        <time>2013-09-14T09:24:44Z</time>
      </trkpt>
      <trkpt lat="43.52958" lon="1.45637">
        <ele>297.10000610352</ele>
        <time>2013-09-14T09:24:47Z</time>
      </trkpt>
      <trkpt lat="43.52958" lon="1.45637">
        <ele>297.03333536784</ele>
        <time>2013-09-14T09:24:50Z</time>
      </trkpt>
      <trkpt lat="43.52958" lon="1.45637">
        <ele>297</ele>
        <time>2013-09-14T09:24:53Z</time>
      </trkpt>
      <trkpt lat="43.52958" lon="1.45637">
        <ele>297</ele>
        <time>2013-09-14T09:24:56Z</time>
      </trkpt>
      <trkpt lat="43.52958" lon="1.45637">
        <ele>297</ele>
        <time>2013-09-14T09:25:00Z</time>
      </trkpt>
      <trkpt lat="43.52958" lon="1.45637">
        <ele>296.94999694824</ele>
        <time>2013-09-14T09:25:03Z</time>
      </trkpt>
      <trkpt lat="43.52958" lon="1.45637">
        <ele>296.89999389648</ele>
        <time>2013-09-14T09:25:07Z</time>
      </trkpt>
      <trkpt lat="43.52958" lon="1.45637">
        <ele>296.89999389648</ele>
        <time>2013-09-14T09:25:10Z</time>
      </trkpt>
      <trkpt lat="43.52958" lon="1.45637">
        <ele>296.89999389648</ele>
        <time>2013-09-14T09:25:14Z</time>
      </trkpt>
      <trkpt lat="43.52958" lon="1.45637">
        <ele>296.92499542236</ele>
        <time>2013-09-14T09:25:17Z</time>
      </trkpt>
      <trkpt lat="43.52958" lon="1.45638">
        <ele>297.23333740234</ele>
        <time>2013-09-14T09:25:20Z</time>
      </trkpt>
      <trkpt lat="43.52958" lon="1.45638">
        <ele>297.65000152588</ele>
        <time>2013-09-14T09:25:24Z</time>
      </trkpt>
      <trkpt lat="43.52958" lon="1.45639">
        <ele>297.89999389648</ele>
        <time>2013-09-14T09:25:28Z</time>
      </trkpt>
      <trkpt lat="43.52958" lon="1.45639">
        <ele>298.07500457764</ele>
        <time>2013-09-14T09:25:31Z</time>
      </trkpt>
      <trkpt lat="43.52958" lon="1.45639">
        <ele>298.10000610352</ele>
        <time>2013-09-14T09:25:36Z</time>
      </trkpt>
      <trkpt lat="43.52958" lon="1.45639">
        <ele>298.10000610352</ele>
        <time>2013-09-14T09:25:39Z</time>
      </trkpt>
      <trkpt lat="43.52958" lon="1.45639">
        <ele>298.10000610352</ele>
        <time>2013-09-14T09:25:42Z</time>
      </trkpt>
      <trkpt lat="43.52958" lon="1.45639">
        <ele>297.93332926432</ele>
        <time>2013-09-14T09:25:46Z</time>
      </trkpt>
      <trkpt lat="43.52958" lon="1.45639">
        <ele>297.66667683919</ele>
        <time>2013-09-14T09:25:49Z</time>
      </trkpt>
      <trkpt lat="43.52959" lon="1.4564">
        <ele>297.63334147135</ele>
        <time>2013-09-14T09:25:52Z</time>
      </trkpt>
      <trkpt lat="43.52958" lon="1.4564">
        <ele>297.36665852865</ele>
        <time>2013-09-14T09:25:55Z</time>
      </trkpt>
      <trkpt lat="43.52958" lon="1.4564">
        <ele>297.42499542236</ele>
        <time>2013-09-14T09:25:58Z</time>
      </trkpt>
      <trkpt lat="43.52958" lon="1.4564">
        <ele>297.39999389648</ele>
        <time>2013-09-14T09:26:02Z</time>
      </trkpt>
      <trkpt lat="43.52958" lon="1.4564">
        <ele>297.70001220703</ele>
        <time>2013-09-14T09:26:06Z</time>
      </trkpt>
      <trkpt lat="43.52958" lon="1.45641">
        <ele>297.75</ele>
        <time>2013-09-14T09:26:09Z</time>
      </trkpt>
      <trkpt lat="43.52959" lon="1.45641">
        <ele>297.79998779297</ele>
        <time>2013-09-14T09:26:13Z</time>
      </trkpt>
      <trkpt lat="43.52959" lon="1.45641">
        <ele>297.79998779297</ele>
        <time>2013-09-14T09:26:16Z</time>
      </trkpt>
      <trkpt lat="43.52959" lon="1.45641">
        <ele>297.79998779297</ele>
        <time>2013-09-14T09:26:19Z</time>
      </trkpt>
      <trkpt lat="43.52959" lon="1.45641">
        <ele>297.79998779297</ele>
        <time>2013-09-14T09:26:23Z</time>
      </trkpt>
      <trkpt lat="43.52959" lon="1.45641">
        <ele>297.79998779297</ele>
        <time>2013-09-14T09:26:27Z</time>
      </trkpt>
      <trkpt lat="43.52959" lon="1.45641">
        <ele>297.79998779297</ele>
        <time>2013-09-14T09:26:31Z</time>
      </trkpt>
      <trkpt lat="43.52959" lon="1.45641">
        <ele>297.79998779297</ele>
        <time>2013-09-14T09:26:34Z</time>
      </trkpt>
      <trkpt lat="43.52959" lon="1.45641">
        <ele>297.79998779297</ele>
        <time>2013-09-14T09:26:38Z</time>
      </trkpt>
      <trkpt lat="43.52959" lon="1.45641">
        <ele>297.79998779297</ele>
        <time>2013-09-14T09:26:41Z</time>
      </trkpt>
      <trkpt lat="43.52959" lon="1.45641">
        <ele>297.79998779297</ele>
        <time>2013-09-14T09:26:44Z</time>
      </trkpt>
      <trkpt lat="43.52959" lon="1.45641">
        <ele>297.79998779297</ele>
        <time>2013-09-14T09:26:47Z</time>
      </trkpt>
      <trkpt lat="43.52959" lon="1.45641">
        <ele>297.79998779297</ele>
        <time>2013-09-14T09:26:50Z</time>
      </trkpt>
      <trkpt lat="43.52959" lon="1.45641">
        <ele>297.79998779297</ele>
        <time>2013-09-14T09:26:53Z</time>
      </trkpt>
      <trkpt lat="43.52959" lon="1.45641">
        <ele>297.79998779297</ele>
        <time>2013-09-14T09:26:57Z</time>
      </trkpt>
      <trkpt lat="43.52959" lon="1.45641">
        <ele>297.79998779297</ele>
        <time>2013-09-14T09:27:00Z</time>
      </trkpt>
      <trkpt lat="43.52959" lon="1.45641">
        <ele>297.79998779297</ele>
        <time>2013-09-14T09:27:04Z</time>
      </trkpt>
      <trkpt lat="43.52959" lon="1.45641">
        <ele>297.79998779297</ele>
        <time>2013-09-14T09:27:07Z</time>
      </trkpt>
      <trkpt lat="43.52959" lon="1.45641">
        <ele>297.79998779297</ele>
        <time>2013-09-14T09:27:12Z</time>
      </trkpt>
      <trkpt lat="43.52959" lon="1.45641">
        <ele>297.79998779297</ele>
        <time>2013-09-14T09:27:15Z</time>
      </trkpt>
      <trkpt lat="43.52959" lon="1.45641">
        <ele>297.79998779297</ele>
        <time>2013-09-14T09:27:18Z</time>
      </trkpt>
      <trkpt lat="43.52959" lon="1.45641">
        <ele>297.79998779297</ele>
        <time>2013-09-14T09:27:22Z</time>
      </trkpt>
      <trkpt lat="43.52959" lon="1.45641">
        <ele>297.79998779297</ele>
        <time>2013-09-14T09:27:26Z</time>
      </trkpt>
      <trkpt lat="43.52959" lon="1.45641">
        <ele>297.79998779297</ele>
        <time>2013-09-14T09:27:29Z</time>
      </trkpt>
      <trkpt lat="43.52959" lon="1.45641">
        <ele>297.79998779297</ele>
        <time>2013-09-14T09:27:32Z</time>
      </trkpt>
      <trkpt lat="43.52959" lon="1.45641">
        <ele>297.79998779297</ele>
        <time>2013-09-14T09:27:36Z</time>
      </trkpt>
      <trkpt lat="43.52959" lon="1.45641">
        <ele>297.79998779297</ele>
        <time>2013-09-14T09:27:40Z</time>
      </trkpt>
      <trkpt lat="43.52959" lon="1.45641">
        <ele>297.79998779297</ele>
        <time>2013-09-14T09:27:43Z</time>
      </trkpt>
      <trkpt lat="43.52959" lon="1.45641">
        <ele>297.79998779297</ele>
        <time>2013-09-14T09:27:47Z</time>
      </trkpt>
      <trkpt lat="43.52959" lon="1.45641">
        <ele>297.79998779297</ele>
        <time>2013-09-14T09:27:50Z</time>
      </trkpt>
      <trkpt lat="43.52959" lon="1.45641">
        <ele>297.79998779297</ele>
        <time>2013-09-14T09:27:53Z</time>
      </trkpt>
      <trkpt lat="43.52959" lon="1.45641">
        <ele>297.79998779297</ele>
        <time>2013-09-14T09:27:56Z</time>
      </trkpt>
      <trkpt lat="43.52959" lon="1.45641">
        <ele>297.79998779297</ele>
        <time>2013-09-14T09:28:00Z</time>
      </trkpt>
      <trkpt lat="43.52959" lon="1.45641">
        <ele>297.79998779297</ele>
        <time>2013-09-14T09:28:03Z</time>
      </trkpt>
      <trkpt lat="43.52959" lon="1.45641">
        <ele>297.79998779297</ele>
        <time>2013-09-14T09:28:07Z</time>
      </trkpt>
      <trkpt lat="43.52959" lon="1.45641">
        <ele>297.79998779297</ele>
        <time>2013-09-14T09:28:10Z</time>
      </trkpt>
      <trkpt lat="43.52959" lon="1.45641">
        <ele>297.79998779297</ele>
        <time>2013-09-14T09:28:13Z</time>
      </trkpt>
      <trkpt lat="43.52959" lon="1.45641">
        <ele>297.79998779297</ele>
        <time>2013-09-14T09:28:16Z</time>
      </trkpt>
      <trkpt lat="43.52959" lon="1.45641">
        <ele>297.79998779297</ele>
        <time>2013-09-14T09:28:20Z</time>
      </trkpt>
      <trkpt lat="43.52959" lon="1.45641">
        <ele>297.79998779297</ele>
        <time>2013-09-14T09:28:23Z</time>
      </trkpt>
      <trkpt lat="43.52959" lon="1.45641">
        <ele>297.79998779297</ele>
        <time>2013-09-14T09:28:26Z</time>
      </trkpt>
      <trkpt lat="43.52959" lon="1.45641">
        <ele>297.79998779297</ele>
        <time>2013-09-14T09:28:30Z</time>
      </trkpt>
      <trkpt lat="43.52959" lon="1.45641">
        <ele>297.79998779297</ele>
        <time>2013-09-14T09:28:34Z</time>
      </trkpt>
      <trkpt lat="43.52959" lon="1.45641">
        <ele>297.79998779297</ele>
        <time>2013-09-14T09:28:37Z</time>
      </trkpt>
      <trkpt lat="43.52959" lon="1.45641">
        <ele>297.79998779297</ele>
        <time>2013-09-14T09:28:40Z</time>
      </trkpt>
      <trkpt lat="43.52959" lon="1.45641">
        <ele>297.79998779297</ele>
        <time>2013-09-14T09:28:44Z</time>
      </trkpt>
      <trkpt lat="43.52959" lon="1.45641">
        <ele>297.79998779297</ele>
        <time>2013-09-14T09:28:47Z</time>
      </trkpt>
      <trkpt lat="43.52959" lon="1.45641">
        <ele>297.79998779297</ele>
        <time>2013-09-14T09:28:51Z</time>
      </trkpt>
      <trkpt lat="43.52959" lon="1.45641">
        <ele>297.79998779297</ele>
        <time>2013-09-14T09:28:54Z</time>
      </trkpt>
      <trkpt lat="43.52959" lon="1.45641">
        <ele>297.79998779297</ele>
        <time>2013-09-14T09:28:57Z</time>
      </trkpt>
      <trkpt lat="43.52959" lon="1.45641">
        <ele>297.79998779297</ele>
        <time>2013-09-14T09:29:01Z</time>
      </trkpt>
      <trkpt lat="43.52959" lon="1.45641">
        <ele>297.79998779297</ele>
        <time>2013-09-14T09:29:05Z</time>
      </trkpt>
      <trkpt lat="43.52959" lon="1.45641">
        <ele>297.79998779297</ele>
        <time>2013-09-14T09:29:08Z</time>
      </trkpt>
      <trkpt lat="43.52959" lon="1.45641">
        <ele>297.79998779297</ele>
        <time>2013-09-14T09:29:12Z</time>
      </trkpt>
      <trkpt lat="43.52959" lon="1.45641">
        <ele>297.79998779297</ele>
        <time>2013-09-14T09:29:15Z</time>
      </trkpt>
      <trkpt lat="43.52959" lon="1.45641">
        <ele>297.79998779297</ele>
        <time>2013-09-14T09:29:20Z</time>
      </trkpt>
      <trkpt lat="43.52959" lon="1.45641">
        <ele>297.79998779297</ele>
        <time>2013-09-14T09:29:23Z</time>
      </trkpt>
      <trkpt lat="43.52959" lon="1.45641">
        <ele>297.79998779297</ele>
        <time>2013-09-14T09:29:26Z</time>
      </trkpt>
      <trkpt lat="43.52959" lon="1.45641">
        <ele>297.76666259766</ele>
        <time>2013-09-14T09:29:30Z</time>
      </trkpt>
      <trkpt lat="43.52959" lon="1.45641">
        <ele>297.54999542236</ele>
        <time>2013-09-14T09:29:33Z</time>
      </trkpt>
      <trkpt lat="43.52959" lon="1.45641">
        <ele>296.73333740234</ele>
        <time>2013-09-14T09:29:36Z</time>
      </trkpt>
      <trkpt lat="43.52959" lon="1.45642">
        <ele>295.83332316081</ele>
        <time>2013-09-14T09:29:39Z</time>
      </trkpt>
      <trkpt lat="43.52959" lon="1.45642">
        <ele>295.89999389648</ele>
        <time>2013-09-14T09:29:43Z</time>
      </trkpt>
      <trkpt lat="43.52959" lon="1.45642">
        <ele>295.89999389648</ele>
        <time>2013-09-14T09:29:47Z</time>
      </trkpt>
      <trkpt lat="43.52959" lon="1.45642">
        <ele>295.89999389648</ele>
        <time>2013-09-14T09:29:50Z</time>
      </trkpt>
      <trkpt lat="43.52959" lon="1.45642">
        <ele>295.89999389648</ele>
        <time>2013-09-14T09:29:53Z</time>
      </trkpt>
      <trkpt lat="43.52959" lon="1.45642">
        <ele>295.89999389648</ele>
        <time>2013-09-14T09:29:56Z</time>
      </trkpt>
      <trkpt lat="43.52959" lon="1.45642">
        <ele>295.89999389648</ele>
        <time>2013-09-14T09:30:00Z</time>
      </trkpt>
      <trkpt lat="43.52959" lon="1.45642">
        <ele>295.89999389648</ele>
        <time>2013-09-14T09:30:03Z</time>
      </trkpt>
      <trkpt lat="43.52959" lon="1.45641">
        <ele>296.07500457764</ele>
        <time>2013-09-14T09:30:07Z</time>
      </trkpt>
      <trkpt lat="43.5296" lon="1.45638">
        <ele>295.83332316081</ele>
        <time>2013-09-14T09:30:10Z</time>
      </trkpt>
      <trkpt lat="43.5296" lon="1.45632">
        <ele>296.05001068115</ele>
        <time>2013-09-14T09:30:14Z</time>
      </trkpt>
      <trkpt lat="43.52957" lon="1.45631">
        <ele>296.03333536784</ele>
        <time>2013-09-14T09:30:17Z</time>
      </trkpt>
      <trkpt lat="43.52954" lon="1.45633">
        <ele>295.60000610352</ele>
        <time>2013-09-14T09:30:20Z</time>
      </trkpt>
      <trkpt lat="43.52956" lon="1.45636">
        <ele>295.80000813802</ele>
        <time>2013-09-14T09:30:23Z</time>
      </trkpt>
      <trkpt lat="43.52958" lon="1.4564">
        <ele>296.46666463216</ele>
        <time>2013-09-14T09:30:26Z</time>
      </trkpt>
      <trkpt lat="43.5296" lon="1.45644">
        <ele>296.66666666667</ele>
        <time>2013-09-14T09:30:29Z</time>
      </trkpt>
      <trkpt lat="43.52961" lon="1.45643">
        <ele>295.22499084473</ele>
        <time>2013-09-14T09:30:33Z</time>
      </trkpt>
      <trkpt lat="43.52961" lon="1.45641">
        <ele>294.70000203451</ele>
        <time>2013-09-14T09:30:36Z</time>
      </trkpt>
      <trkpt lat="43.52961" lon="1.45641">
        <ele>294.56667073568</ele>
        <time>2013-09-14T09:30:39Z</time>
      </trkpt>
      <trkpt lat="43.52961" lon="1.45641">
        <ele>294.5</ele>
        <time>2013-09-14T09:30:42Z</time>
      </trkpt>
      <trkpt lat="43.52961" lon="1.45641">
        <ele>294.52500152588</ele>
        <time>2013-09-14T09:30:46Z</time>
      </trkpt>
      <trkpt lat="43.52961" lon="1.45641">
        <ele>294.66667683919</ele>
        <time>2013-09-14T09:30:49Z</time>
      </trkpt>
      <trkpt lat="43.52961" lon="1.45641">
        <ele>294.70001220703</ele>
        <time>2013-09-14T09:30:52Z</time>
      </trkpt>
      <trkpt lat="43.52961" lon="1.45641">
        <ele>294.70001220703</ele>
        <time>2013-09-14T09:30:56Z</time>
      </trkpt>
      <trkpt lat="43.52961" lon="1.45641">
        <ele>294.70001220703</ele>
        <time>2013-09-14T09:31:00Z</time>
      </trkpt>
      <trkpt lat="43.52961" lon="1.45641">
        <ele>294.70001220703</ele>
        <time>2013-09-14T09:31:03Z</time>
      </trkpt>
      <trkpt lat="43.52961" lon="1.45641">
        <ele>294.70001220703</ele>
        <time>2013-09-14T09:31:06Z</time>
      </trkpt>
      <trkpt lat="43.52961" lon="1.45643">
        <ele>294.93332926432</ele>
        <time>2013-09-14T09:31:10Z</time>
      </trkpt>
      <trkpt lat="43.52963" lon="1.45644">
        <ele>293.05000305176</ele>
        <time>2013-09-14T09:31:13Z</time>
      </trkpt>
      <trkpt lat="43.52964" lon="1.45641">
        <ele>293</ele>
        <time>2013-09-14T09:31:17Z</time>
      </trkpt>
      <trkpt lat="43.52963" lon="1.45634">
        <ele>293.47499847412</ele>
        <time>2013-09-14T09:31:20Z</time>
      </trkpt>
      <trkpt lat="43.52959" lon="1.45628">
        <ele>294.33333333333</ele>
        <time>2013-09-14T09:31:24Z</time>
      </trkpt>
      <trkpt lat="43.52954" lon="1.45628">
        <ele>294.47499847412</ele>
        <time>2013-09-14T09:31:27Z</time>
      </trkpt>
      <trkpt lat="43.52947" lon="1.45638">
        <ele>296.05000305176</ele>
        <time>2013-09-14T09:31:31Z</time>
      </trkpt>
      <trkpt lat="43.52942" lon="1.4565">
        <ele>296.96666463216</ele>
        <time>2013-09-14T09:31:34Z</time>
      </trkpt>
      <trkpt lat="43.52939" lon="1.45659">
        <ele>297.29999542236</ele>
        <time>2013-09-14T09:31:38Z</time>
      </trkpt>
      <trkpt lat="43.52934" lon="1.45667">
        <ele>297.80000813802</ele>
        <time>2013-09-14T09:31:41Z</time>
      </trkpt>
      <trkpt lat="43.52929" lon="1.45674">
        <ele>298.63333129883</ele>
        <time>2013-09-14T09:31:44Z</time>
      </trkpt>
      <trkpt lat="43.52922" lon="1.45684">
        <ele>300.92501068115</ele>
        <time>2013-09-14T09:31:48Z</time>
      </trkpt>
      <trkpt lat="43.52914" lon="1.45693">
        <ele>302.96666463216</ele>
        <time>2013-09-14T09:31:51Z</time>
      </trkpt>
      <trkpt lat="43.52906" lon="1.45704">
        <ele>303.94999694824</ele>
        <time>2013-09-14T09:31:55Z</time>
      </trkpt>
      <trkpt lat="43.52897" lon="1.45714">
        <ele>303.19999694824</ele>
        <time>2013-09-14T09:31:59Z</time>
      </trkpt>
      <trkpt lat="43.52889" lon="1.45722">
        <ele>302.63333129883</ele>
        <time>2013-09-14T09:32:02Z</time>
      </trkpt>
      <trkpt lat="43.5288" lon="1.45733">
        <ele>302.42500305176</ele>
        <time>2013-09-14T09:32:06Z</time>
      </trkpt>
      <trkpt lat="43.52872" lon="1.45746">
        <ele>304.06667073568</ele>
        <time>2013-09-14T09:32:10Z</time>
      </trkpt>
      <trkpt lat="43.52865" lon="1.45759">
        <ele>303.625</ele>
        <time>2013-09-14T09:32:14Z</time>
      </trkpt>
      <trkpt lat="43.52855" lon="1.45773">
        <ele>304.77500152588</ele>
        <time>2013-09-14T09:32:18Z</time>
      </trkpt>
      <trkpt lat="43.52845" lon="1.45785">
        <ele>305.75000762939</ele>
        <time>2013-09-14T09:32:22Z</time>
      </trkpt>
      <trkpt lat="43.52834" lon="1.45798">
        <ele>305.32499694824</ele>
        <time>2013-09-14T09:32:26Z</time>
      </trkpt>
      <trkpt lat="43.52824" lon="1.45812">
        <ele>305.79999542236</ele>
        <time>2013-09-14T09:32:30Z</time>
      </trkpt>
      <trkpt lat="43.52816" lon="1.45824">
        <ele>306.03333536784</ele>
        <time>2013-09-14T09:32:33Z</time>
      </trkpt>
      <trkpt lat="43.52806" lon="1.45835">
        <ele>304.65000152588</ele>
        <time>2013-09-14T09:32:36Z</time>
      </trkpt>
      <trkpt lat="43.52796" lon="1.45848">
        <ele>304.92500305176</ele>
        <time>2013-09-14T09:32:40Z</time>
      </trkpt>
      <trkpt lat="43.52788" lon="1.4586">
        <ele>305.03333536784</ele>
        <time>2013-09-14T09:32:43Z</time>
      </trkpt>
      <trkpt lat="43.52778" lon="1.4587">
        <ele>305.19999694824</ele>
        <time>2013-09-14T09:32:47Z</time>
      </trkpt>
      <trkpt lat="43.52766" lon="1.45883">
        <ele>305.02500152588</ele>
        <time>2013-09-14T09:32:51Z</time>
      </trkpt>
      <trkpt lat="43.52757" lon="1.45894">
        <ele>305.16666666667</ele>
        <time>2013-09-14T09:32:54Z</time>
      </trkpt>
      <trkpt lat="43.52751" lon="1.45897">
        <ele>304.20000203451</ele>
        <time>2013-09-14T09:32:57Z</time>
      </trkpt>
      <trkpt lat="43.52745" lon="1.45891">
        <ele>303.23333740234</ele>
        <time>2013-09-14T09:33:00Z</time>
      </trkpt>
      <trkpt lat="43.52738" lon="1.45883">
        <ele>302.29999796549</ele>
        <time>2013-09-14T09:33:03Z</time>
      </trkpt>
      <trkpt lat="43.52728" lon="1.45872">
        <ele>301.09999847412</ele>
        <time>2013-09-14T09:33:07Z</time>
      </trkpt>
      <trkpt lat="43.52706" lon="1.45847">
        <ele>298.64999389648</ele>
        <time>2013-09-14T09:33:11Z</time>
      </trkpt>
      <trkpt lat="43.52683" lon="1.45819">
        <ele>297.23332722982</ele>
        <time>2013-09-14T09:33:14Z</time>
      </trkpt>
      <trkpt lat="43.52666" lon="1.45787">
        <ele>295.5</ele>
        <time>2013-09-14T09:33:18Z</time>
      </trkpt>
      <trkpt lat="43.52642" lon="1.45753">
        <ele>293.09999847412</ele>
        <time>2013-09-14T09:33:22Z</time>
      </trkpt>
      <trkpt lat="43.52615" lon="1.45728">
        <ele>290.76666259766</ele>
        <time>2013-09-14T09:33:25Z</time>
      </trkpt>
      <trkpt lat="43.52592" lon="1.45702">
        <ele>288.53333536784</ele>
        <time>2013-09-14T09:33:28Z</time>
      </trkpt>
      <trkpt lat="43.52573" lon="1.45674">
        <ele>283.46666463216</ele>
        <time>2013-09-14T09:33:31Z</time>
      </trkpt>
      <trkpt lat="43.52555" lon="1.45654">
        <ele>280.26666259766</ele>
        <time>2013-09-14T09:33:34Z</time>
      </trkpt>
      <trkpt lat="43.52538" lon="1.45635">
        <ele>277.16666666667</ele>
        <time>2013-09-14T09:33:37Z</time>
      </trkpt>
      <trkpt lat="43.52525" lon="1.4562">
        <ele>276.16666666667</ele>
        <time>2013-09-14T09:33:41Z</time>
      </trkpt>
      <trkpt lat="43.52519" lon="1.4561">
        <ele>275.27499389648</ele>
        <time>2013-09-14T09:33:44Z</time>
      </trkpt>
      <trkpt lat="43.52514" lon="1.45602">
        <ele>274.84999847412</ele>
        <time>2013-09-14T09:33:49Z</time>
      </trkpt>
      <trkpt lat="43.52509" lon="1.45597">
        <ele>275.36666870117</ele>
        <time>2013-09-14T09:33:52Z</time>
      </trkpt>
      <trkpt lat="43.52507" lon="1.45596">
        <ele>275.76666259766</ele>
        <time>2013-09-14T09:33:55Z</time>
      </trkpt>
      <trkpt lat="43.52505" lon="1.45595">
        <ele>275.97499847412</ele>
        <time>2013-09-14T09:33:59Z</time>
      </trkpt>
      <trkpt lat="43.52502" lon="1.45591">
        <ele>277.00001017253</ele>
        <time>2013-09-14T09:34:02Z</time>
      </trkpt>
      <trkpt lat="43.525" lon="1.45589">
        <ele>277.26666259766</ele>
        <time>2013-09-14T09:34:05Z</time>
      </trkpt>
      <trkpt lat="43.52496" lon="1.45581">
        <ele>278.42499542236</ele>
        <time>2013-09-14T09:34:08Z</time>
      </trkpt>
      <trkpt lat="43.52492" lon="1.4557">
        <ele>278.16665649414</ele>
        <time>2013-09-14T09:34:12Z</time>
      </trkpt>
      <trkpt lat="43.52491" lon="1.45561">
        <ele>279.29999796549</ele>
        <time>2013-09-14T09:34:15Z</time>
      </trkpt>
      <trkpt lat="43.52491" lon="1.45551">
        <ele>280.27500152588</ele>
        <time>2013-09-14T09:34:19Z</time>
      </trkpt>
      <trkpt lat="43.52489" lon="1.45543">
        <ele>280.26667277018</ele>
        <time>2013-09-14T09:34:22Z</time>
      </trkpt>
      <trkpt lat="43.52487" lon="1.45537">
        <ele>279.36665852865</ele>
        <time>2013-09-14T09:34:25Z</time>
      </trkpt>
      <trkpt lat="43.52483" lon="1.45532">
        <ele>277.84999847412</ele>
        <time>2013-09-14T09:34:29Z</time>
      </trkpt>
      <trkpt lat="43.52479" lon="1.45526">
        <ele>276.72499084473</ele>
        <time>2013-09-14T09:34:33Z</time>
      </trkpt>
      <trkpt lat="43.52477" lon="1.45519">
        <ele>277.79999542236</ele>
        <time>2013-09-14T09:34:37Z</time>
      </trkpt>
      <trkpt lat="43.52475" lon="1.45514">
        <ele>278.80000305176</ele>
        <time>2013-09-14T09:34:40Z</time>
      </trkpt>
      <trkpt lat="43.52472" lon="1.4551">
        <ele>278.93332926432</ele>
        <time>2013-09-14T09:34:43Z</time>
      </trkpt>
      <trkpt lat="43.52469" lon="1.45506">
        <ele>278.46666463216</ele>
        <time>2013-09-14T09:34:47Z</time>
      </trkpt>
      <trkpt lat="43.52466" lon="1.455">
        <ele>279.05000305176</ele>
        <time>2013-09-14T09:34:50Z</time>
      </trkpt>
      <trkpt lat="43.52463" lon="1.45495">
        <ele>278.66667683919</ele>
        <time>2013-09-14T09:34:53Z</time>
      </trkpt>
      <trkpt lat="43.5246" lon="1.4549">
        <ele>278.97499847412</ele>
        <time>2013-09-14T09:34:57Z</time>
      </trkpt>
      <trkpt lat="43.52458" lon="1.45487">
        <ele>279.43332926432</ele>
        <time>2013-09-14T09:35:00Z</time>
      </trkpt>
      <trkpt lat="43.52456" lon="1.45487">
        <ele>279.39999389648</ele>
        <time>2013-09-14T09:35:04Z</time>
      </trkpt>
      <trkpt lat="43.52456" lon="1.45487">
        <ele>279.09999593099</ele>
        <time>2013-09-14T09:35:07Z</time>
      </trkpt>
      <trkpt lat="43.52456" lon="1.45486">
        <ele>278.89999389648</ele>
        <time>2013-09-14T09:35:10Z</time>
      </trkpt>
      <trkpt lat="43.52456" lon="1.45486">
        <ele>278.79998779297</ele>
        <time>2013-09-14T09:35:14Z</time>
      </trkpt>
      <trkpt lat="43.52456" lon="1.45486">
        <ele>278.79998779297</ele>
        <time>2013-09-14T09:35:18Z</time>
      </trkpt>
      <trkpt lat="43.52456" lon="1.45486">
        <ele>278.79998779297</ele>
        <time>2013-09-14T09:35:21Z</time>
      </trkpt>
      <trkpt lat="43.52456" lon="1.45486">
        <ele>278.79998779297</ele>
        <time>2013-09-14T09:35:25Z</time>
      </trkpt>
      <trkpt lat="43.52455" lon="1.45485">
        <ele>278.79999796549</ele>
        <time>2013-09-14T09:35:28Z</time>
      </trkpt>
      <trkpt lat="43.52455" lon="1.45485">
        <ele>278.22499847412</ele>
        <time>2013-09-14T09:35:32Z</time>
      </trkpt>
      <trkpt lat="43.52455" lon="1.45484">
        <ele>278.56666056315</ele>
        <time>2013-09-14T09:35:35Z</time>
      </trkpt>
      <trkpt lat="43.52455" lon="1.45484">
        <ele>279.17500305176</ele>
        <time>2013-09-14T09:35:39Z</time>
      </trkpt>
      <trkpt lat="43.52455" lon="1.45484">
        <ele>279.52500152588</ele>
        <time>2013-09-14T09:35:43Z</time>
      </trkpt>
      <trkpt lat="43.52455" lon="1.45484">
        <ele>279.60000610352</ele>
        <time>2013-09-14T09:35:46Z</time>
      </trkpt>
      <trkpt lat="43.52452" lon="1.45483">
        <ele>279.59999084473</ele>
        <time>2013-09-14T09:35:50Z</time>
      </trkpt>
      <trkpt lat="43.52446" lon="1.45484">
        <ele>280.85000610352</ele>
        <time>2013-09-14T09:35:54Z</time>
      </trkpt>
      <trkpt lat="43.52439" lon="1.45487">
        <ele>281.43332926432</ele>
        <time>2013-09-14T09:35:57Z</time>
      </trkpt>
      <trkpt lat="43.52433" lon="1.45489">
        <ele>281.25000762939</ele>
        <time>2013-09-14T09:36:01Z</time>
      </trkpt>
      <trkpt lat="43.52427" lon="1.4549">
        <ele>281.56667073568</ele>
        <time>2013-09-14T09:36:05Z</time>
      </trkpt>
      <trkpt lat="43.52417" lon="1.45491">
        <ele>282.34999847412</ele>
        <time>2013-09-14T09:36:08Z</time>
      </trkpt>
      <trkpt lat="43.52407" lon="1.45494">
        <ele>283.44999694824</ele>
        <time>2013-09-14T09:36:12Z</time>
      </trkpt>
      <trkpt lat="43.524" lon="1.45497">
        <ele>285.96666463216</ele>
        <time>2013-09-14T09:36:15Z</time>
      </trkpt>
      <trkpt lat="43.52393" lon="1.455">
        <ele>286.54999542236</ele>
        <time>2013-09-14T09:36:19Z</time>
      </trkpt>
      <trkpt lat="43.52387" lon="1.45505">
        <ele>287</ele>
        <time>2013-09-14T09:36:22Z</time>
      </trkpt>
      <trkpt lat="43.52383" lon="1.45507">
        <ele>287.52500152588</ele>
        <time>2013-09-14T09:36:26Z</time>
      </trkpt>
      <trkpt lat="43.52378" lon="1.45509">
        <ele>287.53333536784</ele>
        <time>2013-09-14T09:36:29Z</time>
      </trkpt>
      <trkpt lat="43.52372" lon="1.4551">
        <ele>287.47499847412</ele>
        <time>2013-09-14T09:36:33Z</time>
      </trkpt>
      <trkpt lat="43.52366" lon="1.4551">
        <ele>287.29999796549</ele>
        <time>2013-09-14T09:36:36Z</time>
      </trkpt>
      <trkpt lat="43.52358" lon="1.45507">
        <ele>287.80000813802</ele>
        <time>2013-09-14T09:36:40Z</time>
      </trkpt>
      <trkpt lat="43.52347" lon="1.45498">
        <ele>287.37500762939</ele>
        <time>2013-09-14T09:36:43Z</time>
      </trkpt>
      <trkpt lat="43.52323" lon="1.45484">
        <ele>285.57499694824</ele>
        <time>2013-09-14T09:36:47Z</time>
      </trkpt>
      <trkpt lat="43.52291" lon="1.45486">
        <ele>282.23333740234</ele>
        <time>2013-09-14T09:36:50Z</time>
      </trkpt>
      <trkpt lat="43.52261" lon="1.45499">
        <ele>281.87499237061</ele>
        <time>2013-09-14T09:36:54Z</time>
      </trkpt>
      <trkpt lat="43.52239" lon="1.45509">
        <ele>282.39999389648</ele>
        <time>2013-09-14T09:36:57Z</time>
      </trkpt>
      <trkpt lat="43.5223" lon="1.45512">
        <ele>284.875</ele>
        <time>2013-09-14T09:37:01Z</time>
      </trkpt>
      <trkpt lat="43.52221" lon="1.45516">
        <ele>285.83333333333</ele>
        <time>2013-09-14T09:37:04Z</time>
      </trkpt>
      <trkpt lat="43.52215" lon="1.4552">
        <ele>287.43332926432</ele>
        <time>2013-09-14T09:37:08Z</time>
      </trkpt>
      <trkpt lat="43.52209" lon="1.45527">
        <ele>288.25</ele>
        <time>2013-09-14T09:37:11Z</time>
      </trkpt>
      <trkpt lat="43.52203" lon="1.45537">
        <ele>289.55000305176</ele>
        <time>2013-09-14T09:37:16Z</time>
      </trkpt>
      <trkpt lat="43.52198" lon="1.45547">
        <ele>290.64999389648</ele>
        <time>2013-09-14T09:37:20Z</time>
      </trkpt>
      <trkpt lat="43.52192" lon="1.45555">
        <ele>292.42499542236</ele>
        <time>2013-09-14T09:37:23Z</time>
      </trkpt>
      <trkpt lat="43.52186" lon="1.45562">
        <ele>293.60000610352</ele>
        <time>2013-09-14T09:37:26Z</time>
      </trkpt>
      <trkpt lat="43.52181" lon="1.45567">
        <ele>293.63333129883</ele>
        <time>2013-09-14T09:37:30Z</time>
      </trkpt>
      <trkpt lat="43.52175" lon="1.45573">
        <ele>294.37499237061</ele>
        <time>2013-09-14T09:37:33Z</time>
      </trkpt>
      <trkpt lat="43.5217" lon="1.45581">
        <ele>295.23332722982</ele>
        <time>2013-09-14T09:37:37Z</time>
      </trkpt>
      <trkpt lat="43.52166" lon="1.45589">
        <ele>296.34999847412</ele>
        <time>2013-09-14T09:37:40Z</time>
      </trkpt>
      <trkpt lat="43.5216" lon="1.45597">
        <ele>296.25</ele>
        <time>2013-09-14T09:37:44Z</time>
      </trkpt>
      <trkpt lat="43.52155" lon="1.45602">
        <ele>297.06666056315</ele>
        <time>2013-09-14T09:37:48Z</time>
      </trkpt>
      <trkpt lat="43.52151" lon="1.45607">
        <ele>298.34999847412</ele>
        <time>2013-09-14T09:37:51Z</time>
      </trkpt>
      <trkpt lat="43.52147" lon="1.45613">
        <ele>299.52500152588</ele>
        <time>2013-09-14T09:37:55Z</time>
      </trkpt>
      <trkpt lat="43.52144" lon="1.45619">
        <ele>299.76666259766</ele>
        <time>2013-09-14T09:37:58Z</time>
      </trkpt>
      <trkpt lat="43.5214" lon="1.45625">
        <ele>299.67499542236</ele>
        <time>2013-09-14T09:38:03Z</time>
      </trkpt>
      <trkpt lat="43.52136" lon="1.45631">
        <ele>299.94999694824</ele>
        <time>2013-09-14T09:38:06Z</time>
      </trkpt>
      <trkpt lat="43.52132" lon="1.45636">
        <ele>301.13334147135</ele>
        <time>2013-09-14T09:38:09Z</time>
      </trkpt>
      <trkpt lat="43.52129" lon="1.45642">
        <ele>302.375</ele>
        <time>2013-09-14T09:38:13Z</time>
      </trkpt>
      <trkpt lat="43.52125" lon="1.45648">
        <ele>302.5</ele>
        <time>2013-09-14T09:38:16Z</time>
      </trkpt>
      <trkpt lat="43.52121" lon="1.45653">
        <ele>301.92499542236</ele>
        <time>2013-09-14T09:38:20Z</time>
      </trkpt>
      <trkpt lat="43.52117" lon="1.4566">
        <ele>302.23333740234</ele>
        <time>2013-09-14T09:38:23Z</time>
      </trkpt>
      <trkpt lat="43.52113" lon="1.45666">
        <ele>301.59999593099</ele>
        <time>2013-09-14T09:38:26Z</time>
      </trkpt>
      <trkpt lat="43.52109" lon="1.45672">
        <ele>302.23333740234</ele>
        <time>2013-09-14T09:38:29Z</time>
      </trkpt>
      <trkpt lat="43.52105" lon="1.45679">
        <ele>302.82500457764</ele>
        <time>2013-09-14T09:38:33Z</time>
      </trkpt>
      <trkpt lat="43.521" lon="1.45685">
        <ele>303.76667277018</ele>
        <time>2013-09-14T09:38:36Z</time>
      </trkpt>
      <trkpt lat="43.52097" lon="1.45691">
        <ele>303.53333536784</ele>
        <time>2013-09-14T09:38:40Z</time>
      </trkpt>
      <trkpt lat="43.52093" lon="1.45697">
        <ele>303.375</ele>
        <time>2013-09-14T09:38:43Z</time>
      </trkpt>
      <trkpt lat="43.52089" lon="1.45704">
        <ele>303.09999593099</ele>
        <time>2013-09-14T09:38:47Z</time>
      </trkpt>
      <trkpt lat="43.52086" lon="1.45709">
        <ele>303.53332519531</ele>
        <time>2013-09-14T09:38:50Z</time>
      </trkpt>
      <trkpt lat="43.52082" lon="1.45715">
        <ele>304.17500305176</ele>
        <time>2013-09-14T09:38:53Z</time>
      </trkpt>
      <trkpt lat="43.52077" lon="1.45722">
        <ele>304.09999593099</ele>
        <time>2013-09-14T09:38:57Z</time>
      </trkpt>
      <trkpt lat="43.52072" lon="1.45728">
        <ele>304.875</ele>
        <time>2013-09-14T09:39:00Z</time>
      </trkpt>
      <trkpt lat="43.52066" lon="1.45737">
        <ele>305.77500152588</ele>
        <time>2013-09-14T09:39:05Z</time>
      </trkpt>
      <trkpt lat="43.52061" lon="1.45745">
        <ele>305.73333740234</ele>
        <time>2013-09-14T09:39:08Z</time>
      </trkpt>
      <trkpt lat="43.52055" lon="1.45754">
        <ele>306.17500305176</ele>
        <time>2013-09-14T09:39:11Z</time>
      </trkpt>
      <trkpt lat="43.5205" lon="1.45763">
        <ele>306.59999593099</ele>
        <time>2013-09-14T09:39:14Z</time>
      </trkpt>
      <trkpt lat="43.52045" lon="1.45773">
        <ele>306.96667480469</ele>
        <time>2013-09-14T09:39:17Z</time>
      </trkpt>
      <trkpt lat="43.52039" lon="1.45785">
        <ele>308.30000305176</ele>
        <time>2013-09-14T09:39:21Z</time>
      </trkpt>
      <trkpt lat="43.52032" lon="1.45798">
        <ele>310.05000305176</ele>
        <time>2013-09-14T09:39:25Z</time>
      </trkpt>
      <trkpt lat="43.52027" lon="1.45807">
        <ele>310.94999694824</ele>
        <time>2013-09-14T09:39:28Z</time>
      </trkpt>
      <trkpt lat="43.52023" lon="1.45816">
        <ele>311.27500152588</ele>
        <time>2013-09-14T09:39:32Z</time>
      </trkpt>
      <trkpt lat="43.52015" lon="1.4583">
        <ele>311.8200012207</ele>
        <time>2013-09-14T09:39:37Z</time>
      </trkpt>
      <trkpt lat="43.52007" lon="1.45842">
        <ele>311.22500610352</ele>
        <time>2013-09-14T09:39:40Z</time>
      </trkpt>
      <trkpt lat="43.52001" lon="1.45853">
        <ele>311.10000610352</ele>
        <time>2013-09-14T09:39:44Z</time>
      </trkpt>
      <trkpt lat="43.51995" lon="1.45862">
        <ele>311.65000915527</ele>
        <time>2013-09-14T09:39:48Z</time>
      </trkpt>
      <trkpt lat="43.51986" lon="1.45874">
        <ele>311.62000732422</ele>
        <time>2013-09-14T09:39:52Z</time>
      </trkpt>
      <trkpt lat="43.51979" lon="1.45885">
        <ele>311.26667277018</ele>
        <time>2013-09-14T09:39:55Z</time>
      </trkpt>
      <trkpt lat="43.51971" lon="1.45894">
        <ele>311.54999542236</ele>
        <time>2013-09-14T09:39:59Z</time>
      </trkpt>
      <trkpt lat="43.51963" lon="1.45903">
        <ele>312.6333211263</ele>
        <time>2013-09-14T09:40:02Z</time>
      </trkpt>
      <trkpt lat="43.51957" lon="1.45912">
        <ele>313.43333943685</ele>
        <time>2013-09-14T09:40:05Z</time>
      </trkpt>
      <trkpt lat="43.5195" lon="1.45922">
        <ele>313.69999694824</ele>
        <time>2013-09-14T09:40:09Z</time>
      </trkpt>
      <trkpt lat="43.51944" lon="1.45932">
        <ele>314.55000305176</ele>
        <time>2013-09-14T09:40:12Z</time>
      </trkpt>
      <trkpt lat="43.5194" lon="1.45944">
        <ele>315.9799987793</ele>
        <time>2013-09-14T09:40:16Z</time>
      </trkpt>
      <trkpt lat="43.51936" lon="1.45957">
        <ele>314.33333333333</ele>
        <time>2013-09-14T09:40:19Z</time>
      </trkpt>
      <trkpt lat="43.51933" lon="1.45968">
        <ele>314.72500610352</ele>
        <time>2013-09-14T09:40:23Z</time>
      </trkpt>
      <trkpt lat="43.51931" lon="1.4598">
        <ele>315.73333740234</ele>
        <time>2013-09-14T09:40:26Z</time>
      </trkpt>
      <trkpt lat="43.51929" lon="1.45992">
        <ele>315.07498931885</ele>
        <time>2013-09-14T09:40:30Z</time>
      </trkpt>
      <trkpt lat="43.51926" lon="1.46002">
        <ele>314.73333740234</ele>
        <time>2013-09-14T09:40:34Z</time>
      </trkpt>
      <trkpt lat="43.5192" lon="1.46014">
        <ele>315</ele>
        <time>2013-09-14T09:40:37Z</time>
      </trkpt>
      <trkpt lat="43.51915" lon="1.46029">
        <ele>317.53332519531</ele>
        <time>2013-09-14T09:40:40Z</time>
      </trkpt>
      <trkpt lat="43.51909" lon="1.46042">
        <ele>320.15000152588</ele>
        <time>2013-09-14T09:40:44Z</time>
      </trkpt>
      <trkpt lat="43.51905" lon="1.46058">
        <ele>320.20000457764</ele>
        <time>2013-09-14T09:40:48Z</time>
      </trkpt>
      <trkpt lat="43.51904" lon="1.46074">
        <ele>319.5</ele>
        <time>2013-09-14T09:40:51Z</time>
      </trkpt>
      <trkpt lat="43.51904" lon="1.46083">
        <ele>317.55000305176</ele>
        <time>2013-09-14T09:40:54Z</time>
      </trkpt>
      <trkpt lat="43.51905" lon="1.46088">
        <ele>317.74000244141</ele>
        <time>2013-09-14T09:40:58Z</time>
      </trkpt>
      <trkpt lat="43.51906" lon="1.46088">
        <ele>317.63334147135</ele>
        <time>2013-09-14T09:41:01Z</time>
      </trkpt>
      <trkpt lat="43.51906" lon="1.46088">
        <ele>317.56667073568</ele>
        <time>2013-09-14T09:41:04Z</time>
      </trkpt>
      <trkpt lat="43.51906" lon="1.46088">
        <ele>317.89999389648</ele>
        <time>2013-09-14T09:41:07Z</time>
      </trkpt>
      <trkpt lat="43.51906" lon="1.46088">
        <ele>317.89999389648</ele>
        <time>2013-09-14T09:41:11Z</time>
      </trkpt>
      <trkpt lat="43.51906" lon="1.46088">
        <ele>317.89999389648</ele>
        <time>2013-09-14T09:41:14Z</time>
      </trkpt>
      <trkpt lat="43.51906" lon="1.46088">
        <ele>317.89999389648</ele>
        <time>2013-09-14T09:41:18Z</time>
      </trkpt>
      <trkpt lat="43.51906" lon="1.46088">
        <ele>317.89999389648</ele>
        <time>2013-09-14T09:41:21Z</time>
      </trkpt>
      <trkpt lat="43.51906" lon="1.46088">
        <ele>317.89999389648</ele>
        <time>2013-09-14T09:41:24Z</time>
      </trkpt>
      <trkpt lat="43.51906" lon="1.46088">
        <ele>317.89999389648</ele>
        <time>2013-09-14T09:41:28Z</time>
      </trkpt>
      <trkpt lat="43.51906" lon="1.46088">
        <ele>317.89999389648</ele>
        <time>2013-09-14T09:41:31Z</time>
      </trkpt>
      <trkpt lat="43.51906" lon="1.46088">
        <ele>317.89999389648</ele>
        <time>2013-09-14T09:41:34Z</time>
      </trkpt>
      <trkpt lat="43.51906" lon="1.46088">
        <ele>317.89999389648</ele>
        <time>2013-09-14T09:41:37Z</time>
      </trkpt>
      <trkpt lat="43.51906" lon="1.46088">
        <ele>317.89999389648</ele>
        <time>2013-09-14T09:41:41Z</time>
      </trkpt>
      <trkpt lat="43.51906" lon="1.46088">
        <ele>317.89999389648</ele>
        <time>2013-09-14T09:41:45Z</time>
      </trkpt>
      <trkpt lat="43.51906" lon="1.46088">
        <ele>317.89999389648</ele>
        <time>2013-09-14T09:41:49Z</time>
      </trkpt>
      <trkpt lat="43.51906" lon="1.46088">
        <ele>317.89999389648</ele>
        <time>2013-09-14T09:41:53Z</time>
      </trkpt>
      <trkpt lat="43.51906" lon="1.46088">
        <ele>317.89999389648</ele>
        <time>2013-09-14T09:41:57Z</time>
      </trkpt>
      <trkpt lat="43.51906" lon="1.46088">
        <ele>317.89999389648</ele>
        <time>2013-09-14T09:42:00Z</time>
      </trkpt>
      <trkpt lat="43.51906" lon="1.46088">
        <ele>317.89999389648</ele>
        <time>2013-09-14T09:42:03Z</time>
      </trkpt>
      <trkpt lat="43.51906" lon="1.46088">
        <ele>317.89999389648</ele>
        <time>2013-09-14T09:42:06Z</time>
      </trkpt>
      <trkpt lat="43.51906" lon="1.46088">
        <ele>317.89999389648</ele>
        <time>2013-09-14T09:42:09Z</time>
      </trkpt>
      <trkpt lat="43.51906" lon="1.46088">
        <ele>317.89999389648</ele>
        <time>2013-09-14T09:42:13Z</time>
      </trkpt>
      <trkpt lat="43.51906" lon="1.46088">
        <ele>317.89999389648</ele>
        <time>2013-09-14T09:42:16Z</time>
      </trkpt>
      <trkpt lat="43.51906" lon="1.46088">
        <ele>317.89999389648</ele>
        <time>2013-09-14T09:42:20Z</time>
      </trkpt>
      <trkpt lat="43.51906" lon="1.46088">
        <ele>317.89999389648</ele>
        <time>2013-09-14T09:42:23Z</time>
      </trkpt>
      <trkpt lat="43.51906" lon="1.46088">
        <ele>317.89999389648</ele>
        <time>2013-09-14T09:42:27Z</time>
      </trkpt>
      <trkpt lat="43.51906" lon="1.46088">
        <ele>317.89999389648</ele>
        <time>2013-09-14T09:42:31Z</time>
      </trkpt>
      <trkpt lat="43.51906" lon="1.46088">
        <ele>317.89999389648</ele>
        <time>2013-09-14T09:42:36Z</time>
      </trkpt>
      <trkpt lat="43.51906" lon="1.46088">
        <ele>317.89999389648</ele>
        <time>2013-09-14T09:42:40Z</time>
      </trkpt>
      <trkpt lat="43.51906" lon="1.46088">
        <ele>317.89999389648</ele>
        <time>2013-09-14T09:42:44Z</time>
      </trkpt>
      <trkpt lat="43.51906" lon="1.46089">
        <ele>317.77499389648</ele>
        <time>2013-09-14T09:42:48Z</time>
      </trkpt>
      <trkpt lat="43.51905" lon="1.46092">
        <ele>318.625</ele>
        <time>2013-09-14T09:42:52Z</time>
      </trkpt>
      <trkpt lat="43.51903" lon="1.46096">
        <ele>319.70000457764</ele>
        <time>2013-09-14T09:42:56Z</time>
      </trkpt>
      <trkpt lat="43.51899" lon="1.46096">
        <ele>319.76666259766</ele>
        <time>2013-09-14T09:42:59Z</time>
      </trkpt>
      <trkpt lat="43.51897" lon="1.46095">
        <ele>320</ele>
        <time>2013-09-14T09:43:03Z</time>
      </trkpt>
      <trkpt lat="43.51896" lon="1.46095">
        <ele>320.42499542236</ele>
        <time>2013-09-14T09:43:06Z</time>
      </trkpt>
      <trkpt lat="43.51897" lon="1.46096">
        <ele>320.26666259766</ele>
        <time>2013-09-14T09:43:09Z</time>
      </trkpt>
      <trkpt lat="43.51896" lon="1.46095">
        <ele>320.25</ele>
        <time>2013-09-14T09:43:13Z</time>
      </trkpt>
      <trkpt lat="43.51897" lon="1.46095">
        <ele>320.5</ele>
        <time>2013-09-14T09:43:16Z</time>
      </trkpt>
      <trkpt lat="43.51896" lon="1.46095">
        <ele>320.5</ele>
        <time>2013-09-14T09:43:20Z</time>
      </trkpt>
      <trkpt lat="43.51896" lon="1.46095">
        <ele>320.5</ele>
        <time>2013-09-14T09:43:24Z</time>
      </trkpt>
      <trkpt lat="43.51896" lon="1.46095">
        <ele>320.5</ele>
        <time>2013-09-14T09:43:27Z</time>
      </trkpt>
      <trkpt lat="43.51896" lon="1.46095">
        <ele>320.5</ele>
        <time>2013-09-14T09:43:31Z</time>
      </trkpt>
      <trkpt lat="43.51895" lon="1.46095">
        <ele>320.76667277018</ele>
        <time>2013-09-14T09:43:34Z</time>
      </trkpt>
      <trkpt lat="43.51893" lon="1.46094">
        <ele>321.60000610352</ele>
        <time>2013-09-14T09:43:38Z</time>
      </trkpt>
      <trkpt lat="43.51894" lon="1.46095">
        <ele>321.75</ele>
        <time>2013-09-14T09:43:41Z</time>
      </trkpt>
      <trkpt lat="43.51892" lon="1.46094">
        <ele>321.62500762939</ele>
        <time>2013-09-14T09:43:44Z</time>
      </trkpt>
      <trkpt lat="43.51887" lon="1.4609">
        <ele>320.10000610352</ele>
        <time>2013-09-14T09:43:48Z</time>
      </trkpt>
      <trkpt lat="43.5188" lon="1.46086">
        <ele>320.125</ele>
        <time>2013-09-14T09:43:52Z</time>
      </trkpt>
      <trkpt lat="43.51873" lon="1.46082">
        <ele>319.89999389648</ele>
        <time>2013-09-14T09:43:56Z</time>
      </trkpt>
      <trkpt lat="43.51864" lon="1.4608">
        <ele>319.82499694824</ele>
        <time>2013-09-14T09:44:00Z</time>
      </trkpt>
      <trkpt lat="43.51851" lon="1.46076">
        <ele>319.67500305176</ele>
        <time>2013-09-14T09:44:04Z</time>
      </trkpt>
      <trkpt lat="43.51836" lon="1.4607">
        <ele>319.67500305176</ele>
        <time>2013-09-14T09:44:07Z</time>
      </trkpt>
      <trkpt lat="43.51823" lon="1.46066">
        <ele>319.56667073568</ele>
        <time>2013-09-14T09:44:11Z</time>
      </trkpt>
      <trkpt lat="43.51812" lon="1.46061">
        <ele>318.69999694824</ele>
        <time>2013-09-14T09:44:15Z</time>
      </trkpt>
      <trkpt lat="43.51799" lon="1.46055">
        <ele>318.65000152588</ele>
        <time>2013-09-14T09:44:19Z</time>
      </trkpt>
      <trkpt lat="43.51785" lon="1.46048">
        <ele>318.93333943685</ele>
        <time>2013-09-14T09:44:22Z</time>
      </trkpt>
      <trkpt lat="43.51772" lon="1.46041">
        <ele>319.03333536784</ele>
        <time>2013-09-14T09:44:25Z</time>
      </trkpt>
      <trkpt lat="43.51756" lon="1.46031">
        <ele>318.43333943685</ele>
        <time>2013-09-14T09:44:28Z</time>
      </trkpt>
      <trkpt lat="43.51736" lon="1.46019">
        <ele>317.07500457764</ele>
        <time>2013-09-14T09:44:32Z</time>
      </trkpt>
      <trkpt lat="43.5171" lon="1.46003">
        <ele>316.10000610352</ele>
        <time>2013-09-14T09:44:36Z</time>
      </trkpt>
      <trkpt lat="43.51682" lon="1.45986">
        <ele>314.94999694824</ele>
        <time>2013-09-14T09:44:40Z</time>
      </trkpt>
      <trkpt lat="43.51653" lon="1.45967">
        <ele>314.95000457764</ele>
        <time>2013-09-14T09:44:44Z</time>
      </trkpt>
      <trkpt lat="43.51634" lon="1.45953">
        <ele>315.76666259766</ele>
        <time>2013-09-14T09:44:47Z</time>
      </trkpt>
      <trkpt lat="43.51621" lon="1.45945">
        <ele>316.96666463216</ele>
        <time>2013-09-14T09:44:50Z</time>
      </trkpt>
      <trkpt lat="43.51607" lon="1.45936">
        <ele>318.22499847412</ele>
        <time>2013-09-14T09:44:54Z</time>
      </trkpt>
      <trkpt lat="43.51595" lon="1.45933">
        <ele>319.77500152588</ele>
        <time>2013-09-14T09:44:58Z</time>
      </trkpt>
      <trkpt lat="43.51593" lon="1.45938">
        <ele>321</ele>
        <time>2013-09-14T09:45:01Z</time>
      </trkpt>
      <trkpt lat="43.51597" lon="1.45938">
        <ele>320.40000406901</ele>
        <time>2013-09-14T09:45:04Z</time>
      </trkpt>
      <trkpt lat="43.51605" lon="1.45937">
        <ele>319.43333943685</ele>
        <time>2013-09-14T09:45:07Z</time>
      </trkpt>
      <trkpt lat="43.51616" lon="1.45942">
        <ele>319.06666056315</ele>
        <time>2013-09-14T09:45:10Z</time>
      </trkpt>
      <trkpt lat="43.51627" lon="1.45949">
        <ele>319.03333536784</ele>
        <time>2013-09-14T09:45:14Z</time>
      </trkpt>
      <trkpt lat="43.51641" lon="1.45961">
        <ele>318.25</ele>
        <time>2013-09-14T09:45:17Z</time>
      </trkpt>
      <trkpt lat="43.51648" lon="1.45976">
        <ele>318.99998982747</ele>
        <time>2013-09-14T09:45:20Z</time>
      </trkpt>
      <trkpt lat="43.51645" lon="1.45995">
        <ele>322.47499084473</ele>
        <time>2013-09-14T09:45:24Z</time>
      </trkpt>
      <trkpt lat="43.51636" lon="1.46019">
        <ele>324</ele>
        <time>2013-09-14T09:45:28Z</time>
      </trkpt>
      <trkpt lat="43.51629" lon="1.46044">
        <ele>321.75</ele>
        <time>2013-09-14T09:45:33Z</time>
      </trkpt>
      <trkpt lat="43.51622" lon="1.46069">
        <ele>321.98000488281</ele>
        <time>2013-09-14T09:45:37Z</time>
      </trkpt>
      <trkpt lat="43.51621" lon="1.46089">
        <ele>323.40000152588</ele>
        <time>2013-09-14T09:45:41Z</time>
      </trkpt>
      <trkpt lat="43.51619" lon="1.46102">
        <ele>321.53333536784</ele>
        <time>2013-09-14T09:45:44Z</time>
      </trkpt>
      <trkpt lat="43.51616" lon="1.46113">
        <ele>321.63334147135</ele>
        <time>2013-09-14T09:45:47Z</time>
      </trkpt>
      <trkpt lat="43.51613" lon="1.46124">
        <ele>321.57500457764</ele>
        <time>2013-09-14T09:45:51Z</time>
      </trkpt>
      <trkpt lat="43.51612" lon="1.46135">
        <ele>324.06666056315</ele>
        <time>2013-09-14T09:45:54Z</time>
      </trkpt>
      <trkpt lat="43.5161" lon="1.46145">
        <ele>327.86666870117</ele>
        <time>2013-09-14T09:45:57Z</time>
      </trkpt>
      <trkpt lat="43.51608" lon="1.46157">
        <ele>328.46666463216</ele>
        <time>2013-09-14T09:46:00Z</time>
      </trkpt>
      <trkpt lat="43.51609" lon="1.46174">
        <ele>329.69999694824</ele>
        <time>2013-09-14T09:46:04Z</time>
      </trkpt>
      <trkpt lat="43.51608" lon="1.46194">
        <ele>333.15000152588</ele>
        <time>2013-09-14T09:46:08Z</time>
      </trkpt>
      <trkpt lat="43.51604" lon="1.46208">
        <ele>332.84999847412</ele>
        <time>2013-09-14T09:46:13Z</time>
      </trkpt>
      <trkpt lat="43.51601" lon="1.46217">
        <ele>332.93332926432</ele>
        <time>2013-09-14T09:46:16Z</time>
      </trkpt>
      <trkpt lat="43.51599" lon="1.46225">
        <ele>333.22499084473</ele>
        <time>2013-09-14T09:46:19Z</time>
      </trkpt>
      <trkpt lat="43.51604" lon="1.46229">
        <ele>333.83333333333</ele>
        <time>2013-09-14T09:46:23Z</time>
      </trkpt>
      <trkpt lat="43.51615" lon="1.46232">
        <ele>331.93333943685</ele>
        <time>2013-09-14T09:46:26Z</time>
      </trkpt>
      <trkpt lat="43.51628" lon="1.46237">
        <ele>331.125</ele>
        <time>2013-09-14T09:46:30Z</time>
      </trkpt>
      <trkpt lat="43.51643" lon="1.46242">
        <ele>331.22499847412</ele>
        <time>2013-09-14T09:46:33Z</time>
      </trkpt>
      <trkpt lat="43.51658" lon="1.46245">
        <ele>330.92501068115</ele>
        <time>2013-09-14T09:46:37Z</time>
      </trkpt>
      <trkpt lat="43.5167" lon="1.46248">
        <ele>331.26666259766</ele>
        <time>2013-09-14T09:46:40Z</time>
      </trkpt>
      <trkpt lat="43.51682" lon="1.4625">
        <ele>331.56666056315</ele>
        <time>2013-09-14T09:46:43Z</time>
      </trkpt>
      <trkpt lat="43.51694" lon="1.46255">
        <ele>331.97499847412</ele>
        <time>2013-09-14T09:46:48Z</time>
      </trkpt>
      <trkpt lat="43.51707" lon="1.46272">
        <ele>328.1799987793</ele>
        <time>2013-09-14T09:46:52Z</time>
      </trkpt>
      <trkpt lat="43.51692" lon="1.46309">
        <ele>324.79999796549</ele>
        <time>2013-09-14T09:46:55Z</time>
      </trkpt>
      <trkpt lat="43.51675" lon="1.46342">
        <ele>322.62500762939</ele>
        <time>2013-09-14T09:46:59Z</time>
      </trkpt>
      <trkpt lat="43.51658" lon="1.46376">
        <ele>319.93332926432</ele>
        <time>2013-09-14T09:47:03Z</time>
      </trkpt>
      <trkpt lat="43.51641" lon="1.46407">
        <ele>319.40000915527</ele>
        <time>2013-09-14T09:47:07Z</time>
      </trkpt>
      <trkpt lat="43.51623" lon="1.46439">
        <ele>319.27499389648</ele>
        <time>2013-09-14T09:47:10Z</time>
      </trkpt>
      <trkpt lat="43.51608" lon="1.46466">
        <ele>318.5</ele>
        <time>2013-09-14T09:47:14Z</time>
      </trkpt>
      <trkpt lat="43.51595" lon="1.46491">
        <ele>317.84999847412</ele>
        <time>2013-09-14T09:47:19Z</time>
      </trkpt>
      <trkpt lat="43.51582" lon="1.46513">
        <ele>317.45000457764</ele>
        <time>2013-09-14T09:47:23Z</time>
      </trkpt>
      <trkpt lat="43.5157" lon="1.46536">
        <ele>317.65000152588</ele>
        <time>2013-09-14T09:47:26Z</time>
      </trkpt>
      <trkpt lat="43.51563" lon="1.46559">
        <ele>319.57500457764</ele>
        <time>2013-09-14T09:47:31Z</time>
      </trkpt>
      <trkpt lat="43.51555" lon="1.46585">
        <ele>319.24999237061</ele>
        <time>2013-09-14T09:47:34Z</time>
      </trkpt>
      <trkpt lat="43.51548" lon="1.46609">
        <ele>319.07499694824</ele>
        <time>2013-09-14T09:47:38Z</time>
      </trkpt>
      <trkpt lat="43.51541" lon="1.46629">
        <ele>319.06666056315</ele>
        <time>2013-09-14T09:47:41Z</time>
      </trkpt>
      <trkpt lat="43.51532" lon="1.4665">
        <ele>319.59999847412</ele>
        <time>2013-09-14T09:47:45Z</time>
      </trkpt>
      <trkpt lat="43.51522" lon="1.46676">
        <ele>320.75</ele>
        <time>2013-09-14T09:47:49Z</time>
      </trkpt>
      <trkpt lat="43.51513" lon="1.46697">
        <ele>321.06666056315</ele>
        <time>2013-09-14T09:47:52Z</time>
      </trkpt>
      <trkpt lat="43.51505" lon="1.46718">
        <ele>320.52500152588</ele>
        <time>2013-09-14T09:47:56Z</time>
      </trkpt>
      <trkpt lat="43.51497" lon="1.46741">
        <ele>320.34999847412</ele>
        <time>2013-09-14T09:48:01Z</time>
      </trkpt>
      <trkpt lat="43.51489" lon="1.46765">
        <ele>319.25000762939</ele>
        <time>2013-09-14T09:48:05Z</time>
      </trkpt>
      <trkpt lat="43.5148" lon="1.46787">
        <ele>317.73333740234</ele>
        <time>2013-09-14T09:48:08Z</time>
      </trkpt>
      <trkpt lat="43.51471" lon="1.46807">
        <ele>316.26666259766</ele>
        <time>2013-09-14T09:48:11Z</time>
      </trkpt>
      <trkpt lat="43.51459" lon="1.46831">
        <ele>316.03999633789</ele>
        <time>2013-09-14T09:48:16Z</time>
      </trkpt>
      <trkpt lat="43.51446" lon="1.46848">
        <ele>317.5</ele>
        <time>2013-09-14T09:48:20Z</time>
      </trkpt>
      <trkpt lat="43.51443" lon="1.46852">
        <ele>318.97500610352</ele>
        <time>2013-09-14T09:48:24Z</time>
      </trkpt>
      <trkpt lat="43.51441" lon="1.46851">
        <ele>318.60000610352</ele>
        <time>2013-09-14T09:48:27Z</time>
      </trkpt>
      <trkpt lat="43.51438" lon="1.46851">
        <ele>317</ele>
        <time>2013-09-14T09:48:30Z</time>
      </trkpt>
      <trkpt lat="43.51437" lon="1.4685">
        <ele>316.20000203451</ele>
        <time>2013-09-14T09:48:33Z</time>
      </trkpt>
      <trkpt lat="43.51436" lon="1.4685">
        <ele>315.84999847412</ele>
        <time>2013-09-14T09:48:36Z</time>
      </trkpt>
      <trkpt lat="43.51435" lon="1.4685">
        <ele>315.60000610352</ele>
        <time>2013-09-14T09:48:40Z</time>
      </trkpt>
      <trkpt lat="43.51435" lon="1.46849">
        <ele>315.70000203451</ele>
        <time>2013-09-14T09:48:44Z</time>
      </trkpt>
      <trkpt lat="43.51437" lon="1.46852">
        <ele>315.27500152588</ele>
        <time>2013-09-14T09:48:47Z</time>
      </trkpt>
      <trkpt lat="43.5144" lon="1.46862">
        <ele>316.19999694824</ele>
        <time>2013-09-14T09:48:50Z</time>
      </trkpt>
      <trkpt lat="43.51433" lon="1.46913">
        <ele>313.51999511719</ele>
        <time>2013-09-14T09:48:54Z</time>
      </trkpt>
      <trkpt lat="43.51432" lon="1.46958">
        <ele>310.69999694824</ele>
        <time>2013-09-14T09:48:58Z</time>
      </trkpt>
      <trkpt lat="43.5143" lon="1.46982">
        <ele>310.44999694824</ele>
        <time>2013-09-14T09:49:01Z</time>
      </trkpt>
      <trkpt lat="43.51425" lon="1.47011">
        <ele>309.16000366211</ele>
        <time>2013-09-14T09:49:04Z</time>
      </trkpt>
      <trkpt lat="43.51418" lon="1.47053">
        <ele>309.26667277018</ele>
        <time>2013-09-14T09:49:08Z</time>
      </trkpt>
      <trkpt lat="43.51411" lon="1.47086">
        <ele>308.06667073568</ele>
        <time>2013-09-14T09:49:11Z</time>
      </trkpt>
      <trkpt lat="43.51403" lon="1.47124">
        <ele>308.59999847412</ele>
        <time>2013-09-14T09:49:15Z</time>
      </trkpt>
      <trkpt lat="43.51392" lon="1.4717">
        <ele>307.20000457764</ele>
        <time>2013-09-14T09:49:19Z</time>
      </trkpt>
      <trkpt lat="43.51385" lon="1.47205">
        <ele>307.92499542236</ele>
        <time>2013-09-14T09:49:24Z</time>
      </trkpt>
      <trkpt lat="43.51383" lon="1.47217">
        <ele>308.25</ele>
        <time>2013-09-14T09:49:27Z</time>
      </trkpt>
      <trkpt lat="43.51382" lon="1.47219">
        <ele>307.10000610352</ele>
        <time>2013-09-14T09:49:30Z</time>
      </trkpt>
      <trkpt lat="43.51382" lon="1.4722">
        <ele>306.79998779297</ele>
        <time>2013-09-14T09:49:33Z</time>
      </trkpt>
      <trkpt lat="43.51382" lon="1.4722">
        <ele>306.26000366211</ele>
        <time>2013-09-14T09:49:37Z</time>
      </trkpt>
      <trkpt lat="43.51382" lon="1.47221">
        <ele>306.16667683919</ele>
        <time>2013-09-14T09:49:41Z</time>
      </trkpt>
      <trkpt lat="43.51384" lon="1.47216">
        <ele>306.81999511719</ele>
        <time>2013-09-14T09:49:45Z</time>
      </trkpt>
      <trkpt lat="43.5139" lon="1.47205">
        <ele>306.875</ele>
        <time>2013-09-14T09:49:50Z</time>
      </trkpt>
      <trkpt lat="43.51397" lon="1.47195">
        <ele>307.35999755859</ele>
        <time>2013-09-14T09:49:54Z</time>
      </trkpt>
      <trkpt lat="43.51404" lon="1.47184">
        <ele>305.90000152588</ele>
        <time>2013-09-14T09:49:58Z</time>
      </trkpt>
      <trkpt lat="43.5141" lon="1.47174">
        <ele>304.17499542236</ele>
        <time>2013-09-14T09:50:02Z</time>
      </trkpt>
      <trkpt lat="43.51415" lon="1.47164">
        <ele>303.63334147135</ele>
        <time>2013-09-14T09:50:05Z</time>
      </trkpt>
      <trkpt lat="43.51428" lon="1.47146">
        <ele>303.67500305176</ele>
        <time>2013-09-14T09:50:09Z</time>
      </trkpt>
      <trkpt lat="43.51444" lon="1.4713">
        <ele>305.93333943685</ele>
        <time>2013-09-14T09:50:12Z</time>
      </trkpt>
      <trkpt lat="43.51455" lon="1.47116">
        <ele>310.93333943685</ele>
        <time>2013-09-14T09:50:16Z</time>
      </trkpt>
      <trkpt lat="43.51469" lon="1.47101">
        <ele>309.83333333333</ele>
        <time>2013-09-14T09:50:19Z</time>
      </trkpt>
      <trkpt lat="43.51478" lon="1.4709">
        <ele>312.125</ele>
        <time>2013-09-14T09:50:23Z</time>
      </trkpt>
      <trkpt lat="43.51483" lon="1.47083">
        <ele>311.70001220703</ele>
        <time>2013-09-14T09:50:26Z</time>
      </trkpt>
      <trkpt lat="43.51488" lon="1.47078">
        <ele>311</ele>
        <time>2013-09-14T09:50:30Z</time>
      </trkpt>
      <trkpt lat="43.51493" lon="1.47071">
        <ele>310.27500152588</ele>
        <time>2013-09-14T09:50:34Z</time>
      </trkpt>
      <trkpt lat="43.515" lon="1.47065">
        <ele>308.93332926432</ele>
        <time>2013-09-14T09:50:37Z</time>
      </trkpt>
      <trkpt lat="43.51508" lon="1.47067">
        <ele>309.45000457764</ele>
        <time>2013-09-14T09:50:41Z</time>
      </trkpt>
      <trkpt lat="43.5152" lon="1.47078">
        <ele>317.14999389648</ele>
        <time>2013-09-14T09:50:45Z</time>
      </trkpt>
      <trkpt lat="43.51524" lon="1.47085">
        <ele>318.27500152588</ele>
        <time>2013-09-14T09:50:49Z</time>
      </trkpt>
      <trkpt lat="43.51526" lon="1.47087">
        <ele>316.03333536784</ele>
        <time>2013-09-14T09:50:52Z</time>
      </trkpt>
      <trkpt lat="43.51529" lon="1.47084">
        <ele>313</ele>
        <time>2013-09-14T09:50:56Z</time>
      </trkpt>
      <trkpt lat="43.51536" lon="1.4708">
        <ele>314.125</ele>
        <time>2013-09-14T09:51:00Z</time>
      </trkpt>
      <trkpt lat="43.51543" lon="1.47076">
        <ele>317.20000203451</ele>
        <time>2013-09-14T09:51:03Z</time>
      </trkpt>
      <trkpt lat="43.51546" lon="1.47071">
        <ele>316.93333943685</ele>
        <time>2013-09-14T09:51:06Z</time>
      </trkpt>
      <trkpt lat="43.51551" lon="1.47066">
        <ele>316.92500305176</ele>
        <time>2013-09-14T09:51:11Z</time>
      </trkpt>
      <trkpt lat="43.51555" lon="1.47061">
        <ele>317.97499847412</ele>
        <time>2013-09-14T09:51:14Z</time>
      </trkpt>
      <trkpt lat="43.51557" lon="1.47057">
        <ele>318.47499847412</ele>
        <time>2013-09-14T09:51:18Z</time>
      </trkpt>
      <trkpt lat="43.51556" lon="1.47058">
        <ele>318.875</ele>
        <time>2013-09-14T09:51:22Z</time>
      </trkpt>
      <trkpt lat="43.51556" lon="1.47058">
        <ele>318.22499847412</ele>
        <time>2013-09-14T09:51:26Z</time>
      </trkpt>
      <trkpt lat="43.51557" lon="1.47056">
        <ele>317.44999694824</ele>
        <time>2013-09-14T09:51:30Z</time>
      </trkpt>
      <trkpt lat="43.51557" lon="1.47056">
        <ele>317.39999389648</ele>
        <time>2013-09-14T09:51:33Z</time>
      </trkpt>
      <trkpt lat="43.51558" lon="1.47055">
        <ele>317.34999847412</ele>
        <time>2013-09-14T09:51:37Z</time>
      </trkpt>
      <trkpt lat="43.51561" lon="1.47053">
        <ele>317.26666259766</ele>
        <time>2013-09-14T09:51:40Z</time>
      </trkpt>
      <trkpt lat="43.51571" lon="1.47055">
        <ele>315.72499847412</ele>
        <time>2013-09-14T09:51:44Z</time>
      </trkpt>
      <trkpt lat="43.51578" lon="1.47067">
        <ele>315.29999542236</ele>
        <time>2013-09-14T09:51:48Z</time>
      </trkpt>
      <trkpt lat="43.51579" lon="1.47075">
        <ele>314.46666463216</ele>
        <time>2013-09-14T09:51:51Z</time>
      </trkpt>
      <trkpt lat="43.51581" lon="1.47082">
        <ele>312.04999542236</ele>
        <time>2013-09-14T09:51:55Z</time>
      </trkpt>
      <trkpt lat="43.51584" lon="1.47086">
        <ele>311.06666056315</ele>
        <time>2013-09-14T09:51:58Z</time>
      </trkpt>
      <trkpt lat="43.51589" lon="1.47085">
        <ele>311.50000762939</ele>
        <time>2013-09-14T09:52:02Z</time>
      </trkpt>
      <trkpt lat="43.51596" lon="1.47083">
        <ele>317.125</ele>
        <time>2013-09-14T09:52:06Z</time>
      </trkpt>
      <trkpt lat="43.51601" lon="1.47082">
        <ele>316.99998982747</ele>
        <time>2013-09-14T09:52:09Z</time>
      </trkpt>
      <trkpt lat="43.51605" lon="1.4708">
        <ele>315.625</ele>
        <time>2013-09-14T09:52:13Z</time>
      </trkpt>
      <trkpt lat="43.5161" lon="1.47079">
        <ele>315.86666870117</ele>
        <time>2013-09-14T09:52:16Z</time>
      </trkpt>
      <trkpt lat="43.51614" lon="1.47076">
        <ele>315.89999389648</ele>
        <time>2013-09-14T09:52:19Z</time>
      </trkpt>
      <trkpt lat="43.51619" lon="1.47069">
        <ele>314.79999796549</ele>
        <time>2013-09-14T09:52:22Z</time>
      </trkpt>
      <trkpt lat="43.51626" lon="1.47056">
        <ele>314.42500305176</ele>
        <time>2013-09-14T09:52:26Z</time>
      </trkpt>
      <trkpt lat="43.51637" lon="1.47042">
        <ele>314.34999847412</ele>
        <time>2013-09-14T09:52:30Z</time>
      </trkpt>
      <trkpt lat="43.51648" lon="1.47024">
        <ele>312.77500152588</ele>
        <time>2013-09-14T09:52:34Z</time>
      </trkpt>
      <trkpt lat="43.51659" lon="1.47006">
        <ele>312.46667480469</ele>
        <time>2013-09-14T09:52:37Z</time>
      </trkpt>
      <trkpt lat="43.51671" lon="1.4699">
        <ele>311.25</ele>
        <time>2013-09-14T09:52:41Z</time>
      </trkpt>
      <trkpt lat="43.51684" lon="1.46975">
        <ele>309.73333740234</ele>
        <time>2013-09-14T09:52:44Z</time>
      </trkpt>
      <trkpt lat="43.51696" lon="1.46962">
        <ele>308.32500457764</ele>
        <time>2013-09-14T09:52:48Z</time>
      </trkpt>
      <trkpt lat="43.51706" lon="1.46952">
        <ele>308.16666666667</ele>
        <time>2013-09-14T09:52:51Z</time>
      </trkpt>
      <trkpt lat="43.51712" lon="1.46946">
        <ele>308.40000406901</ele>
        <time>2013-09-14T09:52:54Z</time>
      </trkpt>
      <trkpt lat="43.5172" lon="1.4694">
        <ele>308.20000457764</ele>
        <time>2013-09-14T09:52:58Z</time>
      </trkpt>
      <trkpt lat="43.51726" lon="1.46933">
        <ele>308.86666870117</ele>
        <time>2013-09-14T09:53:01Z</time>
      </trkpt>
      <trkpt lat="43.51729" lon="1.46928">
        <ele>308.57500457764</ele>
        <time>2013-09-14T09:53:05Z</time>
      </trkpt>
      <trkpt lat="43.5173" lon="1.46926">
        <ele>308.12500762939</ele>
        <time>2013-09-14T09:53:09Z</time>
      </trkpt>
      <trkpt lat="43.5173" lon="1.46925">
        <ele>308.15000915527</ele>
        <time>2013-09-14T09:53:13Z</time>
      </trkpt>
      <trkpt lat="43.51731" lon="1.46925">
        <ele>308.26666259766</ele>
        <time>2013-09-14T09:53:16Z</time>
      </trkpt>
      <trkpt lat="43.51731" lon="1.46925">
        <ele>308.44999694824</ele>
        <time>2013-09-14T09:53:20Z</time>
      </trkpt>
      <trkpt lat="43.51731" lon="1.46925">
        <ele>308.5</ele>
        <time>2013-09-14T09:53:24Z</time>
      </trkpt>
      <trkpt lat="43.51732" lon="1.46926">
        <ele>308.17500305176</ele>
        <time>2013-09-14T09:53:28Z</time>
      </trkpt>
      <trkpt lat="43.51734" lon="1.46927">
        <ele>306.59999593099</ele>
        <time>2013-09-14T09:53:31Z</time>
      </trkpt>
      <trkpt lat="43.51738" lon="1.46923">
        <ele>305.40000406901</ele>
        <time>2013-09-14T09:53:34Z</time>
      </trkpt>
      <trkpt lat="43.51741" lon="1.4692">
        <ele>304.54999542236</ele>
        <time>2013-09-14T09:53:38Z</time>
      </trkpt>
      <trkpt lat="43.51743" lon="1.4692">
        <ele>304.02500152588</ele>
        <time>2013-09-14T09:53:42Z</time>
      </trkpt>
      <trkpt lat="43.51746" lon="1.46919">
        <ele>304.03333536784</ele>
        <time>2013-09-14T09:53:45Z</time>
      </trkpt>
      <trkpt lat="43.5175" lon="1.46913">
        <ele>304.85000610352</ele>
        <time>2013-09-14T09:53:49Z</time>
      </trkpt>
      <trkpt lat="43.51756" lon="1.46905">
        <ele>305.76667277018</ele>
        <time>2013-09-14T09:53:52Z</time>
      </trkpt>
      <trkpt lat="43.51763" lon="1.46899">
        <ele>306.84999847412</ele>
        <time>2013-09-14T09:53:56Z</time>
      </trkpt>
      <trkpt lat="43.51775" lon="1.46893">
        <ele>305.12499237061</ele>
        <time>2013-09-14T09:54:00Z</time>
      </trkpt>
      <trkpt lat="43.51786" lon="1.46888">
        <ele>298.53332519531</ele>
        <time>2013-09-14T09:54:03Z</time>
      </trkpt>
      <trkpt lat="43.51793" lon="1.46884">
        <ele>297.43333943685</ele>
        <time>2013-09-14T09:54:06Z</time>
      </trkpt>
      <trkpt lat="43.51799" lon="1.4688">
        <ele>297.10000610352</ele>
        <time>2013-09-14T09:54:09Z</time>
      </trkpt>
      <trkpt lat="43.51807" lon="1.46876">
        <ele>295.30000305176</ele>
        <time>2013-09-14T09:54:13Z</time>
      </trkpt>
      <trkpt lat="43.51813" lon="1.46874">
        <ele>295.20000203451</ele>
        <time>2013-09-14T09:54:16Z</time>
      </trkpt>
      <trkpt lat="43.51818" lon="1.4687">
        <ele>294.82500457764</ele>
        <time>2013-09-14T09:54:20Z</time>
      </trkpt>
      <trkpt lat="43.51824" lon="1.46867">
        <ele>293.47500610352</ele>
        <time>2013-09-14T09:54:24Z</time>
      </trkpt>
      <trkpt lat="43.51827" lon="1.4686">
        <ele>300.59999847412</ele>
        <time>2013-09-14T09:54:28Z</time>
      </trkpt>
      <trkpt lat="43.51831" lon="1.46854">
        <ele>302.06667073568</ele>
        <time>2013-09-14T09:54:31Z</time>
      </trkpt>
      <trkpt lat="43.51838" lon="1.46847">
        <ele>301.23333740234</ele>
        <time>2013-09-14T09:54:34Z</time>
      </trkpt>
      <trkpt lat="43.51846" lon="1.4684">
        <ele>309.12500762939</ele>
        <time>2013-09-14T09:54:38Z</time>
      </trkpt>
      <trkpt lat="43.51852" lon="1.46834">
        <ele>309.96666463216</ele>
        <time>2013-09-14T09:54:42Z</time>
      </trkpt>
      <trkpt lat="43.5186" lon="1.46828">
        <ele>310.30000305176</ele>
        <time>2013-09-14T09:54:45Z</time>
      </trkpt>
      <trkpt lat="43.51868" lon="1.46822">
        <ele>311.13334147135</ele>
        <time>2013-09-14T09:54:49Z</time>
      </trkpt>
      <trkpt lat="43.51877" lon="1.46815">
        <ele>310.57499694824</ele>
        <time>2013-09-14T09:54:52Z</time>
      </trkpt>
      <trkpt lat="43.51888" lon="1.46809">
        <ele>309.77500152588</ele>
        <time>2013-09-14T09:54:56Z</time>
      </trkpt>
      <trkpt lat="43.51897" lon="1.46801">
        <ele>308.69999186198</ele>
        <time>2013-09-14T09:54:59Z</time>
      </trkpt>
      <trkpt lat="43.51905" lon="1.46792">
        <ele>307.65000915527</ele>
        <time>2013-09-14T09:55:03Z</time>
      </trkpt>
      <trkpt lat="43.51913" lon="1.46785">
        <ele>308.12500762939</ele>
        <time>2013-09-14T09:55:06Z</time>
      </trkpt>
      <trkpt lat="43.51925" lon="1.46777">
        <ele>308.44999694824</ele>
        <time>2013-09-14T09:55:10Z</time>
      </trkpt>
      <trkpt lat="43.51937" lon="1.46769">
        <ele>307.82499694824</ele>
        <time>2013-09-14T09:55:14Z</time>
      </trkpt>
      <trkpt lat="43.51946" lon="1.46761">
        <ele>305.10000610352</ele>
        <time>2013-09-14T09:55:18Z</time>
      </trkpt>
      <trkpt lat="43.5195" lon="1.46756">
        <ele>304.67500305176</ele>
        <time>2013-09-14T09:55:22Z</time>
      </trkpt>
      <trkpt lat="43.51951" lon="1.46757">
        <ele>303.85000610352</ele>
        <time>2013-09-14T09:55:26Z</time>
      </trkpt>
      <trkpt lat="43.51952" lon="1.46757">
        <ele>303.22500610352</ele>
        <time>2013-09-14T09:55:30Z</time>
      </trkpt>
      <trkpt lat="43.51952" lon="1.46758">
        <ele>304.32498931885</ele>
        <time>2013-09-14T09:55:34Z</time>
      </trkpt>
      <trkpt lat="43.51953" lon="1.46758">
        <ele>304.37499237061</ele>
        <time>2013-09-14T09:55:38Z</time>
      </trkpt>
      <trkpt lat="43.51953" lon="1.46758">
        <ele>304.69999186198</ele>
        <time>2013-09-14T09:55:41Z</time>
      </trkpt>
      <trkpt lat="43.51956" lon="1.46758">
        <ele>304.25</ele>
        <time>2013-09-14T09:55:45Z</time>
      </trkpt>
      <trkpt lat="43.51958" lon="1.46757">
        <ele>303.90000152588</ele>
        <time>2013-09-14T09:55:49Z</time>
      </trkpt>
      <trkpt lat="43.5196" lon="1.46755">
        <ele>302.53332519531</ele>
        <time>2013-09-14T09:55:52Z</time>
      </trkpt>
      <trkpt lat="43.51961" lon="1.46752">
        <ele>301.32500457764</ele>
        <time>2013-09-14T09:55:56Z</time>
      </trkpt>
      <trkpt lat="43.51963" lon="1.46749">
        <ele>301.59999593099</ele>
        <time>2013-09-14T09:55:59Z</time>
      </trkpt>
      <trkpt lat="43.51965" lon="1.46746">
        <ele>302.05000305176</ele>
        <time>2013-09-14T09:56:03Z</time>
      </trkpt>
      <trkpt lat="43.51967" lon="1.46745">
        <ele>302.26667277018</ele>
        <time>2013-09-14T09:56:06Z</time>
      </trkpt>
      <trkpt lat="43.51969" lon="1.46743">
        <ele>303.10000610352</ele>
        <time>2013-09-14T09:56:10Z</time>
      </trkpt>
      <trkpt lat="43.51969" lon="1.46744">
        <ele>303.84999847412</ele>
        <time>2013-09-14T09:56:15Z</time>
      </trkpt>
      <trkpt lat="43.51969" lon="1.46746">
        <ele>303.50000610352</ele>
        <time>2013-09-14T09:56:19Z</time>
      </trkpt>
      <trkpt lat="43.5197" lon="1.46743">
        <ele>302.375</ele>
        <time>2013-09-14T09:56:23Z</time>
      </trkpt>
      <trkpt lat="43.5197" lon="1.46737">
        <ele>301.09999847412</ele>
        <time>2013-09-14T09:56:27Z</time>
      </trkpt>
      <trkpt lat="43.51976" lon="1.46733">
        <ele>299.23332722982</ele>
        <time>2013-09-14T09:56:30Z</time>
      </trkpt>
      <trkpt lat="43.51981" lon="1.46739">
        <ele>296.77500152588</ele>
        <time>2013-09-14T09:56:34Z</time>
      </trkpt>
      <trkpt lat="43.51986" lon="1.46743">
        <ele>295.80000305176</ele>
        <time>2013-09-14T09:56:38Z</time>
      </trkpt>
      <trkpt lat="43.51987" lon="1.46745">
        <ele>295.15000152588</ele>
        <time>2013-09-14T09:56:42Z</time>
      </trkpt>
      <trkpt lat="43.51986" lon="1.46745">
        <ele>295.05000305176</ele>
        <time>2013-09-14T09:56:46Z</time>
      </trkpt>
      <trkpt lat="43.51986" lon="1.46745">
        <ele>294.89999389648</ele>
        <time>2013-09-14T09:56:50Z</time>
      </trkpt>
      <trkpt lat="43.51986" lon="1.46745">
        <ele>294.83332316081</ele>
        <time>2013-09-14T09:56:53Z</time>
      </trkpt>
      <trkpt lat="43.51987" lon="1.46745">
        <ele>295.29999542236</ele>
        <time>2013-09-14T09:56:57Z</time>
      </trkpt>
      <trkpt lat="43.5199" lon="1.46746">
        <ele>295.65000152588</ele>
        <time>2013-09-14T09:57:01Z</time>
      </trkpt>
      <trkpt lat="43.5199" lon="1.46747">
        <ele>295.40000406901</ele>
        <time>2013-09-14T09:57:04Z</time>
      </trkpt>
      <trkpt lat="43.51989" lon="1.4675">
        <ele>295.46666463216</ele>
        <time>2013-09-14T09:57:07Z</time>
      </trkpt>
      <trkpt lat="43.5199" lon="1.46753">
        <ele>295.90000406901</ele>
        <time>2013-09-14T09:57:10Z</time>
      </trkpt>
      <trkpt lat="43.51995" lon="1.46747">
        <ele>292.67500305176</ele>
        <time>2013-09-14T09:57:14Z</time>
      </trkpt>
      <trkpt lat="43.52003" lon="1.46741">
        <ele>284.35000610352</ele>
        <time>2013-09-14T09:57:18Z</time>
      </trkpt>
      <trkpt lat="43.52011" lon="1.46736">
        <ele>282.25</ele>
        <time>2013-09-14T09:57:22Z</time>
      </trkpt>
      <trkpt lat="43.52018" lon="1.46733">
        <ele>282.13333129883</ele>
        <time>2013-09-14T09:57:25Z</time>
      </trkpt>
      <trkpt lat="43.52026" lon="1.46731">
        <ele>276.76667277018</ele>
        <time>2013-09-14T09:57:28Z</time>
      </trkpt>
      <trkpt lat="43.52038" lon="1.46727">
        <ele>272.07498931885</ele>
        <time>2013-09-14T09:57:32Z</time>
      </trkpt>
      <trkpt lat="43.52049" lon="1.46722">
        <ele>271.12500762939</ele>
        <time>2013-09-14T09:57:36Z</time>
      </trkpt>
      <trkpt lat="43.52056" lon="1.46717">
        <ele>272.37500762939</ele>
        <time>2013-09-14T09:57:40Z</time>
      </trkpt>
      <trkpt lat="43.52061" lon="1.46712">
        <ele>273.25</ele>
        <time>2013-09-14T09:57:43Z</time>
      </trkpt>
      <trkpt lat="43.52068" lon="1.46704">
        <ele>273.3</ele>
        <time>2013-09-14T09:57:47Z</time>
      </trkpt>
      <trkpt lat="43.52076" lon="1.46695">
        <ele>273.53333536784</ele>
        <time>2013-09-14T09:57:50Z</time>
      </trkpt>
      <trkpt lat="43.52083" lon="1.46689">
        <ele>273.93332926432</ele>
        <time>2013-09-14T09:57:53Z</time>
      </trkpt>
      <trkpt lat="43.52091" lon="1.46684">
        <ele>275.73333740234</ele>
        <time>2013-09-14T09:57:56Z</time>
      </trkpt>
      <trkpt lat="43.52101" lon="1.4668">
        <ele>274.97500610352</ele>
        <time>2013-09-14T09:58:00Z</time>
      </trkpt>
      <trkpt lat="43.5211" lon="1.46674">
        <ele>274.34999847412</ele>
        <time>2013-09-14T09:58:04Z</time>
      </trkpt>
      <trkpt lat="43.52117" lon="1.46665">
        <ele>273.72499847412</ele>
        <time>2013-09-14T09:58:08Z</time>
      </trkpt>
      <trkpt lat="43.52126" lon="1.46655">
        <ele>274.22500610352</ele>
        <time>2013-09-14T09:58:12Z</time>
      </trkpt>
      <trkpt lat="43.52135" lon="1.4665">
        <ele>274.60000610352</ele>
        <time>2013-09-14T09:58:15Z</time>
      </trkpt>
      <trkpt lat="43.52147" lon="1.46648">
        <ele>274.59999847412</ele>
        <time>2013-09-14T09:58:19Z</time>
      </trkpt>
      <trkpt lat="43.52157" lon="1.46646">
        <ele>274.76667277018</ele>
        <time>2013-09-14T09:58:22Z</time>
      </trkpt>
      <trkpt lat="43.52169" lon="1.4664">
        <ele>275.83333333333</ele>
        <time>2013-09-14T09:58:25Z</time>
      </trkpt>
      <trkpt lat="43.52185" lon="1.46631">
        <ele>276.75</ele>
        <time>2013-09-14T09:58:29Z</time>
      </trkpt>
      <trkpt lat="43.52199" lon="1.46623">
        <ele>274.96666463216</ele>
        <time>2013-09-14T09:58:32Z</time>
      </trkpt>
      <trkpt lat="43.52211" lon="1.46616">
        <ele>275.72499847412</ele>
        <time>2013-09-14T09:58:36Z</time>
      </trkpt>
      <trkpt lat="43.52222" lon="1.4661">
        <ele>276.69999694824</ele>
        <time>2013-09-14T09:58:40Z</time>
      </trkpt>
      <trkpt lat="43.52231" lon="1.46604">
        <ele>276.09999847412</ele>
        <time>2013-09-14T09:58:44Z</time>
      </trkpt>
      <trkpt lat="43.52241" lon="1.46596">
        <ele>276.33333333333</ele>
        <time>2013-09-14T09:58:47Z</time>
      </trkpt>
      <trkpt lat="43.5225" lon="1.46588">
        <ele>277.19999186198</ele>
        <time>2013-09-14T09:58:50Z</time>
      </trkpt>
      <trkpt lat="43.52256" lon="1.46581">
        <ele>278.25</ele>
        <time>2013-09-14T09:58:54Z</time>
      </trkpt>
      <trkpt lat="43.52257" lon="1.46577">
        <ele>278.73333740234</ele>
        <time>2013-09-14T09:58:57Z</time>
      </trkpt>
      <trkpt lat="43.52258" lon="1.46576">
        <ele>279.54999542236</ele>
        <time>2013-09-14T09:59:01Z</time>
      </trkpt>
      <trkpt lat="43.5226" lon="1.46573">
        <ele>279.83332316081</ele>
        <time>2013-09-14T09:59:04Z</time>
      </trkpt>
      <trkpt lat="43.52263" lon="1.46573">
        <ele>279.22499847412</ele>
        <time>2013-09-14T09:59:08Z</time>
      </trkpt>
      <trkpt lat="43.52264" lon="1.46576">
        <ele>278.77499389648</ele>
        <time>2013-09-14T09:59:12Z</time>
      </trkpt>
      <trkpt lat="43.52264" lon="1.46577">
        <ele>279.74999237061</ele>
        <time>2013-09-14T09:59:16Z</time>
      </trkpt>
      <trkpt lat="43.52264" lon="1.46577">
        <ele>279.43332926432</ele>
        <time>2013-09-14T09:59:19Z</time>
      </trkpt>
      <trkpt lat="43.52264" lon="1.46577">
        <ele>279.36665852865</ele>
        <time>2013-09-14T09:59:22Z</time>
      </trkpt>
      <trkpt lat="43.52264" lon="1.46577">
        <ele>279.47499847412</ele>
        <time>2013-09-14T09:59:26Z</time>
      </trkpt>
      <trkpt lat="43.52264" lon="1.46577">
        <ele>279.83334350586</ele>
        <time>2013-09-14T09:59:29Z</time>
      </trkpt>
      <trkpt lat="43.52263" lon="1.46577">
        <ele>281.5</ele>
        <time>2013-09-14T09:59:33Z</time>
      </trkpt>
      <trkpt lat="43.52263" lon="1.46577">
        <ele>281.60000610352</ele>
        <time>2013-09-14T09:59:37Z</time>
      </trkpt>
      <trkpt lat="43.52263" lon="1.46577">
        <ele>281.60000610352</ele>
        <time>2013-09-14T09:59:40Z</time>
      </trkpt>
      <trkpt lat="43.52263" lon="1.46577">
        <ele>281.60000610352</ele>
        <time>2013-09-14T09:59:43Z</time>
      </trkpt>
      <trkpt lat="43.52263" lon="1.46577">
        <ele>281.79998779297</ele>
        <time>2013-09-14T09:59:47Z</time>
      </trkpt>
      <trkpt lat="43.52263" lon="1.46577">
        <ele>281.79998779297</ele>
        <time>2013-09-14T09:59:51Z</time>
      </trkpt>
      <trkpt lat="43.52263" lon="1.46577">
        <ele>281.79998779297</ele>
        <time>2013-09-14T09:59:54Z</time>
      </trkpt>
      <trkpt lat="43.52263" lon="1.46577">
        <ele>281.79998779297</ele>
        <time>2013-09-14T09:59:58Z</time>
      </trkpt>
      <trkpt lat="43.52263" lon="1.46577">
        <ele>281.79998779297</ele>
        <time>2013-09-14T10:00:02Z</time>
      </trkpt>
      <trkpt lat="43.52263" lon="1.46577">
        <ele>281.79998779297</ele>
        <time>2013-09-14T10:00:05Z</time>
      </trkpt>
      <trkpt lat="43.52263" lon="1.46577">
        <ele>281.79998779297</ele>
        <time>2013-09-14T10:00:08Z</time>
      </trkpt>
      <trkpt lat="43.52263" lon="1.46577">
        <ele>281.79998779297</ele>
        <time>2013-09-14T10:00:12Z</time>
      </trkpt>
      <trkpt lat="43.52263" lon="1.46577">
        <ele>281.82498931885</ele>
        <time>2013-09-14T10:00:16Z</time>
      </trkpt>
      <trkpt lat="43.52263" lon="1.46577">
        <ele>282.14999389648</ele>
        <time>2013-09-14T10:00:20Z</time>
      </trkpt>
      <trkpt lat="43.52263" lon="1.46577">
        <ele>282.29998779297</ele>
        <time>2013-09-14T10:00:23Z</time>
      </trkpt>
      <trkpt lat="43.52263" lon="1.46577">
        <ele>282.37499237061</ele>
        <time>2013-09-14T10:00:27Z</time>
      </trkpt>
      <trkpt lat="43.52263" lon="1.46577">
        <ele>282.39999389648</ele>
        <time>2013-09-14T10:00:30Z</time>
      </trkpt>
      <trkpt lat="43.52263" lon="1.46577">
        <ele>282.39999389648</ele>
        <time>2013-09-14T10:00:34Z</time>
      </trkpt>
      <trkpt lat="43.52263" lon="1.46577">
        <ele>282.39999389648</ele>
        <time>2013-09-14T10:00:38Z</time>
      </trkpt>
      <trkpt lat="43.52263" lon="1.46577">
        <ele>282.39999389648</ele>
        <time>2013-09-14T10:00:42Z</time>
      </trkpt>
      <trkpt lat="43.52263" lon="1.46577">
        <ele>282.39999389648</ele>
        <time>2013-09-14T10:00:46Z</time>
      </trkpt>
      <trkpt lat="43.52263" lon="1.46577">
        <ele>282.5</ele>
        <time>2013-09-14T10:00:49Z</time>
      </trkpt>
      <trkpt lat="43.52263" lon="1.46577">
        <ele>282.47499847412</ele>
        <time>2013-09-14T10:00:53Z</time>
      </trkpt>
      <trkpt lat="43.52266" lon="1.46575">
        <ele>282.03332519531</ele>
        <time>2013-09-14T10:00:56Z</time>
      </trkpt>
      <trkpt lat="43.5228" lon="1.46565">
        <ele>281</ele>
        <time>2013-09-14T10:01:00Z</time>
      </trkpt>
      <trkpt lat="43.52298" lon="1.46552">
        <ele>280.05000305176</ele>
        <time>2013-09-14T10:01:04Z</time>
      </trkpt>
      <trkpt lat="43.52315" lon="1.46537">
        <ele>281.19999694824</ele>
        <time>2013-09-14T10:01:08Z</time>
      </trkpt>
      <trkpt lat="43.52331" lon="1.46521">
        <ele>280.75</ele>
        <time>2013-09-14T10:01:12Z</time>
      </trkpt>
      <trkpt lat="43.52348" lon="1.46509">
        <ele>280.92500305176</ele>
        <time>2013-09-14T10:01:16Z</time>
      </trkpt>
      <trkpt lat="43.52367" lon="1.46502">
        <ele>280.07499694824</ele>
        <time>2013-09-14T10:01:20Z</time>
      </trkpt>
      <trkpt lat="43.52383" lon="1.46498">
        <ele>284.54999542236</ele>
        <time>2013-09-14T10:01:23Z</time>
      </trkpt>
      <trkpt lat="43.52393" lon="1.46497">
        <ele>288.82499694824</ele>
        <time>2013-09-14T10:01:27Z</time>
      </trkpt>
      <trkpt lat="43.52399" lon="1.46499">
        <ele>288.09999084473</ele>
        <time>2013-09-14T10:01:30Z</time>
      </trkpt>
      <trkpt lat="43.52409" lon="1.46498">
        <ele>286.19999694824</ele>
        <time>2013-09-14T10:01:33Z</time>
      </trkpt>
      <trkpt lat="43.5242" lon="1.46496">
        <ele>282.16666666667</ele>
        <time>2013-09-14T10:01:37Z</time>
      </trkpt>
      <trkpt lat="43.52429" lon="1.46491">
        <ele>277.22499847412</ele>
        <time>2013-09-14T10:01:40Z</time>
      </trkpt>
      <trkpt lat="43.52439" lon="1.46487">
        <ele>277.53333536784</ele>
        <time>2013-09-14T10:01:43Z</time>
      </trkpt>
      <trkpt lat="43.52442" lon="1.46483">
        <ele>279.39999389648</ele>
        <time>2013-09-14T10:01:46Z</time>
      </trkpt>
      <trkpt lat="43.52442" lon="1.46477">
        <ele>280.85000610352</ele>
        <time>2013-09-14T10:01:50Z</time>
      </trkpt>
      <trkpt lat="43.52445" lon="1.46474">
        <ele>284.66667683919</ele>
        <time>2013-09-14T10:01:54Z</time>
      </trkpt>
      <trkpt lat="43.52449" lon="1.46471">
        <ele>284.36665852865</ele>
        <time>2013-09-14T10:01:57Z</time>
      </trkpt>
      <trkpt lat="43.52454" lon="1.46469">
        <ele>285.36666870117</ele>
        <time>2013-09-14T10:02:00Z</time>
      </trkpt>
      <trkpt lat="43.52458" lon="1.46466">
        <ele>288.66666666667</ele>
        <time>2013-09-14T10:02:04Z</time>
      </trkpt>
      <trkpt lat="43.52461" lon="1.4646">
        <ele>291.04000244141</ele>
        <time>2013-09-14T10:02:08Z</time>
      </trkpt>
      <trkpt lat="43.52467" lon="1.46455">
        <ele>290.73333740234</ele>
        <time>2013-09-14T10:02:11Z</time>
      </trkpt>
      <trkpt lat="43.52476" lon="1.46451">
        <ele>291.75</ele>
        <time>2013-09-14T10:02:15Z</time>
      </trkpt>
      <trkpt lat="43.52491" lon="1.46451">
        <ele>292.65000152588</ele>
        <time>2013-09-14T10:02:19Z</time>
      </trkpt>
      <trkpt lat="43.52506" lon="1.46453">
        <ele>293.06667073568</ele>
        <time>2013-09-14T10:02:22Z</time>
      </trkpt>
      <trkpt lat="43.52518" lon="1.46452">
        <ele>292.375</ele>
        <time>2013-09-14T10:02:26Z</time>
      </trkpt>
      <trkpt lat="43.52533" lon="1.46448">
        <ele>291.56666056315</ele>
        <time>2013-09-14T10:02:29Z</time>
      </trkpt>
      <trkpt lat="43.52548" lon="1.46447">
        <ele>291.27500152588</ele>
        <time>2013-09-14T10:02:33Z</time>
      </trkpt>
      <trkpt lat="43.5256" lon="1.46447">
        <ele>291.16667683919</ele>
        <time>2013-09-14T10:02:36Z</time>
      </trkpt>
      <trkpt lat="43.52571" lon="1.46448">
        <ele>290.94999694824</ele>
        <time>2013-09-14T10:02:40Z</time>
      </trkpt>
      <trkpt lat="43.52582" lon="1.4645">
        <ele>290.09999593099</ele>
        <time>2013-09-14T10:02:43Z</time>
      </trkpt>
      <trkpt lat="43.52593" lon="1.46452">
        <ele>290.33333333333</ele>
        <time>2013-09-14T10:02:46Z</time>
      </trkpt>
      <trkpt lat="43.52613" lon="1.46459">
        <ele>292.40000915527</ele>
        <time>2013-09-14T10:02:50Z</time>
      </trkpt>
      <trkpt lat="43.52635" lon="1.46467">
        <ele>293.73333740234</ele>
        <time>2013-09-14T10:02:53Z</time>
      </trkpt>
      <trkpt lat="43.52644" lon="1.46475">
        <ele>293.39999389648</ele>
        <time>2013-09-14T10:02:57Z</time>
      </trkpt>
      <trkpt lat="43.52653" lon="1.4649">
        <ele>293.75</ele>
        <time>2013-09-14T10:03:01Z</time>
      </trkpt>
      <trkpt lat="43.52661" lon="1.46503">
        <ele>294.07500457764</ele>
        <time>2013-09-14T10:03:05Z</time>
      </trkpt>
      <trkpt lat="43.52664" lon="1.46512">
        <ele>293.79999796549</ele>
        <time>2013-09-14T10:03:08Z</time>
      </trkpt>
      <trkpt lat="43.5267" lon="1.46516">
        <ele>292.77500152588</ele>
        <time>2013-09-14T10:03:12Z</time>
      </trkpt>
      <trkpt lat="43.52677" lon="1.46519">
        <ele>291.89999389648</ele>
        <time>2013-09-14T10:03:16Z</time>
      </trkpt>
      <trkpt lat="43.52684" lon="1.46522">
        <ele>290.55000305176</ele>
        <time>2013-09-14T10:03:20Z</time>
      </trkpt>
      <trkpt lat="43.52692" lon="1.46524">
        <ele>289.66666666667</ele>
        <time>2013-09-14T10:03:23Z</time>
      </trkpt>
      <trkpt lat="43.527" lon="1.46523">
        <ele>289.83333333333</ele>
        <time>2013-09-14T10:03:26Z</time>
      </trkpt>
      <trkpt lat="43.52709" lon="1.46523">
        <ele>289.10000610352</ele>
        <time>2013-09-14T10:03:30Z</time>
      </trkpt>
      <trkpt lat="43.52716" lon="1.46523">
        <ele>287.76666259766</ele>
        <time>2013-09-14T10:03:33Z</time>
      </trkpt>
      <trkpt lat="43.52722" lon="1.46524">
        <ele>287.15000152588</ele>
        <time>2013-09-14T10:03:37Z</time>
      </trkpt>
      <trkpt lat="43.52732" lon="1.46524">
        <ele>288.16666666667</ele>
        <time>2013-09-14T10:03:40Z</time>
      </trkpt>
      <trkpt lat="43.52743" lon="1.46522">
        <ele>288.42500305176</ele>
        <time>2013-09-14T10:03:44Z</time>
      </trkpt>
      <trkpt lat="43.52756" lon="1.46518">
        <ele>288.46666463216</ele>
        <time>2013-09-14T10:03:47Z</time>
      </trkpt>
      <trkpt lat="43.52771" lon="1.46513">
        <ele>286.93332926432</ele>
        <time>2013-09-14T10:03:50Z</time>
      </trkpt>
      <trkpt lat="43.52786" lon="1.46504">
        <ele>287.32500457764</ele>
        <time>2013-09-14T10:03:54Z</time>
      </trkpt>
      <trkpt lat="43.52808" lon="1.465">
        <ele>286.26666259766</ele>
        <time>2013-09-14T10:03:57Z</time>
      </trkpt>
      <trkpt lat="43.52823" lon="1.46496">
        <ele>284.69999186198</ele>
        <time>2013-09-14T10:04:00Z</time>
      </trkpt>
      <trkpt lat="43.52838" lon="1.4649">
        <ele>285.02500152588</ele>
        <time>2013-09-14T10:04:04Z</time>
      </trkpt>
      <trkpt lat="43.52847" lon="1.46485">
        <ele>282.5</ele>
        <time>2013-09-14T10:04:08Z</time>
      </trkpt>
      <trkpt lat="43.52851" lon="1.46485">
        <ele>277.07499694824</ele>
        <time>2013-09-14T10:04:11Z</time>
      </trkpt>
      <trkpt lat="43.52854" lon="1.46488">
        <ele>270.33333333333</ele>
        <time>2013-09-14T10:04:15Z</time>
      </trkpt>
      <trkpt lat="43.52856" lon="1.46488">
        <ele>269.25</ele>
        <time>2013-09-14T10:04:19Z</time>
      </trkpt>
      <trkpt lat="43.52856" lon="1.46487">
        <ele>269.10000610352</ele>
        <time>2013-09-14T10:04:22Z</time>
      </trkpt>
      <trkpt lat="43.52856" lon="1.46487">
        <ele>269.06667073568</ele>
        <time>2013-09-14T10:04:25Z</time>
      </trkpt>
      <trkpt lat="43.52856" lon="1.46487">
        <ele>268.83332316081</ele>
        <time>2013-09-14T10:04:28Z</time>
      </trkpt>
      <trkpt lat="43.52856" lon="1.46487">
        <ele>268.79998779297</ele>
        <time>2013-09-14T10:04:32Z</time>
      </trkpt>
      <trkpt lat="43.52858" lon="1.46486">
        <ele>269.65000152588</ele>
        <time>2013-09-14T10:04:36Z</time>
      </trkpt>
      <trkpt lat="43.52864" lon="1.46483">
        <ele>269.05000305176</ele>
        <time>2013-09-14T10:04:40Z</time>
      </trkpt>
      <trkpt lat="43.52867" lon="1.46478">
        <ele>268.22499847412</ele>
        <time>2013-09-14T10:04:44Z</time>
      </trkpt>
      <trkpt lat="43.5287" lon="1.46475">
        <ele>267.25</ele>
        <time>2013-09-14T10:04:48Z</time>
      </trkpt>
      <trkpt lat="43.52874" lon="1.46472">
        <ele>267.375</ele>
        <time>2013-09-14T10:04:52Z</time>
      </trkpt>
      <trkpt lat="43.52879" lon="1.46467">
        <ele>268</ele>
        <time>2013-09-14T10:04:56Z</time>
      </trkpt>
      <trkpt lat="43.52877" lon="1.4647">
        <ele>268.40000152588</ele>
        <time>2013-09-14T10:05:00Z</time>
      </trkpt>
      <trkpt lat="43.52876" lon="1.46474">
        <ele>267.94999694824</ele>
        <time>2013-09-14T10:05:04Z</time>
      </trkpt>
      <trkpt lat="43.52876" lon="1.46476">
        <ele>268.23333740234</ele>
        <time>2013-09-14T10:05:07Z</time>
      </trkpt>
      <trkpt lat="43.52873" lon="1.46479">
        <ele>268.45000457764</ele>
        <time>2013-09-14T10:05:11Z</time>
      </trkpt>
      <trkpt lat="43.52873" lon="1.46481">
        <ele>268.32499694824</ele>
        <time>2013-09-14T10:05:15Z</time>
      </trkpt>
      <trkpt lat="43.52876" lon="1.4648">
        <ele>266.22500610352</ele>
        <time>2013-09-14T10:05:19Z</time>
      </trkpt>
      <trkpt lat="43.52881" lon="1.46477">
        <ele>265.23333740234</ele>
        <time>2013-09-14T10:05:22Z</time>
      </trkpt>
      <trkpt lat="43.52885" lon="1.46475">
        <ele>263.76666259766</ele>
        <time>2013-09-14T10:05:25Z</time>
      </trkpt>
      <trkpt lat="43.52884" lon="1.46474">
        <ele>260.83333333333</ele>
        <time>2013-09-14T10:05:28Z</time>
      </trkpt>
      <trkpt lat="43.52879" lon="1.46475">
        <ele>258.42499542236</ele>
        <time>2013-09-14T10:05:32Z</time>
      </trkpt>
      <trkpt lat="43.52872" lon="1.46479">
        <ele>257.16665649414</ele>
        <time>2013-09-14T10:05:35Z</time>
      </trkpt>
      <trkpt lat="43.52869" lon="1.46482">
        <ele>255.6250038147</ele>
        <time>2013-09-14T10:05:39Z</time>
      </trkpt>
      <trkpt lat="43.52869" lon="1.4648">
        <ele>254.63333129883</ele>
        <time>2013-09-14T10:05:42Z</time>
      </trkpt>
      <trkpt lat="43.52871" lon="1.46477">
        <ele>253.82500076294</ele>
        <time>2013-09-14T10:05:46Z</time>
      </trkpt>
      <trkpt lat="43.52871" lon="1.46473">
        <ele>252.72499847412</ele>
        <time>2013-09-14T10:05:50Z</time>
      </trkpt>
      <trkpt lat="43.52869" lon="1.46474">
        <ele>251.96666463216</ele>
        <time>2013-09-14T10:05:53Z</time>
      </trkpt>
      <trkpt lat="43.52865" lon="1.4648">
        <ele>253.07500076294</ele>
        <time>2013-09-14T10:05:57Z</time>
      </trkpt>
      <trkpt lat="43.52862" lon="1.46486">
        <ele>255.875</ele>
        <time>2013-09-14T10:06:01Z</time>
      </trkpt>
      <trkpt lat="43.52859" lon="1.46486">
        <ele>257.22499847412</ele>
        <time>2013-09-14T10:06:05Z</time>
      </trkpt>
      <trkpt lat="43.52857" lon="1.46486">
        <ele>252.17499542236</ele>
        <time>2013-09-14T10:06:09Z</time>
      </trkpt>
      <trkpt lat="43.52855" lon="1.46487">
        <ele>251.25</ele>
        <time>2013-09-14T10:06:13Z</time>
      </trkpt>
      <trkpt lat="43.52854" lon="1.46489">
        <ele>251.53333028158</ele>
        <time>2013-09-14T10:06:16Z</time>
      </trkpt>
      <trkpt lat="43.52854" lon="1.46492">
        <ele>251.63333638509</ele>
        <time>2013-09-14T10:06:19Z</time>
      </trkpt>
      <trkpt lat="43.52854" lon="1.46494">
        <ele>253.63333638509</ele>
        <time>2013-09-14T10:06:22Z</time>
      </trkpt>
      <trkpt lat="43.52855" lon="1.46494">
        <ele>254</ele>
        <time>2013-09-14T10:06:25Z</time>
      </trkpt>
      <trkpt lat="43.52856" lon="1.46493">
        <ele>253.1200012207</ele>
        <time>2013-09-14T10:06:29Z</time>
      </trkpt>
      <trkpt lat="43.52856" lon="1.4649">
        <ele>252.15000152588</ele>
        <time>2013-09-14T10:06:33Z</time>
      </trkpt>
      <trkpt lat="43.52858" lon="1.46488">
        <ele>253.76666768392</ele>
        <time>2013-09-14T10:06:36Z</time>
      </trkpt>
      <trkpt lat="43.52862" lon="1.46485">
        <ele>253.17499923706</ele>
        <time>2013-09-14T10:06:40Z</time>
      </trkpt>
      <trkpt lat="43.52865" lon="1.46474">
        <ele>248.86666361491</ele>
        <time>2013-09-14T10:06:43Z</time>
      </trkpt>
      <trkpt lat="43.52866" lon="1.46461">
        <ele>248.34999847412</ele>
        <time>2013-09-14T10:06:47Z</time>
      </trkpt>
      <trkpt lat="43.52865" lon="1.46451">
        <ele>247.69999694824</ele>
        <time>2013-09-14T10:06:50Z</time>
      </trkpt>
      <trkpt lat="43.52868" lon="1.46442">
        <ele>249</ele>
        <time>2013-09-14T10:06:54Z</time>
      </trkpt>
      <trkpt lat="43.52872" lon="1.46435">
        <ele>249.56667073568</ele>
        <time>2013-09-14T10:06:57Z</time>
      </trkpt>
      <trkpt lat="43.52875" lon="1.46431">
        <ele>249.86666361491</ele>
        <time>2013-09-14T10:07:00Z</time>
      </trkpt>
      <trkpt lat="43.52878" lon="1.46427">
        <ele>251.52499771118</ele>
        <time>2013-09-14T10:07:04Z</time>
      </trkpt>
      <trkpt lat="43.52881" lon="1.46424">
        <ele>253.16666666667</ele>
        <time>2013-09-14T10:07:07Z</time>
      </trkpt>
      <trkpt lat="43.52882" lon="1.46421">
        <ele>253.39999898275</ele>
        <time>2013-09-14T10:07:10Z</time>
      </trkpt>
      <trkpt lat="43.52885" lon="1.46419">
        <ele>253.90000152588</ele>
        <time>2013-09-14T10:07:14Z</time>
      </trkpt>
      <trkpt lat="43.52889" lon="1.46416">
        <ele>254.36666361491</ele>
        <time>2013-09-14T10:07:17Z</time>
      </trkpt>
      <trkpt lat="43.52893" lon="1.46412">
        <ele>255.73333231608</ele>
        <time>2013-09-14T10:07:20Z</time>
      </trkpt>
      <trkpt lat="43.52903" lon="1.46409">
        <ele>263.625</ele>
        <time>2013-09-14T10:07:24Z</time>
      </trkpt>
      <trkpt lat="43.52914" lon="1.46409">
        <ele>266.09999084473</ele>
        <time>2013-09-14T10:07:28Z</time>
      </trkpt>
      <trkpt lat="43.52919" lon="1.4641">
        <ele>266.06667073568</ele>
        <time>2013-09-14T10:07:31Z</time>
      </trkpt>
      <trkpt lat="43.52922" lon="1.46413">
        <ele>265.625</ele>
        <time>2013-09-14T10:07:35Z</time>
      </trkpt>
      <trkpt lat="43.52924" lon="1.46413">
        <ele>264.93333943685</ele>
        <time>2013-09-14T10:07:38Z</time>
      </trkpt>
      <trkpt lat="43.52933" lon="1.46409">
        <ele>265.65000152588</ele>
        <time>2013-09-14T10:07:42Z</time>
      </trkpt>
      <trkpt lat="43.52947" lon="1.46408">
        <ele>267.82499694824</ele>
        <time>2013-09-14T10:07:46Z</time>
      </trkpt>
      <trkpt lat="43.52974" lon="1.46414">
        <ele>272.39999389648</ele>
        <time>2013-09-14T10:07:49Z</time>
      </trkpt>
      <trkpt lat="43.52992" lon="1.46413">
        <ele>273.27499389648</ele>
        <time>2013-09-14T10:07:53Z</time>
      </trkpt>
      <trkpt lat="43.53011" lon="1.4641">
        <ele>275.10000610352</ele>
        <time>2013-09-14T10:07:56Z</time>
      </trkpt>
      <trkpt lat="43.53032" lon="1.46413">
        <ele>278</ele>
        <time>2013-09-14T10:08:00Z</time>
      </trkpt>
      <trkpt lat="43.53053" lon="1.46415">
        <ele>280.77500152588</ele>
        <time>2013-09-14T10:08:04Z</time>
      </trkpt>
      <trkpt lat="43.5308" lon="1.46409">
        <ele>275.56666056315</ele>
        <time>2013-09-14T10:08:07Z</time>
      </trkpt>
      <trkpt lat="43.53104" lon="1.46402">
        <ele>273.04999542236</ele>
        <time>2013-09-14T10:08:11Z</time>
      </trkpt>
      <trkpt lat="43.53126" lon="1.46397">
        <ele>272.70000203451</ele>
        <time>2013-09-14T10:08:14Z</time>
      </trkpt>
      <trkpt lat="43.53145" lon="1.4639">
        <ele>272.14999389648</ele>
        <time>2013-09-14T10:08:18Z</time>
      </trkpt>
      <trkpt lat="43.53161" lon="1.46386">
        <ele>274.30000305176</ele>
        <time>2013-09-14T10:08:22Z</time>
      </trkpt>
      <trkpt lat="43.53171" lon="1.46388">
        <ele>274.90000406901</ele>
        <time>2013-09-14T10:08:25Z</time>
      </trkpt>
      <trkpt lat="43.53177" lon="1.46393">
        <ele>274.32500457764</ele>
        <time>2013-09-14T10:08:29Z</time>
      </trkpt>
      <trkpt lat="43.5318" lon="1.46398">
        <ele>274</ele>
        <time>2013-09-14T10:08:32Z</time>
      </trkpt>
      <trkpt lat="43.53181" lon="1.464">
        <ele>274.09999593099</ele>
        <time>2013-09-14T10:08:35Z</time>
      </trkpt>
      <trkpt lat="43.5318" lon="1.46398">
        <ele>272.86666870117</ele>
        <time>2013-09-14T10:08:38Z</time>
      </trkpt>
      <trkpt lat="43.5318" lon="1.46398">
        <ele>272.93332926432</ele>
        <time>2013-09-14T10:08:41Z</time>
      </trkpt>
      <trkpt lat="43.53179" lon="1.46398">
        <ele>272.65000152588</ele>
        <time>2013-09-14T10:08:45Z</time>
      </trkpt>
      <trkpt lat="43.53179" lon="1.46397">
        <ele>272.73332722982</ele>
        <time>2013-09-14T10:08:48Z</time>
      </trkpt>
      <trkpt lat="43.53179" lon="1.46397">
        <ele>272.79998779297</ele>
        <time>2013-09-14T10:08:51Z</time>
      </trkpt>
      <trkpt lat="43.53179" lon="1.46397">
        <ele>272.79998779297</ele>
        <time>2013-09-14T10:08:55Z</time>
      </trkpt>
      <trkpt lat="43.53179" lon="1.46397">
        <ele>272.79998779297</ele>
        <time>2013-09-14T10:08:58Z</time>
      </trkpt>
      <trkpt lat="43.53179" lon="1.46397">
        <ele>272.79998779297</ele>
        <time>2013-09-14T10:09:02Z</time>
      </trkpt>
      <trkpt lat="43.53179" lon="1.46397">
        <ele>272.79998779297</ele>
        <time>2013-09-14T10:09:06Z</time>
      </trkpt>
      <trkpt lat="43.53179" lon="1.46397">
        <ele>272.79998779297</ele>
        <time>2013-09-14T10:09:09Z</time>
      </trkpt>
      <trkpt lat="43.53179" lon="1.46397">
        <ele>272.82498931885</ele>
        <time>2013-09-14T10:09:13Z</time>
      </trkpt>
      <trkpt lat="43.53179" lon="1.46397">
        <ele>272.29998779297</ele>
        <time>2013-09-14T10:09:16Z</time>
      </trkpt>
      <trkpt lat="43.53179" lon="1.46397">
        <ele>272.05000305176</ele>
        <time>2013-09-14T10:09:20Z</time>
      </trkpt>
      <trkpt lat="43.53179" lon="1.46397">
        <ele>272.10000610352</ele>
        <time>2013-09-14T10:09:24Z</time>
      </trkpt>
      <trkpt lat="43.5318" lon="1.46397">
        <ele>271.60000610352</ele>
        <time>2013-09-14T10:09:28Z</time>
      </trkpt>
      <trkpt lat="43.5318" lon="1.46397">
        <ele>271.56667073568</ele>
        <time>2013-09-14T10:09:31Z</time>
      </trkpt>
      <trkpt lat="43.53181" lon="1.46398">
        <ele>271.66666666667</ele>
        <time>2013-09-14T10:09:34Z</time>
      </trkpt>
      <trkpt lat="43.53187" lon="1.46403">
        <ele>271.42500305176</ele>
        <time>2013-09-14T10:09:38Z</time>
      </trkpt>
      <trkpt lat="43.53202" lon="1.46405">
        <ele>264.97500610352</ele>
        <time>2013-09-14T10:09:42Z</time>
      </trkpt>
      <trkpt lat="43.53215" lon="1.46393">
        <ele>260.09999593099</ele>
        <time>2013-09-14T10:09:45Z</time>
      </trkpt>
      <trkpt lat="43.53223" lon="1.46376">
        <ele>259.42500305176</ele>
        <time>2013-09-14T10:09:49Z</time>
      </trkpt>
      <trkpt lat="43.53231" lon="1.46352">
        <ele>257.875</ele>
        <time>2013-09-14T10:09:53Z</time>
      </trkpt>
      <trkpt lat="43.53236" lon="1.46327">
        <ele>256.36665852865</ele>
        <time>2013-09-14T10:09:56Z</time>
      </trkpt>
      <trkpt lat="43.53239" lon="1.463">
        <ele>255.65000152588</ele>
        <time>2013-09-14T10:10:00Z</time>
      </trkpt>
      <trkpt lat="43.53242" lon="1.46265">
        <ele>252.875</ele>
        <time>2013-09-14T10:10:04Z</time>
      </trkpt>
      <trkpt lat="43.53248" lon="1.4623">
        <ele>247.93333435059</ele>
        <time>2013-09-14T10:10:07Z</time>
      </trkpt>
      <trkpt lat="43.53254" lon="1.46193">
        <ele>244.95000457764</ele>
        <time>2013-09-14T10:10:11Z</time>
      </trkpt>
      <trkpt lat="43.5326" lon="1.46157">
        <ele>242.16667175293</ele>
        <time>2013-09-14T10:10:14Z</time>
      </trkpt>
      <trkpt lat="43.53271" lon="1.46127">
        <ele>240.97499847412</ele>
        <time>2013-09-14T10:10:18Z</time>
      </trkpt>
      <trkpt lat="43.53284" lon="1.4611">
        <ele>241.95000076294</ele>
        <time>2013-09-14T10:10:22Z</time>
      </trkpt>
      <trkpt lat="43.53288" lon="1.46102">
        <ele>241.82499694824</ele>
        <time>2013-09-14T10:10:26Z</time>
      </trkpt>
      <trkpt lat="43.53289" lon="1.46096">
        <ele>240.875</ele>
        <time>2013-09-14T10:10:30Z</time>
      </trkpt>
      <trkpt lat="43.53294" lon="1.46082">
        <ele>238.40000152588</ele>
        <time>2013-09-14T10:10:34Z</time>
      </trkpt>
      <trkpt lat="43.53298" lon="1.46071">
        <ele>237.96666463216</ele>
        <time>2013-09-14T10:10:37Z</time>
      </trkpt>
      <trkpt lat="43.53304" lon="1.46061">
        <ele>237.52500152588</ele>
        <time>2013-09-14T10:10:41Z</time>
      </trkpt>
      <trkpt lat="43.5331" lon="1.46053">
        <ele>238.76666768392</ele>
        <time>2013-09-14T10:10:44Z</time>
      </trkpt>
      <trkpt lat="43.53314" lon="1.46049">
        <ele>239.70000203451</ele>
        <time>2013-09-14T10:10:47Z</time>
      </trkpt>
      <trkpt lat="43.53319" lon="1.46046">
        <ele>241.16666666667</ele>
        <time>2013-09-14T10:10:50Z</time>
      </trkpt>
      <trkpt lat="43.53327" lon="1.46042">
        <ele>245.625</ele>
        <time>2013-09-14T10:10:54Z</time>
      </trkpt>
      <trkpt lat="43.53333" lon="1.46037">
        <ele>248.97500228882</ele>
        <time>2013-09-14T10:10:58Z</time>
      </trkpt>
      <trkpt lat="43.53339" lon="1.4603">
        <ele>249.97499465942</ele>
        <time>2013-09-14T10:11:02Z</time>
      </trkpt>
      <trkpt lat="43.53345" lon="1.46025">
        <ele>252.625</ele>
        <time>2013-09-14T10:11:06Z</time>
      </trkpt>
      <trkpt lat="43.5335" lon="1.46018">
        <ele>255.6250038147</ele>
        <time>2013-09-14T10:11:10Z</time>
      </trkpt>
      <trkpt lat="43.53357" lon="1.46012">
        <ele>256.59999847412</ele>
        <time>2013-09-14T10:11:14Z</time>
      </trkpt>
      <trkpt lat="43.53365" lon="1.46006">
        <ele>257.10000610352</ele>
        <time>2013-09-14T10:11:18Z</time>
      </trkpt>
      <trkpt lat="43.53371" lon="1.46001">
        <ele>256.93333943685</ele>
        <time>2013-09-14T10:11:21Z</time>
      </trkpt>
      <trkpt lat="43.53377" lon="1.45996">
        <ele>257.72499847412</ele>
        <time>2013-09-14T10:11:25Z</time>
      </trkpt>
      <trkpt lat="43.53382" lon="1.45992">
        <ele>259.62500762939</ele>
        <time>2013-09-14T10:11:29Z</time>
      </trkpt>
      <trkpt lat="43.53388" lon="1.45987">
        <ele>261.90000406901</ele>
        <time>2013-09-14T10:11:32Z</time>
      </trkpt>
      <trkpt lat="43.53393" lon="1.45983">
        <ele>262.76666259766</ele>
        <time>2013-09-14T10:11:35Z</time>
      </trkpt>
      <trkpt lat="43.53399" lon="1.45976">
        <ele>263.17500305176</ele>
        <time>2013-09-14T10:11:39Z</time>
      </trkpt>
      <trkpt lat="43.53406" lon="1.45971">
        <ele>264.09999593099</ele>
        <time>2013-09-14T10:11:42Z</time>
      </trkpt>
      <trkpt lat="43.53412" lon="1.45966">
        <ele>265.75000762939</ele>
        <time>2013-09-14T10:11:46Z</time>
      </trkpt>
      <trkpt lat="43.53418" lon="1.45961">
        <ele>267.33333333333</ele>
        <time>2013-09-14T10:11:49Z</time>
      </trkpt>
      <trkpt lat="43.53424" lon="1.45956">
        <ele>268.52500152588</ele>
        <time>2013-09-14T10:11:53Z</time>
      </trkpt>
      <trkpt lat="43.5343" lon="1.45952">
        <ele>267.60000610352</ele>
        <time>2013-09-14T10:11:57Z</time>
      </trkpt>
      <trkpt lat="43.53436" lon="1.45948">
        <ele>268.73333740234</ele>
        <time>2013-09-14T10:12:00Z</time>
      </trkpt>
      <trkpt lat="43.53441" lon="1.45942">
        <ele>269.17500305176</ele>
        <time>2013-09-14T10:12:04Z</time>
      </trkpt>
      <trkpt lat="43.53448" lon="1.45937">
        <ele>269.70000457764</ele>
        <time>2013-09-14T10:12:08Z</time>
      </trkpt>
      <trkpt lat="43.53453" lon="1.45934">
        <ele>269.19999186198</ele>
        <time>2013-09-14T10:12:11Z</time>
      </trkpt>
      <trkpt lat="43.53457" lon="1.45931">
        <ele>269.43333943685</ele>
        <time>2013-09-14T10:12:14Z</time>
      </trkpt>
      <trkpt lat="43.53462" lon="1.45928">
        <ele>268.37499237061</ele>
        <time>2013-09-14T10:12:18Z</time>
      </trkpt>
      <trkpt lat="43.53467" lon="1.45923">
        <ele>269.52499389648</ele>
        <time>2013-09-14T10:12:22Z</time>
      </trkpt>
      <trkpt lat="43.53471" lon="1.45919">
        <ele>270.36666870117</ele>
        <time>2013-09-14T10:12:25Z</time>
      </trkpt>
      <trkpt lat="43.53475" lon="1.45915">
        <ele>271.73332722982</ele>
        <time>2013-09-14T10:12:28Z</time>
      </trkpt>
      <trkpt lat="43.5348" lon="1.45912">
        <ele>272.27499389648</ele>
        <time>2013-09-14T10:12:32Z</time>
      </trkpt>
      <trkpt lat="43.53486" lon="1.45909">
        <ele>272.67500305176</ele>
        <time>2013-09-14T10:12:36Z</time>
      </trkpt>
      <trkpt lat="43.53492" lon="1.45906">
        <ele>274.20000457764</ele>
        <time>2013-09-14T10:12:41Z</time>
      </trkpt>
      <trkpt lat="43.53499" lon="1.45903">
        <ele>274.68000488281</ele>
        <time>2013-09-14T10:12:46Z</time>
      </trkpt>
      <trkpt lat="43.53507" lon="1.45901">
        <ele>276.02500915527</ele>
        <time>2013-09-14T10:12:50Z</time>
      </trkpt>
      <trkpt lat="43.53515" lon="1.45899">
        <ele>274.93999633789</ele>
        <time>2013-09-14T10:12:54Z</time>
      </trkpt>
      <trkpt lat="43.53521" lon="1.45897">
        <ele>276.09999593099</ele>
        <time>2013-09-14T10:12:58Z</time>
      </trkpt>
      <trkpt lat="43.53527" lon="1.45896">
        <ele>277.33999633789</ele>
        <time>2013-09-14T10:13:03Z</time>
      </trkpt>
      <trkpt lat="43.53536" lon="1.4589">
        <ele>279.45999755859</ele>
        <time>2013-09-14T10:13:08Z</time>
      </trkpt>
      <trkpt lat="43.53554" lon="1.45881">
        <ele>282.50001017253</ele>
        <time>2013-09-14T10:13:11Z</time>
      </trkpt>
      <trkpt lat="43.53554" lon="1.45876">
        <ele>290.64999389648</ele>
        <time>2013-09-14T10:13:15Z</time>
      </trkpt>
      <trkpt lat="43.53554" lon="1.45867">
        <ele>303.25</ele>
        <time>2013-09-14T10:13:19Z</time>
      </trkpt>
      <trkpt lat="43.53558" lon="1.45874">
        <ele>290.875</ele>
        <time>2013-09-14T10:13:23Z</time>
      </trkpt>
      <trkpt lat="43.53566" lon="1.45875">
        <ele>284.33334350586</ele>
        <time>2013-09-14T10:13:26Z</time>
      </trkpt>
      <trkpt lat="43.53557" lon="1.45879">
        <ele>281.23332722982</ele>
        <time>2013-09-14T10:13:29Z</time>
      </trkpt>
      <trkpt lat="43.53574" lon="1.45872">
        <ele>281.65000152588</ele>
        <time>2013-09-14T10:13:33Z</time>
      </trkpt>
      <trkpt lat="43.53583" lon="1.4587">
        <ele>279.22500610352</ele>
        <time>2013-09-14T10:13:37Z</time>
      </trkpt>
      <trkpt lat="43.53589" lon="1.45865">
        <ele>280.16666666667</ele>
        <time>2013-09-14T10:13:40Z</time>
      </trkpt>
      <trkpt lat="43.53598" lon="1.45863">
        <ele>281.77499389648</ele>
        <time>2013-09-14T10:13:44Z</time>
      </trkpt>
      <trkpt lat="43.53612" lon="1.45858">
        <ele>279.22499847412</ele>
        <time>2013-09-14T10:13:48Z</time>
      </trkpt>
      <trkpt lat="43.53622" lon="1.45853">
        <ele>275.97499847412</ele>
        <time>2013-09-14T10:13:52Z</time>
      </trkpt>
      <trkpt lat="43.53625" lon="1.45847">
        <ele>277.79999542236</ele>
        <time>2013-09-14T10:13:56Z</time>
      </trkpt>
      <trkpt lat="43.53631" lon="1.45841">
        <ele>279.22499847412</ele>
        <time>2013-09-14T10:14:00Z</time>
      </trkpt>
      <trkpt lat="43.53641" lon="1.45832">
        <ele>279.52500152588</ele>
        <time>2013-09-14T10:14:04Z</time>
      </trkpt>
      <trkpt lat="43.53653" lon="1.45819">
        <ele>279.56667073568</ele>
        <time>2013-09-14T10:14:07Z</time>
      </trkpt>
      <trkpt lat="43.5366" lon="1.45816">
        <ele>279.625</ele>
        <time>2013-09-14T10:14:11Z</time>
      </trkpt>
      <trkpt lat="43.53665" lon="1.45815">
        <ele>281.84999084473</ele>
        <time>2013-09-14T10:14:15Z</time>
      </trkpt>
      <trkpt lat="43.53677" lon="1.45814">
        <ele>278.26666259766</ele>
        <time>2013-09-14T10:14:18Z</time>
      </trkpt>
      <trkpt lat="43.53677" lon="1.45807">
        <ele>296.97500610352</ele>
        <time>2013-09-14T10:14:23Z</time>
      </trkpt>
      <trkpt lat="43.53689" lon="1.45801">
        <ele>294.40000406901</ele>
        <time>2013-09-14T10:14:26Z</time>
      </trkpt>
      <trkpt lat="43.53706" lon="1.45794">
        <ele>289.25000762939</ele>
        <time>2013-09-14T10:14:30Z</time>
      </trkpt>
      <trkpt lat="43.53719" lon="1.45787">
        <ele>283.66666666667</ele>
        <time>2013-09-14T10:14:33Z</time>
      </trkpt>
      <trkpt lat="43.53716" lon="1.45773">
        <ele>302.52499389648</ele>
        <time>2013-09-14T10:14:37Z</time>
      </trkpt>
      <trkpt lat="43.5372" lon="1.45772">
        <ele>301.00000762939</ele>
        <time>2013-09-14T10:14:41Z</time>
      </trkpt>
      <trkpt lat="43.53728" lon="1.45773">
        <ele>299.57499694824</ele>
        <time>2013-09-14T10:14:45Z</time>
      </trkpt>
      <trkpt lat="43.53742" lon="1.45768">
        <ele>295.43333943685</ele>
        <time>2013-09-14T10:14:52Z</time>
      </trkpt>
      <trkpt lat="43.53751" lon="1.45761">
        <ele>296.97499847412</ele>
        <time>2013-09-14T10:14:56Z</time>
      </trkpt>
      <trkpt lat="43.53757" lon="1.45755">
        <ele>298.53333536784</ele>
        <time>2013-09-14T10:14:59Z</time>
      </trkpt>
      <trkpt lat="43.53762" lon="1.45752">
        <ele>297.67500305176</ele>
        <time>2013-09-14T10:15:03Z</time>
      </trkpt>
      <trkpt lat="43.53765" lon="1.45746">
        <ele>298.16666666667</ele>
        <time>2013-09-14T10:15:06Z</time>
      </trkpt>
      <trkpt lat="43.53771" lon="1.45741">
        <ele>298.16666666667</ele>
        <time>2013-09-14T10:15:09Z</time>
      </trkpt>
      <trkpt lat="43.53778" lon="1.45736">
        <ele>299.26667277018</ele>
        <time>2013-09-14T10:15:12Z</time>
      </trkpt>
      <trkpt lat="43.53786" lon="1.45729">
        <ele>299.90000152588</ele>
        <time>2013-09-14T10:15:16Z</time>
      </trkpt>
      <trkpt lat="43.53814" lon="1.45698">
        <ele>294.65000915527</ele>
        <time>2013-09-14T10:15:25Z</time>
      </trkpt>
      <trkpt lat="43.53827" lon="1.45678">
        <ele>303.06667073568</ele>
        <time>2013-09-14T10:15:28Z</time>
      </trkpt>
      <trkpt lat="43.53831" lon="1.45669">
        <ele>309.65000152588</ele>
        <time>2013-09-14T10:15:32Z</time>
      </trkpt>
      <trkpt lat="43.53837" lon="1.45663">
        <ele>311.69999186198</ele>
        <time>2013-09-14T10:15:35Z</time>
      </trkpt>
      <trkpt lat="43.53844" lon="1.45653">
        <ele>312.70000203451</ele>
        <time>2013-09-14T10:15:38Z</time>
      </trkpt>
      <trkpt lat="43.53856" lon="1.45643">
        <ele>312.84999847412</ele>
        <time>2013-09-14T10:15:42Z</time>
      </trkpt>
      <trkpt lat="43.53865" lon="1.45632">
        <ele>313.46667480469</ele>
        <time>2013-09-14T10:15:45Z</time>
      </trkpt>
      <trkpt lat="43.53869" lon="1.45623">
        <ele>312.36666870117</ele>
        <time>2013-09-14T10:15:48Z</time>
      </trkpt>
      <trkpt lat="43.5387" lon="1.45616">
        <ele>313.09999084473</ele>
        <time>2013-09-14T10:15:51Z</time>
      </trkpt>
      <trkpt lat="43.53874" lon="1.45608">
        <ele>314.05999755859</ele>
        <time>2013-09-14T10:15:55Z</time>
      </trkpt>
      <trkpt lat="43.53881" lon="1.45601">
        <ele>314.56667073568</ele>
        <time>2013-09-14T10:15:58Z</time>
      </trkpt>
      <trkpt lat="43.53888" lon="1.45594">
        <ele>309.50000762939</ele>
        <time>2013-09-14T10:16:02Z</time>
      </trkpt>
      <trkpt lat="43.53899" lon="1.4559">
        <ele>303.96666463216</ele>
        <time>2013-09-14T10:16:05Z</time>
      </trkpt>
      <trkpt lat="43.53895" lon="1.45593">
        <ele>307.79999796549</ele>
        <time>2013-09-14T10:16:08Z</time>
      </trkpt>
      <trkpt lat="43.53898" lon="1.45594">
        <ele>301.29999796549</ele>
        <time>2013-09-14T10:16:11Z</time>
      </trkpt>
      <trkpt lat="43.539" lon="1.45594">
        <ele>296.17499542236</ele>
        <time>2013-09-14T10:16:15Z</time>
      </trkpt>
      <trkpt lat="43.53905" lon="1.45599">
        <ele>282.03332519531</ele>
        <time>2013-09-14T10:16:22Z</time>
      </trkpt>
      <trkpt lat="43.53906" lon="1.4559">
        <ele>281.92499542236</ele>
        <time>2013-09-14T10:16:26Z</time>
      </trkpt>
      <trkpt lat="43.53907" lon="1.45591">
        <ele>284.59999593099</ele>
        <time>2013-09-14T10:16:34Z</time>
      </trkpt>
      <trkpt lat="43.53894" lon="1.45593">
        <ele>304.39999389648</ele>
        <time>2013-09-14T10:16:37Z</time>
      </trkpt>
      <trkpt lat="43.53887" lon="1.45586">
        <ele>320.02500915527</ele>
        <time>2013-09-14T10:16:41Z</time>
      </trkpt>
      <trkpt lat="43.53885" lon="1.45589">
        <ele>314.82499694824</ele>
        <time>2013-09-14T10:16:45Z</time>
      </trkpt>
      <trkpt lat="43.53898" lon="1.45602">
        <ele>294.79999796549</ele>
        <time>2013-09-14T10:16:48Z</time>
      </trkpt>
      <trkpt lat="43.53921" lon="1.45591">
        <ele>277.10000610352</ele>
        <time>2013-09-14T10:16:51Z</time>
      </trkpt>
      <trkpt lat="43.53902" lon="1.45583">
        <ele>288.97499847412</ele>
        <time>2013-09-14T10:16:55Z</time>
      </trkpt>
      <trkpt lat="43.53902" lon="1.45576">
        <ele>302.83333333333</ele>
        <time>2013-09-14T10:16:58Z</time>
      </trkpt>
      <trkpt lat="43.53911" lon="1.45562">
        <ele>302.36665852865</ele>
        <time>2013-09-14T10:17:01Z</time>
      </trkpt>
      <trkpt lat="43.53902" lon="1.45576">
        <ele>304.09999593099</ele>
        <time>2013-09-14T10:17:04Z</time>
      </trkpt>
      <trkpt lat="43.53888" lon="1.45591">
        <ele>317.43332926432</ele>
        <time>2013-09-14T10:17:07Z</time>
      </trkpt>
      <trkpt lat="43.53886" lon="1.45586">
        <ele>325.74999237061</ele>
        <time>2013-09-14T10:17:11Z</time>
      </trkpt>
      <trkpt lat="43.53883" lon="1.4558">
        <ele>334.45000457764</ele>
        <time>2013-09-14T10:17:15Z</time>
      </trkpt>
      <trkpt lat="43.53886" lon="1.45577">
        <ele>336.02499389648</ele>
        <time>2013-09-14T10:17:19Z</time>
      </trkpt>
      <trkpt lat="43.53896" lon="1.45572">
        <ele>333.625</ele>
        <time>2013-09-14T10:17:23Z</time>
      </trkpt>
      <trkpt lat="43.53926" lon="1.4556">
        <ele>336.83334350586</ele>
        <time>2013-09-14T10:17:26Z</time>
      </trkpt>
      <trkpt lat="43.53934" lon="1.45556">
        <ele>316.36665852865</ele>
        <time>2013-09-14T10:17:29Z</time>
      </trkpt>
      <trkpt lat="43.53939" lon="1.45549">
        <ele>313.67500305176</ele>
        <time>2013-09-14T10:17:33Z</time>
      </trkpt>
      <trkpt lat="43.53947" lon="1.45537">
        <ele>310.62500762939</ele>
        <time>2013-09-14T10:17:37Z</time>
      </trkpt>
      <trkpt lat="43.53958" lon="1.45529">
        <ele>305.63333129883</ele>
        <time>2013-09-14T10:17:40Z</time>
      </trkpt>
      <trkpt lat="43.53965" lon="1.45524">
        <ele>301.76666259766</ele>
        <time>2013-09-14T10:17:43Z</time>
      </trkpt>
      <trkpt lat="43.53967" lon="1.45512">
        <ele>310.12499237061</ele>
        <time>2013-09-14T10:17:47Z</time>
      </trkpt>
      <trkpt lat="43.53981" lon="1.45503">
        <ele>305.44999694824</ele>
        <time>2013-09-14T10:17:51Z</time>
      </trkpt>
      <trkpt lat="43.5398" lon="1.45495">
        <ele>324.27500152588</ele>
        <time>2013-09-14T10:17:55Z</time>
      </trkpt>
      <trkpt lat="43.53978" lon="1.45485">
        <ele>339.03333536784</ele>
        <time>2013-09-14T10:17:58Z</time>
      </trkpt>
      <trkpt lat="43.53994" lon="1.45474">
        <ele>333.19999694824</ele>
        <time>2013-09-14T10:18:02Z</time>
      </trkpt>
      <trkpt lat="43.54012" lon="1.45474">
        <ele>321.42498779297</ele>
        <time>2013-09-14T10:18:06Z</time>
      </trkpt>
      <trkpt lat="43.54028" lon="1.45489">
        <ele>304.06667073568</ele>
        <time>2013-09-14T10:18:09Z</time>
      </trkpt>
      <trkpt lat="43.54042" lon="1.45488">
        <ele>289.27500152588</ele>
        <time>2013-09-14T10:18:13Z</time>
      </trkpt>
      <trkpt lat="43.54043" lon="1.4548">
        <ele>306.02499389648</ele>
        <time>2013-09-14T10:18:17Z</time>
      </trkpt>
      <trkpt lat="43.54052" lon="1.45468">
        <ele>312.49998982747</ele>
        <time>2013-09-14T10:18:20Z</time>
      </trkpt>
      <trkpt lat="43.54065" lon="1.45461">
        <ele>308.52500152588</ele>
        <time>2013-09-14T10:18:24Z</time>
      </trkpt>
      <trkpt lat="43.54089" lon="1.45462">
        <ele>304.57499694824</ele>
        <time>2013-09-14T10:18:28Z</time>
      </trkpt>
      <trkpt lat="43.54094" lon="1.45468">
        <ele>303.83332316081</ele>
        <time>2013-09-14T10:18:31Z</time>
      </trkpt>
      <trkpt lat="43.54104" lon="1.45475">
        <ele>303.44998931885</ele>
        <time>2013-09-14T10:18:35Z</time>
      </trkpt>
      <trkpt lat="43.5413" lon="1.45494">
        <ele>301.42500305176</ele>
        <time>2013-09-14T10:18:39Z</time>
      </trkpt>
      <trkpt lat="43.54166" lon="1.45522">
        <ele>298.97499847412</ele>
        <time>2013-09-14T10:18:43Z</time>
      </trkpt>
      <trkpt lat="43.54197" lon="1.45554">
        <ele>299.22499847412</ele>
        <time>2013-09-14T10:18:47Z</time>
      </trkpt>
      <trkpt lat="43.54216" lon="1.45568">
        <ele>297.65000152588</ele>
        <time>2013-09-14T10:18:51Z</time>
      </trkpt>
      <trkpt lat="43.54241" lon="1.45592">
        <ele>295.94999694824</ele>
        <time>2013-09-14T10:18:55Z</time>
      </trkpt>
      <trkpt lat="43.5427" lon="1.45622">
        <ele>290.80000813802</ele>
        <time>2013-09-14T10:18:58Z</time>
      </trkpt>
      <trkpt lat="43.54298" lon="1.45642">
        <ele>286.10000610352</ele>
        <time>2013-09-14T10:19:01Z</time>
      </trkpt>
      <trkpt lat="43.54324" lon="1.45661">
        <ele>282.46666463216</ele>
        <time>2013-09-14T10:19:04Z</time>
      </trkpt>
      <trkpt lat="43.54345" lon="1.45682">
        <ele>280.93332926432</ele>
        <time>2013-09-14T10:19:07Z</time>
      </trkpt>
      <trkpt lat="43.54356" lon="1.45684">
        <ele>278.96666463216</ele>
        <time>2013-09-14T10:19:12Z</time>
      </trkpt>
      <trkpt lat="43.54359" lon="1.45677">
        <ele>280.09999084473</ele>
        <time>2013-09-14T10:19:16Z</time>
      </trkpt>
      <trkpt lat="43.54366" lon="1.45664">
        <ele>279.07499694824</ele>
        <time>2013-09-14T10:19:21Z</time>
      </trkpt>
      <trkpt lat="43.54355" lon="1.45657">
        <ele>291.33333333333</ele>
        <time>2013-09-14T10:19:24Z</time>
      </trkpt>
      <trkpt lat="43.54371" lon="1.45649">
        <ele>288.47499847412</ele>
        <time>2013-09-14T10:19:28Z</time>
      </trkpt>
      <trkpt lat="43.54361" lon="1.45646">
        <ele>301.20001220703</ele>
        <time>2013-09-14T10:19:31Z</time>
      </trkpt>
      <trkpt lat="43.54368" lon="1.45627">
        <ele>296.43999633789</ele>
        <time>2013-09-14T10:19:35Z</time>
      </trkpt>
      <trkpt lat="43.54387" lon="1.45604">
        <ele>284.83333333333</ele>
        <time>2013-09-14T10:19:39Z</time>
      </trkpt>
      <trkpt lat="43.54402" lon="1.45589">
        <ele>288.9200012207</ele>
        <time>2013-09-14T10:19:44Z</time>
      </trkpt>
      <trkpt lat="43.54412" lon="1.45569">
        <ele>282.95999755859</ele>
        <time>2013-09-14T10:19:47Z</time>
      </trkpt>
      <trkpt lat="43.54422" lon="1.45556">
        <ele>285.15000915527</ele>
        <time>2013-09-14T10:19:51Z</time>
      </trkpt>
      <trkpt lat="43.54432" lon="1.45542">
        <ele>289.14999389648</ele>
        <time>2013-09-14T10:19:54Z</time>
      </trkpt>
      <trkpt lat="43.54441" lon="1.45532">
        <ele>292.90000915527</ele>
        <time>2013-09-14T10:19:57Z</time>
      </trkpt>
      <trkpt lat="43.5444" lon="1.45521">
        <ele>304.80000305176</ele>
        <time>2013-09-14T10:20:00Z</time>
      </trkpt>
      <trkpt lat="43.54461" lon="1.45495">
        <ele>293.3799987793</ele>
        <time>2013-09-14T10:20:06Z</time>
      </trkpt>
      <trkpt lat="43.54479" lon="1.45477">
        <ele>287.79999542236</ele>
        <time>2013-09-14T10:20:09Z</time>
      </trkpt>
      <trkpt lat="43.54493" lon="1.45453">
        <ele>285.64999389648</ele>
        <time>2013-09-14T10:20:13Z</time>
      </trkpt>
      <trkpt lat="43.5451" lon="1.45429">
        <ele>284</ele>
        <time>2013-09-14T10:20:17Z</time>
      </trkpt>
      <trkpt lat="43.54519" lon="1.4541">
        <ele>274.06667073568</ele>
        <time>2013-09-14T10:20:20Z</time>
      </trkpt>
      <trkpt lat="43.54517" lon="1.45391">
        <ele>280.13334147135</ele>
        <time>2013-09-14T10:20:24Z</time>
      </trkpt>
      <trkpt lat="43.54527" lon="1.45367">
        <ele>282.50000762939</ele>
        <time>2013-09-14T10:20:27Z</time>
      </trkpt>
      <trkpt lat="43.54536" lon="1.45334">
        <ele>295.79999542236</ele>
        <time>2013-09-14T10:20:31Z</time>
      </trkpt>
      <trkpt lat="43.54562" lon="1.45305">
        <ele>284.20000203451</ele>
        <time>2013-09-14T10:20:34Z</time>
      </trkpt>
      <trkpt lat="43.54559" lon="1.45291">
        <ele>289.15000152588</ele>
        <time>2013-09-14T10:20:38Z</time>
      </trkpt>
      <trkpt lat="43.54576" lon="1.4526">
        <ele>285.65000152588</ele>
        <time>2013-09-14T10:20:43Z</time>
      </trkpt>
      <trkpt lat="43.54576" lon="1.45256">
        <ele>301.92499542236</ele>
        <time>2013-09-14T10:20:46Z</time>
      </trkpt>
      <trkpt lat="43.54587" lon="1.45248">
        <ele>296.43333943685</ele>
        <time>2013-09-14T10:20:49Z</time>
      </trkpt>
      <trkpt lat="43.54604" lon="1.4524">
        <ele>283.56666056315</ele>
        <time>2013-09-14T10:20:52Z</time>
      </trkpt>
      <trkpt lat="43.5461" lon="1.45224">
        <ele>292.15000152588</ele>
        <time>2013-09-14T10:20:56Z</time>
      </trkpt>
      <trkpt lat="43.54605" lon="1.45206">
        <ele>282.76666259766</ele>
        <time>2013-09-14T10:20:59Z</time>
      </trkpt>
      <trkpt lat="43.54611" lon="1.45197">
        <ele>287.57500457764</ele>
        <time>2013-09-14T10:21:03Z</time>
      </trkpt>
      <trkpt lat="43.54624" lon="1.45183">
        <ele>282.16666666667</ele>
        <time>2013-09-14T10:21:06Z</time>
      </trkpt>
      <trkpt lat="43.54635" lon="1.45168">
        <ele>281.92499542236</ele>
        <time>2013-09-14T10:21:10Z</time>
      </trkpt>
      <trkpt lat="43.54647" lon="1.4515">
        <ele>282.87499237061</ele>
        <time>2013-09-14T10:21:14Z</time>
      </trkpt>
      <trkpt lat="43.54657" lon="1.45133">
        <ele>283.10000610352</ele>
        <time>2013-09-14T10:21:17Z</time>
      </trkpt>
      <trkpt lat="43.54695" lon="1.45104">
        <ele>253.67499160767</ele>
        <time>2013-09-14T10:21:21Z</time>
      </trkpt>
      <trkpt lat="43.54683" lon="1.45086">
        <ele>282.57499694824</ele>
        <time>2013-09-14T10:21:25Z</time>
      </trkpt>
      <trkpt lat="43.54706" lon="1.45056">
        <ele>294.47500610352</ele>
        <time>2013-09-14T10:21:29Z</time>
      </trkpt>
      <trkpt lat="43.54725" lon="1.45028">
        <ele>298.42499542236</ele>
        <time>2013-09-14T10:21:33Z</time>
      </trkpt>
      <trkpt lat="43.54741" lon="1.44999">
        <ele>291.40000406901</ele>
        <time>2013-09-14T10:21:36Z</time>
      </trkpt>
      <trkpt lat="43.54752" lon="1.44983">
        <ele>288.34999847412</ele>
        <time>2013-09-14T10:21:40Z</time>
      </trkpt>
      <trkpt lat="43.54736" lon="1.4497">
        <ele>287.84999847412</ele>
        <time>2013-09-14T10:21:44Z</time>
      </trkpt>
      <trkpt lat="43.54723" lon="1.4496">
        <ele>286.73332722982</ele>
        <time>2013-09-14T10:21:47Z</time>
      </trkpt>
      <trkpt lat="43.54719" lon="1.44951">
        <ele>283.42499542236</ele>
        <time>2013-09-14T10:21:51Z</time>
      </trkpt>
      <trkpt lat="43.5472" lon="1.44946">
        <ele>283.76666259766</ele>
        <time>2013-09-14T10:21:54Z</time>
      </trkpt>
      <trkpt lat="43.54721" lon="1.4493">
        <ele>283.75</ele>
        <time>2013-09-14T10:21:58Z</time>
      </trkpt>
      <trkpt lat="43.54726" lon="1.44907">
        <ele>283.72499847412</ele>
        <time>2013-09-14T10:22:01Z</time>
      </trkpt>
      <trkpt lat="43.54728" lon="1.44892">
        <ele>283.96666463216</ele>
        <time>2013-09-14T10:22:05Z</time>
      </trkpt>
      <trkpt lat="43.54732" lon="1.4488">
        <ele>284.40000406901</ele>
        <time>2013-09-14T10:22:08Z</time>
      </trkpt>
      <trkpt lat="43.54739" lon="1.44865">
        <ele>284.10000610352</ele>
        <time>2013-09-14T10:22:12Z</time>
      </trkpt>
      <trkpt lat="43.54751" lon="1.44832">
        <ele>284.05999755859</ele>
        <time>2013-09-14T10:22:16Z</time>
      </trkpt>
      <trkpt lat="43.54763" lon="1.44792">
        <ele>283.56666056315</ele>
        <time>2013-09-14T10:22:19Z</time>
      </trkpt>
      <trkpt lat="43.54775" lon="1.44761">
        <ele>283.375</ele>
        <time>2013-09-14T10:22:23Z</time>
      </trkpt>
      <trkpt lat="43.54803" lon="1.447">
        <ele>277.67499542236</ele>
        <time>2013-09-14T10:22:27Z</time>
      </trkpt>
      <trkpt lat="43.5482" lon="1.44651">
        <ele>270.47499847412</ele>
        <time>2013-09-14T10:22:31Z</time>
      </trkpt>
      <trkpt lat="43.54846" lon="1.44605">
        <ele>261.97499847412</ele>
        <time>2013-09-14T10:22:35Z</time>
      </trkpt>
      <trkpt lat="43.54844" lon="1.44578">
        <ele>266.47499084473</ele>
        <time>2013-09-14T10:22:39Z</time>
      </trkpt>
      <trkpt lat="43.54852" lon="1.44554">
        <ele>266.52499389648</ele>
        <time>2013-09-14T10:22:43Z</time>
      </trkpt>
      <trkpt lat="43.54857" lon="1.44531">
        <ele>265.96665445964</ele>
        <time>2013-09-14T10:22:47Z</time>
      </trkpt>
      <trkpt lat="43.54851" lon="1.44514">
        <ele>266.57499694824</ele>
        <time>2013-09-14T10:22:50Z</time>
      </trkpt>
      <trkpt lat="43.54852" lon="1.44497">
        <ele>266.5</ele>
        <time>2013-09-14T10:22:53Z</time>
      </trkpt>
      <trkpt lat="43.54852" lon="1.44489">
        <ele>265.92500305176</ele>
        <time>2013-09-14T10:22:58Z</time>
      </trkpt>
      <trkpt lat="43.54855" lon="1.44485">
        <ele>264.93333943685</ele>
        <time>2013-09-14T10:23:01Z</time>
      </trkpt>
      <trkpt lat="43.54855" lon="1.44483">
        <ele>263.45000457764</ele>
        <time>2013-09-14T10:23:05Z</time>
      </trkpt>
      <trkpt lat="43.54856" lon="1.44482">
        <ele>262.8200012207</ele>
        <time>2013-09-14T10:23:09Z</time>
      </trkpt>
      <trkpt lat="43.54856" lon="1.44477">
        <ele>262.75</ele>
        <time>2013-09-14T10:23:29Z</time>
      </trkpt>
      <trkpt lat="43.54858" lon="1.44475">
        <ele>261.73333740234</ele>
        <time>2013-09-14T10:23:32Z</time>
      </trkpt>
      <trkpt lat="43.54862" lon="1.44471">
        <ele>261.89999389648</ele>
        <time>2013-09-14T10:23:37Z</time>
      </trkpt>
      <trkpt lat="43.54866" lon="1.44466">
        <ele>260.96667480469</ele>
        <time>2013-09-14T10:23:40Z</time>
      </trkpt>
      <trkpt lat="43.54872" lon="1.44458">
        <ele>261.79998779297</ele>
        <time>2013-09-14T10:23:43Z</time>
      </trkpt>
      <trkpt lat="43.54884" lon="1.44445">
        <ele>262.71666971842</ele>
        <time>2013-09-14T10:23:49Z</time>
      </trkpt>
      <trkpt lat="43.54901" lon="1.44435">
        <ele>262.10000610352</ele>
        <time>2013-09-14T10:23:52Z</time>
      </trkpt>
      <trkpt lat="43.54913" lon="1.44426">
        <ele>260.85000610352</ele>
        <time>2013-09-14T10:23:55Z</time>
      </trkpt>
      <trkpt lat="43.54923" lon="1.44415">
        <ele>262.5</ele>
        <time>2013-09-14T10:23:58Z</time>
      </trkpt>
      <trkpt lat="43.5493" lon="1.44404">
        <ele>262.86665852865</ele>
        <time>2013-09-14T10:24:01Z</time>
      </trkpt>
      <trkpt lat="43.54931" lon="1.44387">
        <ele>261.27499389648</ele>
        <time>2013-09-14T10:24:05Z</time>
      </trkpt>
      <trkpt lat="43.54928" lon="1.4437">
        <ele>259.73333740234</ele>
        <time>2013-09-14T10:24:08Z</time>
      </trkpt>
      <trkpt lat="43.54923" lon="1.44359">
        <ele>257.89999389648</ele>
        <time>2013-09-14T10:24:11Z</time>
      </trkpt>
      <trkpt lat="43.54918" lon="1.44348">
        <ele>256.52500534058</ele>
        <time>2013-09-14T10:24:15Z</time>
      </trkpt>
      <trkpt lat="43.54915" lon="1.44336">
        <ele>254.13333638509</ele>
        <time>2013-09-14T10:24:18Z</time>
      </trkpt>
      <trkpt lat="43.54919" lon="1.44327">
        <ele>250.32499694824</ele>
        <time>2013-09-14T10:24:22Z</time>
      </trkpt>
      <trkpt lat="43.54927" lon="1.44319">
        <ele>248.72500228882</ele>
        <time>2013-09-14T10:24:25Z</time>
      </trkpt>
      <trkpt lat="43.54931" lon="1.44312">
        <ele>248.39999389648</ele>
        <time>2013-09-14T10:24:29Z</time>
      </trkpt>
      <trkpt lat="43.54931" lon="1.44304">
        <ele>247.82500076294</ele>
        <time>2013-09-14T10:24:32Z</time>
      </trkpt>
      <trkpt lat="43.54931" lon="1.44296">
        <ele>246.93332926432</ele>
        <time>2013-09-14T10:24:35Z</time>
      </trkpt>
      <trkpt lat="43.54929" lon="1.44285">
        <ele>246.2500038147</ele>
        <time>2013-09-14T10:24:40Z</time>
      </trkpt>
      <trkpt lat="43.54924" lon="1.44273">
        <ele>246.17499923706</ele>
        <time>2013-09-14T10:24:44Z</time>
      </trkpt>
      <trkpt lat="43.5492" lon="1.4426">
        <ele>246.20000076294</ele>
        <time>2013-09-14T10:24:48Z</time>
      </trkpt>
      <trkpt lat="43.54918" lon="1.44249">
        <ele>246.06666564941</ele>
        <time>2013-09-14T10:24:51Z</time>
      </trkpt>
      <trkpt lat="43.54919" lon="1.44237">
        <ele>246.2499961853</ele>
        <time>2013-09-14T10:24:55Z</time>
      </trkpt>
      <trkpt lat="43.54916" lon="1.44219">
        <ele>248.82500076294</ele>
        <time>2013-09-14T10:24:59Z</time>
      </trkpt>
      <trkpt lat="43.54912" lon="1.44211">
        <ele>249.34999465942</ele>
        <time>2013-09-14T10:25:02Z</time>
      </trkpt>
      <trkpt lat="43.54912" lon="1.44208">
        <ele>250.03333028158</ele>
        <time>2013-09-14T10:25:06Z</time>
      </trkpt>
      <trkpt lat="43.54913" lon="1.44206">
        <ele>250.63333638509</ele>
        <time>2013-09-14T10:25:09Z</time>
      </trkpt>
      <trkpt lat="43.54914" lon="1.44206">
        <ele>250.69999694824</ele>
        <time>2013-09-14T10:25:13Z</time>
      </trkpt>
      <trkpt lat="43.54929" lon="1.44198">
        <ele>241.34999847412</ele>
        <time>2013-09-14T10:25:35Z</time>
      </trkpt>
      <trkpt lat="43.54927" lon="1.44213">
        <ele>248.60000610352</ele>
        <time>2013-09-14T10:26:00Z</time>
      </trkpt>
      <trkpt lat="43.54924" lon="1.44209">
        <ele>231.69999694824</ele>
        <time>2013-09-14T10:26:21Z</time>
      </trkpt>
      <trkpt lat="43.54928" lon="1.44195">
        <ele>233.10000610352</ele>
        <time>2013-09-14T10:26:54Z</time>
      </trkpt>
      <trkpt lat="43.54932" lon="1.44192">
        <ele>233.23333231608</ele>
        <time>2013-09-14T10:26:57Z</time>
      </trkpt>
      <trkpt lat="43.5493" lon="1.44192">
        <ele>233.13333129883</ele>
        <time>2013-09-14T10:27:04Z</time>
      </trkpt>
      <trkpt lat="43.54925" lon="1.44192">
        <ele>232.93332926432</ele>
        <time>2013-09-14T10:27:07Z</time>
      </trkpt>
      <trkpt lat="43.54921" lon="1.4419">
        <ele>232.76666768392</ele>
        <time>2013-09-14T10:27:10Z</time>
      </trkpt>
      <trkpt lat="43.5492" lon="1.4419">
        <ele>232.60000610352</ele>
        <time>2013-09-14T10:27:13Z</time>
      </trkpt>
      <trkpt lat="43.54923" lon="1.44193">
        <ele>232.60000610352</ele>
        <time>2013-09-14T10:27:17Z</time>
      </trkpt>
      <trkpt lat="43.54924" lon="1.44194">
        <ele>232.53333536784</ele>
        <time>2013-09-14T10:27:20Z</time>
      </trkpt>
      <trkpt lat="43.54927" lon="1.44197">
        <ele>232.53333536784</ele>
        <time>2013-09-14T10:27:23Z</time>
      </trkpt>
      <trkpt lat="43.54926" lon="1.44198">
        <ele>232.47499847412</ele>
        <time>2013-09-14T10:27:28Z</time>
      </trkpt>
      <trkpt lat="43.54922" lon="1.4419">
        <ele>232.84999847412</ele>
        <time>2013-09-14T10:27:52Z</time>
      </trkpt>
      <trkpt lat="43.54914" lon="1.44168">
        <ele>231.67500305176</ele>
        <time>2013-09-14T10:27:55Z</time>
      </trkpt>
      <trkpt lat="43.54909" lon="1.44146">
        <ele>229.3750038147</ele>
        <time>2013-09-14T10:27:59Z</time>
      </trkpt>
      <trkpt lat="43.54905" lon="1.44128">
        <ele>228.33333333333</ele>
        <time>2013-09-14T10:28:02Z</time>
      </trkpt>
      <trkpt lat="43.54905" lon="1.44116">
        <ele>226.40000152588</ele>
        <time>2013-09-14T10:28:05Z</time>
      </trkpt>
      <trkpt lat="43.54908" lon="1.44103">
        <ele>227.625</ele>
        <time>2013-09-14T10:28:08Z</time>
      </trkpt>
      <trkpt lat="43.54915" lon="1.44089">
        <ele>208.96666971842</ele>
        <time>2013-09-14T10:28:11Z</time>
      </trkpt>
      <trkpt lat="43.54923" lon="1.44089">
        <ele>204.2499961853</ele>
        <time>2013-09-14T10:28:16Z</time>
      </trkpt>
      <trkpt lat="43.54927" lon="1.44098">
        <ele>203.85000228882</ele>
        <time>2013-09-14T10:28:19Z</time>
      </trkpt>
      <trkpt lat="43.5493" lon="1.44109">
        <ele>205.70000203451</ele>
        <time>2013-09-14T10:28:22Z</time>
      </trkpt>
      <trkpt lat="43.54932" lon="1.44119">
        <ele>206.5</ele>
        <time>2013-09-14T10:28:26Z</time>
      </trkpt>
      <trkpt lat="43.54931" lon="1.44128">
        <ele>206.92499923706</ele>
        <time>2013-09-14T10:28:30Z</time>
      </trkpt>
      <trkpt lat="43.54931" lon="1.44133">
        <ele>208.70000203451</ele>
        <time>2013-09-14T10:28:33Z</time>
      </trkpt>
      <trkpt lat="43.5493" lon="1.44135">
        <ele>209.02500152588</ele>
        <time>2013-09-14T10:28:37Z</time>
      </trkpt>
      <trkpt lat="43.5493" lon="1.44135">
        <ele>209.94999694824</ele>
        <time>2013-09-14T10:28:41Z</time>
      </trkpt>
      <trkpt lat="43.5493" lon="1.44136">
        <ele>209.5000038147</ele>
        <time>2013-09-14T10:28:45Z</time>
      </trkpt>
      <trkpt lat="43.54931" lon="1.44137">
        <ele>209.30000305176</ele>
        <time>2013-09-14T10:28:48Z</time>
      </trkpt>
      <trkpt lat="43.54932" lon="1.44138">
        <ele>209.39999389648</ele>
        <time>2013-09-14T10:28:52Z</time>
      </trkpt>
      <trkpt lat="43.54932" lon="1.44138">
        <ele>209.39999389648</ele>
        <time>2013-09-14T10:28:55Z</time>
      </trkpt>
      <trkpt lat="43.54932" lon="1.44138">
        <ele>209.39999389648</ele>
        <time>2013-09-14T10:28:58Z</time>
      </trkpt>
      <trkpt lat="43.54935" lon="1.44141">
        <ele>209.22500228882</ele>
        <time>2013-09-14T10:29:02Z</time>
      </trkpt>
      <trkpt lat="43.54946" lon="1.44159">
        <ele>208.6250038147</ele>
        <time>2013-09-14T10:29:06Z</time>
      </trkpt>
      <trkpt lat="43.54957" lon="1.44175">
        <ele>208.56667073568</ele>
        <time>2013-09-14T10:29:09Z</time>
      </trkpt>
      <trkpt lat="43.55033" lon="1.44309">
        <ele>216.5</ele>
        <time>2013-09-14T10:30:18Z</time>
      </trkpt>
      <trkpt lat="43.55049" lon="1.44309">
        <ele>216.09999847412</ele>
        <time>2013-09-14T10:30:28Z</time>
      </trkpt>
      <trkpt lat="43.55057" lon="1.44336">
        <ele>216.30000305176</ele>
        <time>2013-09-14T10:30:47Z</time>
      </trkpt>
      <trkpt lat="43.55051" lon="1.44364">
        <ele>216.10000610352</ele>
        <time>2013-09-14T10:31:11Z</time>
      </trkpt>
      <trkpt lat="43.55051" lon="1.44364">
        <ele>216.10000610352</ele>
        <time>2013-09-14T10:31:15Z</time>
      </trkpt>
      <trkpt lat="43.55051" lon="1.44364">
        <ele>216.10000610352</ele>
        <time>2013-09-14T10:31:18Z</time>
      </trkpt>
      <trkpt lat="43.55048" lon="1.44366">
        <ele>216.19999694824</ele>
        <time>2013-09-14T10:31:22Z</time>
      </trkpt>
      <trkpt lat="43.55048" lon="1.44366">
        <ele>216.19999694824</ele>
        <time>2013-09-14T10:31:25Z</time>
      </trkpt>
      <trkpt lat="43.55051" lon="1.44377">
        <ele>216.47500228882</ele>
        <time>2013-09-14T10:31:29Z</time>
      </trkpt>
      <trkpt lat="43.55063" lon="1.44414">
        <ele>216.875</ele>
        <time>2013-09-14T10:31:33Z</time>
      </trkpt>
      <trkpt lat="43.55066" lon="1.44435">
        <ele>217.16666666667</ele>
        <time>2013-09-14T10:31:36Z</time>
      </trkpt>
      <trkpt lat="43.55065" lon="1.4445">
        <ele>218.625</ele>
        <time>2013-09-14T10:31:40Z</time>
      </trkpt>
      <trkpt lat="43.55063" lon="1.44461">
        <ele>221.16667175293</ele>
        <time>2013-09-14T10:31:43Z</time>
      </trkpt>
      <trkpt lat="43.55062" lon="1.44472">
        <ele>222.44999694824</ele>
        <time>2013-09-14T10:31:47Z</time>
      </trkpt>
      <trkpt lat="43.55059" lon="1.44482">
        <ele>223.53333536784</ele>
        <time>2013-09-14T10:31:51Z</time>
      </trkpt>
      <trkpt lat="43.55057" lon="1.44491">
        <ele>223.63333638509</ele>
        <time>2013-09-14T10:31:54Z</time>
      </trkpt>
      <trkpt lat="43.55058" lon="1.44498">
        <ele>224.94999694824</ele>
        <time>2013-09-14T10:31:57Z</time>
      </trkpt>
      <trkpt lat="43.55058" lon="1.44507">
        <ele>227.39999898275</ele>
        <time>2013-09-14T10:32:00Z</time>
      </trkpt>
      <trkpt lat="43.55057" lon="1.44514">
        <ele>231.03333536784</ele>
        <time>2013-09-14T10:32:03Z</time>
      </trkpt>
      <trkpt lat="43.55057" lon="1.44521">
        <ele>233.19999694824</ele>
        <time>2013-09-14T10:32:06Z</time>
      </trkpt>
      <trkpt lat="43.55058" lon="1.4453">
        <ele>235.875</ele>
        <time>2013-09-14T10:32:10Z</time>
      </trkpt>
      <trkpt lat="43.55058" lon="1.4454">
        <ele>236.82500457764</ele>
        <time>2013-09-14T10:32:14Z</time>
      </trkpt>
      <trkpt lat="43.55057" lon="1.44547">
        <ele>240.39999898275</ele>
        <time>2013-09-14T10:32:17Z</time>
      </trkpt>
      <trkpt lat="43.55055" lon="1.44554">
        <ele>242.95000076294</ele>
        <time>2013-09-14T10:32:21Z</time>
      </trkpt>
      <trkpt lat="43.55055" lon="1.44562">
        <ele>246.43332926432</ele>
        <time>2013-09-14T10:32:24Z</time>
      </trkpt>
      <trkpt lat="43.55056" lon="1.4457">
        <ele>250.13333129883</ele>
        <time>2013-09-14T10:32:27Z</time>
      </trkpt>
      <trkpt lat="43.55055" lon="1.44578">
        <ele>250.93333435059</ele>
        <time>2013-09-14T10:32:31Z</time>
      </trkpt>
      <trkpt lat="43.55053" lon="1.44584">
        <ele>250.6200012207</ele>
        <time>2013-09-14T10:32:35Z</time>
      </trkpt>
      <trkpt lat="43.55054" lon="1.44592">
        <ele>251.19999694824</ele>
        <time>2013-09-14T10:32:39Z</time>
      </trkpt>
      <trkpt lat="43.55054" lon="1.44602">
        <ele>251.5</ele>
        <time>2013-09-14T10:32:43Z</time>
      </trkpt>
      <trkpt lat="43.55053" lon="1.44611">
        <ele>254.43333435059</ele>
        <time>2013-09-14T10:32:46Z</time>
      </trkpt>
      <trkpt lat="43.55052" lon="1.4462">
        <ele>261.92499542236</ele>
        <time>2013-09-14T10:32:50Z</time>
      </trkpt>
      <trkpt lat="43.55051" lon="1.44631">
        <ele>266.65000152588</ele>
        <time>2013-09-14T10:32:54Z</time>
      </trkpt>
      <trkpt lat="43.5505" lon="1.4464">
        <ele>267.92499542236</ele>
        <time>2013-09-14T10:32:58Z</time>
      </trkpt>
      <trkpt lat="43.55049" lon="1.44649">
        <ele>270.82499694824</ele>
        <time>2013-09-14T10:33:02Z</time>
      </trkpt>
      <trkpt lat="43.55049" lon="1.44659">
        <ele>272.05000305176</ele>
        <time>2013-09-14T10:33:05Z</time>
      </trkpt>
      <trkpt lat="43.55049" lon="1.44665">
        <ele>272.69999694824</ele>
        <time>2013-09-14T10:33:09Z</time>
      </trkpt>
      <trkpt lat="43.55047" lon="1.44672">
        <ele>273.875</ele>
        <time>2013-09-14T10:33:13Z</time>
      </trkpt>
      <trkpt lat="43.55045" lon="1.44679">
        <ele>274.1799987793</ele>
        <time>2013-09-14T10:33:17Z</time>
      </trkpt>
      <trkpt lat="43.55045" lon="1.44686">
        <ele>274.59999847412</ele>
        <time>2013-09-14T10:33:21Z</time>
      </trkpt>
      <trkpt lat="43.55045" lon="1.44692">
        <ele>274.93332926432</ele>
        <time>2013-09-14T10:33:24Z</time>
      </trkpt>
      <trkpt lat="43.55046" lon="1.44699">
        <ele>274.22499847412</ele>
        <time>2013-09-14T10:33:28Z</time>
      </trkpt>
      <trkpt lat="43.55047" lon="1.44703">
        <ele>272.52500152588</ele>
        <time>2013-09-14T10:33:32Z</time>
      </trkpt>
      <trkpt lat="43.55049" lon="1.44705">
        <ele>272.5</ele>
        <time>2013-09-14T10:33:35Z</time>
      </trkpt>
      <trkpt lat="43.55052" lon="1.44701">
        <ele>271.94999694824</ele>
        <time>2013-09-14T10:33:39Z</time>
      </trkpt>
      <trkpt lat="43.55055" lon="1.44696">
        <ele>270.93333943685</ele>
        <time>2013-09-14T10:33:42Z</time>
      </trkpt>
      <trkpt lat="43.55055" lon="1.44695">
        <ele>272.27499389648</ele>
        <time>2013-09-14T10:33:46Z</time>
      </trkpt>
      <trkpt lat="43.55052" lon="1.44698">
        <ele>273.125</ele>
        <time>2013-09-14T10:33:49Z</time>
      </trkpt>
      <trkpt lat="43.55052" lon="1.44698">
        <ele>272.90000152588</ele>
        <time>2013-09-14T10:33:54Z</time>
      </trkpt>
      <trkpt lat="43.55052" lon="1.44698">
        <ele>272.79998779297</ele>
        <time>2013-09-14T10:33:57Z</time>
      </trkpt>
      <trkpt lat="43.55052" lon="1.44698">
        <ele>272.89999389648</ele>
        <time>2013-09-14T10:34:01Z</time>
      </trkpt>
      <trkpt lat="43.55052" lon="1.44698">
        <ele>273</ele>
        <time>2013-09-14T10:34:04Z</time>
      </trkpt>
      <trkpt lat="43.55052" lon="1.44698">
        <ele>273</ele>
        <time>2013-09-14T10:34:07Z</time>
      </trkpt>
      <trkpt lat="43.55052" lon="1.44698">
        <ele>273</ele>
        <time>2013-09-14T10:34:10Z</time>
      </trkpt>
      <trkpt lat="43.55052" lon="1.44698">
        <ele>272.93999633789</ele>
        <time>2013-09-14T10:34:13Z</time>
      </trkpt>
      <trkpt lat="43.55052" lon="1.44698">
        <ele>272.89999389648</ele>
        <time>2013-09-14T10:34:16Z</time>
      </trkpt>
      <trkpt lat="43.55052" lon="1.44698">
        <ele>272.89999389648</ele>
        <time>2013-09-14T10:34:19Z</time>
      </trkpt>
      <trkpt lat="43.55052" lon="1.44698">
        <ele>272.94999694824</ele>
        <time>2013-09-14T10:34:23Z</time>
      </trkpt>
      <trkpt lat="43.55052" lon="1.44698">
        <ele>273</ele>
        <time>2013-09-14T10:34:26Z</time>
      </trkpt>
      <trkpt lat="43.55051" lon="1.44698">
        <ele>273</ele>
        <time>2013-09-14T10:34:29Z</time>
      </trkpt>
      <trkpt lat="43.55049" lon="1.44698">
        <ele>272.45000457764</ele>
        <time>2013-09-14T10:34:32Z</time>
      </trkpt>
      <trkpt lat="43.5505" lon="1.44698">
        <ele>272.14999389648</ele>
        <time>2013-09-14T10:34:36Z</time>
      </trkpt>
      <trkpt lat="43.55051" lon="1.44698">
        <ele>272.22499847412</ele>
        <time>2013-09-14T10:34:41Z</time>
      </trkpt>
      <trkpt lat="43.5505" lon="1.44699">
        <ele>271.46666463216</ele>
        <time>2013-09-14T10:34:44Z</time>
      </trkpt>
      <trkpt lat="43.5505" lon="1.44699">
        <ele>271.46666463216</ele>
        <time>2013-09-14T10:34:47Z</time>
      </trkpt>
      <trkpt lat="43.5505" lon="1.44699">
        <ele>271.5</ele>
        <time>2013-09-14T10:34:50Z</time>
      </trkpt>
      <trkpt lat="43.5505" lon="1.44699">
        <ele>271.5</ele>
        <time>2013-09-14T10:34:53Z</time>
      </trkpt>
      <trkpt lat="43.5505" lon="1.44699">
        <ele>271.5</ele>
        <time>2013-09-14T10:34:57Z</time>
      </trkpt>
      <trkpt lat="43.5505" lon="1.44699">
        <ele>271.5</ele>
        <time>2013-09-14T10:35:00Z</time>
      </trkpt>
      <trkpt lat="43.5505" lon="1.44699">
        <ele>271.34999084473</ele>
        <time>2013-09-14T10:35:05Z</time>
      </trkpt>
      <trkpt lat="43.5505" lon="1.44699">
        <ele>271.29998779297</ele>
        <time>2013-09-14T10:35:08Z</time>
      </trkpt>
      <trkpt lat="43.5505" lon="1.44699">
        <ele>271.33332316081</ele>
        <time>2013-09-14T10:35:12Z</time>
      </trkpt>
      <trkpt lat="43.55051" lon="1.44698">
        <ele>271.14000244141</ele>
        <time>2013-09-14T10:35:17Z</time>
      </trkpt>
      <trkpt lat="43.55053" lon="1.4469">
        <ele>272.35999755859</ele>
        <time>2013-09-14T10:35:20Z</time>
      </trkpt>
      <trkpt lat="43.55055" lon="1.4468">
        <ele>272.30000305176</ele>
        <time>2013-09-14T10:35:23Z</time>
      </trkpt>
      <trkpt lat="43.55059" lon="1.44671">
        <ele>272.70000203451</ele>
        <time>2013-09-14T10:35:27Z</time>
      </trkpt>
      <trkpt lat="43.55066" lon="1.4466">
        <ele>272.17500305176</ele>
        <time>2013-09-14T10:35:31Z</time>
      </trkpt>
      <trkpt lat="43.55073" lon="1.44645">
        <ele>271.5799987793</ele>
        <time>2013-09-14T10:35:36Z</time>
      </trkpt>
      <trkpt lat="43.55076" lon="1.44628">
        <ele>271.54999542236</ele>
        <time>2013-09-14T10:35:41Z</time>
      </trkpt>
      <trkpt lat="43.5508" lon="1.44621">
        <ele>272.5200012207</ele>
        <time>2013-09-14T10:35:45Z</time>
      </trkpt>
      <trkpt lat="43.5509" lon="1.44628">
        <ele>272.55000305176</ele>
        <time>2013-09-14T10:35:49Z</time>
      </trkpt>
      <trkpt lat="43.55106" lon="1.44636">
        <ele>272.46000366211</ele>
        <time>2013-09-14T10:35:55Z</time>
      </trkpt>
      <trkpt lat="43.55127" lon="1.44641">
        <ele>271.55999755859</ele>
        <time>2013-09-14T10:35:58Z</time>
      </trkpt>
      <trkpt lat="43.55146" lon="1.44644">
        <ele>272.27500152588</ele>
        <time>2013-09-14T10:36:04Z</time>
      </trkpt>
      <trkpt lat="43.55163" lon="1.44646">
        <ele>271.95999755859</ele>
        <time>2013-09-14T10:36:07Z</time>
      </trkpt>
      <trkpt lat="43.55181" lon="1.4465">
        <ele>270.29999542236</ele>
        <time>2013-09-14T10:36:12Z</time>
      </trkpt>
      <trkpt lat="43.55196" lon="1.44655">
        <ele>270.84999847412</ele>
        <time>2013-09-14T10:36:16Z</time>
      </trkpt>
      <trkpt lat="43.55208" lon="1.44657">
        <ele>270.20000203451</ele>
        <time>2013-09-14T10:36:19Z</time>
      </trkpt>
      <trkpt lat="43.55219" lon="1.44659">
        <ele>270.95000457764</ele>
        <time>2013-09-14T10:36:23Z</time>
      </trkpt>
      <trkpt lat="43.55229" lon="1.44663">
        <ele>272.97499847412</ele>
        <time>2013-09-14T10:36:27Z</time>
      </trkpt>
      <trkpt lat="43.55236" lon="1.4467">
        <ele>272.96666463216</ele>
        <time>2013-09-14T10:36:30Z</time>
      </trkpt>
      <trkpt lat="43.55241" lon="1.44682">
        <ele>273.17999267578</ele>
        <time>2013-09-14T10:36:34Z</time>
      </trkpt>
      <trkpt lat="43.55242" lon="1.44698">
        <ele>272.96666463216</ele>
        <time>2013-09-14T10:36:37Z</time>
      </trkpt>
      <trkpt lat="43.55243" lon="1.4471">
        <ele>273.57499694824</ele>
        <time>2013-09-14T10:36:42Z</time>
      </trkpt>
      <trkpt lat="43.55244" lon="1.44724">
        <ele>273.09999593099</ele>
        <time>2013-09-14T10:36:45Z</time>
      </trkpt>
      <trkpt lat="43.55241" lon="1.44741">
        <ele>273.85000610352</ele>
        <time>2013-09-14T10:36:49Z</time>
      </trkpt>
      <trkpt lat="43.55237" lon="1.44758">
        <ele>274.44999694824</ele>
        <time>2013-09-14T10:36:53Z</time>
      </trkpt>
      <trkpt lat="43.55234" lon="1.44776">
        <ele>273.95000457764</ele>
        <time>2013-09-14T10:36:57Z</time>
      </trkpt>
      <trkpt lat="43.55232" lon="1.44796">
        <ele>274.27499389648</ele>
        <time>2013-09-14T10:37:01Z</time>
      </trkpt>
      <trkpt lat="43.55231" lon="1.44816">
        <ele>274.02499389648</ele>
        <time>2013-09-14T10:37:04Z</time>
      </trkpt>
      <trkpt lat="43.5523" lon="1.44834">
        <ele>274.02499389648</ele>
        <time>2013-09-14T10:37:08Z</time>
      </trkpt>
      <trkpt lat="43.55239" lon="1.44855">
        <ele>274.36666870117</ele>
        <time>2013-09-14T10:37:11Z</time>
      </trkpt>
      <trkpt lat="43.55246" lon="1.44873">
        <ele>274.39999389648</ele>
        <time>2013-09-14T10:37:14Z</time>
      </trkpt>
      <trkpt lat="43.55253" lon="1.44893">
        <ele>274.30000813802</ele>
        <time>2013-09-14T10:37:17Z</time>
      </trkpt>
      <trkpt lat="43.55265" lon="1.44914">
        <ele>273.73333740234</ele>
        <time>2013-09-14T10:37:20Z</time>
      </trkpt>
      <trkpt lat="43.55281" lon="1.44939">
        <ele>274.17500305176</ele>
        <time>2013-09-14T10:37:24Z</time>
      </trkpt>
      <trkpt lat="43.55295" lon="1.44969">
        <ele>273.06666056315</ele>
        <time>2013-09-14T10:37:28Z</time>
      </trkpt>
      <trkpt lat="43.55299" lon="1.44994">
        <ele>270.54000244141</ele>
        <time>2013-09-14T10:37:32Z</time>
      </trkpt>
      <trkpt lat="43.55299" lon="1.45007">
        <ele>269.16666666667</ele>
        <time>2013-09-14T10:37:35Z</time>
      </trkpt>
      <trkpt lat="43.55304" lon="1.45014">
        <ele>268.52499389648</ele>
        <time>2013-09-14T10:37:39Z</time>
      </trkpt>
      <trkpt lat="43.55314" lon="1.45017">
        <ele>264.875</ele>
        <time>2013-09-14T10:37:42Z</time>
      </trkpt>
      <trkpt lat="43.55324" lon="1.45014">
        <ele>263.20000457764</ele>
        <time>2013-09-14T10:37:46Z</time>
      </trkpt>
      <trkpt lat="43.55332" lon="1.45014">
        <ele>261.90000152588</ele>
        <time>2013-09-14T10:37:51Z</time>
      </trkpt>
      <trkpt lat="43.55342" lon="1.45016">
        <ele>260.84999847412</ele>
        <time>2013-09-14T10:37:54Z</time>
      </trkpt>
      <trkpt lat="43.55349" lon="1.45019">
        <ele>262.89999389648</ele>
        <time>2013-09-14T10:37:57Z</time>
      </trkpt>
      <trkpt lat="43.55353" lon="1.45023">
        <ele>264.43332926432</ele>
        <time>2013-09-14T10:38:01Z</time>
      </trkpt>
      <trkpt lat="43.55357" lon="1.45028">
        <ele>266.32499694824</ele>
        <time>2013-09-14T10:38:05Z</time>
      </trkpt>
      <trkpt lat="43.55361" lon="1.45031">
        <ele>266.83333333333</ele>
        <time>2013-09-14T10:38:08Z</time>
      </trkpt>
      <trkpt lat="43.55364" lon="1.45033">
        <ele>267.53333536784</ele>
        <time>2013-09-14T10:38:11Z</time>
      </trkpt>
      <trkpt lat="43.5537" lon="1.45039">
        <ele>268.29999542236</ele>
        <time>2013-09-14T10:38:16Z</time>
      </trkpt>
      <trkpt lat="43.55378" lon="1.45047">
        <ele>269.22499847412</ele>
        <time>2013-09-14T10:38:20Z</time>
      </trkpt>
      <trkpt lat="43.55386" lon="1.45054">
        <ele>269.97500610352</ele>
        <time>2013-09-14T10:38:23Z</time>
      </trkpt>
      <trkpt lat="43.55393" lon="1.45056">
        <ele>270.13333129883</ele>
        <time>2013-09-14T10:38:28Z</time>
      </trkpt>
      <trkpt lat="43.55402" lon="1.45052">
        <ele>272.86666870117</ele>
        <time>2013-09-14T10:38:33Z</time>
      </trkpt>
      <trkpt lat="43.55411" lon="1.45045">
        <ele>274.46666463216</ele>
        <time>2013-09-14T10:38:37Z</time>
      </trkpt>
      <trkpt lat="43.5542" lon="1.4504">
        <ele>275.56666564941</ele>
        <time>2013-09-14T10:38:42Z</time>
      </trkpt>
      <trkpt lat="43.55428" lon="1.45033">
        <ele>278</ele>
        <time>2013-09-14T10:38:45Z</time>
      </trkpt>
      <trkpt lat="43.55435" lon="1.45028">
        <ele>278.72499847412</ele>
        <time>2013-09-14T10:38:49Z</time>
      </trkpt>
      <trkpt lat="43.55442" lon="1.45023">
        <ele>279.64999389648</ele>
        <time>2013-09-14T10:38:53Z</time>
      </trkpt>
      <trkpt lat="43.55447" lon="1.45017">
        <ele>280.83334350586</ele>
        <time>2013-09-14T10:38:57Z</time>
      </trkpt>
      <trkpt lat="43.55452" lon="1.45011">
        <ele>281.11667378743</ele>
        <time>2013-09-14T10:39:03Z</time>
      </trkpt>
      <trkpt lat="43.55457" lon="1.45004">
        <ele>281.19999389648</ele>
        <time>2013-09-14T10:39:07Z</time>
      </trkpt>
      <trkpt lat="43.55461" lon="1.45">
        <ele>281.625</ele>
        <time>2013-09-14T10:39:11Z</time>
      </trkpt>
      <trkpt lat="43.55468" lon="1.44996">
        <ele>282.2200012207</ele>
        <time>2013-09-14T10:39:14Z</time>
      </trkpt>
      <trkpt lat="43.55474" lon="1.44993">
        <ele>283.55000305176</ele>
        <time>2013-09-14T10:39:18Z</time>
      </trkpt>
      <trkpt lat="43.55478" lon="1.44991">
        <ele>283.86666870117</ele>
        <time>2013-09-14T10:39:21Z</time>
      </trkpt>
      <trkpt lat="43.55485" lon="1.44987">
        <ele>284.44999694824</ele>
        <time>2013-09-14T10:39:24Z</time>
      </trkpt>
      <trkpt lat="43.5549" lon="1.44984">
        <ele>286.13334147135</ele>
        <time>2013-09-14T10:39:27Z</time>
      </trkpt>
      <trkpt lat="43.55493" lon="1.44985">
        <ele>287.19999694824</ele>
        <time>2013-09-14T10:39:31Z</time>
      </trkpt>
      <trkpt lat="43.55495" lon="1.44986">
        <ele>287.7200012207</ele>
        <time>2013-09-14T10:39:35Z</time>
      </trkpt>
      <trkpt lat="43.55499" lon="1.44989">
        <ele>286.77500152588</ele>
        <time>2013-09-14T10:39:38Z</time>
      </trkpt>
      <trkpt lat="43.55503" lon="1.44991">
        <ele>286.56666056315</ele>
        <time>2013-09-14T10:39:41Z</time>
      </trkpt>
      <trkpt lat="43.55507" lon="1.44994">
        <ele>286.82500457764</ele>
        <time>2013-09-14T10:39:45Z</time>
      </trkpt>
      <trkpt lat="43.55514" lon="1.44998">
        <ele>287.75000762939</ele>
        <time>2013-09-14T10:39:49Z</time>
      </trkpt>
      <trkpt lat="43.5552" lon="1.45001">
        <ele>288.15000915527</ele>
        <time>2013-09-14T10:39:52Z</time>
      </trkpt>
      <trkpt lat="43.55525" lon="1.45006">
        <ele>288.46666463216</ele>
        <time>2013-09-14T10:39:55Z</time>
      </trkpt>
      <trkpt lat="43.55533" lon="1.4501">
        <ele>291.16666666667</ele>
        <time>2013-09-14T10:39:59Z</time>
      </trkpt>
      <trkpt lat="43.55543" lon="1.45014">
        <ele>294.11665852865</ele>
        <time>2013-09-14T10:40:04Z</time>
      </trkpt>
      <trkpt lat="43.55552" lon="1.45016">
        <ele>294.46667480469</ele>
        <time>2013-09-14T10:40:07Z</time>
      </trkpt>
      <trkpt lat="43.5556" lon="1.45017">
        <ele>294.52499389648</ele>
        <time>2013-09-14T10:40:11Z</time>
      </trkpt>
      <trkpt lat="43.55567" lon="1.4502">
        <ele>295.94999694824</ele>
        <time>2013-09-14T10:40:14Z</time>
      </trkpt>
      <trkpt lat="43.55575" lon="1.45021">
        <ele>296.99998982747</ele>
        <time>2013-09-14T10:40:18Z</time>
      </trkpt>
      <trkpt lat="43.55582" lon="1.45022">
        <ele>297.19999694824</ele>
        <time>2013-09-14T10:40:22Z</time>
      </trkpt>
      <trkpt lat="43.55588" lon="1.45021">
        <ele>299.16666666667</ele>
        <time>2013-09-14T10:40:25Z</time>
      </trkpt>
      <trkpt lat="43.55593" lon="1.45019">
        <ele>299.79999796549</ele>
        <time>2013-09-14T10:40:28Z</time>
      </trkpt>
      <trkpt lat="43.55599" lon="1.45016">
        <ele>300.09999847412</ele>
        <time>2013-09-14T10:40:31Z</time>
      </trkpt>
      <trkpt lat="43.55606" lon="1.45015">
        <ele>300.89999389648</ele>
        <time>2013-09-14T10:40:35Z</time>
      </trkpt>
      <trkpt lat="43.55613" lon="1.45013">
        <ele>301.02500152588</ele>
        <time>2013-09-14T10:40:38Z</time>
      </trkpt>
      <trkpt lat="43.55621" lon="1.45011">
        <ele>302.26666259766</ele>
        <time>2013-09-14T10:40:42Z</time>
      </trkpt>
      <trkpt lat="43.55628" lon="1.45008">
        <ele>302.80000305176</ele>
        <time>2013-09-14T10:40:46Z</time>
      </trkpt>
      <trkpt lat="43.55638" lon="1.45001">
        <ele>302.27500152588</ele>
        <time>2013-09-14T10:40:50Z</time>
      </trkpt>
      <trkpt lat="43.55643" lon="1.44995">
        <ele>300.63333129883</ele>
        <time>2013-09-14T10:40:53Z</time>
      </trkpt>
      <trkpt lat="43.55647" lon="1.44987">
        <ele>298.62499237061</ele>
        <time>2013-09-14T10:40:57Z</time>
      </trkpt>
      <trkpt lat="43.5565" lon="1.44982">
        <ele>300.26666259766</ele>
        <time>2013-09-14T10:41:00Z</time>
      </trkpt>
      <trkpt lat="43.55653" lon="1.44977">
        <ele>302.05001068115</ele>
        <time>2013-09-14T10:41:03Z</time>
      </trkpt>
      <trkpt lat="43.55655" lon="1.44971">
        <ele>301.86666870117</ele>
        <time>2013-09-14T10:41:06Z</time>
      </trkpt>
      <trkpt lat="43.55658" lon="1.44964">
        <ele>302.76667277018</ele>
        <time>2013-09-14T10:41:10Z</time>
      </trkpt>
      <trkpt lat="43.55661" lon="1.44958">
        <ele>303.72499847412</ele>
        <time>2013-09-14T10:41:14Z</time>
      </trkpt>
      <trkpt lat="43.55665" lon="1.44951">
        <ele>302.23332722982</ele>
        <time>2013-09-14T10:41:17Z</time>
      </trkpt>
      <trkpt lat="43.55668" lon="1.44945">
        <ele>302.45000457764</ele>
        <time>2013-09-14T10:41:21Z</time>
      </trkpt>
      <trkpt lat="43.5567" lon="1.44941">
        <ele>303.13333129883</ele>
        <time>2013-09-14T10:41:24Z</time>
      </trkpt>
      <trkpt lat="43.55671" lon="1.44937">
        <ele>303.83333333333</ele>
        <time>2013-09-14T10:41:27Z</time>
      </trkpt>
      <trkpt lat="43.55675" lon="1.44927">
        <ele>305.26000366211</ele>
        <time>2013-09-14T10:41:32Z</time>
      </trkpt>
      <trkpt lat="43.55683" lon="1.44914">
        <ele>306.36665852865</ele>
        <time>2013-09-14T10:41:37Z</time>
      </trkpt>
      <trkpt lat="43.55691" lon="1.44902">
        <ele>303.625</ele>
        <time>2013-09-14T10:41:41Z</time>
      </trkpt>
      <trkpt lat="43.55699" lon="1.44892">
        <ele>303.66667683919</ele>
        <time>2013-09-14T10:41:44Z</time>
      </trkpt>
      <trkpt lat="43.55707" lon="1.44884">
        <ele>304.07499694824</ele>
        <time>2013-09-14T10:41:47Z</time>
      </trkpt>
      <trkpt lat="43.55716" lon="1.44878">
        <ele>303.63333129883</ele>
        <time>2013-09-14T10:41:51Z</time>
      </trkpt>
      <trkpt lat="43.55726" lon="1.44874">
        <ele>303.05999755859</ele>
        <time>2013-09-14T10:41:55Z</time>
      </trkpt>
      <trkpt lat="43.55739" lon="1.44873">
        <ele>303.47500610352</ele>
        <time>2013-09-14T10:41:59Z</time>
      </trkpt>
      <trkpt lat="43.5575" lon="1.44877">
        <ele>304.125</ele>
        <time>2013-09-14T10:42:03Z</time>
      </trkpt>
      <trkpt lat="43.55762" lon="1.44885">
        <ele>303.27499389648</ele>
        <time>2013-09-14T10:42:07Z</time>
      </trkpt>
      <trkpt lat="43.55773" lon="1.4489">
        <ele>302.96666463216</ele>
        <time>2013-09-14T10:42:10Z</time>
      </trkpt>
      <trkpt lat="43.55786" lon="1.44891">
        <ele>302.97499847412</ele>
        <time>2013-09-14T10:42:14Z</time>
      </trkpt>
      <trkpt lat="43.55798" lon="1.44889">
        <ele>304.90000406901</ele>
        <time>2013-09-14T10:42:18Z</time>
      </trkpt>
      <trkpt lat="43.5581" lon="1.44886">
        <ele>307.0799987793</ele>
        <time>2013-09-14T10:42:22Z</time>
      </trkpt>
      <trkpt lat="43.55819" lon="1.44885">
        <ele>308.06666056315</ele>
        <time>2013-09-14T10:42:25Z</time>
      </trkpt>
      <trkpt lat="43.55822" lon="1.44879">
        <ele>307.33333333333</ele>
        <time>2013-09-14T10:42:28Z</time>
      </trkpt>
      <trkpt lat="43.55826" lon="1.44871">
        <ele>308.63333129883</ele>
        <time>2013-09-14T10:42:31Z</time>
      </trkpt>
      <trkpt lat="43.55831" lon="1.44862">
        <ele>310.52500152588</ele>
        <time>2013-09-14T10:42:35Z</time>
      </trkpt>
      <trkpt lat="43.55834" lon="1.44849">
        <ele>310.83334350586</ele>
        <time>2013-09-14T10:42:39Z</time>
      </trkpt>
      <trkpt lat="43.55837" lon="1.44836">
        <ele>311.75</ele>
        <time>2013-09-14T10:42:42Z</time>
      </trkpt>
      <trkpt lat="43.55839" lon="1.44824">
        <ele>313.03332519531</ele>
        <time>2013-09-14T10:42:46Z</time>
      </trkpt>
      <trkpt lat="43.55842" lon="1.44811">
        <ele>314</ele>
        <time>2013-09-14T10:42:50Z</time>
      </trkpt>
      <trkpt lat="43.55845" lon="1.44797">
        <ele>316.02500152588</ele>
        <time>2013-09-14T10:42:53Z</time>
      </trkpt>
      <trkpt lat="43.55848" lon="1.44782">
        <ele>316.56667073568</ele>
        <time>2013-09-14T10:42:56Z</time>
      </trkpt>
      <trkpt lat="43.55851" lon="1.44773">
        <ele>315.5</ele>
        <time>2013-09-14T10:42:59Z</time>
      </trkpt>
      <trkpt lat="43.55858" lon="1.44761">
        <ele>312.80000610352</ele>
        <time>2013-09-14T10:43:02Z</time>
      </trkpt>
      <trkpt lat="43.55876" lon="1.44745">
        <ele>312.14999389648</ele>
        <time>2013-09-14T10:43:06Z</time>
      </trkpt>
      <trkpt lat="43.55889" lon="1.44731">
        <ele>312.83334350586</ele>
        <time>2013-09-14T10:43:09Z</time>
      </trkpt>
      <trkpt lat="43.559" lon="1.44719">
        <ele>313.33333333333</ele>
        <time>2013-09-14T10:43:13Z</time>
      </trkpt>
      <trkpt lat="43.55909" lon="1.44706">
        <ele>314.64999389648</ele>
        <time>2013-09-14T10:43:17Z</time>
      </trkpt>
      <trkpt lat="43.55914" lon="1.44694">
        <ele>315.73333740234</ele>
        <time>2013-09-14T10:43:20Z</time>
      </trkpt>
      <trkpt lat="43.55913" lon="1.44682">
        <ele>317.36666870117</ele>
        <time>2013-09-14T10:43:23Z</time>
      </trkpt>
      <trkpt lat="43.55911" lon="1.44668">
        <ele>316.29999542236</ele>
        <time>2013-09-14T10:43:27Z</time>
      </trkpt>
      <trkpt lat="43.55913" lon="1.44648">
        <ele>314.03333536784</ele>
        <time>2013-09-14T10:43:30Z</time>
      </trkpt>
      <trkpt lat="43.55917" lon="1.44627">
        <ele>313.93332926432</ele>
        <time>2013-09-14T10:43:34Z</time>
      </trkpt>
      <trkpt lat="43.55923" lon="1.44601">
        <ele>313.91999511719</ele>
        <time>2013-09-14T10:43:38Z</time>
      </trkpt>
      <trkpt lat="43.55926" lon="1.4458">
        <ele>312.56667073568</ele>
        <time>2013-09-14T10:43:41Z</time>
      </trkpt>
      <trkpt lat="43.55928" lon="1.44565">
        <ele>311</ele>
        <time>2013-09-14T10:43:44Z</time>
      </trkpt>
      <trkpt lat="43.55927" lon="1.44551">
        <ele>309.875</ele>
        <time>2013-09-14T10:43:48Z</time>
      </trkpt>
      <trkpt lat="43.55927" lon="1.44543">
        <ele>308.59999593099</ele>
        <time>2013-09-14T10:43:51Z</time>
      </trkpt>
      <trkpt lat="43.5593" lon="1.4454">
        <ele>307.57499694824</ele>
        <time>2013-09-14T10:43:56Z</time>
      </trkpt>
      <trkpt lat="43.55932" lon="1.4454">
        <ele>307.03333536784</ele>
        <time>2013-09-14T10:44:00Z</time>
      </trkpt>
      <trkpt lat="43.55932" lon="1.4454">
        <ele>306.93999633789</ele>
        <time>2013-09-14T10:44:03Z</time>
      </trkpt>
      <trkpt lat="43.55933" lon="1.4454">
        <ele>306.66666666667</ele>
        <time>2013-09-14T10:44:06Z</time>
      </trkpt>
      <trkpt lat="43.55933" lon="1.4454">
        <ele>306.29998779297</ele>
        <time>2013-09-14T10:44:10Z</time>
      </trkpt>
      <trkpt lat="43.55933" lon="1.44539">
        <ele>306.20001220703</ele>
        <time>2013-09-14T10:44:14Z</time>
      </trkpt>
      <trkpt lat="43.55933" lon="1.44539">
        <ele>306.20001220703</ele>
        <time>2013-09-14T10:44:17Z</time>
      </trkpt>
      <trkpt lat="43.55933" lon="1.44539">
        <ele>306.20001220703</ele>
        <time>2013-09-14T10:44:20Z</time>
      </trkpt>
      <trkpt lat="43.55933" lon="1.44539">
        <ele>306.20001220703</ele>
        <time>2013-09-14T10:44:24Z</time>
      </trkpt>
      <trkpt lat="43.55933" lon="1.44539">
        <ele>306.20001220703</ele>
        <time>2013-09-14T10:44:28Z</time>
      </trkpt>
      <trkpt lat="43.55933" lon="1.44539">
        <ele>306.17501068115</ele>
        <time>2013-09-14T10:44:32Z</time>
      </trkpt>
      <trkpt lat="43.55933" lon="1.44539">
        <ele>306.20001220703</ele>
        <time>2013-09-14T10:44:36Z</time>
      </trkpt>
      <trkpt lat="43.55933" lon="1.44539">
        <ele>306.20001220703</ele>
        <time>2013-09-14T10:44:40Z</time>
      </trkpt>
      <trkpt lat="43.55933" lon="1.44539">
        <ele>306.12500762939</ele>
        <time>2013-09-14T10:44:44Z</time>
      </trkpt>
      <trkpt lat="43.55938" lon="1.44537">
        <ele>305.20000457764</ele>
        <time>2013-09-14T10:44:48Z</time>
      </trkpt>
      <trkpt lat="43.55955" lon="1.44521">
        <ele>303.66666666667</ele>
        <time>2013-09-14T10:44:51Z</time>
      </trkpt>
      <trkpt lat="43.55973" lon="1.44501">
        <ele>301.46666463216</ele>
        <time>2013-09-14T10:44:54Z</time>
      </trkpt>
      <trkpt lat="43.55998" lon="1.44471">
        <ele>296.84999084473</ele>
        <time>2013-09-14T10:44:58Z</time>
      </trkpt>
      <trkpt lat="43.56028" lon="1.44436">
        <ele>291.33333333333</ele>
        <time>2013-09-14T10:45:01Z</time>
      </trkpt>
      <trkpt lat="43.56052" lon="1.44405">
        <ele>289.50001017253</ele>
        <time>2013-09-14T10:45:04Z</time>
      </trkpt>
      <trkpt lat="43.56067" lon="1.44374">
        <ele>289.15000152588</ele>
        <time>2013-09-14T10:45:08Z</time>
      </trkpt>
      <trkpt lat="43.56075" lon="1.44353">
        <ele>288.93332926432</ele>
        <time>2013-09-14T10:45:11Z</time>
      </trkpt>
      <trkpt lat="43.56079" lon="1.44348">
        <ele>288.45000457764</ele>
        <time>2013-09-14T10:45:15Z</time>
      </trkpt>
      <trkpt lat="43.56088" lon="1.44348">
        <ele>287.57498931885</ele>
        <time>2013-09-14T10:45:19Z</time>
      </trkpt>
      <trkpt lat="43.56101" lon="1.44352">
        <ele>286.83333333333</ele>
        <time>2013-09-14T10:45:22Z</time>
      </trkpt>
      <trkpt lat="43.56113" lon="1.44361">
        <ele>282.47499847412</ele>
        <time>2013-09-14T10:45:26Z</time>
      </trkpt>
      <trkpt lat="43.56123" lon="1.4438">
        <ele>279.76666259766</ele>
        <time>2013-09-14T10:45:29Z</time>
      </trkpt>
      <trkpt lat="43.56139" lon="1.44401">
        <ele>276.66666666667</ele>
        <time>2013-09-14T10:45:32Z</time>
      </trkpt>
      <trkpt lat="43.56155" lon="1.44425">
        <ele>275.59999847412</ele>
        <time>2013-09-14T10:45:36Z</time>
      </trkpt>
      <trkpt lat="43.56169" lon="1.44446">
        <ele>275.13333129883</ele>
        <time>2013-09-14T10:45:39Z</time>
      </trkpt>
      <trkpt lat="43.56181" lon="1.44463">
        <ele>275.17500305176</ele>
        <time>2013-09-14T10:45:43Z</time>
      </trkpt>
      <trkpt lat="43.56196" lon="1.4448">
        <ele>275.12499237061</ele>
        <time>2013-09-14T10:45:47Z</time>
      </trkpt>
      <trkpt lat="43.56196" lon="1.44499">
        <ele>274.29999796549</ele>
        <time>2013-09-14T10:45:50Z</time>
      </trkpt>
      <trkpt lat="43.56191" lon="1.44518">
        <ele>273.44999694824</ele>
        <time>2013-09-14T10:45:54Z</time>
      </trkpt>
      <trkpt lat="43.56183" lon="1.44528">
        <ele>273.59999593099</ele>
        <time>2013-09-14T10:45:57Z</time>
      </trkpt>
      <trkpt lat="43.56176" lon="1.44534">
        <ele>273.95000457764</ele>
        <time>2013-09-14T10:46:01Z</time>
      </trkpt>
      <trkpt lat="43.56169" lon="1.44541">
        <ele>275.60000610352</ele>
        <time>2013-09-14T10:46:04Z</time>
      </trkpt>
      <trkpt lat="43.5616" lon="1.4455">
        <ele>276.65000152588</ele>
        <time>2013-09-14T10:46:08Z</time>
      </trkpt>
      <trkpt lat="43.5615" lon="1.4456">
        <ele>276.75</ele>
        <time>2013-09-14T10:46:12Z</time>
      </trkpt>
      <trkpt lat="43.56142" lon="1.44566">
        <ele>278.46666463216</ele>
        <time>2013-09-14T10:46:15Z</time>
      </trkpt>
      <trkpt lat="43.56134" lon="1.44571">
        <ele>280.80000305176</ele>
        <time>2013-09-14T10:46:19Z</time>
      </trkpt>
      <trkpt lat="43.56124" lon="1.44579">
        <ele>280.77500152588</ele>
        <time>2013-09-14T10:46:23Z</time>
      </trkpt>
      <trkpt lat="43.56113" lon="1.44587">
        <ele>279.82499694824</ele>
        <time>2013-09-14T10:46:27Z</time>
      </trkpt>
      <trkpt lat="43.56103" lon="1.44597">
        <ele>281.20000457764</ele>
        <time>2013-09-14T10:46:31Z</time>
      </trkpt>
      <trkpt lat="43.56099" lon="1.44611">
        <ele>282.73332722982</ele>
        <time>2013-09-14T10:46:34Z</time>
      </trkpt>
      <trkpt lat="43.561" lon="1.44627">
        <ele>284.09999847412</ele>
        <time>2013-09-14T10:46:38Z</time>
      </trkpt>
      <trkpt lat="43.56101" lon="1.4464">
        <ele>283.69999186198</ele>
        <time>2013-09-14T10:46:41Z</time>
      </trkpt>
      <trkpt lat="43.561" lon="1.44648">
        <ele>282.54999542236</ele>
        <time>2013-09-14T10:46:45Z</time>
      </trkpt>
      <trkpt lat="43.56101" lon="1.4466">
        <ele>282.22500610352</ele>
        <time>2013-09-14T10:46:49Z</time>
      </trkpt>
      <trkpt lat="43.56099" lon="1.44671">
        <ele>282.79999542236</ele>
        <time>2013-09-14T10:46:53Z</time>
      </trkpt>
      <trkpt lat="43.5609" lon="1.4468">
        <ele>283.52499389648</ele>
        <time>2013-09-14T10:46:57Z</time>
      </trkpt>
      <trkpt lat="43.56082" lon="1.44688">
        <ele>284.5</ele>
        <time>2013-09-14T10:47:00Z</time>
      </trkpt>
      <trkpt lat="43.56078" lon="1.44694">
        <ele>284.93332926432</ele>
        <time>2013-09-14T10:47:03Z</time>
      </trkpt>
      <trkpt lat="43.56078" lon="1.447">
        <ele>286.22499847412</ele>
        <time>2013-09-14T10:47:07Z</time>
      </trkpt>
      <trkpt lat="43.56087" lon="1.447">
        <ele>286.57500457764</ele>
        <time>2013-09-14T10:47:11Z</time>
      </trkpt>
      <trkpt lat="43.56106" lon="1.44693">
        <ele>285.875</ele>
        <time>2013-09-14T10:47:15Z</time>
      </trkpt>
      <trkpt lat="43.56122" lon="1.4469">
        <ele>286.25000762939</ele>
        <time>2013-09-14T10:47:19Z</time>
      </trkpt>
      <trkpt lat="43.56137" lon="1.44691">
        <ele>286.93332926432</ele>
        <time>2013-09-14T10:47:22Z</time>
      </trkpt>
      <trkpt lat="43.56154" lon="1.44694">
        <ele>286.86666870117</ele>
        <time>2013-09-14T10:47:25Z</time>
      </trkpt>
      <trkpt lat="43.56174" lon="1.44695">
        <ele>285.73332722982</ele>
        <time>2013-09-14T10:47:28Z</time>
      </trkpt>
      <trkpt lat="43.56191" lon="1.44688">
        <ele>286.375</ele>
        <time>2013-09-14T10:47:32Z</time>
      </trkpt>
      <trkpt lat="43.56208" lon="1.44682">
        <ele>288.73333740234</ele>
        <time>2013-09-14T10:47:35Z</time>
      </trkpt>
      <trkpt lat="43.56223" lon="1.44679">
        <ele>288.57499694824</ele>
        <time>2013-09-14T10:47:39Z</time>
      </trkpt>
      <trkpt lat="43.56241" lon="1.44675">
        <ele>287.79999796549</ele>
        <time>2013-09-14T10:47:42Z</time>
      </trkpt>
      <trkpt lat="43.56256" lon="1.44671">
        <ele>286.83333333333</ele>
        <time>2013-09-14T10:47:45Z</time>
      </trkpt>
      <trkpt lat="43.56269" lon="1.44663">
        <ele>286.19999186198</ele>
        <time>2013-09-14T10:47:48Z</time>
      </trkpt>
      <trkpt lat="43.56285" lon="1.44654">
        <ele>285.29999796549</ele>
        <time>2013-09-14T10:47:51Z</time>
      </trkpt>
      <trkpt lat="43.56304" lon="1.44637">
        <ele>284.77500152588</ele>
        <time>2013-09-14T10:47:55Z</time>
      </trkpt>
      <trkpt lat="43.56326" lon="1.44618">
        <ele>282.26666259766</ele>
        <time>2013-09-14T10:47:58Z</time>
      </trkpt>
      <trkpt lat="43.56349" lon="1.44597">
        <ele>280.83333333333</ele>
        <time>2013-09-14T10:48:01Z</time>
      </trkpt>
      <trkpt lat="43.56375" lon="1.44574">
        <ele>279.47500610352</ele>
        <time>2013-09-14T10:48:05Z</time>
      </trkpt>
      <trkpt lat="43.56404" lon="1.4455">
        <ele>278.63333129883</ele>
        <time>2013-09-14T10:48:08Z</time>
      </trkpt>
      <trkpt lat="43.56433" lon="1.44529">
        <ele>278.90000915527</ele>
        <time>2013-09-14T10:48:12Z</time>
      </trkpt>
      <trkpt lat="43.56467" lon="1.44502">
        <ele>278.70000457764</ele>
        <time>2013-09-14T10:48:16Z</time>
      </trkpt>
      <trkpt lat="43.56503" lon="1.44472">
        <ele>279.10000610352</ele>
        <time>2013-09-14T10:48:19Z</time>
      </trkpt>
      <trkpt lat="43.56532" lon="1.44446">
        <ele>279.20000203451</ele>
        <time>2013-09-14T10:48:22Z</time>
      </trkpt>
      <trkpt lat="43.56554" lon="1.44429">
        <ele>280.69999186198</ele>
        <time>2013-09-14T10:48:26Z</time>
      </trkpt>
      <trkpt lat="43.56579" lon="1.4441">
        <ele>280.55000305176</ele>
        <time>2013-09-14T10:48:30Z</time>
      </trkpt>
      <trkpt lat="43.5659" lon="1.44402">
        <ele>281.63334147135</ele>
        <time>2013-09-14T10:48:34Z</time>
      </trkpt>
      <trkpt lat="43.56598" lon="1.44396">
        <ele>280.84000244141</ele>
        <time>2013-09-14T10:48:37Z</time>
      </trkpt>
      <trkpt lat="43.56601" lon="1.44389">
        <ele>279.06667073568</ele>
        <time>2013-09-14T10:48:41Z</time>
      </trkpt>
      <trkpt lat="43.56602" lon="1.44385">
        <ele>278.84999847412</ele>
        <time>2013-09-14T10:48:44Z</time>
      </trkpt>
      <trkpt lat="43.56602" lon="1.44382">
        <ele>278.44999694824</ele>
        <time>2013-09-14T10:48:48Z</time>
      </trkpt>
      <trkpt lat="43.56602" lon="1.44379">
        <ele>278.83333333333</ele>
        <time>2013-09-14T10:48:52Z</time>
      </trkpt>
      <trkpt lat="43.56602" lon="1.44374">
        <ele>279</ele>
        <time>2013-09-14T10:48:56Z</time>
      </trkpt>
      <trkpt lat="43.56605" lon="1.44361">
        <ele>278.03333536784</ele>
        <time>2013-09-14T10:48:59Z</time>
      </trkpt>
      <trkpt lat="43.5661" lon="1.44345">
        <ele>276.69999694824</ele>
        <time>2013-09-14T10:49:02Z</time>
      </trkpt>
      <trkpt lat="43.56617" lon="1.44319">
        <ele>274.22499847412</ele>
        <time>2013-09-14T10:49:06Z</time>
      </trkpt>
      <trkpt lat="43.56633" lon="1.44285">
        <ele>272.32499694824</ele>
        <time>2013-09-14T10:49:10Z</time>
      </trkpt>
      <trkpt lat="43.56655" lon="1.44249">
        <ele>268.625</ele>
        <time>2013-09-14T10:49:14Z</time>
      </trkpt>
      <trkpt lat="43.5667" lon="1.44218">
        <ele>264.97499847412</ele>
        <time>2013-09-14T10:49:18Z</time>
      </trkpt>
      <trkpt lat="43.56683" lon="1.4421">
        <ele>263.60000610352</ele>
        <time>2013-09-14T10:49:21Z</time>
      </trkpt>
      <trkpt lat="43.56696" lon="1.44209">
        <ele>264.13334147135</ele>
        <time>2013-09-14T10:49:25Z</time>
      </trkpt>
      <trkpt lat="43.56707" lon="1.44208">
        <ele>265.54999542236</ele>
        <time>2013-09-14T10:49:29Z</time>
      </trkpt>
      <trkpt lat="43.56721" lon="1.44209">
        <ele>266.13334147135</ele>
        <time>2013-09-14T10:49:32Z</time>
      </trkpt>
      <trkpt lat="43.56734" lon="1.4421">
        <ele>267.19999186198</ele>
        <time>2013-09-14T10:49:35Z</time>
      </trkpt>
      <trkpt lat="43.56747" lon="1.44212">
        <ele>268.10000610352</ele>
        <time>2013-09-14T10:49:38Z</time>
      </trkpt>
      <trkpt lat="43.56761" lon="1.44215">
        <ele>268.20000457764</ele>
        <time>2013-09-14T10:49:42Z</time>
      </trkpt>
      <trkpt lat="43.56778" lon="1.44218">
        <ele>266.30000305176</ele>
        <time>2013-09-14T10:49:46Z</time>
      </trkpt>
      <trkpt lat="43.56794" lon="1.44223">
        <ele>266.66666666667</ele>
        <time>2013-09-14T10:49:49Z</time>
      </trkpt>
      <trkpt lat="43.56809" lon="1.44227">
        <ele>268.17500305176</ele>
        <time>2013-09-14T10:49:53Z</time>
      </trkpt>
      <trkpt lat="43.56825" lon="1.44229">
        <ele>269.9</ele>
        <time>2013-09-14T10:49:59Z</time>
      </trkpt>
      <trkpt lat="43.56842" lon="1.44222">
        <ele>270.9</ele>
        <time>2013-09-14T10:50:02Z</time>
      </trkpt>
      <trkpt lat="43.56859" lon="1.44216">
        <ele>271.43332926432</ele>
        <time>2013-09-14T10:50:07Z</time>
      </trkpt>
      <trkpt lat="43.56886" lon="1.44215">
        <ele>268.75999145508</ele>
        <time>2013-09-14T10:50:12Z</time>
      </trkpt>
      <trkpt lat="43.56921" lon="1.44207">
        <ele>265.67500305176</ele>
        <time>2013-09-14T10:50:15Z</time>
      </trkpt>
      <trkpt lat="43.5696" lon="1.442">
        <ele>261.20000457764</ele>
        <time>2013-09-14T10:50:19Z</time>
      </trkpt>
      <trkpt lat="43.56999" lon="1.44196">
        <ele>259.90000152588</ele>
        <time>2013-09-14T10:50:23Z</time>
      </trkpt>
      <trkpt lat="43.57035" lon="1.44196">
        <ele>255.85000228882</ele>
        <time>2013-09-14T10:50:27Z</time>
      </trkpt>
      <trkpt lat="43.57051" lon="1.44194">
        <ele>252.70000076294</ele>
        <time>2013-09-14T10:50:31Z</time>
      </trkpt>
      <trkpt lat="43.5705" lon="1.44194">
        <ele>252.23333231608</ele>
        <time>2013-09-14T10:50:34Z</time>
      </trkpt>
      <trkpt lat="43.5705" lon="1.44195">
        <ele>252.625</ele>
        <time>2013-09-14T10:50:38Z</time>
      </trkpt>
      <trkpt lat="43.5705" lon="1.44195">
        <ele>252.80000305176</ele>
        <time>2013-09-14T10:50:42Z</time>
      </trkpt>
      <trkpt lat="43.57049" lon="1.44195">
        <ele>252.69999694824</ele>
        <time>2013-09-14T10:50:45Z</time>
      </trkpt>
      <trkpt lat="43.57049" lon="1.44195">
        <ele>252.69999694824</ele>
        <time>2013-09-14T10:50:49Z</time>
      </trkpt>
      <trkpt lat="43.5705" lon="1.44195">
        <ele>252.77500534058</ele>
        <time>2013-09-14T10:50:53Z</time>
      </trkpt>
      <trkpt lat="43.57052" lon="1.44188">
        <ele>253.82500457764</ele>
        <time>2013-09-14T10:50:57Z</time>
      </trkpt>
      <trkpt lat="43.57061" lon="1.44181">
        <ele>254.66666666667</ele>
        <time>2013-09-14T10:51:00Z</time>
      </trkpt>
      <trkpt lat="43.57083" lon="1.44169">
        <ele>252.32500076294</ele>
        <time>2013-09-14T10:51:04Z</time>
      </trkpt>
      <trkpt lat="43.57118" lon="1.44161">
        <ele>250.52499771118</ele>
        <time>2013-09-14T10:51:08Z</time>
      </trkpt>
      <trkpt lat="43.57145" lon="1.44153">
        <ele>246.73333231608</ele>
        <time>2013-09-14T10:51:11Z</time>
      </trkpt>
      <trkpt lat="43.57161" lon="1.44147">
        <ele>244.5</ele>
        <time>2013-09-14T10:51:14Z</time>
      </trkpt>
      <trkpt lat="43.57189" lon="1.44148">
        <ele>242.47499847412</ele>
        <time>2013-09-14T10:51:18Z</time>
      </trkpt>
      <trkpt lat="43.57227" lon="1.44142">
        <ele>240.60000228882</ele>
        <time>2013-09-14T10:51:22Z</time>
      </trkpt>
      <trkpt lat="43.57268" lon="1.44146">
        <ele>236.35000228882</ele>
        <time>2013-09-14T10:51:26Z</time>
      </trkpt>
      <trkpt lat="43.57302" lon="1.44142">
        <ele>233.39999771118</ele>
        <time>2013-09-14T10:51:30Z</time>
      </trkpt>
      <trkpt lat="43.57329" lon="1.44131">
        <ele>232.46666463216</ele>
        <time>2013-09-14T10:51:33Z</time>
      </trkpt>
      <trkpt lat="43.57346" lon="1.44118">
        <ele>232.23333231608</ele>
        <time>2013-09-14T10:51:36Z</time>
      </trkpt>
      <trkpt lat="43.57366" lon="1.44106">
        <ele>231.5</ele>
        <time>2013-09-14T10:51:40Z</time>
      </trkpt>
      <trkpt lat="43.57392" lon="1.44101">
        <ele>228.26666768392</ele>
        <time>2013-09-14T10:51:43Z</time>
      </trkpt>
      <trkpt lat="43.57406" lon="1.44114">
        <ele>226.5</ele>
        <time>2013-09-14T10:51:47Z</time>
      </trkpt>
      <trkpt lat="43.57419" lon="1.44133">
        <ele>224.43333435059</ele>
        <time>2013-09-14T10:51:50Z</time>
      </trkpt>
      <trkpt lat="43.57435" lon="1.44152">
        <ele>223.34999465942</ele>
        <time>2013-09-14T10:51:54Z</time>
      </trkpt>
      <trkpt lat="43.57458" lon="1.4417">
        <ele>217.29999923706</ele>
        <time>2013-09-14T10:51:58Z</time>
      </trkpt>
      <trkpt lat="43.57482" lon="1.44201">
        <ele>209.70000076294</ele>
        <time>2013-09-14T10:52:01Z</time>
      </trkpt>
      <trkpt lat="43.57503" lon="1.44231">
        <ele>206.03333536784</ele>
        <time>2013-09-14T10:52:04Z</time>
      </trkpt>
      <trkpt lat="43.57519" lon="1.44259">
        <ele>204.07500076294</ele>
        <time>2013-09-14T10:52:08Z</time>
      </trkpt>
      <trkpt lat="43.57531" lon="1.44286">
        <ele>202.36666361491</ele>
        <time>2013-09-14T10:52:12Z</time>
      </trkpt>
      <trkpt lat="43.57541" lon="1.44307">
        <ele>200.92499542236</ele>
        <time>2013-09-14T10:52:16Z</time>
      </trkpt>
      <trkpt lat="43.57545" lon="1.4431">
        <ele>199.93333435059</ele>
        <time>2013-09-14T10:52:19Z</time>
      </trkpt>
      <trkpt lat="43.57545" lon="1.44312">
        <ele>197.47500228882</ele>
        <time>2013-09-14T10:52:23Z</time>
      </trkpt>
      <trkpt lat="43.57545" lon="1.44312">
        <ele>196.66666666667</ele>
        <time>2013-09-14T10:52:26Z</time>
      </trkpt>
      <trkpt lat="43.57545" lon="1.44313">
        <ele>197</ele>
        <time>2013-09-14T10:52:30Z</time>
      </trkpt>
      <trkpt lat="43.57546" lon="1.44314">
        <ele>197.46666463216</ele>
        <time>2013-09-14T10:52:33Z</time>
      </trkpt>
      <trkpt lat="43.57546" lon="1.44313">
        <ele>197.20000203451</ele>
        <time>2013-09-14T10:52:36Z</time>
      </trkpt>
      <trkpt lat="43.57547" lon="1.44313">
        <ele>197.06667073568</ele>
        <time>2013-09-14T10:52:39Z</time>
      </trkpt>
      <trkpt lat="43.57546" lon="1.44312">
        <ele>196.82499694824</ele>
        <time>2013-09-14T10:52:43Z</time>
      </trkpt>
      <trkpt lat="43.57547" lon="1.44311">
        <ele>196.00000508626</ele>
        <time>2013-09-14T10:52:46Z</time>
      </trkpt>
      <trkpt lat="43.57548" lon="1.4431">
        <ele>194.99999491374</ele>
        <time>2013-09-14T10:52:49Z</time>
      </trkpt>
      <trkpt lat="43.57549" lon="1.4431">
        <ele>194.33333333333</ele>
        <time>2013-09-14T10:52:52Z</time>
      </trkpt>
      <trkpt lat="43.57549" lon="1.4431">
        <ele>194.05000305176</ele>
        <time>2013-09-14T10:52:56Z</time>
      </trkpt>
      <trkpt lat="43.57549" lon="1.4431">
        <ele>194.19999694824</ele>
        <time>2013-09-14T10:53:00Z</time>
      </trkpt>
      <trkpt lat="43.57549" lon="1.44311">
        <ele>194.27500152588</ele>
        <time>2013-09-14T10:53:04Z</time>
      </trkpt>
      <trkpt lat="43.57549" lon="1.44311">
        <ele>194.29999923706</ele>
        <time>2013-09-14T10:53:08Z</time>
      </trkpt>
      <trkpt lat="43.5755" lon="1.44313">
        <ele>194.66666666667</ele>
        <time>2013-09-14T10:53:11Z</time>
      </trkpt>
      <trkpt lat="43.5755" lon="1.44313">
        <ele>195.20000076294</ele>
        <time>2013-09-14T10:53:15Z</time>
      </trkpt>
      <trkpt lat="43.57549" lon="1.44313">
        <ele>195.84999847412</ele>
        <time>2013-09-14T10:53:19Z</time>
      </trkpt>
      <trkpt lat="43.57549" lon="1.44313">
        <ele>196.10000610352</ele>
        <time>2013-09-14T10:53:22Z</time>
      </trkpt>
      <trkpt lat="43.57549" lon="1.44313">
        <ele>196</ele>
        <time>2013-09-14T10:53:25Z</time>
      </trkpt>
      <trkpt lat="43.57549" lon="1.44313">
        <ele>195.82500076294</ele>
        <time>2013-09-14T10:53:29Z</time>
      </trkpt>
      <trkpt lat="43.57548" lon="1.44314">
        <ele>197.04999923706</ele>
        <time>2013-09-14T10:53:33Z</time>
      </trkpt>
      <trkpt lat="43.57544" lon="1.44312">
        <ele>200.72499847412</ele>
        <time>2013-09-14T10:53:37Z</time>
      </trkpt>
      <trkpt lat="43.57544" lon="1.44317">
        <ele>200.06666564941</ele>
        <time>2013-09-14T10:53:40Z</time>
      </trkpt>
      <trkpt lat="43.57548" lon="1.4433">
        <ele>199.79999796549</ele>
        <time>2013-09-14T10:53:43Z</time>
      </trkpt>
      <trkpt lat="43.57552" lon="1.44353">
        <ele>199.17499923706</ele>
        <time>2013-09-14T10:53:46Z</time>
      </trkpt>
      <trkpt lat="43.57551" lon="1.44374">
        <ele>198.56667073568</ele>
        <time>2013-09-14T10:53:50Z</time>
      </trkpt>
      <trkpt lat="43.57549" lon="1.44388">
        <ele>198.93333435059</ele>
        <time>2013-09-14T10:53:53Z</time>
      </trkpt>
      <trkpt lat="43.57546" lon="1.44401">
        <ele>198.86666870117</ele>
        <time>2013-09-14T10:53:56Z</time>
      </trkpt>
      <trkpt lat="43.57542" lon="1.44414">
        <ele>198.64999771118</ele>
        <time>2013-09-14T10:54:00Z</time>
      </trkpt>
      <trkpt lat="43.57539" lon="1.44428">
        <ele>199.625</ele>
        <time>2013-09-14T10:54:04Z</time>
      </trkpt>
      <trkpt lat="43.57535" lon="1.4444">
        <ele>201.06666564941</ele>
        <time>2013-09-14T10:54:07Z</time>
      </trkpt>
      <trkpt lat="43.57532" lon="1.44453">
        <ele>201.52499771118</ele>
        <time>2013-09-14T10:54:11Z</time>
      </trkpt>
      <trkpt lat="43.57527" lon="1.44468">
        <ele>202.29999923706</ele>
        <time>2013-09-14T10:54:15Z</time>
      </trkpt>
      <trkpt lat="43.57523" lon="1.44481">
        <ele>203.76666768392</ele>
        <time>2013-09-14T10:54:18Z</time>
      </trkpt>
      <trkpt lat="43.57519" lon="1.44496">
        <ele>204.39999771118</ele>
        <time>2013-09-14T10:54:22Z</time>
      </trkpt>
      <trkpt lat="43.57513" lon="1.44514">
        <ele>204.85000228882</ele>
        <time>2013-09-14T10:54:26Z</time>
      </trkpt>
      <trkpt lat="43.57506" lon="1.44533">
        <ele>206.44999694824</ele>
        <time>2013-09-14T10:54:30Z</time>
      </trkpt>
      <trkpt lat="43.575" lon="1.44549">
        <ele>207.00000508626</ele>
        <time>2013-09-14T10:54:33Z</time>
      </trkpt>
      <trkpt lat="43.57495" lon="1.44566">
        <ele>206.04999923706</ele>
        <time>2013-09-14T10:54:37Z</time>
      </trkpt>
      <trkpt lat="43.5749" lon="1.44584">
        <ele>206.32499694824</ele>
        <time>2013-09-14T10:54:41Z</time>
      </trkpt>
      <trkpt lat="43.57482" lon="1.446">
        <ele>208.52499771118</ele>
        <time>2013-09-14T10:54:45Z</time>
      </trkpt>
      <trkpt lat="43.57475" lon="1.44617">
        <ele>209.86666870117</ele>
        <time>2013-09-14T10:54:48Z</time>
      </trkpt>
      <trkpt lat="43.57469" lon="1.44632">
        <ele>210.13333129883</ele>
        <time>2013-09-14T10:54:51Z</time>
      </trkpt>
      <trkpt lat="43.57465" lon="1.44647">
        <ele>210.92499923706</ele>
        <time>2013-09-14T10:54:55Z</time>
      </trkpt>
      <trkpt lat="43.5746" lon="1.44664">
        <ele>210.99999491374</ele>
        <time>2013-09-14T10:54:58Z</time>
      </trkpt>
      <trkpt lat="43.57452" lon="1.44682">
        <ele>210.25</ele>
        <time>2013-09-14T10:55:02Z</time>
      </trkpt>
      <trkpt lat="43.57445" lon="1.44699">
        <ele>211.625</ele>
        <time>2013-09-14T10:55:06Z</time>
      </trkpt>
      <trkpt lat="43.57439" lon="1.44716">
        <ele>212.39999898275</ele>
        <time>2013-09-14T10:55:09Z</time>
      </trkpt>
      <trkpt lat="43.57434" lon="1.44735">
        <ele>213.22500228882</ele>
        <time>2013-09-14T10:55:13Z</time>
      </trkpt>
      <trkpt lat="43.57426" lon="1.44757">
        <ele>213.89999771118</ele>
        <time>2013-09-14T10:55:17Z</time>
      </trkpt>
      <trkpt lat="43.57418" lon="1.44779">
        <ele>212.65000152588</ele>
        <time>2013-09-14T10:55:21Z</time>
      </trkpt>
      <trkpt lat="43.57411" lon="1.44801">
        <ele>212</ele>
        <time>2013-09-14T10:55:25Z</time>
      </trkpt>
      <trkpt lat="43.57402" lon="1.44822">
        <ele>211.875</ele>
        <time>2013-09-14T10:55:29Z</time>
      </trkpt>
      <trkpt lat="43.57395" lon="1.4484">
        <ele>213.06666564941</ele>
        <time>2013-09-14T10:55:32Z</time>
      </trkpt>
      <trkpt lat="43.57387" lon="1.44854">
        <ele>212.79999796549</ele>
        <time>2013-09-14T10:55:35Z</time>
      </trkpt>
      <trkpt lat="43.57378" lon="1.44866">
        <ele>212</ele>
        <time>2013-09-14T10:55:39Z</time>
      </trkpt>
      <trkpt lat="43.57366" lon="1.44882">
        <ele>210.8750038147</ele>
        <time>2013-09-14T10:55:43Z</time>
      </trkpt>
      <trkpt lat="43.57352" lon="1.449">
        <ele>210.42499923706</ele>
        <time>2013-09-14T10:55:47Z</time>
      </trkpt>
      <trkpt lat="43.5734" lon="1.44917">
        <ele>209.20000076294</ele>
        <time>2013-09-14T10:55:51Z</time>
      </trkpt>
      <trkpt lat="43.57334" lon="1.44924">
        <ele>208.125</ele>
        <time>2013-09-14T10:55:55Z</time>
      </trkpt>
      <trkpt lat="43.57334" lon="1.44924">
        <ele>207.70000076294</ele>
        <time>2013-09-14T10:55:59Z</time>
      </trkpt>
      <trkpt lat="43.57334" lon="1.44924">
        <ele>207.02499771118</ele>
        <time>2013-09-14T10:56:03Z</time>
      </trkpt>
      <trkpt lat="43.57334" lon="1.44924">
        <ele>206.60000610352</ele>
        <time>2013-09-14T10:56:06Z</time>
      </trkpt>
      <trkpt lat="43.57334" lon="1.44924">
        <ele>206.60000610352</ele>
        <time>2013-09-14T10:56:10Z</time>
      </trkpt>
      <trkpt lat="43.57334" lon="1.44924">
        <ele>206.60000610352</ele>
        <time>2013-09-14T10:56:13Z</time>
      </trkpt>
      <trkpt lat="43.57334" lon="1.44924">
        <ele>206.60000610352</ele>
        <time>2013-09-14T10:56:16Z</time>
      </trkpt>
      <trkpt lat="43.57334" lon="1.44924">
        <ele>206.60000610352</ele>
        <time>2013-09-14T10:56:19Z</time>
      </trkpt>
      <trkpt lat="43.57334" lon="1.44924">
        <ele>206.60000610352</ele>
        <time>2013-09-14T10:56:22Z</time>
      </trkpt>
      <trkpt lat="43.57334" lon="1.44924">
        <ele>206.60000610352</ele>
        <time>2013-09-14T10:56:26Z</time>
      </trkpt>
      <trkpt lat="43.57334" lon="1.44924">
        <ele>206.60000610352</ele>
        <time>2013-09-14T10:56:29Z</time>
      </trkpt>
      <trkpt lat="43.57334" lon="1.44924">
        <ele>206.60000610352</ele>
        <time>2013-09-14T10:56:33Z</time>
      </trkpt>
      <trkpt lat="43.57334" lon="1.44924">
        <ele>206.60000610352</ele>
        <time>2013-09-14T10:56:37Z</time>
      </trkpt>
      <trkpt lat="43.57334" lon="1.44924">
        <ele>206.53333536784</ele>
        <time>2013-09-14T10:56:40Z</time>
      </trkpt>
      <trkpt lat="43.57334" lon="1.44924">
        <ele>206.5</ele>
        <time>2013-09-14T10:56:44Z</time>
      </trkpt>
      <trkpt lat="43.57334" lon="1.44924">
        <ele>206.5</ele>
        <time>2013-09-14T10:56:48Z</time>
      </trkpt>
      <trkpt lat="43.57334" lon="1.44924">
        <ele>206.5</ele>
        <time>2013-09-14T10:56:51Z</time>
      </trkpt>
      <trkpt lat="43.57334" lon="1.44924">
        <ele>206.5</ele>
        <time>2013-09-14T10:56:54Z</time>
      </trkpt>
      <trkpt lat="43.57334" lon="1.44924">
        <ele>206.5</ele>
        <time>2013-09-14T10:56:57Z</time>
      </trkpt>
      <trkpt lat="43.57334" lon="1.44924">
        <ele>206.5</ele>
        <time>2013-09-14T10:57:00Z</time>
      </trkpt>
      <trkpt lat="43.57334" lon="1.44924">
        <ele>206.5</ele>
        <time>2013-09-14T10:57:04Z</time>
      </trkpt>
      <trkpt lat="43.57334" lon="1.44924">
        <ele>206.5</ele>
        <time>2013-09-14T10:57:07Z</time>
      </trkpt>
      <trkpt lat="43.57334" lon="1.44924">
        <ele>206.5</ele>
        <time>2013-09-14T10:57:11Z</time>
      </trkpt>
      <trkpt lat="43.57332" lon="1.44927">
        <ele>204.82499694824</ele>
        <time>2013-09-14T10:57:15Z</time>
      </trkpt>
      <trkpt lat="43.57327" lon="1.44936">
        <ele>205.36666361491</ele>
        <time>2013-09-14T10:57:18Z</time>
      </trkpt>
      <trkpt lat="43.5732" lon="1.44949">
        <ele>206.27500152588</ele>
        <time>2013-09-14T10:57:22Z</time>
      </trkpt>
      <trkpt lat="43.57312" lon="1.44961">
        <ele>204.63333638509</ele>
        <time>2013-09-14T10:57:25Z</time>
      </trkpt>
      <trkpt lat="43.57307" lon="1.44969">
        <ele>202.03333536784</ele>
        <time>2013-09-14T10:57:28Z</time>
      </trkpt>
      <trkpt lat="43.573" lon="1.44976">
        <ele>198.06667073568</ele>
        <time>2013-09-14T10:57:31Z</time>
      </trkpt>
      <trkpt lat="43.57288" lon="1.44979">
        <ele>198.8750038147</ele>
        <time>2013-09-14T10:57:35Z</time>
      </trkpt>
      <trkpt lat="43.57272" lon="1.4498">
        <ele>199</ele>
        <time>2013-09-14T10:57:39Z</time>
      </trkpt>
      <trkpt lat="43.57254" lon="1.44982">
        <ele>199.65000152588</ele>
        <time>2013-09-14T10:57:43Z</time>
      </trkpt>
      <trkpt lat="43.5724" lon="1.44984">
        <ele>200.06666564941</ele>
        <time>2013-09-14T10:57:46Z</time>
      </trkpt>
      <trkpt lat="43.57225" lon="1.44987">
        <ele>200.47500228882</ele>
        <time>2013-09-14T10:57:50Z</time>
      </trkpt>
      <trkpt lat="43.57212" lon="1.44991">
        <ele>200.53333536784</ele>
        <time>2013-09-14T10:57:53Z</time>
      </trkpt>
      <trkpt lat="43.572" lon="1.44995">
        <ele>200.52500152588</ele>
        <time>2013-09-14T10:57:57Z</time>
      </trkpt>
      <trkpt lat="43.57188" lon="1.45002">
        <ele>199.46666463216</ele>
        <time>2013-09-14T10:58:00Z</time>
      </trkpt>
      <trkpt lat="43.57183" lon="1.45011">
        <ele>197.89999771118</ele>
        <time>2013-09-14T10:58:04Z</time>
      </trkpt>
      <trkpt lat="43.57187" lon="1.4502">
        <ele>197.43332926432</ele>
        <time>2013-09-14T10:58:07Z</time>
      </trkpt>
      <trkpt lat="43.57193" lon="1.45027">
        <ele>197.85000228882</ele>
        <time>2013-09-14T10:58:11Z</time>
      </trkpt>
      <trkpt lat="43.572" lon="1.45039">
        <ele>199.90000152588</ele>
        <time>2013-09-14T10:58:15Z</time>
      </trkpt>
      <trkpt lat="43.5721" lon="1.45051">
        <ele>200.75</ele>
        <time>2013-09-14T10:58:19Z</time>
      </trkpt>
      <trkpt lat="43.57223" lon="1.45067">
        <ele>203.39999898275</ele>
        <time>2013-09-14T10:58:22Z</time>
      </trkpt>
      <trkpt lat="43.57236" lon="1.45085">
        <ele>205.14999771118</ele>
        <time>2013-09-14T10:58:26Z</time>
      </trkpt>
      <trkpt lat="43.57247" lon="1.45101">
        <ele>206.97499847412</ele>
        <time>2013-09-14T10:58:30Z</time>
      </trkpt>
      <trkpt lat="43.57257" lon="1.45122">
        <ele>205.53333536784</ele>
        <time>2013-09-14T10:58:33Z</time>
      </trkpt>
      <trkpt lat="43.57264" lon="1.4515">
        <ele>206.22500228882</ele>
        <time>2013-09-14T10:58:37Z</time>
      </trkpt>
      <trkpt lat="43.57264" lon="1.45173">
        <ele>206.04999923706</ele>
        <time>2013-09-14T10:58:40Z</time>
      </trkpt>
      <trkpt lat="43.57268" lon="1.45177">
        <ele>206.25</ele>
        <time>2013-09-14T10:58:44Z</time>
      </trkpt>
      <trkpt lat="43.57279" lon="1.4518">
        <ele>199.54999923706</ele>
        <time>2013-09-14T10:58:47Z</time>
      </trkpt>
      <trkpt lat="43.5729" lon="1.45191">
        <ele>197.79999923706</ele>
        <time>2013-09-14T10:58:51Z</time>
      </trkpt>
      <trkpt lat="43.57303" lon="1.45205">
        <ele>197.23999938965</ele>
        <time>2013-09-14T10:58:57Z</time>
      </trkpt>
      <trkpt lat="43.57318" lon="1.45211">
        <ele>196.60000228882</ele>
        <time>2013-09-14T10:59:00Z</time>
      </trkpt>
      <trkpt lat="43.57331" lon="1.45199">
        <ele>194.09999465942</ele>
        <time>2013-09-14T10:59:04Z</time>
      </trkpt>
      <trkpt lat="43.57346" lon="1.45201">
        <ele>194.5</ele>
        <time>2013-09-14T10:59:11Z</time>
      </trkpt>
      <trkpt lat="43.57356" lon="1.45213">
        <ele>194.55000305176</ele>
        <time>2013-09-14T10:59:14Z</time>
      </trkpt>
      <trkpt lat="43.57351" lon="1.45224">
        <ele>194.76666768392</ele>
        <time>2013-09-14T10:59:17Z</time>
      </trkpt>
      <trkpt lat="43.57353" lon="1.45233">
        <ele>191</ele>
        <time>2013-09-14T10:59:21Z</time>
      </trkpt>
      <trkpt lat="43.57354" lon="1.45247">
        <ele>191.09999847412</ele>
        <time>2013-09-14T10:59:24Z</time>
      </trkpt>
      <trkpt lat="43.5735" lon="1.45259">
        <ele>192.09999847412</ele>
        <time>2013-09-14T10:59:28Z</time>
      </trkpt>
      <trkpt lat="43.57345" lon="1.4527">
        <ele>191.48000183105</ele>
        <time>2013-09-14T10:59:31Z</time>
      </trkpt>
      <trkpt lat="43.57344" lon="1.45283">
        <ele>192.79999796549</ele>
        <time>2013-09-14T10:59:35Z</time>
      </trkpt>
      <trkpt lat="43.57345" lon="1.45292">
        <ele>194.5</ele>
        <time>2013-09-14T10:59:38Z</time>
      </trkpt>
      <trkpt lat="43.57344" lon="1.45303">
        <ele>197.09999847412</ele>
        <time>2013-09-14T10:59:42Z</time>
      </trkpt>
      <trkpt lat="43.57338" lon="1.45315">
        <ele>199.45000076294</ele>
        <time>2013-09-14T10:59:46Z</time>
      </trkpt>
      <trkpt lat="43.57331" lon="1.45328">
        <ele>202.42499923706</ele>
        <time>2013-09-14T10:59:50Z</time>
      </trkpt>
      <trkpt lat="43.57325" lon="1.4534">
        <ele>201.85000610352</ele>
        <time>2013-09-14T10:59:53Z</time>
      </trkpt>
      <trkpt lat="43.57318" lon="1.45355">
        <ele>200.5</ele>
        <time>2013-09-14T10:59:57Z</time>
      </trkpt>
      <trkpt lat="43.57305" lon="1.45378">
        <ele>200.79999923706</ele>
        <time>2013-09-14T11:00:01Z</time>
      </trkpt>
      <trkpt lat="43.57295" lon="1.45403">
        <ele>200.39999771118</ele>
        <time>2013-09-14T11:00:05Z</time>
      </trkpt>
      <trkpt lat="43.57287" lon="1.4543">
        <ele>199.67499923706</ele>
        <time>2013-09-14T11:00:09Z</time>
      </trkpt>
      <trkpt lat="43.57279" lon="1.45457">
        <ele>199.05000305176</ele>
        <time>2013-09-14T11:00:13Z</time>
      </trkpt>
      <trkpt lat="43.57278" lon="1.45478">
        <ele>205.29999923706</ele>
        <time>2013-09-14T11:00:16Z</time>
      </trkpt>
      <trkpt lat="43.57274" lon="1.45498">
        <ele>204.16666666667</ele>
        <time>2013-09-14T11:00:20Z</time>
      </trkpt>
      <trkpt lat="43.57272" lon="1.45514">
        <ele>203.46666971842</ele>
        <time>2013-09-14T11:00:23Z</time>
      </trkpt>
      <trkpt lat="43.57269" lon="1.45536">
        <ele>203.73999938965</ele>
        <time>2013-09-14T11:00:29Z</time>
      </trkpt>
      <trkpt lat="43.57266" lon="1.45558">
        <ele>204.7499961853</ele>
        <time>2013-09-14T11:00:33Z</time>
      </trkpt>
      <trkpt lat="43.57263" lon="1.45573">
        <ele>206.34999847412</ele>
        <time>2013-09-14T11:00:36Z</time>
      </trkpt>
      <trkpt lat="43.5726" lon="1.45585">
        <ele>206.54999923706</ele>
        <time>2013-09-14T11:00:40Z</time>
      </trkpt>
      <trkpt lat="43.57259" lon="1.45601">
        <ele>204.03333536784</ele>
        <time>2013-09-14T11:00:43Z</time>
      </trkpt>
      <trkpt lat="43.57258" lon="1.45615">
        <ele>203.40000152588</ele>
        <time>2013-09-14T11:00:47Z</time>
      </trkpt>
      <trkpt lat="43.57258" lon="1.45632">
        <ele>203.3</ele>
        <time>2013-09-14T11:00:52Z</time>
      </trkpt>
      <trkpt lat="43.57263" lon="1.45655">
        <ele>204.14999771118</ele>
        <time>2013-09-14T11:00:56Z</time>
      </trkpt>
      <trkpt lat="43.57261" lon="1.45677">
        <ele>203.47500228882</ele>
        <time>2013-09-14T11:00:59Z</time>
      </trkpt>
      <trkpt lat="43.57259" lon="1.45698">
        <ele>201.20000203451</ele>
        <time>2013-09-14T11:01:04Z</time>
      </trkpt>
      <trkpt lat="43.57258" lon="1.45719">
        <ele>201.6799987793</ele>
        <time>2013-09-14T11:01:08Z</time>
      </trkpt>
      <trkpt lat="43.57256" lon="1.45739">
        <ele>204.09999847412</ele>
        <time>2013-09-14T11:01:11Z</time>
      </trkpt>
      <trkpt lat="43.57255" lon="1.45761">
        <ele>206.17499923706</ele>
        <time>2013-09-14T11:01:15Z</time>
      </trkpt>
      <trkpt lat="43.57254" lon="1.45777">
        <ele>209.95000457764</ele>
        <time>2013-09-14T11:01:18Z</time>
      </trkpt>
      <trkpt lat="43.57253" lon="1.45789">
        <ele>211.47499465942</ele>
        <time>2013-09-14T11:01:23Z</time>
      </trkpt>
      <trkpt lat="43.5725" lon="1.45805">
        <ele>211.08000183105</ele>
        <time>2013-09-14T11:01:26Z</time>
      </trkpt>
      <trkpt lat="43.57245" lon="1.4582">
        <ele>210.34999847412</ele>
        <time>2013-09-14T11:01:30Z</time>
      </trkpt>
      <trkpt lat="43.57246" lon="1.45838">
        <ele>213.48000183105</ele>
        <time>2013-09-14T11:01:33Z</time>
      </trkpt>
      <trkpt lat="43.57249" lon="1.45853">
        <ele>211.70000076294</ele>
        <time>2013-09-14T11:01:37Z</time>
      </trkpt>
      <trkpt lat="43.57256" lon="1.45865">
        <ele>209.30000305176</ele>
        <time>2013-09-14T11:01:40Z</time>
      </trkpt>
      <trkpt lat="43.57263" lon="1.45875">
        <ele>208.13333638509</ele>
        <time>2013-09-14T11:01:43Z</time>
      </trkpt>
      <trkpt lat="43.57271" lon="1.45888">
        <ele>206.47500228882</ele>
        <time>2013-09-14T11:01:48Z</time>
      </trkpt>
      <trkpt lat="43.57277" lon="1.45904">
        <ele>205.09999847412</ele>
        <time>2013-09-14T11:01:52Z</time>
      </trkpt>
      <trkpt lat="43.57288" lon="1.45913">
        <ele>201.92500305176</ele>
        <time>2013-09-14T11:01:55Z</time>
      </trkpt>
      <trkpt lat="43.57298" lon="1.45921">
        <ele>192.70000203451</ele>
        <time>2013-09-14T11:01:58Z</time>
      </trkpt>
      <trkpt lat="43.57303" lon="1.45934">
        <ele>193.5</ele>
        <time>2013-09-14T11:02:01Z</time>
      </trkpt>
      <trkpt lat="43.57305" lon="1.45947">
        <ele>196.19999694824</ele>
        <time>2013-09-14T11:02:04Z</time>
      </trkpt>
      <trkpt lat="43.57306" lon="1.45962">
        <ele>198.82500076294</ele>
        <time>2013-09-14T11:02:07Z</time>
      </trkpt>
      <trkpt lat="43.57305" lon="1.4598">
        <ele>201.22499847412</ele>
        <time>2013-09-14T11:02:11Z</time>
      </trkpt>
      <trkpt lat="43.57305" lon="1.45992">
        <ele>202.75</ele>
        <time>2013-09-14T11:02:14Z</time>
      </trkpt>
      <trkpt lat="43.57302" lon="1.46005">
        <ele>204.5000038147</ele>
        <time>2013-09-14T11:02:18Z</time>
      </trkpt>
      <trkpt lat="43.57296" lon="1.46021">
        <ele>203.72499847412</ele>
        <time>2013-09-14T11:02:22Z</time>
      </trkpt>
      <trkpt lat="43.5729" lon="1.46037">
        <ele>205.5</ele>
        <time>2013-09-14T11:02:26Z</time>
      </trkpt>
      <trkpt lat="43.5728" lon="1.46049">
        <ele>205.86666361491</ele>
        <time>2013-09-14T11:02:29Z</time>
      </trkpt>
      <trkpt lat="43.57268" lon="1.46059">
        <ele>207.32499694824</ele>
        <time>2013-09-14T11:02:32Z</time>
      </trkpt>
      <trkpt lat="43.57258" lon="1.46078">
        <ele>203.5</ele>
        <time>2013-09-14T11:02:35Z</time>
      </trkpt>
      <trkpt lat="43.57252" lon="1.46099">
        <ele>203.70000076294</ele>
        <time>2013-09-14T11:02:39Z</time>
      </trkpt>
      <trkpt lat="43.57246" lon="1.46113">
        <ele>203.33333333333</ele>
        <time>2013-09-14T11:02:42Z</time>
      </trkpt>
      <trkpt lat="43.57242" lon="1.46124">
        <ele>202.89999898275</ele>
        <time>2013-09-14T11:02:45Z</time>
      </trkpt>
      <trkpt lat="43.57239" lon="1.46131">
        <ele>203.30000305176</ele>
        <time>2013-09-14T11:02:48Z</time>
      </trkpt>
      <trkpt lat="43.57238" lon="1.46143">
        <ele>204.9</ele>
        <time>2013-09-14T11:02:52Z</time>
      </trkpt>
      <trkpt lat="43.57238" lon="1.46159">
        <ele>206.10000101725</ele>
        <time>2013-09-14T11:02:56Z</time>
      </trkpt>
      <trkpt lat="43.57236" lon="1.46173">
        <ele>208.18000488281</ele>
        <time>2013-09-14T11:03:00Z</time>
      </trkpt>
      <trkpt lat="43.57238" lon="1.46185">
        <ele>211.69999694824</ele>
        <time>2013-09-14T11:03:03Z</time>
      </trkpt>
      <trkpt lat="43.57242" lon="1.46212">
        <ele>210.79999796549</ele>
        <time>2013-09-14T11:03:06Z</time>
      </trkpt>
      <trkpt lat="43.57246" lon="1.46249">
        <ele>204.96666971842</ele>
        <time>2013-09-14T11:03:09Z</time>
      </trkpt>
      <trkpt lat="43.57249" lon="1.46269">
        <ele>202.75</ele>
        <time>2013-09-14T11:03:13Z</time>
      </trkpt>
      <trkpt lat="43.57247" lon="1.46284">
        <ele>201.05000305176</ele>
        <time>2013-09-14T11:03:17Z</time>
      </trkpt>
      <trkpt lat="43.57251" lon="1.46297">
        <ele>199.90000152588</ele>
        <time>2013-09-14T11:03:20Z</time>
      </trkpt>
      <trkpt lat="43.57256" lon="1.46305">
        <ele>197.79999542236</ele>
        <time>2013-09-14T11:03:23Z</time>
      </trkpt>
      <trkpt lat="43.57263" lon="1.46313">
        <ele>195.50000508626</ele>
        <time>2013-09-14T11:03:27Z</time>
      </trkpt>
      <trkpt lat="43.57301" lon="1.46325">
        <ele>183.85000228882</ele>
        <time>2013-09-14T11:03:32Z</time>
      </trkpt>
      <trkpt lat="43.57325" lon="1.46349">
        <ele>190.06000061035</ele>
        <time>2013-09-14T11:03:36Z</time>
      </trkpt>
      <trkpt lat="43.5734" lon="1.464">
        <ele>198.65000152588</ele>
        <time>2013-09-14T11:03:40Z</time>
      </trkpt>
      <trkpt lat="43.57345" lon="1.46436">
        <ele>199.125</ele>
        <time>2013-09-14T11:03:43Z</time>
      </trkpt>
      <trkpt lat="43.57351" lon="1.46455">
        <ele>198.6666615804</ele>
        <time>2013-09-14T11:03:47Z</time>
      </trkpt>
      <trkpt lat="43.57354" lon="1.46469">
        <ele>199.6</ele>
        <time>2013-09-14T11:03:52Z</time>
      </trkpt>
      <trkpt lat="43.57368" lon="1.46481">
        <ele>200.54999923706</ele>
        <time>2013-09-14T11:03:55Z</time>
      </trkpt>
      <trkpt lat="43.57387" lon="1.46499">
        <ele>202.13333129883</ele>
        <time>2013-09-14T11:03:58Z</time>
      </trkpt>
      <trkpt lat="43.57393" lon="1.46514">
        <ele>203.86666361491</ele>
        <time>2013-09-14T11:04:02Z</time>
      </trkpt>
      <trkpt lat="43.574" lon="1.46535">
        <ele>205.42499923706</ele>
        <time>2013-09-14T11:04:06Z</time>
      </trkpt>
      <trkpt lat="43.57408" lon="1.46559">
        <ele>202.6250038147</ele>
        <time>2013-09-14T11:04:09Z</time>
      </trkpt>
      <trkpt lat="43.57416" lon="1.46584">
        <ele>201.53333028158</ele>
        <time>2013-09-14T11:04:13Z</time>
      </trkpt>
      <trkpt lat="43.57425" lon="1.46609">
        <ele>201.21999816895</ele>
        <time>2013-09-14T11:04:17Z</time>
      </trkpt>
      <trkpt lat="43.57438" lon="1.46633">
        <ele>199.59999847412</ele>
        <time>2013-09-14T11:04:22Z</time>
      </trkpt>
      <trkpt lat="43.57446" lon="1.46651">
        <ele>199.43333435059</ele>
        <time>2013-09-14T11:04:25Z</time>
      </trkpt>
      <trkpt lat="43.57452" lon="1.46668">
        <ele>197.10000610352</ele>
        <time>2013-09-14T11:04:28Z</time>
      </trkpt>
      <trkpt lat="43.57461" lon="1.46687">
        <ele>197.44999694824</ele>
        <time>2013-09-14T11:04:32Z</time>
      </trkpt>
      <trkpt lat="43.57474" lon="1.46701">
        <ele>201.33332824707</ele>
        <time>2013-09-14T11:04:36Z</time>
      </trkpt>
      <trkpt lat="43.57487" lon="1.46713">
        <ele>203.08000183105</ele>
        <time>2013-09-14T11:04:40Z</time>
      </trkpt>
      <trkpt lat="43.57498" lon="1.46721">
        <ele>204.03333028158</ele>
        <time>2013-09-14T11:04:43Z</time>
      </trkpt>
      <trkpt lat="43.57506" lon="1.46728">
        <ele>204.42499542236</ele>
        <time>2013-09-14T11:04:48Z</time>
      </trkpt>
      <trkpt lat="43.57515" lon="1.4673">
        <ele>202.70000076294</ele>
        <time>2013-09-14T11:04:52Z</time>
      </trkpt>
      <trkpt lat="43.57527" lon="1.46721">
        <ele>201.66000366211</ele>
        <time>2013-09-14T11:04:56Z</time>
      </trkpt>
      <trkpt lat="43.57538" lon="1.4671">
        <ele>202.76666259766</ele>
        <time>2013-09-14T11:05:00Z</time>
      </trkpt>
      <trkpt lat="43.57545" lon="1.46698">
        <ele>204.03999633789</ele>
        <time>2013-09-14T11:05:04Z</time>
      </trkpt>
      <trkpt lat="43.57556" lon="1.46682">
        <ele>204.59999847412</ele>
        <time>2013-09-14T11:05:08Z</time>
      </trkpt>
      <trkpt lat="43.57568" lon="1.46663">
        <ele>202.40000305176</ele>
        <time>2013-09-14T11:05:12Z</time>
      </trkpt>
      <trkpt lat="43.5758" lon="1.46644">
        <ele>201.42499542236</ele>
        <time>2013-09-14T11:05:16Z</time>
      </trkpt>
      <trkpt lat="43.5759" lon="1.46632">
        <ele>201.59999465942</ele>
        <time>2013-09-14T11:05:20Z</time>
      </trkpt>
      <trkpt lat="43.57599" lon="1.46621">
        <ele>199.10000228882</ele>
        <time>2013-09-14T11:05:24Z</time>
      </trkpt>
      <trkpt lat="43.57611" lon="1.46612">
        <ele>195.95000076294</ele>
        <time>2013-09-14T11:05:28Z</time>
      </trkpt>
      <trkpt lat="43.57622" lon="1.46604">
        <ele>196.60000101725</ele>
        <time>2013-09-14T11:05:31Z</time>
      </trkpt>
      <trkpt lat="43.57632" lon="1.46596">
        <ele>194.39999771118</ele>
        <time>2013-09-14T11:05:35Z</time>
      </trkpt>
      <trkpt lat="43.57644" lon="1.4659">
        <ele>193.30000305176</ele>
        <time>2013-09-14T11:05:39Z</time>
      </trkpt>
      <trkpt lat="43.57658" lon="1.46585">
        <ele>192.23333231608</ele>
        <time>2013-09-14T11:05:42Z</time>
      </trkpt>
      <trkpt lat="43.57676" lon="1.46582">
        <ele>192.32500076294</ele>
        <time>2013-09-14T11:05:46Z</time>
      </trkpt>
      <trkpt lat="43.57691" lon="1.46579">
        <ele>193.60000101725</ele>
        <time>2013-09-14T11:05:49Z</time>
      </trkpt>
      <trkpt lat="43.57705" lon="1.46575">
        <ele>196.09999847412</ele>
        <time>2013-09-14T11:05:53Z</time>
      </trkpt>
      <trkpt lat="43.57721" lon="1.46571">
        <ele>198.70000076294</ele>
        <time>2013-09-14T11:05:57Z</time>
      </trkpt>
      <trkpt lat="43.57736" lon="1.46572">
        <ele>200.09999465942</ele>
        <time>2013-09-14T11:06:01Z</time>
      </trkpt>
      <trkpt lat="43.57746" lon="1.46572">
        <ele>201.50000508626</ele>
        <time>2013-09-14T11:06:04Z</time>
      </trkpt>
      <trkpt lat="43.57759" lon="1.46566">
        <ele>202.77500152588</ele>
        <time>2013-09-14T11:06:08Z</time>
      </trkpt>
      <trkpt lat="43.57772" lon="1.46558">
        <ele>203.43333435059</ele>
        <time>2013-09-14T11:06:11Z</time>
      </trkpt>
      <trkpt lat="43.57787" lon="1.46558">
        <ele>204.375</ele>
        <time>2013-09-14T11:06:15Z</time>
      </trkpt>
      <trkpt lat="43.57803" lon="1.46559">
        <ele>204.96666971842</ele>
        <time>2013-09-14T11:06:18Z</time>
      </trkpt>
      <trkpt lat="43.57816" lon="1.46558">
        <ele>205.63333638509</ele>
        <time>2013-09-14T11:06:21Z</time>
      </trkpt>
      <trkpt lat="43.57827" lon="1.46555">
        <ele>205.60000610352</ele>
        <time>2013-09-14T11:06:24Z</time>
      </trkpt>
      <trkpt lat="43.57836" lon="1.46552">
        <ele>205.33333333333</ele>
        <time>2013-09-14T11:06:27Z</time>
      </trkpt>
      <trkpt lat="43.57848" lon="1.46547">
        <ele>204.40000534058</ele>
        <time>2013-09-14T11:06:31Z</time>
      </trkpt>
      <trkpt lat="43.57861" lon="1.46543">
        <ele>203.60000101725</ele>
        <time>2013-09-14T11:06:34Z</time>
      </trkpt>
      <trkpt lat="43.57872" lon="1.4654">
        <ele>202.93333435059</ele>
        <time>2013-09-14T11:06:37Z</time>
      </trkpt>
      <trkpt lat="43.57888" lon="1.46534">
        <ele>201.65000152588</ele>
        <time>2013-09-14T11:06:41Z</time>
      </trkpt>
      <trkpt lat="43.57905" lon="1.46527">
        <ele>199.09999593099</ele>
        <time>2013-09-14T11:06:44Z</time>
      </trkpt>
      <trkpt lat="43.57922" lon="1.4652">
        <ele>197.60000228882</ele>
        <time>2013-09-14T11:06:48Z</time>
      </trkpt>
      <trkpt lat="43.57941" lon="1.4651">
        <ele>198.5</ele>
        <time>2013-09-14T11:06:51Z</time>
      </trkpt>
      <trkpt lat="43.57955" lon="1.46501">
        <ele>197.93333943685</ele>
        <time>2013-09-14T11:06:54Z</time>
      </trkpt>
      <trkpt lat="43.57965" lon="1.46489">
        <ele>196.86666870117</ele>
        <time>2013-09-14T11:06:57Z</time>
      </trkpt>
      <trkpt lat="43.57974" lon="1.46474">
        <ele>198.47499847412</ele>
        <time>2013-09-14T11:07:01Z</time>
      </trkpt>
      <trkpt lat="43.57983" lon="1.46461">
        <ele>200.29999796549</ele>
        <time>2013-09-14T11:07:04Z</time>
      </trkpt>
      <trkpt lat="43.57995" lon="1.46447">
        <ele>197.92499923706</ele>
        <time>2013-09-14T11:07:08Z</time>
      </trkpt>
      <trkpt lat="43.5801" lon="1.46433">
        <ele>197.15000152588</ele>
        <time>2013-09-14T11:07:12Z</time>
      </trkpt>
      <trkpt lat="43.58022" lon="1.46423">
        <ele>196.27500152588</ele>
        <time>2013-09-14T11:07:16Z</time>
      </trkpt>
      <trkpt lat="43.58031" lon="1.46409">
        <ele>191.6666615804</ele>
        <time>2013-09-14T11:07:19Z</time>
      </trkpt>
      <trkpt lat="43.58038" lon="1.46395">
        <ele>191.70000203451</ele>
        <time>2013-09-14T11:07:22Z</time>
      </trkpt>
      <trkpt lat="43.58049" lon="1.46379">
        <ele>190.20000076294</ele>
        <time>2013-09-14T11:07:26Z</time>
      </trkpt>
      <trkpt lat="43.58063" lon="1.46367">
        <ele>189.23333740234</ele>
        <time>2013-09-14T11:07:29Z</time>
      </trkpt>
      <trkpt lat="43.58075" lon="1.46358">
        <ele>189.16666666667</ele>
        <time>2013-09-14T11:07:32Z</time>
      </trkpt>
      <trkpt lat="43.58087" lon="1.4635">
        <ele>194.15000152588</ele>
        <time>2013-09-14T11:07:36Z</time>
      </trkpt>
      <trkpt lat="43.58096" lon="1.46336">
        <ele>198.20000203451</ele>
        <time>2013-09-14T11:07:39Z</time>
      </trkpt>
      <trkpt lat="43.58106" lon="1.46319">
        <ele>199.25</ele>
        <time>2013-09-14T11:07:43Z</time>
      </trkpt>
      <trkpt lat="43.58122" lon="1.46304">
        <ele>199.32499694824</ele>
        <time>2013-09-14T11:07:47Z</time>
      </trkpt>
      <trkpt lat="43.58135" lon="1.46297">
        <ele>200.79999542236</ele>
        <time>2013-09-14T11:07:51Z</time>
      </trkpt>
      <trkpt lat="43.58151" lon="1.46289">
        <ele>198.26666259766</ele>
        <time>2013-09-14T11:07:54Z</time>
      </trkpt>
      <trkpt lat="43.58184" lon="1.4627">
        <ele>195.22500610352</ele>
        <time>2013-09-14T11:07:58Z</time>
      </trkpt>
      <trkpt lat="43.58197" lon="1.46262">
        <ele>195.04999923706</ele>
        <time>2013-09-14T11:08:02Z</time>
      </trkpt>
      <trkpt lat="43.58209" lon="1.46258">
        <ele>198.33333333333</ele>
        <time>2013-09-14T11:08:05Z</time>
      </trkpt>
      <trkpt lat="43.58217" lon="1.46252">
        <ele>195.5</ele>
        <time>2013-09-14T11:08:08Z</time>
      </trkpt>
      <trkpt lat="43.58228" lon="1.46246">
        <ele>196.72500228882</ele>
        <time>2013-09-14T11:08:12Z</time>
      </trkpt>
      <trkpt lat="43.58238" lon="1.46238">
        <ele>195.19999694824</ele>
        <time>2013-09-14T11:08:15Z</time>
      </trkpt>
      <trkpt lat="43.58247" lon="1.46229">
        <ele>193.93333435059</ele>
        <time>2013-09-14T11:08:18Z</time>
      </trkpt>
      <trkpt lat="43.58259" lon="1.4622">
        <ele>195.32499694824</ele>
        <time>2013-09-14T11:08:22Z</time>
      </trkpt>
      <trkpt lat="43.58269" lon="1.46212">
        <ele>195.46666463216</ele>
        <time>2013-09-14T11:08:26Z</time>
      </trkpt>
      <trkpt lat="43.58277" lon="1.46205">
        <ele>194.20000076294</ele>
        <time>2013-09-14T11:08:29Z</time>
      </trkpt>
      <trkpt lat="43.58286" lon="1.46199">
        <ele>192.56666564941</ele>
        <time>2013-09-14T11:08:32Z</time>
      </trkpt>
      <trkpt lat="43.58296" lon="1.46191">
        <ele>192.40000152588</ele>
        <time>2013-09-14T11:08:36Z</time>
      </trkpt>
      <trkpt lat="43.58308" lon="1.46187">
        <ele>194.40000406901</ele>
        <time>2013-09-14T11:08:39Z</time>
      </trkpt>
      <trkpt lat="43.58321" lon="1.46182">
        <ele>196.1250038147</ele>
        <time>2013-09-14T11:08:43Z</time>
      </trkpt>
      <trkpt lat="43.58336" lon="1.46176">
        <ele>195.29999796549</ele>
        <time>2013-09-14T11:08:46Z</time>
      </trkpt>
      <trkpt lat="43.58363" lon="1.46171">
        <ele>193.79999923706</ele>
        <time>2013-09-14T11:08:50Z</time>
      </trkpt>
      <trkpt lat="43.58394" lon="1.46163">
        <ele>193.1249961853</ele>
        <time>2013-09-14T11:08:54Z</time>
      </trkpt>
      <trkpt lat="43.58412" lon="1.46157">
        <ele>194.20000076294</ele>
        <time>2013-09-14T11:08:58Z</time>
      </trkpt>
      <trkpt lat="43.58422" lon="1.46152">
        <ele>195.3750038147</ele>
        <time>2013-09-14T11:09:02Z</time>
      </trkpt>
      <trkpt lat="43.58431" lon="1.46146">
        <ele>195.73333231608</ele>
        <time>2013-09-14T11:09:05Z</time>
      </trkpt>
      <trkpt lat="43.58438" lon="1.46142">
        <ele>195.72500228882</ele>
        <time>2013-09-14T11:09:09Z</time>
      </trkpt>
      <trkpt lat="43.58448" lon="1.46138">
        <ele>194.20000076294</ele>
        <time>2013-09-14T11:09:13Z</time>
      </trkpt>
      <trkpt lat="43.58458" lon="1.46135">
        <ele>193.03333536784</ele>
        <time>2013-09-14T11:09:16Z</time>
      </trkpt>
      <trkpt lat="43.58467" lon="1.4613">
        <ele>190.32499694824</ele>
        <time>2013-09-14T11:09:20Z</time>
      </trkpt>
      <trkpt lat="43.58479" lon="1.46125">
        <ele>190.375</ele>
        <time>2013-09-14T11:09:24Z</time>
      </trkpt>
      <trkpt lat="43.58491" lon="1.46121">
        <ele>189.23333231608</ele>
        <time>2013-09-14T11:09:27Z</time>
      </trkpt>
      <trkpt lat="43.58504" lon="1.46116">
        <ele>189.84999847412</ele>
        <time>2013-09-14T11:09:31Z</time>
      </trkpt>
      <trkpt lat="43.58519" lon="1.46112">
        <ele>192.66666666667</ele>
        <time>2013-09-14T11:09:34Z</time>
      </trkpt>
      <trkpt lat="43.58533" lon="1.46108">
        <ele>194.04999923706</ele>
        <time>2013-09-14T11:09:38Z</time>
      </trkpt>
      <trkpt lat="43.58549" lon="1.46102">
        <ele>196.3749961853</ele>
        <time>2013-09-14T11:09:42Z</time>
      </trkpt>
      <trkpt lat="43.58561" lon="1.46098">
        <ele>198.26666768392</ele>
        <time>2013-09-14T11:09:45Z</time>
      </trkpt>
      <trkpt lat="43.58569" lon="1.46095">
        <ele>198.16666666667</ele>
        <time>2013-09-14T11:09:48Z</time>
      </trkpt>
      <trkpt lat="43.58579" lon="1.46088">
        <ele>198.3750038147</ele>
        <time>2013-09-14T11:09:52Z</time>
      </trkpt>
      <trkpt lat="43.58592" lon="1.46081">
        <ele>199.36666870117</ele>
        <time>2013-09-14T11:09:55Z</time>
      </trkpt>
      <trkpt lat="43.58605" lon="1.46075">
        <ele>199.30000305176</ele>
        <time>2013-09-14T11:09:59Z</time>
      </trkpt>
      <trkpt lat="43.58619" lon="1.4607">
        <ele>197.89999771118</ele>
        <time>2013-09-14T11:10:03Z</time>
      </trkpt>
      <trkpt lat="43.58632" lon="1.46066">
        <ele>198.20000203451</ele>
        <time>2013-09-14T11:10:06Z</time>
      </trkpt>
      <trkpt lat="43.58645" lon="1.46063">
        <ele>198.73333740234</ele>
        <time>2013-09-14T11:10:09Z</time>
      </trkpt>
      <trkpt lat="43.5866" lon="1.46062">
        <ele>200.07500076294</ele>
        <time>2013-09-14T11:10:13Z</time>
      </trkpt>
      <trkpt lat="43.58675" lon="1.46057">
        <ele>201.70000076294</ele>
        <time>2013-09-14T11:10:17Z</time>
      </trkpt>
      <trkpt lat="43.5869" lon="1.46049">
        <ele>201.47500228882</ele>
        <time>2013-09-14T11:10:21Z</time>
      </trkpt>
      <trkpt lat="43.58723" lon="1.46039">
        <ele>200.83333333333</ele>
        <time>2013-09-14T11:10:25Z</time>
      </trkpt>
      <trkpt lat="43.58745" lon="1.46034">
        <ele>202.46666463216</ele>
        <time>2013-09-14T11:10:28Z</time>
      </trkpt>
      <trkpt lat="43.5876" lon="1.4603">
        <ele>203.45000457764</ele>
        <time>2013-09-14T11:10:32Z</time>
      </trkpt>
      <trkpt lat="43.58782" lon="1.46031">
        <ele>204.33333333333</ele>
        <time>2013-09-14T11:10:35Z</time>
      </trkpt>
      <trkpt lat="43.58795" lon="1.46022">
        <ele>203.03333536784</ele>
        <time>2013-09-14T11:10:38Z</time>
      </trkpt>
      <trkpt lat="43.58805" lon="1.46014">
        <ele>200.57500457764</ele>
        <time>2013-09-14T11:10:42Z</time>
      </trkpt>
      <trkpt lat="43.5882" lon="1.46009">
        <ele>198.70000203451</ele>
        <time>2013-09-14T11:10:45Z</time>
      </trkpt>
      <trkpt lat="43.58837" lon="1.46005">
        <ele>199.69999694824</ele>
        <time>2013-09-14T11:10:48Z</time>
      </trkpt>
      <trkpt lat="43.58856" lon="1.46004">
        <ele>200.84999847412</ele>
        <time>2013-09-14T11:10:52Z</time>
      </trkpt>
      <trkpt lat="43.58876" lon="1.46001">
        <ele>202.75</ele>
        <time>2013-09-14T11:10:55Z</time>
      </trkpt>
      <trkpt lat="43.5889" lon="1.45998">
        <ele>201.5000038147</ele>
        <time>2013-09-14T11:10:59Z</time>
      </trkpt>
      <trkpt lat="43.58907" lon="1.45995">
        <ele>194.97500228882</ele>
        <time>2013-09-14T11:11:03Z</time>
      </trkpt>
      <trkpt lat="43.5892" lon="1.45993">
        <ele>189.43333435059</ele>
        <time>2013-09-14T11:11:06Z</time>
      </trkpt>
      <trkpt lat="43.58931" lon="1.45992">
        <ele>188.6666615804</ele>
        <time>2013-09-14T11:11:09Z</time>
      </trkpt>
      <trkpt lat="43.58944" lon="1.4599">
        <ele>187.625</ele>
        <time>2013-09-14T11:11:13Z</time>
      </trkpt>
      <trkpt lat="43.58958" lon="1.45988">
        <ele>183.55000305176</ele>
        <time>2013-09-14T11:11:17Z</time>
      </trkpt>
      <trkpt lat="43.58974" lon="1.45987">
        <ele>183.7500038147</ele>
        <time>2013-09-14T11:11:21Z</time>
      </trkpt>
      <trkpt lat="43.58987" lon="1.45984">
        <ele>184.16666666667</ele>
        <time>2013-09-14T11:11:24Z</time>
      </trkpt>
      <trkpt lat="43.59" lon="1.45982">
        <ele>183.875</ele>
        <time>2013-09-14T11:11:28Z</time>
      </trkpt>
      <trkpt lat="43.59014" lon="1.45983">
        <ele>184.06667073568</ele>
        <time>2013-09-14T11:11:31Z</time>
      </trkpt>
      <trkpt lat="43.59031" lon="1.45983">
        <ele>184.57500076294</ele>
        <time>2013-09-14T11:11:35Z</time>
      </trkpt>
      <trkpt lat="43.59049" lon="1.45979">
        <ele>186</ele>
        <time>2013-09-14T11:11:38Z</time>
      </trkpt>
      <trkpt lat="43.5906" lon="1.45974">
        <ele>186</ele>
        <time>2013-09-14T11:11:41Z</time>
      </trkpt>
      <trkpt lat="43.59084" lon="1.45966">
        <ele>186.25</ele>
        <time>2013-09-14T11:11:45Z</time>
      </trkpt>
      <trkpt lat="43.59108" lon="1.4596">
        <ele>188.60000101725</ele>
        <time>2013-09-14T11:11:48Z</time>
      </trkpt>
      <trkpt lat="43.59115" lon="1.45952">
        <ele>190.125</ele>
        <time>2013-09-14T11:11:52Z</time>
      </trkpt>
      <trkpt lat="43.59122" lon="1.45934">
        <ele>193.06666564941</ele>
        <time>2013-09-14T11:11:55Z</time>
      </trkpt>
      <trkpt lat="43.59133" lon="1.45918">
        <ele>194.09999847412</ele>
        <time>2013-09-14T11:11:59Z</time>
      </trkpt>
      <trkpt lat="43.59145" lon="1.45905">
        <ele>194.99999491374</ele>
        <time>2013-09-14T11:12:02Z</time>
      </trkpt>
      <trkpt lat="43.59156" lon="1.45895">
        <ele>196</ele>
        <time>2013-09-14T11:12:05Z</time>
      </trkpt>
      <trkpt lat="43.59168" lon="1.45884">
        <ele>197.375</ele>
        <time>2013-09-14T11:12:09Z</time>
      </trkpt>
      <trkpt lat="43.5918" lon="1.45876">
        <ele>203.45000076294</ele>
        <time>2013-09-14T11:12:13Z</time>
      </trkpt>
      <trkpt lat="43.59188" lon="1.45868">
        <ele>206.16666666667</ele>
        <time>2013-09-14T11:12:16Z</time>
      </trkpt>
      <trkpt lat="43.592" lon="1.45854">
        <ele>203.79999923706</ele>
        <time>2013-09-14T11:12:20Z</time>
      </trkpt>
      <trkpt lat="43.59213" lon="1.45837">
        <ele>198.59999593099</ele>
        <time>2013-09-14T11:12:23Z</time>
      </trkpt>
      <trkpt lat="43.59226" lon="1.45823">
        <ele>198.17499923706</ele>
        <time>2013-09-14T11:12:27Z</time>
      </trkpt>
      <trkpt lat="43.5924" lon="1.45812">
        <ele>199.85000228882</ele>
        <time>2013-09-14T11:12:31Z</time>
      </trkpt>
      <trkpt lat="43.5925" lon="1.45803">
        <ele>203.45000076294</ele>
        <time>2013-09-14T11:12:35Z</time>
      </trkpt>
      <trkpt lat="43.59257" lon="1.45793">
        <ele>206</ele>
        <time>2013-09-14T11:12:38Z</time>
      </trkpt>
      <trkpt lat="43.59266" lon="1.45783">
        <ele>206.57500076294</ele>
        <time>2013-09-14T11:12:42Z</time>
      </trkpt>
      <trkpt lat="43.5928" lon="1.45777">
        <ele>206.125</ele>
        <time>2013-09-14T11:12:46Z</time>
      </trkpt>
      <trkpt lat="43.59295" lon="1.45766">
        <ele>207.70000076294</ele>
        <time>2013-09-14T11:12:50Z</time>
      </trkpt>
      <trkpt lat="43.59307" lon="1.45753">
        <ele>211.09999847412</ele>
        <time>2013-09-14T11:12:54Z</time>
      </trkpt>
      <trkpt lat="43.59317" lon="1.45747">
        <ele>216.16666666667</ele>
        <time>2013-09-14T11:12:57Z</time>
      </trkpt>
      <trkpt lat="43.59328" lon="1.45742">
        <ele>220.82499694824</ele>
        <time>2013-09-14T11:13:01Z</time>
      </trkpt>
      <trkpt lat="43.5934" lon="1.45729">
        <ele>213.26666259766</ele>
        <time>2013-09-14T11:13:04Z</time>
      </trkpt>
      <trkpt lat="43.59352" lon="1.45716">
        <ele>215.29999796549</ele>
        <time>2013-09-14T11:13:07Z</time>
      </trkpt>
      <trkpt lat="43.59365" lon="1.45706">
        <ele>218.92499923706</ele>
        <time>2013-09-14T11:13:11Z</time>
      </trkpt>
      <trkpt lat="43.59375" lon="1.45696">
        <ele>220.02500152588</ele>
        <time>2013-09-14T11:13:15Z</time>
      </trkpt>
      <trkpt lat="43.59381" lon="1.45686">
        <ele>219.55000305176</ele>
        <time>2013-09-14T11:13:19Z</time>
      </trkpt>
      <trkpt lat="43.59385" lon="1.4568">
        <ele>220.36666361491</ele>
        <time>2013-09-14T11:13:22Z</time>
      </trkpt>
      <trkpt lat="43.59388" lon="1.45679">
        <ele>221.06666564941</ele>
        <time>2013-09-14T11:13:25Z</time>
      </trkpt>
      <trkpt lat="43.5939" lon="1.45679">
        <ele>220.90000152588</ele>
        <time>2013-09-14T11:13:29Z</time>
      </trkpt>
      <trkpt lat="43.59395" lon="1.45679">
        <ele>222.90000406901</ele>
        <time>2013-09-14T11:13:32Z</time>
      </trkpt>
      <trkpt lat="43.59402" lon="1.45676">
        <ele>222.57500076294</ele>
        <time>2013-09-14T11:13:36Z</time>
      </trkpt>
      <trkpt lat="43.59405" lon="1.4567">
        <ele>221.94999694824</ele>
        <time>2013-09-14T11:13:40Z</time>
      </trkpt>
      <trkpt lat="43.59404" lon="1.45663">
        <ele>221.2499961853</ele>
        <time>2013-09-14T11:13:44Z</time>
      </trkpt>
      <trkpt lat="43.594" lon="1.4565">
        <ele>216.09999847412</ele>
        <time>2013-09-14T11:13:48Z</time>
      </trkpt>
      <trkpt lat="43.594" lon="1.4564">
        <ele>210.875</ele>
        <time>2013-09-14T11:13:52Z</time>
      </trkpt>
      <trkpt lat="43.59403" lon="1.45632">
        <ele>208.25</ele>
        <time>2013-09-14T11:13:56Z</time>
      </trkpt>
      <trkpt lat="43.59406" lon="1.45626">
        <ele>208.75</ele>
        <time>2013-09-14T11:14:00Z</time>
      </trkpt>
      <trkpt lat="43.59411" lon="1.45621">
        <ele>207.86666870117</ele>
        <time>2013-09-14T11:14:03Z</time>
      </trkpt>
      <trkpt lat="43.59413" lon="1.45618">
        <ele>205.06666564941</ele>
        <time>2013-09-14T11:14:06Z</time>
      </trkpt>
      <trkpt lat="43.59413" lon="1.45618">
        <ele>202.89999898275</ele>
        <time>2013-09-14T11:14:09Z</time>
      </trkpt>
      <trkpt lat="43.59413" lon="1.45617">
        <ele>201.90000152588</ele>
        <time>2013-09-14T11:14:13Z</time>
      </trkpt>
      <trkpt lat="43.59414" lon="1.45617">
        <ele>201.03333536784</ele>
        <time>2013-09-14T11:14:16Z</time>
      </trkpt>
      <trkpt lat="43.59415" lon="1.45617">
        <ele>201.92499923706</ele>
        <time>2013-09-14T11:14:20Z</time>
      </trkpt>
      <trkpt lat="43.59418" lon="1.45618">
        <ele>201.46666463216</ele>
        <time>2013-09-14T11:14:23Z</time>
      </trkpt>
      <trkpt lat="43.59423" lon="1.45618">
        <ele>201.20000203451</ele>
        <time>2013-09-14T11:14:27Z</time>
      </trkpt>
      <trkpt lat="43.5943" lon="1.45617">
        <ele>202.90000152588</ele>
        <time>2013-09-14T11:14:31Z</time>
      </trkpt>
      <trkpt lat="43.59441" lon="1.45618">
        <ele>205.27499771118</ele>
        <time>2013-09-14T11:14:36Z</time>
      </trkpt>
      <trkpt lat="43.59446" lon="1.45615">
        <ele>204.17500305176</ele>
        <time>2013-09-14T11:14:40Z</time>
      </trkpt>
      <trkpt lat="43.5945" lon="1.4561">
        <ele>203.79999796549</ele>
        <time>2013-09-14T11:14:43Z</time>
      </trkpt>
      <trkpt lat="43.59452" lon="1.45606">
        <ele>204.23333740234</ele>
        <time>2013-09-14T11:14:46Z</time>
      </trkpt>
      <trkpt lat="43.59454" lon="1.45603">
        <ele>204.57500076294</ele>
        <time>2013-09-14T11:14:50Z</time>
      </trkpt>
      <trkpt lat="43.59456" lon="1.456">
        <ele>205.25</ele>
        <time>2013-09-14T11:14:54Z</time>
      </trkpt>
      <trkpt lat="43.59457" lon="1.45597">
        <ele>207.27500152588</ele>
        <time>2013-09-14T11:14:58Z</time>
      </trkpt>
      <trkpt lat="43.59459" lon="1.45594">
        <ele>208.39999898275</ele>
        <time>2013-09-14T11:15:01Z</time>
      </trkpt>
      <trkpt lat="43.5946" lon="1.45593">
        <ele>208.63333129883</ele>
        <time>2013-09-14T11:15:04Z</time>
      </trkpt>
      <trkpt lat="43.59462" lon="1.45592">
        <ele>209.09999465942</ele>
        <time>2013-09-14T11:15:08Z</time>
      </trkpt>
      <trkpt lat="43.59465" lon="1.45592">
        <ele>208.33333333333</ele>
        <time>2013-09-14T11:15:11Z</time>
      </trkpt>
      <trkpt lat="43.59465" lon="1.45592">
        <ele>207.92499923706</ele>
        <time>2013-09-14T11:15:15Z</time>
      </trkpt>
      <trkpt lat="43.59467" lon="1.45591">
        <ele>208.19999694824</ele>
        <time>2013-09-14T11:15:18Z</time>
      </trkpt>
      <trkpt lat="43.5947" lon="1.4559">
        <ele>208.45000076294</ele>
        <time>2013-09-14T11:15:22Z</time>
      </trkpt>
      <trkpt lat="43.59472" lon="1.45587">
        <ele>207.92500305176</ele>
        <time>2013-09-14T11:15:26Z</time>
      </trkpt>
      <trkpt lat="43.59478" lon="1.45583">
        <ele>207.75</ele>
        <time>2013-09-14T11:15:30Z</time>
      </trkpt>
      <trkpt lat="43.59483" lon="1.45578">
        <ele>207</ele>
        <time>2013-09-14T11:15:34Z</time>
      </trkpt>
      <trkpt lat="43.59488" lon="1.45573">
        <ele>206.27500152588</ele>
        <time>2013-09-14T11:15:38Z</time>
      </trkpt>
      <trkpt lat="43.59489" lon="1.4557">
        <ele>206.16666666667</ele>
        <time>2013-09-14T11:15:41Z</time>
      </trkpt>
      <trkpt lat="43.59488" lon="1.45568">
        <ele>205.20000457764</ele>
        <time>2013-09-14T11:15:45Z</time>
      </trkpt>
    </trkseg>
  </trk>
</gpx>